<?xml version="1.0" encoding="UTF-8" standalone="no" ?>
<gpx xmlns="http://www.topografix.com/GPX/1/1" xmlns:xsi="http://www.w3.org/2001/XMLSchema-instance" xsi:schemaLocation="http://www.topografix.com/GPX/1/1 http://www.topografix.com/GPX/1/1/gpx.xsd" version="1.1" creator="VisuGPX - https://www.visugpx.com">
  <metadata>
    <name>ski de rando Pas de la Fenetre</name>
    <desc><![CDATA[
]]></desc>
  </metadata>
  <trk>
    <name><![CDATA[ski de rando Pas de la Fenetre]]></name>
    <trkseg>
      <trkpt lat="45.3342" lon="6.17113">
        <ele>1941</ele>
        <time>2012-02-12T09:19:17.000Z</time>
      </trkpt>
      <trkpt lat="45.3342" lon="6.17112">
        <ele>1941</ele>
        <time>2012-02-12T09:19:18.000Z</time>
      </trkpt>
      <trkpt lat="45.33408" lon="6.17122">
        <ele>1935.1999511719</ele>
        <time>2012-02-12T09:30:50.000Z</time>
      </trkpt>
      <trkpt lat="45.33408" lon="6.17123">
        <ele>1935.4000244141</ele>
        <time>2012-02-12T09:30:51.000Z</time>
      </trkpt>
      <trkpt lat="45.33414" lon="6.17124">
        <ele>1935.5999755859</ele>
        <time>2012-02-12T09:31:04.000Z</time>
      </trkpt>
      <trkpt lat="45.3342" lon="6.17116">
        <ele>1935.4000244141</ele>
        <time>2012-02-12T09:31:32.000Z</time>
      </trkpt>
      <trkpt lat="45.33427" lon="6.17099">
        <ele>1931.5999755859</ele>
        <time>2012-02-12T09:31:56.000Z</time>
      </trkpt>
      <trkpt lat="45.3343" lon="6.17095">
        <ele>1932</ele>
        <time>2012-02-12T09:32:08.000Z</time>
      </trkpt>
      <trkpt lat="45.33432" lon="6.17089">
        <ele>1970.5999755859</ele>
        <time>2012-02-12T09:32:12.000Z</time>
      </trkpt>
      <trkpt lat="45.33434" lon="6.17086">
        <ele>1970.4000244141</ele>
        <time>2012-02-12T09:32:13.000Z</time>
      </trkpt>
      <trkpt lat="45.33441" lon="6.17053">
        <ele>1969.5999755859</ele>
        <time>2012-02-12T09:32:44.000Z</time>
      </trkpt>
      <trkpt lat="45.3344" lon="6.17053">
        <ele>1968.5999755859</ele>
        <time>2012-02-12T09:32:46.000Z</time>
      </trkpt>
      <trkpt lat="45.33439" lon="6.17053">
        <ele>1968.5999755859</ele>
        <time>2012-02-12T09:32:47.000Z</time>
      </trkpt>
      <trkpt lat="45.33427" lon="6.17046">
        <ele>1966.5999755859</ele>
        <time>2012-02-12T09:32:57.000Z</time>
      </trkpt>
      <trkpt lat="45.33422" lon="6.17041">
        <ele>1965.4000244141</ele>
        <time>2012-02-12T09:33:04.000Z</time>
      </trkpt>
      <trkpt lat="45.33421" lon="6.17039">
        <ele>1965.4000244141</ele>
        <time>2012-02-12T09:33:10.000Z</time>
      </trkpt>
      <trkpt lat="45.33419" lon="6.17039">
        <ele>1965.1999511719</ele>
        <time>2012-02-12T09:33:12.000Z</time>
      </trkpt>
      <trkpt lat="45.33412" lon="6.17037">
        <ele>1963.5999755859</ele>
        <time>2012-02-12T09:33:20.000Z</time>
      </trkpt>
      <trkpt lat="45.33405" lon="6.17033">
        <ele>1962.8000488281</ele>
        <time>2012-02-12T09:33:28.000Z</time>
      </trkpt>
      <trkpt lat="45.33402" lon="6.17029">
        <ele>1962.5999755859</ele>
        <time>2012-02-12T09:33:35.000Z</time>
      </trkpt>
      <trkpt lat="45.33402" lon="6.17029">
        <ele>1960.1999511719</ele>
        <time>2012-02-12T09:33:37.000Z</time>
      </trkpt>
      <trkpt lat="45.33402" lon="6.17026">
        <ele>1962.8000488281</ele>
        <time>2012-02-12T09:33:40.000Z</time>
      </trkpt>
      <trkpt lat="45.33402" lon="6.17017">
        <ele>1962</ele>
        <time>2012-02-12T09:33:45.000Z</time>
      </trkpt>
      <trkpt lat="45.33408" lon="6.16998">
        <ele>1959.8000488281</ele>
        <time>2012-02-12T09:33:51.000Z</time>
      </trkpt>
      <trkpt lat="45.33417" lon="6.16973">
        <ele>1956.8000488281</ele>
        <time>2012-02-12T09:33:56.000Z</time>
      </trkpt>
      <trkpt lat="45.33422" lon="6.16946">
        <ele>1953.1999511719</ele>
        <time>2012-02-12T09:33:59.000Z</time>
      </trkpt>
      <trkpt lat="45.33427" lon="6.16917">
        <ele>1948.1999511719</ele>
        <time>2012-02-12T09:34:03.000Z</time>
      </trkpt>
      <trkpt lat="45.33432" lon="6.16896">
        <ele>1946.5999755859</ele>
        <time>2012-02-12T09:34:09.000Z</time>
      </trkpt>
      <trkpt lat="45.33435" lon="6.16879">
        <ele>1946</ele>
        <time>2012-02-12T09:34:16.000Z</time>
      </trkpt>
      <trkpt lat="45.33447" lon="6.16855">
        <ele>1944.1999511719</ele>
        <time>2012-02-12T09:34:24.000Z</time>
      </trkpt>
      <trkpt lat="45.33457" lon="6.16833">
        <ele>1941.4000244141</ele>
        <time>2012-02-12T09:34:29.000Z</time>
      </trkpt>
      <trkpt lat="45.33464" lon="6.16814">
        <ele>1939.1999511719</ele>
        <time>2012-02-12T09:34:33.000Z</time>
      </trkpt>
      <trkpt lat="45.33473" lon="6.16798">
        <ele>1937.4000244141</ele>
        <time>2012-02-12T09:34:37.000Z</time>
      </trkpt>
      <trkpt lat="45.33474" lon="6.16796">
        <ele>1937.1999511719</ele>
        <time>2012-02-12T09:34:42.000Z</time>
      </trkpt>
      <trkpt lat="45.3347" lon="6.16794">
        <ele>1934.1999511719</ele>
        <time>2012-02-12T09:35:33.000Z</time>
      </trkpt>
      <trkpt lat="45.33463" lon="6.16792">
        <ele>1931.5999755859</ele>
        <time>2012-02-12T09:35:37.000Z</time>
      </trkpt>
      <trkpt lat="45.33456" lon="6.16788">
        <ele>1927</ele>
        <time>2012-02-12T09:35:42.000Z</time>
      </trkpt>
      <trkpt lat="45.33457" lon="6.16785">
        <ele>1926.5999755859</ele>
        <time>2012-02-12T09:35:43.000Z</time>
      </trkpt>
      <trkpt lat="45.33462" lon="6.16769">
        <ele>1922.1999511719</ele>
        <time>2012-02-12T09:35:48.000Z</time>
      </trkpt>
      <trkpt lat="45.33463" lon="6.16763">
        <ele>1920.1999511719</ele>
        <time>2012-02-12T09:35:52.000Z</time>
      </trkpt>
      <trkpt lat="45.33465" lon="6.16755">
        <ele>1918.5999755859</ele>
        <time>2012-02-12T09:35:55.000Z</time>
      </trkpt>
      <trkpt lat="45.33462" lon="6.1675">
        <ele>1914.5999755859</ele>
        <time>2012-02-12T09:35:59.000Z</time>
      </trkpt>
      <trkpt lat="45.3346" lon="6.16746">
        <ele>1910.1999511719</ele>
        <time>2012-02-12T09:36:02.000Z</time>
      </trkpt>
      <trkpt lat="45.33465" lon="6.16745">
        <ele>1905</ele>
        <time>2012-02-12T09:36:05.000Z</time>
      </trkpt>
      <trkpt lat="45.33466" lon="6.16735">
        <ele>1901.4000244141</ele>
        <time>2012-02-12T09:36:09.000Z</time>
      </trkpt>
      <trkpt lat="45.33459" lon="6.16712">
        <ele>1896.8000488281</ele>
        <time>2012-02-12T09:36:13.000Z</time>
      </trkpt>
      <trkpt lat="45.33447" lon="6.16667">
        <ele>1893.1999511719</ele>
        <time>2012-02-12T09:36:16.000Z</time>
      </trkpt>
      <trkpt lat="45.33451" lon="6.16649">
        <ele>1889.8000488281</ele>
        <time>2012-02-12T09:36:20.000Z</time>
      </trkpt>
      <trkpt lat="45.33455" lon="6.16647">
        <ele>1889</ele>
        <time>2012-02-12T09:36:31.000Z</time>
      </trkpt>
      <trkpt lat="45.33457" lon="6.16642">
        <ele>1881</ele>
        <time>2012-02-12T09:36:44.000Z</time>
      </trkpt>
      <trkpt lat="45.33457" lon="6.16641">
        <ele>1888.5999755859</ele>
        <time>2012-02-12T09:36:51.000Z</time>
      </trkpt>
      <trkpt lat="45.33459" lon="6.16638">
        <ele>1887.5999755859</ele>
        <time>2012-02-12T09:37:20.000Z</time>
      </trkpt>
      <trkpt lat="45.33462" lon="6.16628">
        <ele>1886.4000244141</ele>
        <time>2012-02-12T09:37:24.000Z</time>
      </trkpt>
      <trkpt lat="45.33477" lon="6.16598">
        <ele>1882.1999511719</ele>
        <time>2012-02-12T09:37:31.000Z</time>
      </trkpt>
      <trkpt lat="45.33478" lon="6.16595">
        <ele>1882</ele>
        <time>2012-02-12T09:37:32.000Z</time>
      </trkpt>
      <trkpt lat="45.33486" lon="6.16566">
        <ele>1880</ele>
        <time>2012-02-12T09:37:40.000Z</time>
      </trkpt>
      <trkpt lat="45.33491" lon="6.16539">
        <ele>1876.8000488281</ele>
        <time>2012-02-12T09:37:46.000Z</time>
      </trkpt>
      <trkpt lat="45.33493" lon="6.16532">
        <ele>1875.8000488281</ele>
        <time>2012-02-12T09:37:49.000Z</time>
      </trkpt>
      <trkpt lat="45.33494" lon="6.16527">
        <ele>1874.4000244141</ele>
        <time>2012-02-12T09:37:59.000Z</time>
      </trkpt>
      <trkpt lat="45.33493" lon="6.16527">
        <ele>1872.8000488281</ele>
        <time>2012-02-12T09:38:02.000Z</time>
      </trkpt>
      <trkpt lat="45.33494" lon="6.16525">
        <ele>1875.8000488281</ele>
        <time>2012-02-12T09:38:07.000Z</time>
      </trkpt>
      <trkpt lat="45.33495" lon="6.16513">
        <ele>1874.4000244141</ele>
        <time>2012-02-12T09:38:12.000Z</time>
      </trkpt>
      <trkpt lat="45.33495" lon="6.16508">
        <ele>1874</ele>
        <time>2012-02-12T09:38:13.000Z</time>
      </trkpt>
      <trkpt lat="45.33501" lon="6.16486">
        <ele>1871.8000488281</ele>
        <time>2012-02-12T09:38:17.000Z</time>
      </trkpt>
      <trkpt lat="45.33507" lon="6.16475">
        <ele>1870.8000488281</ele>
        <time>2012-02-12T09:38:22.000Z</time>
      </trkpt>
      <trkpt lat="45.33509" lon="6.16465">
        <ele>1871.4000244141</ele>
        <time>2012-02-12T09:38:29.000Z</time>
      </trkpt>
      <trkpt lat="45.3351" lon="6.16443">
        <ele>1869.5999755859</ele>
        <time>2012-02-12T09:38:33.000Z</time>
      </trkpt>
      <trkpt lat="45.33512" lon="6.16426">
        <ele>1867.4000244141</ele>
        <time>2012-02-12T09:38:37.000Z</time>
      </trkpt>
      <trkpt lat="45.33518" lon="6.16402">
        <ele>1866.1999511719</ele>
        <time>2012-02-12T09:38:44.000Z</time>
      </trkpt>
      <trkpt lat="45.33529" lon="6.16374">
        <ele>1864.4000244141</ele>
        <time>2012-02-12T09:38:50.000Z</time>
      </trkpt>
      <trkpt lat="45.33532" lon="6.16368">
        <ele>1863.5999755859</ele>
        <time>2012-02-12T09:38:51.000Z</time>
      </trkpt>
      <trkpt lat="45.33557" lon="6.1633">
        <ele>1860</ele>
        <time>2012-02-12T09:38:58.000Z</time>
      </trkpt>
      <trkpt lat="45.3359" lon="6.1629">
        <ele>1855.5999755859</ele>
        <time>2012-02-12T09:39:07.000Z</time>
      </trkpt>
      <trkpt lat="45.3362" lon="6.16255">
        <ele>1851.5999755859</ele>
        <time>2012-02-12T09:39:16.000Z</time>
      </trkpt>
      <trkpt lat="45.33632" lon="6.16243">
        <ele>1850.8000488281</ele>
        <time>2012-02-12T09:39:21.000Z</time>
      </trkpt>
      <trkpt lat="45.33644" lon="6.16235">
        <ele>1850</ele>
        <time>2012-02-12T09:39:27.000Z</time>
      </trkpt>
      <trkpt lat="45.33664" lon="6.16231">
        <ele>1848</ele>
        <time>2012-02-12T09:39:33.000Z</time>
      </trkpt>
      <trkpt lat="45.3369" lon="6.16229">
        <ele>1844</ele>
        <time>2012-02-12T09:39:40.000Z</time>
      </trkpt>
      <trkpt lat="45.33702" lon="6.16232">
        <ele>1842</ele>
        <time>2012-02-12T09:39:44.000Z</time>
      </trkpt>
      <trkpt lat="45.33702" lon="6.16234">
        <ele>1841.4000244141</ele>
        <time>2012-02-12T09:39:50.000Z</time>
      </trkpt>
      <trkpt lat="45.33705" lon="6.16243">
        <ele>1841.1999511719</ele>
        <time>2012-02-12T09:41:14.000Z</time>
      </trkpt>
      <trkpt lat="45.33706" lon="6.16251">
        <ele>1840</ele>
        <time>2012-02-12T09:41:20.000Z</time>
      </trkpt>
      <trkpt lat="45.33708" lon="6.16258">
        <ele>1839.5999755859</ele>
        <time>2012-02-12T09:41:32.000Z</time>
      </trkpt>
      <trkpt lat="45.33714" lon="6.16272">
        <ele>1837.8000488281</ele>
        <time>2012-02-12T09:41:36.000Z</time>
      </trkpt>
      <trkpt lat="45.33722" lon="6.16267">
        <ele>1834.5999755859</ele>
        <time>2012-02-12T09:41:40.000Z</time>
      </trkpt>
      <trkpt lat="45.33727" lon="6.16264">
        <ele>1832.5999755859</ele>
        <time>2012-02-12T09:41:42.000Z</time>
      </trkpt>
      <trkpt lat="45.33738" lon="6.16251">
        <ele>1826.5999755859</ele>
        <time>2012-02-12T09:41:46.000Z</time>
      </trkpt>
      <trkpt lat="45.3375" lon="6.16242">
        <ele>1818</ele>
        <time>2012-02-12T09:41:50.000Z</time>
      </trkpt>
      <trkpt lat="45.33763" lon="6.16242">
        <ele>1814</ele>
        <time>2012-02-12T09:41:53.000Z</time>
      </trkpt>
      <trkpt lat="45.3378" lon="6.16235">
        <ele>1810.1999511719</ele>
        <time>2012-02-12T09:41:56.000Z</time>
      </trkpt>
      <trkpt lat="45.33785" lon="6.16233">
        <ele>1808.8000488281</ele>
        <time>2012-02-12T09:41:57.000Z</time>
      </trkpt>
      <trkpt lat="45.33826" lon="6.16204">
        <ele>1796</ele>
        <time>2012-02-12T09:42:05.000Z</time>
      </trkpt>
      <trkpt lat="45.33856" lon="6.16199">
        <ele>1791</ele>
        <time>2012-02-12T09:42:09.000Z</time>
      </trkpt>
      <trkpt lat="45.33891" lon="6.16202">
        <ele>1786.4000244141</ele>
        <time>2012-02-12T09:42:14.000Z</time>
      </trkpt>
      <trkpt lat="45.33912" lon="6.1621">
        <ele>1782.1999511719</ele>
        <time>2012-02-12T09:42:19.000Z</time>
      </trkpt>
      <trkpt lat="45.33912" lon="6.1621">
        <ele>1782.4000244141</ele>
        <time>2012-02-12T09:42:24.000Z</time>
      </trkpt>
      <trkpt lat="45.33907" lon="6.16211">
        <ele>1776.4000244141</ele>
        <time>2012-02-12T09:42:58.000Z</time>
      </trkpt>
      <trkpt lat="45.33907" lon="6.16211">
        <ele>1781.5999755859</ele>
        <time>2012-02-12T09:43:03.000Z</time>
      </trkpt>
      <trkpt lat="45.33909" lon="6.16211">
        <ele>1781.5999755859</ele>
        <time>2012-02-12T09:43:17.000Z</time>
      </trkpt>
      <trkpt lat="45.33911" lon="6.16217">
        <ele>1779.1999511719</ele>
        <time>2012-02-12T09:46:42.000Z</time>
      </trkpt>
      <trkpt lat="45.33912" lon="6.1621">
        <ele>1781</ele>
        <time>2012-02-12T09:46:58.000Z</time>
      </trkpt>
      <trkpt lat="45.33911" lon="6.16208">
        <ele>1779.1999511719</ele>
        <time>2012-02-12T09:47:03.000Z</time>
      </trkpt>
      <trkpt lat="45.33911" lon="6.16206">
        <ele>1780.8000488281</ele>
        <time>2012-02-12T09:48:01.000Z</time>
      </trkpt>
      <trkpt lat="45.3391" lon="6.16207">
        <ele>1778.5999755859</ele>
        <time>2012-02-12T09:48:05.000Z</time>
      </trkpt>
      <trkpt lat="45.33909" lon="6.16208">
        <ele>1779.1999511719</ele>
        <time>2012-02-12T09:48:10.000Z</time>
      </trkpt>
      <trkpt lat="45.3391" lon="6.1621">
        <ele>1779.5999755859</ele>
        <time>2012-02-12T09:48:12.000Z</time>
      </trkpt>
      <trkpt lat="45.33916" lon="6.16215">
        <ele>1780.1999511719</ele>
        <time>2012-02-12T09:48:19.000Z</time>
      </trkpt>
      <trkpt lat="45.33917" lon="6.1622">
        <ele>1780</ele>
        <time>2012-02-12T09:49:48.000Z</time>
      </trkpt>
      <trkpt lat="45.3392" lon="6.16223">
        <ele>1780</ele>
        <time>2012-02-12T09:50:51.000Z</time>
      </trkpt>
      <trkpt lat="45.33926" lon="6.16222">
        <ele>1780.1999511719</ele>
        <time>2012-02-12T09:52:02.000Z</time>
      </trkpt>
      <trkpt lat="45.33931" lon="6.16225">
        <ele>1780</ele>
        <time>2012-02-12T09:52:08.000Z</time>
      </trkpt>
      <trkpt lat="45.33938" lon="6.1623">
        <ele>1780.1999511719</ele>
        <time>2012-02-12T09:52:17.000Z</time>
      </trkpt>
      <trkpt lat="45.33944" lon="6.16233">
        <ele>1779.8000488281</ele>
        <time>2012-02-12T09:52:24.000Z</time>
      </trkpt>
      <trkpt lat="45.33951" lon="6.16236">
        <ele>1778.8000488281</ele>
        <time>2012-02-12T09:52:31.000Z</time>
      </trkpt>
      <trkpt lat="45.33958" lon="6.16239">
        <ele>1778.1999511719</ele>
        <time>2012-02-12T09:52:39.000Z</time>
      </trkpt>
      <trkpt lat="45.33965" lon="6.16242">
        <ele>1780.1999511719</ele>
        <time>2012-02-12T09:52:47.000Z</time>
      </trkpt>
      <trkpt lat="45.33973" lon="6.16243">
        <ele>1781</ele>
        <time>2012-02-12T09:52:55.000Z</time>
      </trkpt>
      <trkpt lat="45.3398" lon="6.16244">
        <ele>1782</ele>
        <time>2012-02-12T09:53:01.000Z</time>
      </trkpt>
      <trkpt lat="45.33982" lon="6.16245">
        <ele>1783.4000244141</ele>
        <time>2012-02-12T09:53:04.000Z</time>
      </trkpt>
      <trkpt lat="45.33982" lon="6.16245">
        <ele>1783.8000488281</ele>
        <time>2012-02-12T09:53:05.000Z</time>
      </trkpt>
      <trkpt lat="45.33985" lon="6.16247">
        <ele>1783.5999755859</ele>
        <time>2012-02-12T09:53:09.000Z</time>
      </trkpt>
      <trkpt lat="45.33993" lon="6.1625">
        <ele>1784.8000488281</ele>
        <time>2012-02-12T09:53:17.000Z</time>
      </trkpt>
      <trkpt lat="45.33994" lon="6.1625">
        <ele>1785.5999755859</ele>
        <time>2012-02-12T09:53:20.000Z</time>
      </trkpt>
      <trkpt lat="45.33999" lon="6.16256">
        <ele>1786.8000488281</ele>
        <time>2012-02-12T09:53:28.000Z</time>
      </trkpt>
      <trkpt lat="45.33999" lon="6.16257">
        <ele>1787</ele>
        <time>2012-02-12T09:53:29.000Z</time>
      </trkpt>
      <trkpt lat="45.34004" lon="6.16264">
        <ele>1786.8000488281</ele>
        <time>2012-02-12T09:53:36.000Z</time>
      </trkpt>
      <trkpt lat="45.34006" lon="6.16266">
        <ele>1787</ele>
        <time>2012-02-12T09:53:39.000Z</time>
      </trkpt>
      <trkpt lat="45.34014" lon="6.16274">
        <ele>1786.8000488281</ele>
        <time>2012-02-12T09:53:50.000Z</time>
      </trkpt>
      <trkpt lat="45.34018" lon="6.16279">
        <ele>1785.8000488281</ele>
        <time>2012-02-12T09:53:58.000Z</time>
      </trkpt>
      <trkpt lat="45.34017" lon="6.16278">
        <ele>1785.8000488281</ele>
        <time>2012-02-12T09:54:04.000Z</time>
      </trkpt>
      <trkpt lat="45.34023" lon="6.16264">
        <ele>1781.8000488281</ele>
        <time>2012-02-12T09:54:09.000Z</time>
      </trkpt>
      <trkpt lat="45.34024" lon="6.16258">
        <ele>1780</ele>
        <time>2012-02-12T09:54:12.000Z</time>
      </trkpt>
      <trkpt lat="45.34024" lon="6.16257">
        <ele>1778.5999755859</ele>
        <time>2012-02-12T09:54:17.000Z</time>
      </trkpt>
      <trkpt lat="45.34029" lon="6.16259">
        <ele>1778.1999511719</ele>
        <time>2012-02-12T09:54:20.000Z</time>
      </trkpt>
      <trkpt lat="45.34033" lon="6.16261">
        <ele>1777.8000488281</ele>
        <time>2012-02-12T09:54:24.000Z</time>
      </trkpt>
      <trkpt lat="45.34032" lon="6.16259">
        <ele>1772.8000488281</ele>
        <time>2012-02-12T09:54:29.000Z</time>
      </trkpt>
      <trkpt lat="45.34034" lon="6.16262">
        <ele>1773</ele>
        <time>2012-02-12T09:54:40.000Z</time>
      </trkpt>
      <trkpt lat="45.34041" lon="6.16267">
        <ele>1772.8000488281</ele>
        <time>2012-02-12T09:54:48.000Z</time>
      </trkpt>
      <trkpt lat="45.34044" lon="6.16268">
        <ele>1773.1999511719</ele>
        <time>2012-02-12T09:54:52.000Z</time>
      </trkpt>
      <trkpt lat="45.34045" lon="6.16269">
        <ele>1772.5999755859</ele>
        <time>2012-02-12T09:54:57.000Z</time>
      </trkpt>
      <trkpt lat="45.34051" lon="6.16271">
        <ele>1773.4000244141</ele>
        <time>2012-02-12T09:55:14.000Z</time>
      </trkpt>
      <trkpt lat="45.34053" lon="6.16271">
        <ele>1773.8000488281</ele>
        <time>2012-02-12T09:55:16.000Z</time>
      </trkpt>
      <trkpt lat="45.34055" lon="6.16273">
        <ele>1774</ele>
        <time>2012-02-12T09:55:18.000Z</time>
      </trkpt>
      <trkpt lat="45.34059" lon="6.16275">
        <ele>1773.8000488281</ele>
        <time>2012-02-12T09:55:25.000Z</time>
      </trkpt>
      <trkpt lat="45.34058" lon="6.16274">
        <ele>1774.1999511719</ele>
        <time>2012-02-12T09:56:01.000Z</time>
      </trkpt>
      <trkpt lat="45.3406" lon="6.16276">
        <ele>1774.8000488281</ele>
        <time>2012-02-12T09:56:04.000Z</time>
      </trkpt>
      <trkpt lat="45.34067" lon="6.1628">
        <ele>1776.1999511719</ele>
        <time>2012-02-12T09:56:13.000Z</time>
      </trkpt>
      <trkpt lat="45.34074" lon="6.16283">
        <ele>1777.5999755859</ele>
        <time>2012-02-12T09:56:20.000Z</time>
      </trkpt>
      <trkpt lat="45.3408" lon="6.16286">
        <ele>1778</ele>
        <time>2012-02-12T09:56:26.000Z</time>
      </trkpt>
      <trkpt lat="45.34081" lon="6.16287">
        <ele>1778.1999511719</ele>
        <time>2012-02-12T09:56:28.000Z</time>
      </trkpt>
      <trkpt lat="45.34082" lon="6.16287">
        <ele>1778.5999755859</ele>
        <time>2012-02-12T09:56:30.000Z</time>
      </trkpt>
      <trkpt lat="45.34086" lon="6.1629">
        <ele>1779.4000244141</ele>
        <time>2012-02-12T09:56:35.000Z</time>
      </trkpt>
      <trkpt lat="45.3409" lon="6.16292">
        <ele>1779.8000488281</ele>
        <time>2012-02-12T09:56:41.000Z</time>
      </trkpt>
      <trkpt lat="45.34094" lon="6.16296">
        <ele>1780.4000244141</ele>
        <time>2012-02-12T09:56:50.000Z</time>
      </trkpt>
      <trkpt lat="45.34103" lon="6.16301">
        <ele>1780.8000488281</ele>
        <time>2012-02-12T09:56:59.000Z</time>
      </trkpt>
      <trkpt lat="45.3411" lon="6.16305">
        <ele>1781.8000488281</ele>
        <time>2012-02-12T09:57:06.000Z</time>
      </trkpt>
      <trkpt lat="45.34111" lon="6.16307">
        <ele>1781.8000488281</ele>
        <time>2012-02-12T09:57:08.000Z</time>
      </trkpt>
      <trkpt lat="45.34112" lon="6.16308">
        <ele>1782.4000244141</ele>
        <time>2012-02-12T09:57:10.000Z</time>
      </trkpt>
      <trkpt lat="45.34114" lon="6.16309">
        <ele>1782.8000488281</ele>
        <time>2012-02-12T09:57:13.000Z</time>
      </trkpt>
      <trkpt lat="45.34119" lon="6.16313">
        <ele>1784.1999511719</ele>
        <time>2012-02-12T09:57:20.000Z</time>
      </trkpt>
      <trkpt lat="45.34123" lon="6.16317">
        <ele>1783.8000488281</ele>
        <time>2012-02-12T09:57:27.000Z</time>
      </trkpt>
      <trkpt lat="45.3413" lon="6.16319">
        <ele>1786</ele>
        <time>2012-02-12T09:57:34.000Z</time>
      </trkpt>
      <trkpt lat="45.34134" lon="6.16322">
        <ele>1786.5999755859</ele>
        <time>2012-02-12T09:57:41.000Z</time>
      </trkpt>
      <trkpt lat="45.34139" lon="6.16325">
        <ele>1787.1999511719</ele>
        <time>2012-02-12T09:57:47.000Z</time>
      </trkpt>
      <trkpt lat="45.34142" lon="6.16328">
        <ele>1788</ele>
        <time>2012-02-12T09:57:53.000Z</time>
      </trkpt>
      <trkpt lat="45.34145" lon="6.1633">
        <ele>1788.4000244141</ele>
        <time>2012-02-12T09:57:58.000Z</time>
      </trkpt>
      <trkpt lat="45.34149" lon="6.16333">
        <ele>1789</ele>
        <time>2012-02-12T09:58:03.000Z</time>
      </trkpt>
      <trkpt lat="45.34153" lon="6.16337">
        <ele>1790.1999511719</ele>
        <time>2012-02-12T09:58:09.000Z</time>
      </trkpt>
      <trkpt lat="45.34158" lon="6.16341">
        <ele>1790.8000488281</ele>
        <time>2012-02-12T09:58:17.000Z</time>
      </trkpt>
      <trkpt lat="45.34162" lon="6.16344">
        <ele>1791</ele>
        <time>2012-02-12T09:58:24.000Z</time>
      </trkpt>
      <trkpt lat="45.34167" lon="6.16349">
        <ele>1791.8000488281</ele>
        <time>2012-02-12T09:58:32.000Z</time>
      </trkpt>
      <trkpt lat="45.34172" lon="6.16352">
        <ele>1793.1999511719</ele>
        <time>2012-02-12T09:58:40.000Z</time>
      </trkpt>
      <trkpt lat="45.34177" lon="6.16355">
        <ele>1794.8000488281</ele>
        <time>2012-02-12T09:58:49.000Z</time>
      </trkpt>
      <trkpt lat="45.34182" lon="6.16358">
        <ele>1795.5999755859</ele>
        <time>2012-02-12T09:58:56.000Z</time>
      </trkpt>
      <trkpt lat="45.34185" lon="6.16359">
        <ele>1796.8000488281</ele>
        <time>2012-02-12T09:59:01.000Z</time>
      </trkpt>
      <trkpt lat="45.34187" lon="6.16359">
        <ele>1797.1999511719</ele>
        <time>2012-02-12T09:59:03.000Z</time>
      </trkpt>
      <trkpt lat="45.34187" lon="6.16361">
        <ele>1797.5999755859</ele>
        <time>2012-02-12T09:59:05.000Z</time>
      </trkpt>
      <trkpt lat="45.34193" lon="6.16365">
        <ele>1798.1999511719</ele>
        <time>2012-02-12T09:59:13.000Z</time>
      </trkpt>
      <trkpt lat="45.34198" lon="6.16367">
        <ele>1798.4000244141</ele>
        <time>2012-02-12T09:59:19.000Z</time>
      </trkpt>
      <trkpt lat="45.34203" lon="6.1637">
        <ele>1800.4000244141</ele>
        <time>2012-02-12T09:59:26.000Z</time>
      </trkpt>
      <trkpt lat="45.34209" lon="6.16375">
        <ele>1800.4000244141</ele>
        <time>2012-02-12T09:59:33.000Z</time>
      </trkpt>
      <trkpt lat="45.34213" lon="6.16381">
        <ele>1799.8000488281</ele>
        <time>2012-02-12T09:59:39.000Z</time>
      </trkpt>
      <trkpt lat="45.34215" lon="6.16383">
        <ele>1800.4000244141</ele>
        <time>2012-02-12T09:59:42.000Z</time>
      </trkpt>
      <trkpt lat="45.3422" lon="6.16387">
        <ele>1800.8000488281</ele>
        <time>2012-02-12T09:59:49.000Z</time>
      </trkpt>
      <trkpt lat="45.34223" lon="6.1639">
        <ele>1802.1999511719</ele>
        <time>2012-02-12T09:59:54.000Z</time>
      </trkpt>
      <trkpt lat="45.34229" lon="6.16394">
        <ele>1801.8000488281</ele>
        <time>2012-02-12T10:00:02.000Z</time>
      </trkpt>
      <trkpt lat="45.34234" lon="6.164">
        <ele>1804</ele>
        <time>2012-02-12T10:00:11.000Z</time>
      </trkpt>
      <trkpt lat="45.34238" lon="6.16402">
        <ele>1805</ele>
        <time>2012-02-12T10:00:17.000Z</time>
      </trkpt>
      <trkpt lat="45.3424" lon="6.16403">
        <ele>1805</ele>
        <time>2012-02-12T10:00:19.000Z</time>
      </trkpt>
      <trkpt lat="45.34247" lon="6.16405">
        <ele>1807</ele>
        <time>2012-02-12T10:00:26.000Z</time>
      </trkpt>
      <trkpt lat="45.34253" lon="6.16408">
        <ele>1807</ele>
        <time>2012-02-12T10:00:33.000Z</time>
      </trkpt>
      <trkpt lat="45.34259" lon="6.16412">
        <ele>1808.8000488281</ele>
        <time>2012-02-12T10:00:41.000Z</time>
      </trkpt>
      <trkpt lat="45.34263" lon="6.16415">
        <ele>1810.1999511719</ele>
        <time>2012-02-12T10:00:46.000Z</time>
      </trkpt>
      <trkpt lat="45.34266" lon="6.16419">
        <ele>1809.1999511719</ele>
        <time>2012-02-12T10:00:52.000Z</time>
      </trkpt>
      <trkpt lat="45.34271" lon="6.16424">
        <ele>1809.8000488281</ele>
        <time>2012-02-12T10:01:00.000Z</time>
      </trkpt>
      <trkpt lat="45.34276" lon="6.16428">
        <ele>1810.5999755859</ele>
        <time>2012-02-12T10:01:07.000Z</time>
      </trkpt>
      <trkpt lat="45.3428" lon="6.16434">
        <ele>1811</ele>
        <time>2012-02-12T10:01:14.000Z</time>
      </trkpt>
      <trkpt lat="45.34282" lon="6.16435">
        <ele>1811.4000244141</ele>
        <time>2012-02-12T10:01:16.000Z</time>
      </trkpt>
      <trkpt lat="45.34289" lon="6.16438">
        <ele>1812</ele>
        <time>2012-02-12T10:01:24.000Z</time>
      </trkpt>
      <trkpt lat="45.34295" lon="6.16441">
        <ele>1813.8000488281</ele>
        <time>2012-02-12T10:01:32.000Z</time>
      </trkpt>
      <trkpt lat="45.34298" lon="6.16443">
        <ele>1814</ele>
        <time>2012-02-12T10:01:39.000Z</time>
      </trkpt>
      <trkpt lat="45.34299" lon="6.16444">
        <ele>1814.4000244141</ele>
        <time>2012-02-12T10:01:47.000Z</time>
      </trkpt>
      <trkpt lat="45.34301" lon="6.16444">
        <ele>1815</ele>
        <time>2012-02-12T10:01:52.000Z</time>
      </trkpt>
      <trkpt lat="45.34308" lon="6.16448">
        <ele>1816.4000244141</ele>
        <time>2012-02-12T10:02:02.000Z</time>
      </trkpt>
      <trkpt lat="45.34314" lon="6.16449">
        <ele>1816.4000244141</ele>
        <time>2012-02-12T10:02:09.000Z</time>
      </trkpt>
      <trkpt lat="45.34319" lon="6.16451">
        <ele>1817.8000488281</ele>
        <time>2012-02-12T10:02:17.000Z</time>
      </trkpt>
      <trkpt lat="45.34324" lon="6.16453">
        <ele>1819</ele>
        <time>2012-02-12T10:02:23.000Z</time>
      </trkpt>
      <trkpt lat="45.34331" lon="6.16455">
        <ele>1819.4000244141</ele>
        <time>2012-02-12T10:02:32.000Z</time>
      </trkpt>
      <trkpt lat="45.34335" lon="6.16459">
        <ele>1821.5999755859</ele>
        <time>2012-02-12T10:02:39.000Z</time>
      </trkpt>
      <trkpt lat="45.34339" lon="6.16464">
        <ele>1823</ele>
        <time>2012-02-12T10:02:48.000Z</time>
      </trkpt>
      <trkpt lat="45.3434" lon="6.16468">
        <ele>1822.5999755859</ele>
        <time>2012-02-12T10:03:07.000Z</time>
      </trkpt>
      <trkpt lat="45.3434" lon="6.16472">
        <ele>1821</ele>
        <time>2012-02-12T10:05:58.000Z</time>
      </trkpt>
      <trkpt lat="45.3434" lon="6.16474">
        <ele>1820.5999755859</ele>
        <time>2012-02-12T10:06:22.000Z</time>
      </trkpt>
      <trkpt lat="45.34339" lon="6.16478">
        <ele>1821.8000488281</ele>
        <time>2012-02-12T10:06:33.000Z</time>
      </trkpt>
      <trkpt lat="45.34338" lon="6.16477">
        <ele>1821.5999755859</ele>
        <time>2012-02-12T10:07:39.000Z</time>
      </trkpt>
      <trkpt lat="45.34337" lon="6.16483">
        <ele>1822</ele>
        <time>2012-02-12T10:07:46.000Z</time>
      </trkpt>
      <trkpt lat="45.34336" lon="6.1649">
        <ele>1822.4000244141</ele>
        <time>2012-02-12T10:07:53.000Z</time>
      </trkpt>
      <trkpt lat="45.34333" lon="6.16497">
        <ele>1822.8000488281</ele>
        <time>2012-02-12T10:07:59.000Z</time>
      </trkpt>
      <trkpt lat="45.34331" lon="6.16505">
        <ele>1822.4000244141</ele>
        <time>2012-02-12T10:08:07.000Z</time>
      </trkpt>
      <trkpt lat="45.3433" lon="6.16506">
        <ele>1822</ele>
        <time>2012-02-12T10:08:14.000Z</time>
      </trkpt>
      <trkpt lat="45.34323" lon="6.16513">
        <ele>1821.8000488281</ele>
        <time>2012-02-12T10:08:32.000Z</time>
      </trkpt>
      <trkpt lat="45.34325" lon="6.16516">
        <ele>1822</ele>
        <time>2012-02-12T10:08:54.000Z</time>
      </trkpt>
      <trkpt lat="45.3433" lon="6.16509">
        <ele>1823.1999511719</ele>
        <time>2012-02-12T10:09:27.000Z</time>
      </trkpt>
      <trkpt lat="45.34327" lon="6.1651">
        <ele>1821</ele>
        <time>2012-02-12T10:09:33.000Z</time>
      </trkpt>
      <trkpt lat="45.34322" lon="6.16517">
        <ele>1821.8000488281</ele>
        <time>2012-02-12T10:09:57.000Z</time>
      </trkpt>
      <trkpt lat="45.34328" lon="6.16526">
        <ele>1822.5999755859</ele>
        <time>2012-02-12T10:10:02.000Z</time>
      </trkpt>
      <trkpt lat="45.34331" lon="6.1653">
        <ele>1823.5999755859</ele>
        <time>2012-02-12T10:10:04.000Z</time>
      </trkpt>
      <trkpt lat="45.34339" lon="6.16544">
        <ele>1823.8000488281</ele>
        <time>2012-02-12T10:10:10.000Z</time>
      </trkpt>
      <trkpt lat="45.34343" lon="6.16552">
        <ele>1824.4000244141</ele>
        <time>2012-02-12T10:10:14.000Z</time>
      </trkpt>
      <trkpt lat="45.3435" lon="6.16563">
        <ele>1825.5999755859</ele>
        <time>2012-02-12T10:10:21.000Z</time>
      </trkpt>
      <trkpt lat="45.34353" lon="6.16565">
        <ele>1826.4000244141</ele>
        <time>2012-02-12T10:10:27.000Z</time>
      </trkpt>
      <trkpt lat="45.34358" lon="6.16567">
        <ele>1827.4000244141</ele>
        <time>2012-02-12T10:10:33.000Z</time>
      </trkpt>
      <trkpt lat="45.3436" lon="6.1657">
        <ele>1828</ele>
        <time>2012-02-12T10:10:36.000Z</time>
      </trkpt>
      <trkpt lat="45.34363" lon="6.16572">
        <ele>1828</ele>
        <time>2012-02-12T10:10:42.000Z</time>
      </trkpt>
      <trkpt lat="45.34369" lon="6.16579">
        <ele>1829</ele>
        <time>2012-02-12T10:10:49.000Z</time>
      </trkpt>
      <trkpt lat="45.3437" lon="6.1658">
        <ele>1828.5999755859</ele>
        <time>2012-02-12T10:10:50.000Z</time>
      </trkpt>
      <trkpt lat="45.34371" lon="6.16582">
        <ele>1828.8000488281</ele>
        <time>2012-02-12T10:10:52.000Z</time>
      </trkpt>
      <trkpt lat="45.34376" lon="6.16587">
        <ele>1829.8000488281</ele>
        <time>2012-02-12T10:10:58.000Z</time>
      </trkpt>
      <trkpt lat="45.34379" lon="6.16589">
        <ele>1830.8000488281</ele>
        <time>2012-02-12T10:11:02.000Z</time>
      </trkpt>
      <trkpt lat="45.3438" lon="6.16592">
        <ele>1830.5999755859</ele>
        <time>2012-02-12T10:11:04.000Z</time>
      </trkpt>
      <trkpt lat="45.34384" lon="6.16597">
        <ele>1831.1999511719</ele>
        <time>2012-02-12T10:11:12.000Z</time>
      </trkpt>
      <trkpt lat="45.34387" lon="6.16601">
        <ele>1831.5999755859</ele>
        <time>2012-02-12T10:11:16.000Z</time>
      </trkpt>
      <trkpt lat="45.34389" lon="6.16604">
        <ele>1832.1999511719</ele>
        <time>2012-02-12T10:11:21.000Z</time>
      </trkpt>
      <trkpt lat="45.34391" lon="6.1661">
        <ele>1833.4000244141</ele>
        <time>2012-02-12T10:11:28.000Z</time>
      </trkpt>
      <trkpt lat="45.34395" lon="6.16612">
        <ele>1833.5999755859</ele>
        <time>2012-02-12T10:11:34.000Z</time>
      </trkpt>
      <trkpt lat="45.34399" lon="6.16615">
        <ele>1834.1999511719</ele>
        <time>2012-02-12T10:11:39.000Z</time>
      </trkpt>
      <trkpt lat="45.34404" lon="6.16621">
        <ele>1834.5999755859</ele>
        <time>2012-02-12T10:11:45.000Z</time>
      </trkpt>
      <trkpt lat="45.34407" lon="6.16625">
        <ele>1835</ele>
        <time>2012-02-12T10:11:53.000Z</time>
      </trkpt>
      <trkpt lat="45.34406" lon="6.16617">
        <ele>1835.5999755859</ele>
        <time>2012-02-12T10:11:58.000Z</time>
      </trkpt>
      <trkpt lat="45.34408" lon="6.16622">
        <ele>1836.1999511719</ele>
        <time>2012-02-12T10:12:03.000Z</time>
      </trkpt>
      <trkpt lat="45.34412" lon="6.16629">
        <ele>1837.4000244141</ele>
        <time>2012-02-12T10:12:08.000Z</time>
      </trkpt>
      <trkpt lat="45.34418" lon="6.16638">
        <ele>1838.4000244141</ele>
        <time>2012-02-12T10:12:15.000Z</time>
      </trkpt>
      <trkpt lat="45.34422" lon="6.16645">
        <ele>1839.1999511719</ele>
        <time>2012-02-12T10:12:20.000Z</time>
      </trkpt>
      <trkpt lat="45.34425" lon="6.16649">
        <ele>1840.1999511719</ele>
        <time>2012-02-12T10:12:24.000Z</time>
      </trkpt>
      <trkpt lat="45.34429" lon="6.16651">
        <ele>1840.8000488281</ele>
        <time>2012-02-12T10:12:29.000Z</time>
      </trkpt>
      <trkpt lat="45.3443" lon="6.16652">
        <ele>1841.4000244141</ele>
        <time>2012-02-12T10:12:30.000Z</time>
      </trkpt>
      <trkpt lat="45.34432" lon="6.16658">
        <ele>1842.4000244141</ele>
        <time>2012-02-12T10:12:35.000Z</time>
      </trkpt>
      <trkpt lat="45.34434" lon="6.1666">
        <ele>1842.8000488281</ele>
        <time>2012-02-12T10:12:39.000Z</time>
      </trkpt>
      <trkpt lat="45.34437" lon="6.16669">
        <ele>1842.4000244141</ele>
        <time>2012-02-12T10:12:47.000Z</time>
      </trkpt>
      <trkpt lat="45.34443" lon="6.16679">
        <ele>1841.1999511719</ele>
        <time>2012-02-12T10:13:15.000Z</time>
      </trkpt>
      <trkpt lat="45.34437" lon="6.16663">
        <ele>1841.5999755859</ele>
        <time>2012-02-12T10:13:22.000Z</time>
      </trkpt>
      <trkpt lat="45.34437" lon="6.16662">
        <ele>1843.1999511719</ele>
        <time>2012-02-12T10:13:32.000Z</time>
      </trkpt>
      <trkpt lat="45.34441" lon="6.16661">
        <ele>1843.1999511719</ele>
        <time>2012-02-12T10:13:39.000Z</time>
      </trkpt>
      <trkpt lat="45.34437" lon="6.16668">
        <ele>1840.5999755859</ele>
        <time>2012-02-12T10:13:54.000Z</time>
      </trkpt>
      <trkpt lat="45.34434" lon="6.16661">
        <ele>1841.5999755859</ele>
        <time>2012-02-12T10:14:09.000Z</time>
      </trkpt>
      <trkpt lat="45.3443" lon="6.16659">
        <ele>1842.5999755859</ele>
        <time>2012-02-12T10:14:16.000Z</time>
      </trkpt>
      <trkpt lat="45.34424" lon="6.16632">
        <ele>1842</ele>
        <time>2012-02-12T10:15:31.000Z</time>
      </trkpt>
      <trkpt lat="45.34422" lon="6.16633">
        <ele>1842.1999511719</ele>
        <time>2012-02-12T10:15:40.000Z</time>
      </trkpt>
      <trkpt lat="45.34419" lon="6.16639">
        <ele>1842.4000244141</ele>
        <time>2012-02-12T10:15:49.000Z</time>
      </trkpt>
      <trkpt lat="45.3442" lon="6.16647">
        <ele>1843.4000244141</ele>
        <time>2012-02-12T10:15:52.000Z</time>
      </trkpt>
      <trkpt lat="45.34419" lon="6.16653">
        <ele>1844.8000488281</ele>
        <time>2012-02-12T10:15:57.000Z</time>
      </trkpt>
      <trkpt lat="45.34415" lon="6.16658">
        <ele>1846.1999511719</ele>
        <time>2012-02-12T10:16:03.000Z</time>
      </trkpt>
      <trkpt lat="45.34409" lon="6.16664">
        <ele>1848.1999511719</ele>
        <time>2012-02-12T10:16:13.000Z</time>
      </trkpt>
      <trkpt lat="45.34406" lon="6.16664">
        <ele>1849</ele>
        <time>2012-02-12T10:16:17.000Z</time>
      </trkpt>
      <trkpt lat="45.34405" lon="6.16663">
        <ele>1849.4000244141</ele>
        <time>2012-02-12T10:16:20.000Z</time>
      </trkpt>
      <trkpt lat="45.34408" lon="6.16665">
        <ele>1849.8000488281</ele>
        <time>2012-02-12T10:16:23.000Z</time>
      </trkpt>
      <trkpt lat="45.34413" lon="6.16667">
        <ele>1851.1999511719</ele>
        <time>2012-02-12T10:16:28.000Z</time>
      </trkpt>
      <trkpt lat="45.34416" lon="6.16671">
        <ele>1852.1999511719</ele>
        <time>2012-02-12T10:16:32.000Z</time>
      </trkpt>
      <trkpt lat="45.34419" lon="6.16674">
        <ele>1853</ele>
        <time>2012-02-12T10:16:36.000Z</time>
      </trkpt>
      <trkpt lat="45.34421" lon="6.16677">
        <ele>1854.1999511719</ele>
        <time>2012-02-12T10:16:40.000Z</time>
      </trkpt>
      <trkpt lat="45.34426" lon="6.16682">
        <ele>1855</ele>
        <time>2012-02-12T10:16:46.000Z</time>
      </trkpt>
      <trkpt lat="45.34419" lon="6.16684">
        <ele>1857.5999755859</ele>
        <time>2012-02-12T10:17:03.000Z</time>
      </trkpt>
      <trkpt lat="45.34416" lon="6.16682">
        <ele>1858.1999511719</ele>
        <time>2012-02-12T10:17:06.000Z</time>
      </trkpt>
      <trkpt lat="45.3441" lon="6.16683">
        <ele>1858.8000488281</ele>
        <time>2012-02-12T10:17:12.000Z</time>
      </trkpt>
      <trkpt lat="45.34402" lon="6.16692">
        <ele>1863</ele>
        <time>2012-02-12T10:17:36.000Z</time>
      </trkpt>
      <trkpt lat="45.34405" lon="6.16694">
        <ele>1863.5999755859</ele>
        <time>2012-02-12T10:17:39.000Z</time>
      </trkpt>
      <trkpt lat="45.34409" lon="6.16695">
        <ele>1864</ele>
        <time>2012-02-12T10:17:44.000Z</time>
      </trkpt>
      <trkpt lat="45.34413" lon="6.167">
        <ele>1864.8000488281</ele>
        <time>2012-02-12T10:17:48.000Z</time>
      </trkpt>
      <trkpt lat="45.34417" lon="6.16706">
        <ele>1866.4000244141</ele>
        <time>2012-02-12T10:17:51.000Z</time>
      </trkpt>
      <trkpt lat="45.3442" lon="6.16711">
        <ele>1866</ele>
        <time>2012-02-12T10:17:55.000Z</time>
      </trkpt>
      <trkpt lat="45.34424" lon="6.16714">
        <ele>1867.5999755859</ele>
        <time>2012-02-12T10:18:00.000Z</time>
      </trkpt>
      <trkpt lat="45.34427" lon="6.16717">
        <ele>1867.4000244141</ele>
        <time>2012-02-12T10:18:04.000Z</time>
      </trkpt>
      <trkpt lat="45.34422" lon="6.1671">
        <ele>1867.8000488281</ele>
        <time>2012-02-12T10:18:07.000Z</time>
      </trkpt>
      <trkpt lat="45.34416" lon="6.16708">
        <ele>1869</ele>
        <time>2012-02-12T10:18:12.000Z</time>
      </trkpt>
      <trkpt lat="45.34416" lon="6.16708">
        <ele>1869</ele>
        <time>2012-02-12T10:18:13.000Z</time>
      </trkpt>
      <trkpt lat="45.34413" lon="6.16708">
        <ele>1870</ele>
        <time>2012-02-12T10:18:15.000Z</time>
      </trkpt>
      <trkpt lat="45.34406" lon="6.16707">
        <ele>1870.1999511719</ele>
        <time>2012-02-12T10:18:22.000Z</time>
      </trkpt>
      <trkpt lat="45.34399" lon="6.16711">
        <ele>1872.4000244141</ele>
        <time>2012-02-12T10:18:32.000Z</time>
      </trkpt>
      <trkpt lat="45.34396" lon="6.16712">
        <ele>1873.5999755859</ele>
        <time>2012-02-12T10:18:37.000Z</time>
      </trkpt>
      <trkpt lat="45.34398" lon="6.16715">
        <ele>1874.1999511719</ele>
        <time>2012-02-12T10:18:39.000Z</time>
      </trkpt>
      <trkpt lat="45.34405" lon="6.16725">
        <ele>1875.4000244141</ele>
        <time>2012-02-12T10:18:45.000Z</time>
      </trkpt>
      <trkpt lat="45.34409" lon="6.16732">
        <ele>1875.8000488281</ele>
        <time>2012-02-12T10:18:48.000Z</time>
      </trkpt>
      <trkpt lat="45.34413" lon="6.16738">
        <ele>1877.5999755859</ele>
        <time>2012-02-12T10:18:55.000Z</time>
      </trkpt>
      <trkpt lat="45.34417" lon="6.16735">
        <ele>1878.4000244141</ele>
        <time>2012-02-12T10:19:01.000Z</time>
      </trkpt>
      <trkpt lat="45.3442" lon="6.16736">
        <ele>1878.4000244141</ele>
        <time>2012-02-12T10:19:04.000Z</time>
      </trkpt>
      <trkpt lat="45.34424" lon="6.16737">
        <ele>1880.1999511719</ele>
        <time>2012-02-12T10:19:09.000Z</time>
      </trkpt>
      <trkpt lat="45.34426" lon="6.16735">
        <ele>1880.8000488281</ele>
        <time>2012-02-12T10:19:11.000Z</time>
      </trkpt>
      <trkpt lat="45.34432" lon="6.16734">
        <ele>1881.5999755859</ele>
        <time>2012-02-12T10:19:16.000Z</time>
      </trkpt>
      <trkpt lat="45.34433" lon="6.16734">
        <ele>1881.4000244141</ele>
        <time>2012-02-12T10:19:17.000Z</time>
      </trkpt>
      <trkpt lat="45.34433" lon="6.16733">
        <ele>1882.4000244141</ele>
        <time>2012-02-12T10:19:23.000Z</time>
      </trkpt>
      <trkpt lat="45.34432" lon="6.16738">
        <ele>1882.1999511719</ele>
        <time>2012-02-12T10:19:27.000Z</time>
      </trkpt>
      <trkpt lat="45.34431" lon="6.16742">
        <ele>1883.1999511719</ele>
        <time>2012-02-12T10:19:29.000Z</time>
      </trkpt>
      <trkpt lat="45.3443" lon="6.1675">
        <ele>1884.4000244141</ele>
        <time>2012-02-12T10:19:34.000Z</time>
      </trkpt>
      <trkpt lat="45.34428" lon="6.16756">
        <ele>1884.8000488281</ele>
        <time>2012-02-12T10:19:38.000Z</time>
      </trkpt>
      <trkpt lat="45.34422" lon="6.16752">
        <ele>1886.4000244141</ele>
        <time>2012-02-12T10:19:43.000Z</time>
      </trkpt>
      <trkpt lat="45.3442" lon="6.16752">
        <ele>1887.1999511719</ele>
        <time>2012-02-12T10:19:45.000Z</time>
      </trkpt>
      <trkpt lat="45.34417" lon="6.16758">
        <ele>1887.5999755859</ele>
        <time>2012-02-12T10:19:51.000Z</time>
      </trkpt>
      <trkpt lat="45.34416" lon="6.16757">
        <ele>1888.4000244141</ele>
        <time>2012-02-12T10:19:52.000Z</time>
      </trkpt>
      <trkpt lat="45.34413" lon="6.16758">
        <ele>1888.4000244141</ele>
        <time>2012-02-12T10:19:56.000Z</time>
      </trkpt>
      <trkpt lat="45.34404" lon="6.16753">
        <ele>1889.4000244141</ele>
        <time>2012-02-12T10:20:02.000Z</time>
      </trkpt>
      <trkpt lat="45.34392" lon="6.16758">
        <ele>1893.4000244141</ele>
        <time>2012-02-12T10:20:24.000Z</time>
      </trkpt>
      <trkpt lat="45.34393" lon="6.16759">
        <ele>1894</ele>
        <time>2012-02-12T10:20:25.000Z</time>
      </trkpt>
      <trkpt lat="45.344" lon="6.1677">
        <ele>1896.4000244141</ele>
        <time>2012-02-12T10:20:30.000Z</time>
      </trkpt>
      <trkpt lat="45.34401" lon="6.16772">
        <ele>1896.1999511719</ele>
        <time>2012-02-12T10:20:31.000Z</time>
      </trkpt>
      <trkpt lat="45.34404" lon="6.16778">
        <ele>1895.5999755859</ele>
        <time>2012-02-12T10:20:35.000Z</time>
      </trkpt>
      <trkpt lat="45.34407" lon="6.16783">
        <ele>1896.5999755859</ele>
        <time>2012-02-12T10:20:41.000Z</time>
      </trkpt>
      <trkpt lat="45.34409" lon="6.16784">
        <ele>1897.5999755859</ele>
        <time>2012-02-12T10:20:44.000Z</time>
      </trkpt>
      <trkpt lat="45.34411" lon="6.16782">
        <ele>1898.1999511719</ele>
        <time>2012-02-12T10:20:49.000Z</time>
      </trkpt>
      <trkpt lat="45.34413" lon="6.16781">
        <ele>1898.4000244141</ele>
        <time>2012-02-12T10:20:54.000Z</time>
      </trkpt>
      <trkpt lat="45.34416" lon="6.16782">
        <ele>1899.8000488281</ele>
        <time>2012-02-12T10:20:57.000Z</time>
      </trkpt>
      <trkpt lat="45.3442" lon="6.16785">
        <ele>1900.5999755859</ele>
        <time>2012-02-12T10:21:02.000Z</time>
      </trkpt>
      <trkpt lat="45.34427" lon="6.16783">
        <ele>1903</ele>
        <time>2012-02-12T10:21:11.000Z</time>
      </trkpt>
      <trkpt lat="45.34434" lon="6.16782">
        <ele>1904.5999755859</ele>
        <time>2012-02-12T10:21:20.000Z</time>
      </trkpt>
      <trkpt lat="45.34436" lon="6.16781">
        <ele>1905.4000244141</ele>
        <time>2012-02-12T10:21:23.000Z</time>
      </trkpt>
      <trkpt lat="45.34438" lon="6.16779">
        <ele>1905.8000488281</ele>
        <time>2012-02-12T10:21:29.000Z</time>
      </trkpt>
      <trkpt lat="45.34444" lon="6.16779">
        <ele>1907.8000488281</ele>
        <time>2012-02-12T10:21:35.000Z</time>
      </trkpt>
      <trkpt lat="45.34443" lon="6.16781">
        <ele>1907.8000488281</ele>
        <time>2012-02-12T10:21:39.000Z</time>
      </trkpt>
      <trkpt lat="45.3444" lon="6.16787">
        <ele>1908</ele>
        <time>2012-02-12T10:21:44.000Z</time>
      </trkpt>
      <trkpt lat="45.34438" lon="6.16793">
        <ele>1909.5999755859</ele>
        <time>2012-02-12T10:21:49.000Z</time>
      </trkpt>
      <trkpt lat="45.34436" lon="6.16802">
        <ele>1910.8000488281</ele>
        <time>2012-02-12T10:21:55.000Z</time>
      </trkpt>
      <trkpt lat="45.34419" lon="6.1682">
        <ele>1918.5999755859</ele>
        <time>2012-02-12T10:22:34.000Z</time>
      </trkpt>
      <trkpt lat="45.34423" lon="6.16818">
        <ele>1918.5999755859</ele>
        <time>2012-02-12T10:22:39.000Z</time>
      </trkpt>
      <trkpt lat="45.34432" lon="6.16813">
        <ele>1920.1999511719</ele>
        <time>2012-02-12T10:22:55.000Z</time>
      </trkpt>
      <trkpt lat="45.34437" lon="6.16812">
        <ele>1922</ele>
        <time>2012-02-12T10:23:00.000Z</time>
      </trkpt>
      <trkpt lat="45.34441" lon="6.16813">
        <ele>1921.8000488281</ele>
        <time>2012-02-12T10:23:04.000Z</time>
      </trkpt>
      <trkpt lat="45.34445" lon="6.16813">
        <ele>1923</ele>
        <time>2012-02-12T10:23:08.000Z</time>
      </trkpt>
      <trkpt lat="45.34448" lon="6.16814">
        <ele>1924</ele>
        <time>2012-02-12T10:23:12.000Z</time>
      </trkpt>
      <trkpt lat="45.34451" lon="6.16812">
        <ele>1924</ele>
        <time>2012-02-12T10:23:16.000Z</time>
      </trkpt>
      <trkpt lat="45.34457" lon="6.16807">
        <ele>1926.8000488281</ele>
        <time>2012-02-12T10:23:29.000Z</time>
      </trkpt>
      <trkpt lat="45.34458" lon="6.16805">
        <ele>1926.5999755859</ele>
        <time>2012-02-12T10:23:32.000Z</time>
      </trkpt>
      <trkpt lat="45.34462" lon="6.16804">
        <ele>1927.8000488281</ele>
        <time>2012-02-12T10:23:39.000Z</time>
      </trkpt>
      <trkpt lat="45.34467" lon="6.16802">
        <ele>1929.5999755859</ele>
        <time>2012-02-12T10:23:45.000Z</time>
      </trkpt>
      <trkpt lat="45.34473" lon="6.16797">
        <ele>1933</ele>
        <time>2012-02-12T10:23:57.000Z</time>
      </trkpt>
      <trkpt lat="45.34477" lon="6.16794">
        <ele>1934.4000244141</ele>
        <time>2012-02-12T10:24:02.000Z</time>
      </trkpt>
      <trkpt lat="45.34479" lon="6.1679">
        <ele>1935</ele>
        <time>2012-02-12T10:24:07.000Z</time>
      </trkpt>
      <trkpt lat="45.34482" lon="6.1679">
        <ele>1935.8000488281</ele>
        <time>2012-02-12T10:24:11.000Z</time>
      </trkpt>
      <trkpt lat="45.34485" lon="6.16784">
        <ele>1937.1999511719</ele>
        <time>2012-02-12T10:24:23.000Z</time>
      </trkpt>
      <trkpt lat="45.34483" lon="6.16784">
        <ele>1935.5999755859</ele>
        <time>2012-02-12T10:24:30.000Z</time>
      </trkpt>
      <trkpt lat="45.34481" lon="6.16789">
        <ele>1936.5999755859</ele>
        <time>2012-02-12T10:24:34.000Z</time>
      </trkpt>
      <trkpt lat="45.34482" lon="6.16797">
        <ele>1937.8000488281</ele>
        <time>2012-02-12T10:24:41.000Z</time>
      </trkpt>
      <trkpt lat="45.34487" lon="6.16812">
        <ele>1938.8000488281</ele>
        <time>2012-02-12T10:24:57.000Z</time>
      </trkpt>
      <trkpt lat="45.34487" lon="6.1682">
        <ele>1939.1999511719</ele>
        <time>2012-02-12T10:25:01.000Z</time>
      </trkpt>
      <trkpt lat="45.34484" lon="6.16824">
        <ele>1941</ele>
        <time>2012-02-12T10:25:07.000Z</time>
      </trkpt>
      <trkpt lat="45.34484" lon="6.16836">
        <ele>1942.4000244141</ele>
        <time>2012-02-12T10:25:15.000Z</time>
      </trkpt>
      <trkpt lat="45.34484" lon="6.1684">
        <ele>1942.8000488281</ele>
        <time>2012-02-12T10:25:18.000Z</time>
      </trkpt>
      <trkpt lat="45.34483" lon="6.16844">
        <ele>1943.5999755859</ele>
        <time>2012-02-12T10:25:22.000Z</time>
      </trkpt>
      <trkpt lat="45.34483" lon="6.16852">
        <ele>1944.4000244141</ele>
        <time>2012-02-12T10:25:27.000Z</time>
      </trkpt>
      <trkpt lat="45.34471" lon="6.16833">
        <ele>1944</ele>
        <time>2012-02-12T10:25:38.000Z</time>
      </trkpt>
      <trkpt lat="45.34471" lon="6.1684">
        <ele>1945.1999511719</ele>
        <time>2012-02-12T10:25:49.000Z</time>
      </trkpt>
      <trkpt lat="45.34468" lon="6.16838">
        <ele>1944.4000244141</ele>
        <time>2012-02-12T10:26:03.000Z</time>
      </trkpt>
      <trkpt lat="45.34469" lon="6.16844">
        <ele>1944.4000244141</ele>
        <time>2012-02-12T10:26:05.000Z</time>
      </trkpt>
      <trkpt lat="45.34476" lon="6.16862">
        <ele>1946.1999511719</ele>
        <time>2012-02-12T10:26:11.000Z</time>
      </trkpt>
      <trkpt lat="45.34476" lon="6.16868">
        <ele>1947</ele>
        <time>2012-02-12T10:26:15.000Z</time>
      </trkpt>
      <trkpt lat="45.34476" lon="6.16873">
        <ele>1947.8000488281</ele>
        <time>2012-02-12T10:26:19.000Z</time>
      </trkpt>
      <trkpt lat="45.34478" lon="6.16873">
        <ele>1948.5999755859</ele>
        <time>2012-02-12T10:26:25.000Z</time>
      </trkpt>
      <trkpt lat="45.34479" lon="6.1687">
        <ele>1946.8000488281</ele>
        <time>2012-02-12T10:26:28.000Z</time>
      </trkpt>
      <trkpt lat="45.34479" lon="6.16863">
        <ele>1949.1999511719</ele>
        <time>2012-02-12T10:26:31.000Z</time>
      </trkpt>
      <trkpt lat="45.34481" lon="6.16855">
        <ele>1950.8000488281</ele>
        <time>2012-02-12T10:26:36.000Z</time>
      </trkpt>
      <trkpt lat="45.34486" lon="6.16848">
        <ele>1951</ele>
        <time>2012-02-12T10:26:42.000Z</time>
      </trkpt>
      <trkpt lat="45.34488" lon="6.16843">
        <ele>1952.1999511719</ele>
        <time>2012-02-12T10:26:47.000Z</time>
      </trkpt>
      <trkpt lat="45.34489" lon="6.16842">
        <ele>1953.8000488281</ele>
        <time>2012-02-12T10:26:55.000Z</time>
      </trkpt>
      <trkpt lat="45.34485" lon="6.1685">
        <ele>1954.4000244141</ele>
        <time>2012-02-12T10:27:02.000Z</time>
      </trkpt>
      <trkpt lat="45.34487" lon="6.16864">
        <ele>1956</ele>
        <time>2012-02-12T10:27:12.000Z</time>
      </trkpt>
      <trkpt lat="45.34485" lon="6.16867">
        <ele>1956.8000488281</ele>
        <time>2012-02-12T10:27:17.000Z</time>
      </trkpt>
      <trkpt lat="45.34485" lon="6.16883">
        <ele>1959.1999511719</ele>
        <time>2012-02-12T10:27:42.000Z</time>
      </trkpt>
      <trkpt lat="45.34484" lon="6.16884">
        <ele>1960.1999511719</ele>
        <time>2012-02-12T10:27:47.000Z</time>
      </trkpt>
      <trkpt lat="45.34482" lon="6.1689">
        <ele>1960.8000488281</ele>
        <time>2012-02-12T10:27:52.000Z</time>
      </trkpt>
      <trkpt lat="45.34479" lon="6.16893">
        <ele>1962.5999755859</ele>
        <time>2012-02-12T10:27:58.000Z</time>
      </trkpt>
      <trkpt lat="45.34478" lon="6.16894">
        <ele>1962.5999755859</ele>
        <time>2012-02-12T10:27:59.000Z</time>
      </trkpt>
      <trkpt lat="45.34474" lon="6.16898">
        <ele>1963.5999755859</ele>
        <time>2012-02-12T10:28:06.000Z</time>
      </trkpt>
      <trkpt lat="45.3446" lon="6.16887">
        <ele>1963.5999755859</ele>
        <time>2012-02-12T10:28:31.000Z</time>
      </trkpt>
      <trkpt lat="45.3446" lon="6.1689">
        <ele>1964.8000488281</ele>
        <time>2012-02-12T10:28:37.000Z</time>
      </trkpt>
      <trkpt lat="45.34459" lon="6.16893">
        <ele>1966.4000244141</ele>
        <time>2012-02-12T10:28:43.000Z</time>
      </trkpt>
      <trkpt lat="45.34465" lon="6.16906">
        <ele>1966.1999511719</ele>
        <time>2012-02-12T10:28:51.000Z</time>
      </trkpt>
      <trkpt lat="45.34468" lon="6.16903">
        <ele>1966</ele>
        <time>2012-02-12T10:28:58.000Z</time>
      </trkpt>
      <trkpt lat="45.34473" lon="6.16894">
        <ele>1969.4000244141</ele>
        <time>2012-02-12T10:29:11.000Z</time>
      </trkpt>
      <trkpt lat="45.34479" lon="6.16896">
        <ele>1970.1999511719</ele>
        <time>2012-02-12T10:29:17.000Z</time>
      </trkpt>
      <trkpt lat="45.34481" lon="6.16897">
        <ele>1970.8000488281</ele>
        <time>2012-02-12T10:29:20.000Z</time>
      </trkpt>
      <trkpt lat="45.34493" lon="6.16892">
        <ele>1972.5999755859</ele>
        <time>2012-02-12T10:29:44.000Z</time>
      </trkpt>
      <trkpt lat="45.34494" lon="6.16889">
        <ele>1974</ele>
        <time>2012-02-12T10:29:55.000Z</time>
      </trkpt>
      <trkpt lat="45.34495" lon="6.16888">
        <ele>1976.5999755859</ele>
        <time>2012-02-12T10:30:03.000Z</time>
      </trkpt>
      <trkpt lat="45.34496" lon="6.1689">
        <ele>1976.8000488281</ele>
        <time>2012-02-12T10:30:04.000Z</time>
      </trkpt>
      <trkpt lat="45.34497" lon="6.169">
        <ele>1975</ele>
        <time>2012-02-12T10:30:09.000Z</time>
      </trkpt>
      <trkpt lat="45.34495" lon="6.16905">
        <ele>1976.5999755859</ele>
        <time>2012-02-12T10:30:15.000Z</time>
      </trkpt>
      <trkpt lat="45.34496" lon="6.16914">
        <ele>1977</ele>
        <time>2012-02-12T10:30:20.000Z</time>
      </trkpt>
      <trkpt lat="45.34493" lon="6.16916">
        <ele>1977.4000244141</ele>
        <time>2012-02-12T10:30:27.000Z</time>
      </trkpt>
      <trkpt lat="45.3449" lon="6.16917">
        <ele>1981.5999755859</ele>
        <time>2012-02-12T10:30:51.000Z</time>
      </trkpt>
      <trkpt lat="45.34498" lon="6.16916">
        <ele>1984.5999755859</ele>
        <time>2012-02-12T10:31:04.000Z</time>
      </trkpt>
      <trkpt lat="45.34501" lon="6.16913">
        <ele>1984.8000488281</ele>
        <time>2012-02-12T10:31:09.000Z</time>
      </trkpt>
      <trkpt lat="45.34502" lon="6.16913">
        <ele>1985</ele>
        <time>2012-02-12T10:31:10.000Z</time>
      </trkpt>
      <trkpt lat="45.34504" lon="6.16917">
        <ele>1985.4000244141</ele>
        <time>2012-02-12T10:31:17.000Z</time>
      </trkpt>
      <trkpt lat="45.34502" lon="6.16921">
        <ele>1986.4000244141</ele>
        <time>2012-02-12T10:31:26.000Z</time>
      </trkpt>
      <trkpt lat="45.34498" lon="6.16926">
        <ele>1988</ele>
        <time>2012-02-12T10:31:33.000Z</time>
      </trkpt>
      <trkpt lat="45.34497" lon="6.16932">
        <ele>1988.5999755859</ele>
        <time>2012-02-12T10:31:39.000Z</time>
      </trkpt>
      <trkpt lat="45.34494" lon="6.1693">
        <ele>1988.8000488281</ele>
        <time>2012-02-12T10:31:46.000Z</time>
      </trkpt>
      <trkpt lat="45.34497" lon="6.16929">
        <ele>1989.5999755859</ele>
        <time>2012-02-12T10:31:49.000Z</time>
      </trkpt>
      <trkpt lat="45.34503" lon="6.16927">
        <ele>1991</ele>
        <time>2012-02-12T10:31:56.000Z</time>
      </trkpt>
      <trkpt lat="45.34507" lon="6.16927">
        <ele>1990.4000244141</ele>
        <time>2012-02-12T10:32:01.000Z</time>
      </trkpt>
      <trkpt lat="45.34509" lon="6.16923">
        <ele>1992.4000244141</ele>
        <time>2012-02-12T10:32:05.000Z</time>
      </trkpt>
      <trkpt lat="45.3451" lon="6.16924">
        <ele>1992.1999511719</ele>
        <time>2012-02-12T10:32:12.000Z</time>
      </trkpt>
      <trkpt lat="45.3451" lon="6.16924">
        <ele>1992.8000488281</ele>
        <time>2012-02-12T10:32:13.000Z</time>
      </trkpt>
      <trkpt lat="45.34509" lon="6.16926">
        <ele>1992.4000244141</ele>
        <time>2012-02-12T10:32:15.000Z</time>
      </trkpt>
      <trkpt lat="45.34511" lon="6.16939">
        <ele>1994.5999755859</ele>
        <time>2012-02-12T10:32:22.000Z</time>
      </trkpt>
      <trkpt lat="45.34511" lon="6.1694">
        <ele>1994.8000488281</ele>
        <time>2012-02-12T10:32:23.000Z</time>
      </trkpt>
      <trkpt lat="45.34508" lon="6.16943">
        <ele>1996</ele>
        <time>2012-02-12T10:32:28.000Z</time>
      </trkpt>
      <trkpt lat="45.34514" lon="6.16945">
        <ele>2000.1999511719</ele>
        <time>2012-02-12T10:32:51.000Z</time>
      </trkpt>
      <trkpt lat="45.34512" lon="6.16947">
        <ele>2001.4000244141</ele>
        <time>2012-02-12T10:32:55.000Z</time>
      </trkpt>
      <trkpt lat="45.34509" lon="6.16952">
        <ele>2003</ele>
        <time>2012-02-12T10:33:01.000Z</time>
      </trkpt>
      <trkpt lat="45.3451" lon="6.16952">
        <ele>2004.5999755859</ele>
        <time>2012-02-12T10:33:10.000Z</time>
      </trkpt>
      <trkpt lat="45.34512" lon="6.16948">
        <ele>2005.1999511719</ele>
        <time>2012-02-12T10:33:17.000Z</time>
      </trkpt>
      <trkpt lat="45.34514" lon="6.16947">
        <ele>2006</ele>
        <time>2012-02-12T10:33:27.000Z</time>
      </trkpt>
      <trkpt lat="45.3451" lon="6.16954">
        <ele>2005.8000488281</ele>
        <time>2012-02-12T10:34:50.000Z</time>
      </trkpt>
      <trkpt lat="45.34519" lon="6.16974">
        <ele>2005.4000244141</ele>
        <time>2012-02-12T10:35:34.000Z</time>
      </trkpt>
      <trkpt lat="45.34524" lon="6.16975">
        <ele>2005.1999511719</ele>
        <time>2012-02-12T10:35:39.000Z</time>
      </trkpt>
      <trkpt lat="45.34526" lon="6.16979">
        <ele>2004.8000488281</ele>
        <time>2012-02-12T10:35:46.000Z</time>
      </trkpt>
      <trkpt lat="45.34526" lon="6.16977">
        <ele>2005</ele>
        <time>2012-02-12T10:35:55.000Z</time>
      </trkpt>
      <trkpt lat="45.34526" lon="6.16982">
        <ele>2004.5999755859</ele>
        <time>2012-02-12T10:35:59.000Z</time>
      </trkpt>
      <trkpt lat="45.34516" lon="6.1697">
        <ele>2003.5999755859</ele>
        <time>2012-02-12T10:36:17.000Z</time>
      </trkpt>
      <trkpt lat="45.34514" lon="6.16964">
        <ele>2002.8000488281</ele>
        <time>2012-02-12T10:36:29.000Z</time>
      </trkpt>
      <trkpt lat="45.34501" lon="6.16946">
        <ele>2003.5999755859</ele>
        <time>2012-02-12T10:36:53.000Z</time>
      </trkpt>
      <trkpt lat="45.34502" lon="6.16949">
        <ele>2003.8000488281</ele>
        <time>2012-02-12T10:37:04.000Z</time>
      </trkpt>
      <trkpt lat="45.34509" lon="6.16965">
        <ele>2004.1999511719</ele>
        <time>2012-02-12T10:37:14.000Z</time>
      </trkpt>
      <trkpt lat="45.3451" lon="6.1697">
        <ele>2003.8000488281</ele>
        <time>2012-02-12T10:37:25.000Z</time>
      </trkpt>
      <trkpt lat="45.34517" lon="6.16965">
        <ele>2003.5999755859</ele>
        <time>2012-02-12T10:38:17.000Z</time>
      </trkpt>
      <trkpt lat="45.34503" lon="6.16954">
        <ele>2004</ele>
        <time>2012-02-12T10:38:37.000Z</time>
      </trkpt>
      <trkpt lat="45.34502" lon="6.16943">
        <ele>2002.4000244141</ele>
        <time>2012-02-12T10:38:44.000Z</time>
      </trkpt>
      <trkpt lat="45.34501" lon="6.1694">
        <ele>2003</ele>
        <time>2012-02-12T10:41:43.000Z</time>
      </trkpt>
      <trkpt lat="45.345" lon="6.16941">
        <ele>2003</ele>
        <time>2012-02-12T10:41:55.000Z</time>
      </trkpt>
      <trkpt lat="45.34508" lon="6.16954">
        <ele>2002.4000244141</ele>
        <time>2012-02-12T10:42:19.000Z</time>
      </trkpt>
      <trkpt lat="45.34499" lon="6.16948">
        <ele>2003</ele>
        <time>2012-02-12T10:52:18.000Z</time>
      </trkpt>
      <trkpt lat="45.34502" lon="6.16941">
        <ele>2001.5999755859</ele>
        <time>2012-02-12T10:52:23.000Z</time>
      </trkpt>
      <trkpt lat="45.34519" lon="6.16937">
        <ele>2001.1999511719</ele>
        <time>2012-02-12T10:58:35.000Z</time>
      </trkpt>
      <trkpt lat="45.34517" lon="6.16942">
        <ele>2002.4000244141</ele>
        <time>2012-02-12T10:58:38.000Z</time>
      </trkpt>
      <trkpt lat="45.34516" lon="6.16945">
        <ele>2004</ele>
        <time>2012-02-12T10:58:41.000Z</time>
      </trkpt>
      <trkpt lat="45.34515" lon="6.16949">
        <ele>2005</ele>
        <time>2012-02-12T10:58:48.000Z</time>
      </trkpt>
      <trkpt lat="45.34515" lon="6.16954">
        <ele>2007</ele>
        <time>2012-02-12T10:58:56.000Z</time>
      </trkpt>
      <trkpt lat="45.34513" lon="6.16954">
        <ele>2006.5999755859</ele>
        <time>2012-02-12T10:59:02.000Z</time>
      </trkpt>
      <trkpt lat="45.34506" lon="6.16961">
        <ele>2004.1999511719</ele>
        <time>2012-02-12T11:00:15.000Z</time>
      </trkpt>
      <trkpt lat="45.34508" lon="6.16957">
        <ele>2006.1999511719</ele>
        <time>2012-02-12T11:00:22.000Z</time>
      </trkpt>
      <trkpt lat="45.34508" lon="6.16961">
        <ele>2007</ele>
        <time>2012-02-12T11:02:42.000Z</time>
      </trkpt>
      <trkpt lat="45.3451" lon="6.1696">
        <ele>2007.1999511719</ele>
        <time>2012-02-12T11:03:08.000Z</time>
      </trkpt>
      <trkpt lat="45.34511" lon="6.16964">
        <ele>2009</ele>
        <time>2012-02-12T11:03:16.000Z</time>
      </trkpt>
      <trkpt lat="45.34512" lon="6.16966">
        <ele>2008.8000488281</ele>
        <time>2012-02-12T11:03:21.000Z</time>
      </trkpt>
      <trkpt lat="45.34512" lon="6.16971">
        <ele>2011.1999511719</ele>
        <time>2012-02-12T11:03:33.000Z</time>
      </trkpt>
      <trkpt lat="45.34513" lon="6.16973">
        <ele>2011.8000488281</ele>
        <time>2012-02-12T11:03:35.000Z</time>
      </trkpt>
      <trkpt lat="45.34514" lon="6.1698">
        <ele>2012.1999511719</ele>
        <time>2012-02-12T11:03:41.000Z</time>
      </trkpt>
      <trkpt lat="45.34515" lon="6.16981">
        <ele>2012.8000488281</ele>
        <time>2012-02-12T11:03:43.000Z</time>
      </trkpt>
      <trkpt lat="45.34517" lon="6.16988">
        <ele>2015.1999511719</ele>
        <time>2012-02-12T11:03:50.000Z</time>
      </trkpt>
      <trkpt lat="45.34517" lon="6.16989">
        <ele>2015.1999511719</ele>
        <time>2012-02-12T11:03:51.000Z</time>
      </trkpt>
      <trkpt lat="45.34518" lon="6.16994">
        <ele>2016.8000488281</ele>
        <time>2012-02-12T11:03:55.000Z</time>
      </trkpt>
      <trkpt lat="45.34518" lon="6.16995">
        <ele>2017</ele>
        <time>2012-02-12T11:03:56.000Z</time>
      </trkpt>
      <trkpt lat="45.34518" lon="6.16997">
        <ele>2018</ele>
        <time>2012-02-12T11:03:59.000Z</time>
      </trkpt>
      <trkpt lat="45.3452" lon="6.17003">
        <ele>2018.5999755859</ele>
        <time>2012-02-12T11:04:04.000Z</time>
      </trkpt>
      <trkpt lat="45.34519" lon="6.17008">
        <ele>2019.1999511719</ele>
        <time>2012-02-12T11:04:08.000Z</time>
      </trkpt>
      <trkpt lat="45.34513" lon="6.17014">
        <ele>2019.1999511719</ele>
        <time>2012-02-12T11:04:18.000Z</time>
      </trkpt>
      <trkpt lat="45.34511" lon="6.17013">
        <ele>2020.8000488281</ele>
        <time>2012-02-12T11:04:24.000Z</time>
      </trkpt>
      <trkpt lat="45.34509" lon="6.17017">
        <ele>2023.5999755859</ele>
        <time>2012-02-12T11:04:31.000Z</time>
      </trkpt>
      <trkpt lat="45.34509" lon="6.17025">
        <ele>2025.1999511719</ele>
        <time>2012-02-12T11:04:39.000Z</time>
      </trkpt>
      <trkpt lat="45.3451" lon="6.1703">
        <ele>2025.8000488281</ele>
        <time>2012-02-12T11:04:45.000Z</time>
      </trkpt>
      <trkpt lat="45.34513" lon="6.17034">
        <ele>2026.5999755859</ele>
        <time>2012-02-12T11:04:51.000Z</time>
      </trkpt>
      <trkpt lat="45.34511" lon="6.17038">
        <ele>2027.4000244141</ele>
        <time>2012-02-12T11:04:58.000Z</time>
      </trkpt>
      <trkpt lat="45.34508" lon="6.17038">
        <ele>2028.5999755859</ele>
        <time>2012-02-12T11:05:04.000Z</time>
      </trkpt>
      <trkpt lat="45.34505" lon="6.17038">
        <ele>2029.4000244141</ele>
        <time>2012-02-12T11:05:09.000Z</time>
      </trkpt>
      <trkpt lat="45.34505" lon="6.17041">
        <ele>2030.5999755859</ele>
        <time>2012-02-12T11:05:12.000Z</time>
      </trkpt>
      <trkpt lat="45.34508" lon="6.17047">
        <ele>2031.8000488281</ele>
        <time>2012-02-12T11:05:21.000Z</time>
      </trkpt>
      <trkpt lat="45.34509" lon="6.17051">
        <ele>2033.4000244141</ele>
        <time>2012-02-12T11:05:27.000Z</time>
      </trkpt>
      <trkpt lat="45.34509" lon="6.17055">
        <ele>2034.8000488281</ele>
        <time>2012-02-12T11:05:33.000Z</time>
      </trkpt>
      <trkpt lat="45.34508" lon="6.17058">
        <ele>2036.4000244141</ele>
        <time>2012-02-12T11:05:38.000Z</time>
      </trkpt>
      <trkpt lat="45.34508" lon="6.17059">
        <ele>2037.1999511719</ele>
        <time>2012-02-12T11:05:40.000Z</time>
      </trkpt>
      <trkpt lat="45.34508" lon="6.17062">
        <ele>2038</ele>
        <time>2012-02-12T11:05:45.000Z</time>
      </trkpt>
      <trkpt lat="45.34508" lon="6.17066">
        <ele>2038.4000244141</ele>
        <time>2012-02-12T11:05:51.000Z</time>
      </trkpt>
      <trkpt lat="45.34507" lon="6.1707">
        <ele>2039.5999755859</ele>
        <time>2012-02-12T11:05:57.000Z</time>
      </trkpt>
      <trkpt lat="45.34507" lon="6.17073">
        <ele>2041</ele>
        <time>2012-02-12T11:06:01.000Z</time>
      </trkpt>
      <trkpt lat="45.34507" lon="6.1708">
        <ele>2042.5999755859</ele>
        <time>2012-02-12T11:06:07.000Z</time>
      </trkpt>
      <trkpt lat="45.34508" lon="6.17089">
        <ele>2042.5999755859</ele>
        <time>2012-02-12T11:06:14.000Z</time>
      </trkpt>
      <trkpt lat="45.34508" lon="6.171">
        <ele>2044.4000244141</ele>
        <time>2012-02-12T11:06:21.000Z</time>
      </trkpt>
      <trkpt lat="45.34509" lon="6.17109">
        <ele>2045.5999755859</ele>
        <time>2012-02-12T11:06:28.000Z</time>
      </trkpt>
      <trkpt lat="45.3451" lon="6.17113">
        <ele>2046.8000488281</ele>
        <time>2012-02-12T11:06:31.000Z</time>
      </trkpt>
      <trkpt lat="45.34512" lon="6.17123">
        <ele>2048</ele>
        <time>2012-02-12T11:06:38.000Z</time>
      </trkpt>
      <trkpt lat="45.34512" lon="6.17123">
        <ele>2048</ele>
        <time>2012-02-12T11:06:39.000Z</time>
      </trkpt>
      <trkpt lat="45.34515" lon="6.17129">
        <ele>2048.3999023438</ele>
        <time>2012-02-12T11:06:46.000Z</time>
      </trkpt>
      <trkpt lat="45.34515" lon="6.17136">
        <ele>2048.1999511719</ele>
        <time>2012-02-12T11:06:53.000Z</time>
      </trkpt>
      <trkpt lat="45.34514" lon="6.17141">
        <ele>2049</ele>
        <time>2012-02-12T11:07:04.000Z</time>
      </trkpt>
      <trkpt lat="45.34515" lon="6.17142">
        <ele>2046.5999755859</ele>
        <time>2012-02-12T11:07:28.000Z</time>
      </trkpt>
      <trkpt lat="45.34518" lon="6.17142">
        <ele>2048.6000976562</ele>
        <time>2012-02-12T11:07:41.000Z</time>
      </trkpt>
      <trkpt lat="45.34514" lon="6.17147">
        <ele>2048.1999511719</ele>
        <time>2012-02-12T11:08:15.000Z</time>
      </trkpt>
      <trkpt lat="45.34515" lon="6.17148">
        <ele>2049</ele>
        <time>2012-02-12T11:10:01.000Z</time>
      </trkpt>
      <trkpt lat="45.34515" lon="6.17148">
        <ele>2050.3999023438</ele>
        <time>2012-02-12T11:10:03.000Z</time>
      </trkpt>
      <trkpt lat="45.34515" lon="6.17149">
        <ele>2048.3999023438</ele>
        <time>2012-02-12T11:10:05.000Z</time>
      </trkpt>
      <trkpt lat="45.34515" lon="6.17149">
        <ele>2049.8000488281</ele>
        <time>2012-02-12T11:10:36.000Z</time>
      </trkpt>
      <trkpt lat="45.34516" lon="6.17146">
        <ele>2049.8000488281</ele>
        <time>2012-02-12T11:12:21.000Z</time>
      </trkpt>
      <trkpt lat="45.34513" lon="6.17151">
        <ele>2049.8000488281</ele>
        <time>2012-02-12T11:12:45.000Z</time>
      </trkpt>
      <trkpt lat="45.34511" lon="6.17154">
        <ele>2049.1999511719</ele>
        <time>2012-02-12T11:13:00.000Z</time>
      </trkpt>
      <trkpt lat="45.34507" lon="6.17162">
        <ele>2048.8000488281</ele>
        <time>2012-02-12T11:13:08.000Z</time>
      </trkpt>
      <trkpt lat="45.34504" lon="6.17169">
        <ele>2049.1999511719</ele>
        <time>2012-02-12T11:13:15.000Z</time>
      </trkpt>
      <trkpt lat="45.34502" lon="6.17176">
        <ele>2051.1999511719</ele>
        <time>2012-02-12T11:13:21.000Z</time>
      </trkpt>
      <trkpt lat="45.34501" lon="6.17182">
        <ele>2053.1999511719</ele>
        <time>2012-02-12T11:13:29.000Z</time>
      </trkpt>
      <trkpt lat="45.345" lon="6.17185">
        <ele>2053.1999511719</ele>
        <time>2012-02-12T11:13:32.000Z</time>
      </trkpt>
      <trkpt lat="45.34498" lon="6.17192">
        <ele>2053</ele>
        <time>2012-02-12T11:13:39.000Z</time>
      </trkpt>
      <trkpt lat="45.34496" lon="6.17199">
        <ele>2054.6000976562</ele>
        <time>2012-02-12T11:13:46.000Z</time>
      </trkpt>
      <trkpt lat="45.34495" lon="6.17203">
        <ele>2056</ele>
        <time>2012-02-12T11:13:50.000Z</time>
      </trkpt>
      <trkpt lat="45.34493" lon="6.17211">
        <ele>2056.8000488281</ele>
        <time>2012-02-12T11:13:57.000Z</time>
      </trkpt>
      <trkpt lat="45.34493" lon="6.17213">
        <ele>2057.8000488281</ele>
        <time>2012-02-12T11:13:59.000Z</time>
      </trkpt>
      <trkpt lat="45.34491" lon="6.17223">
        <ele>2058.6000976562</ele>
        <time>2012-02-12T11:14:08.000Z</time>
      </trkpt>
      <trkpt lat="45.34488" lon="6.17229">
        <ele>2060.1999511719</ele>
        <time>2012-02-12T11:14:15.000Z</time>
      </trkpt>
      <trkpt lat="45.34486" lon="6.17234">
        <ele>2059.6000976562</ele>
        <time>2012-02-12T11:14:21.000Z</time>
      </trkpt>
      <trkpt lat="45.34484" lon="6.17237">
        <ele>2060.6000976562</ele>
        <time>2012-02-12T11:14:26.000Z</time>
      </trkpt>
      <trkpt lat="45.34483" lon="6.17242">
        <ele>2062.8000488281</ele>
        <time>2012-02-12T11:14:33.000Z</time>
      </trkpt>
      <trkpt lat="45.34481" lon="6.17249">
        <ele>2062.3999023438</ele>
        <time>2012-02-12T11:14:39.000Z</time>
      </trkpt>
      <trkpt lat="45.3448" lon="6.17256">
        <ele>2063.6000976562</ele>
        <time>2012-02-12T11:14:45.000Z</time>
      </trkpt>
      <trkpt lat="45.34481" lon="6.17258">
        <ele>2065.3999023438</ele>
        <time>2012-02-12T11:14:49.000Z</time>
      </trkpt>
      <trkpt lat="45.34481" lon="6.17259">
        <ele>2065.6000976562</ele>
        <time>2012-02-12T11:14:50.000Z</time>
      </trkpt>
      <trkpt lat="45.3448" lon="6.17269">
        <ele>2065.3999023438</ele>
        <time>2012-02-12T11:14:59.000Z</time>
      </trkpt>
      <trkpt lat="45.34481" lon="6.17275">
        <ele>2067.8000488281</ele>
        <time>2012-02-12T11:15:05.000Z</time>
      </trkpt>
      <trkpt lat="45.34482" lon="6.17282">
        <ele>2067.6000976562</ele>
        <time>2012-02-12T11:15:11.000Z</time>
      </trkpt>
      <trkpt lat="45.34483" lon="6.17289">
        <ele>2068.3999023438</ele>
        <time>2012-02-12T11:15:17.000Z</time>
      </trkpt>
      <trkpt lat="45.34485" lon="6.17297">
        <ele>2069.6000976562</ele>
        <time>2012-02-12T11:15:23.000Z</time>
      </trkpt>
      <trkpt lat="45.34486" lon="6.17304">
        <ele>2070.8000488281</ele>
        <time>2012-02-12T11:15:29.000Z</time>
      </trkpt>
      <trkpt lat="45.34486" lon="6.1731">
        <ele>2072</ele>
        <time>2012-02-12T11:15:34.000Z</time>
      </trkpt>
      <trkpt lat="45.34486" lon="6.17312">
        <ele>2072</ele>
        <time>2012-02-12T11:15:35.000Z</time>
      </trkpt>
      <trkpt lat="45.34487" lon="6.17318">
        <ele>2072.1999511719</ele>
        <time>2012-02-12T11:15:43.000Z</time>
      </trkpt>
      <trkpt lat="45.34487" lon="6.17318">
        <ele>2072</ele>
        <time>2012-02-12T11:15:51.000Z</time>
      </trkpt>
      <trkpt lat="45.34486" lon="6.17322">
        <ele>2073.1999511719</ele>
        <time>2012-02-12T11:15:57.000Z</time>
      </trkpt>
      <trkpt lat="45.34488" lon="6.17318">
        <ele>2073.8000488281</ele>
        <time>2012-02-12T11:16:08.000Z</time>
      </trkpt>
      <trkpt lat="45.34488" lon="6.17315">
        <ele>2074.1999511719</ele>
        <time>2012-02-12T11:16:48.000Z</time>
      </trkpt>
      <trkpt lat="45.34487" lon="6.17316">
        <ele>2075.1999511719</ele>
        <time>2012-02-12T11:16:50.000Z</time>
      </trkpt>
      <trkpt lat="45.34484" lon="6.17317">
        <ele>2076.3999023438</ele>
        <time>2012-02-12T11:16:54.000Z</time>
      </trkpt>
      <trkpt lat="45.34478" lon="6.1732">
        <ele>2077.8000488281</ele>
        <time>2012-02-12T11:17:01.000Z</time>
      </trkpt>
      <trkpt lat="45.34474" lon="6.17321">
        <ele>2079.3999023438</ele>
        <time>2012-02-12T11:17:05.000Z</time>
      </trkpt>
      <trkpt lat="45.3447" lon="6.17325">
        <ele>2081.8000488281</ele>
        <time>2012-02-12T11:17:11.000Z</time>
      </trkpt>
      <trkpt lat="45.34468" lon="6.17328">
        <ele>2082.3999023438</ele>
        <time>2012-02-12T11:17:13.000Z</time>
      </trkpt>
      <trkpt lat="45.34466" lon="6.17333">
        <ele>2083.1999511719</ele>
        <time>2012-02-12T11:17:18.000Z</time>
      </trkpt>
      <trkpt lat="45.34463" lon="6.17342">
        <ele>2084</ele>
        <time>2012-02-12T11:17:26.000Z</time>
      </trkpt>
      <trkpt lat="45.34463" lon="6.17343">
        <ele>2084</ele>
        <time>2012-02-12T11:17:27.000Z</time>
      </trkpt>
      <trkpt lat="45.34461" lon="6.17351">
        <ele>2084.6000976562</ele>
        <time>2012-02-12T11:17:35.000Z</time>
      </trkpt>
      <trkpt lat="45.34459" lon="6.17358">
        <ele>2086.1999511719</ele>
        <time>2012-02-12T11:17:43.000Z</time>
      </trkpt>
      <trkpt lat="45.34456" lon="6.17366">
        <ele>2087.8000488281</ele>
        <time>2012-02-12T11:17:50.000Z</time>
      </trkpt>
      <trkpt lat="45.34452" lon="6.17372">
        <ele>2089</ele>
        <time>2012-02-12T11:17:58.000Z</time>
      </trkpt>
      <trkpt lat="45.3445" lon="6.17378">
        <ele>2090.1999511719</ele>
        <time>2012-02-12T11:18:05.000Z</time>
      </trkpt>
      <trkpt lat="45.34448" lon="6.17381">
        <ele>2091.3999023438</ele>
        <time>2012-02-12T11:18:08.000Z</time>
      </trkpt>
      <trkpt lat="45.34446" lon="6.17388">
        <ele>2092.8000488281</ele>
        <time>2012-02-12T11:18:14.000Z</time>
      </trkpt>
      <trkpt lat="45.34445" lon="6.17388">
        <ele>2093</ele>
        <time>2012-02-12T11:18:15.000Z</time>
      </trkpt>
      <trkpt lat="45.34445" lon="6.17388">
        <ele>2092.3999023438</ele>
        <time>2012-02-12T11:18:16.000Z</time>
      </trkpt>
      <trkpt lat="45.34442" lon="6.17391">
        <ele>2094</ele>
        <time>2012-02-12T11:18:20.000Z</time>
      </trkpt>
      <trkpt lat="45.3444" lon="6.17393">
        <ele>2094</ele>
        <time>2012-02-12T11:18:23.000Z</time>
      </trkpt>
      <trkpt lat="45.34436" lon="6.17394">
        <ele>2095.8000488281</ele>
        <time>2012-02-12T11:18:29.000Z</time>
      </trkpt>
      <trkpt lat="45.34435" lon="6.17394">
        <ele>2095.8000488281</ele>
        <time>2012-02-12T11:18:30.000Z</time>
      </trkpt>
      <trkpt lat="45.34431" lon="6.17391">
        <ele>2095.1999511719</ele>
        <time>2012-02-12T11:18:36.000Z</time>
      </trkpt>
      <trkpt lat="45.34427" lon="6.17391">
        <ele>2096.1999511719</ele>
        <time>2012-02-12T11:18:42.000Z</time>
      </trkpt>
      <trkpt lat="45.34426" lon="6.17393">
        <ele>2097</ele>
        <time>2012-02-12T11:18:46.000Z</time>
      </trkpt>
      <trkpt lat="45.34425" lon="6.17394">
        <ele>2098.1999511719</ele>
        <time>2012-02-12T11:19:33.000Z</time>
      </trkpt>
      <trkpt lat="45.3442" lon="6.17402">
        <ele>2100.6000976562</ele>
        <time>2012-02-12T11:19:40.000Z</time>
      </trkpt>
      <trkpt lat="45.34416" lon="6.17405">
        <ele>2101.1999511719</ele>
        <time>2012-02-12T11:19:48.000Z</time>
      </trkpt>
      <trkpt lat="45.34414" lon="6.1741">
        <ele>2102</ele>
        <time>2012-02-12T11:19:54.000Z</time>
      </trkpt>
      <trkpt lat="45.34413" lon="6.1741">
        <ele>2102.3999023438</ele>
        <time>2012-02-12T11:19:55.000Z</time>
      </trkpt>
      <trkpt lat="45.3441" lon="6.17413">
        <ele>2103.6000976562</ele>
        <time>2012-02-12T11:20:01.000Z</time>
      </trkpt>
      <trkpt lat="45.34406" lon="6.17418">
        <ele>2105</ele>
        <time>2012-02-12T11:20:07.000Z</time>
      </trkpt>
      <trkpt lat="45.34402" lon="6.17424">
        <ele>2106.6000976562</ele>
        <time>2012-02-12T11:20:14.000Z</time>
      </trkpt>
      <trkpt lat="45.34397" lon="6.17429">
        <ele>2108.1999511719</ele>
        <time>2012-02-12T11:20:21.000Z</time>
      </trkpt>
      <trkpt lat="45.34396" lon="6.17431">
        <ele>2109</ele>
        <time>2012-02-12T11:20:23.000Z</time>
      </trkpt>
      <trkpt lat="45.34393" lon="6.17436">
        <ele>2111.1999511719</ele>
        <time>2012-02-12T11:20:29.000Z</time>
      </trkpt>
      <trkpt lat="45.34393" lon="6.17437">
        <ele>2111.3999023438</ele>
        <time>2012-02-12T11:20:30.000Z</time>
      </trkpt>
      <trkpt lat="45.3439" lon="6.1744">
        <ele>2111.6000976562</ele>
        <time>2012-02-12T11:20:35.000Z</time>
      </trkpt>
      <trkpt lat="45.34388" lon="6.17443">
        <ele>2112.1999511719</ele>
        <time>2012-02-12T11:20:38.000Z</time>
      </trkpt>
      <trkpt lat="45.34385" lon="6.17447">
        <ele>2112.6000976562</ele>
        <time>2012-02-12T11:20:43.000Z</time>
      </trkpt>
      <trkpt lat="45.34379" lon="6.17452">
        <ele>2113.8000488281</ele>
        <time>2012-02-12T11:20:51.000Z</time>
      </trkpt>
      <trkpt lat="45.34375" lon="6.17455">
        <ele>2115</ele>
        <time>2012-02-12T11:20:57.000Z</time>
      </trkpt>
      <trkpt lat="45.34373" lon="6.17455">
        <ele>2116</ele>
        <time>2012-02-12T11:20:59.000Z</time>
      </trkpt>
      <trkpt lat="45.34372" lon="6.17456">
        <ele>2115.6000976562</ele>
        <time>2012-02-12T11:21:01.000Z</time>
      </trkpt>
      <trkpt lat="45.3437" lon="6.17456">
        <ele>2115.6000976562</ele>
        <time>2012-02-12T11:21:03.000Z</time>
      </trkpt>
      <trkpt lat="45.34368" lon="6.17457">
        <ele>2116.1999511719</ele>
        <time>2012-02-12T11:21:09.000Z</time>
      </trkpt>
      <trkpt lat="45.34368" lon="6.17458">
        <ele>2117.3999023438</ele>
        <time>2012-02-12T11:21:17.000Z</time>
      </trkpt>
      <trkpt lat="45.34363" lon="6.17459">
        <ele>2114.3999023438</ele>
        <time>2012-02-12T11:22:14.000Z</time>
      </trkpt>
      <trkpt lat="45.34358" lon="6.17469">
        <ele>2112.1999511719</ele>
        <time>2012-02-12T11:22:19.000Z</time>
      </trkpt>
      <trkpt lat="45.34351" lon="6.17485">
        <ele>2107.3999023438</ele>
        <time>2012-02-12T11:22:23.000Z</time>
      </trkpt>
      <trkpt lat="45.3435" lon="6.17487">
        <ele>2104.8000488281</ele>
        <time>2012-02-12T11:22:27.000Z</time>
      </trkpt>
      <trkpt lat="45.34348" lon="6.17492">
        <ele>2105.6000976562</ele>
        <time>2012-02-12T11:22:39.000Z</time>
      </trkpt>
      <trkpt lat="45.34347" lon="6.17496">
        <ele>2104.6000976562</ele>
        <time>2012-02-12T11:22:44.000Z</time>
      </trkpt>
      <trkpt lat="45.34345" lon="6.17503">
        <ele>2105.1999511719</ele>
        <time>2012-02-12T11:22:50.000Z</time>
      </trkpt>
      <trkpt lat="45.34343" lon="6.17506">
        <ele>2104</ele>
        <time>2012-02-12T11:22:55.000Z</time>
      </trkpt>
      <trkpt lat="45.34339" lon="6.1751">
        <ele>2104</ele>
        <time>2012-02-12T11:22:59.000Z</time>
      </trkpt>
      <trkpt lat="45.3433" lon="6.17526">
        <ele>2101</ele>
        <time>2012-02-12T11:23:08.000Z</time>
      </trkpt>
      <trkpt lat="45.34327" lon="6.17538">
        <ele>2099.3999023438</ele>
        <time>2012-02-12T11:23:14.000Z</time>
      </trkpt>
      <trkpt lat="45.34324" lon="6.17545">
        <ele>2100.3999023438</ele>
        <time>2012-02-12T11:23:19.000Z</time>
      </trkpt>
      <trkpt lat="45.34322" lon="6.17547">
        <ele>2101.6000976562</ele>
        <time>2012-02-12T11:23:23.000Z</time>
      </trkpt>
      <trkpt lat="45.34319" lon="6.17553">
        <ele>2103.3999023438</ele>
        <time>2012-02-12T11:23:28.000Z</time>
      </trkpt>
      <trkpt lat="45.34317" lon="6.17559">
        <ele>2104.3999023438</ele>
        <time>2012-02-12T11:23:33.000Z</time>
      </trkpt>
      <trkpt lat="45.34313" lon="6.17566">
        <ele>2104</ele>
        <time>2012-02-12T11:23:40.000Z</time>
      </trkpt>
      <trkpt lat="45.34309" lon="6.17569">
        <ele>2104.3999023438</ele>
        <time>2012-02-12T11:23:46.000Z</time>
      </trkpt>
      <trkpt lat="45.34306" lon="6.17568">
        <ele>2104</ele>
        <time>2012-02-12T11:23:57.000Z</time>
      </trkpt>
      <trkpt lat="45.34309" lon="6.17565">
        <ele>2104.6000976562</ele>
        <time>2012-02-12T11:24:06.000Z</time>
      </trkpt>
      <trkpt lat="45.34309" lon="6.17566">
        <ele>2104</ele>
        <time>2012-02-12T11:24:45.000Z</time>
      </trkpt>
      <trkpt lat="45.34306" lon="6.1757">
        <ele>2103.6000976562</ele>
        <time>2012-02-12T11:24:52.000Z</time>
      </trkpt>
      <trkpt lat="45.34305" lon="6.17573">
        <ele>2104</ele>
        <time>2012-02-12T11:24:54.000Z</time>
      </trkpt>
      <trkpt lat="45.34301" lon="6.17582">
        <ele>2104.6000976562</ele>
        <time>2012-02-12T11:25:00.000Z</time>
      </trkpt>
      <trkpt lat="45.34301" lon="6.17586">
        <ele>2104.1999511719</ele>
        <time>2012-02-12T11:25:04.000Z</time>
      </trkpt>
      <trkpt lat="45.34301" lon="6.17592">
        <ele>2103.8000488281</ele>
        <time>2012-02-12T11:25:09.000Z</time>
      </trkpt>
      <trkpt lat="45.34302" lon="6.17606">
        <ele>2102</ele>
        <time>2012-02-12T11:25:16.000Z</time>
      </trkpt>
      <trkpt lat="45.34304" lon="6.17614">
        <ele>2101</ele>
        <time>2012-02-12T11:25:21.000Z</time>
      </trkpt>
      <trkpt lat="45.34306" lon="6.17623">
        <ele>2099.3999023438</ele>
        <time>2012-02-12T11:25:26.000Z</time>
      </trkpt>
      <trkpt lat="45.34305" lon="6.17629">
        <ele>2099.1999511719</ele>
        <time>2012-02-12T11:25:31.000Z</time>
      </trkpt>
      <trkpt lat="45.34306" lon="6.17637">
        <ele>2100</ele>
        <time>2012-02-12T11:25:37.000Z</time>
      </trkpt>
      <trkpt lat="45.34306" lon="6.17639">
        <ele>2100.1999511719</ele>
        <time>2012-02-12T11:25:38.000Z</time>
      </trkpt>
      <trkpt lat="45.34311" lon="6.17643">
        <ele>2101.1999511719</ele>
        <time>2012-02-12T11:25:43.000Z</time>
      </trkpt>
      <trkpt lat="45.34314" lon="6.17645">
        <ele>2101.6000976562</ele>
        <time>2012-02-12T11:25:46.000Z</time>
      </trkpt>
      <trkpt lat="45.34316" lon="6.17647">
        <ele>2101.8000488281</ele>
        <time>2012-02-12T11:25:48.000Z</time>
      </trkpt>
      <trkpt lat="45.34318" lon="6.17656">
        <ele>2103</ele>
        <time>2012-02-12T11:25:54.000Z</time>
      </trkpt>
      <trkpt lat="45.3432" lon="6.17663">
        <ele>2103.6000976562</ele>
        <time>2012-02-12T11:25:59.000Z</time>
      </trkpt>
      <trkpt lat="45.34322" lon="6.17672">
        <ele>2104.6000976562</ele>
        <time>2012-02-12T11:26:05.000Z</time>
      </trkpt>
      <trkpt lat="45.34324" lon="6.17679">
        <ele>2106.1999511719</ele>
        <time>2012-02-12T11:26:12.000Z</time>
      </trkpt>
      <trkpt lat="45.34325" lon="6.17682">
        <ele>2106.1999511719</ele>
        <time>2012-02-12T11:26:16.000Z</time>
      </trkpt>
      <trkpt lat="45.3433" lon="6.17688">
        <ele>2107.8000488281</ele>
        <time>2012-02-12T11:26:22.000Z</time>
      </trkpt>
      <trkpt lat="45.34333" lon="6.17694">
        <ele>2109</ele>
        <time>2012-02-12T11:26:29.000Z</time>
      </trkpt>
      <trkpt lat="45.34334" lon="6.17695">
        <ele>2110</ele>
        <time>2012-02-12T11:26:31.000Z</time>
      </trkpt>
      <trkpt lat="45.34337" lon="6.177">
        <ele>2108.8000488281</ele>
        <time>2012-02-12T11:26:36.000Z</time>
      </trkpt>
      <trkpt lat="45.34337" lon="6.17704">
        <ele>2109.8000488281</ele>
        <time>2012-02-12T11:26:40.000Z</time>
      </trkpt>
      <trkpt lat="45.34339" lon="6.1771">
        <ele>2111.6000976562</ele>
        <time>2012-02-12T11:26:45.000Z</time>
      </trkpt>
      <trkpt lat="45.3434" lon="6.17714">
        <ele>2111.1999511719</ele>
        <time>2012-02-12T11:26:48.000Z</time>
      </trkpt>
      <trkpt lat="45.34341" lon="6.17719">
        <ele>2111.6000976562</ele>
        <time>2012-02-12T11:26:53.000Z</time>
      </trkpt>
      <trkpt lat="45.34342" lon="6.17724">
        <ele>2113.8000488281</ele>
        <time>2012-02-12T11:26:58.000Z</time>
      </trkpt>
      <trkpt lat="45.34343" lon="6.17728">
        <ele>2112.1999511719</ele>
        <time>2012-02-12T11:27:02.000Z</time>
      </trkpt>
      <trkpt lat="45.34343" lon="6.17733">
        <ele>2114</ele>
        <time>2012-02-12T11:27:07.000Z</time>
      </trkpt>
      <trkpt lat="45.34342" lon="6.17736">
        <ele>2115.1999511719</ele>
        <time>2012-02-12T11:27:12.000Z</time>
      </trkpt>
      <trkpt lat="45.34336" lon="6.17739">
        <ele>2118</ele>
        <time>2012-02-12T11:27:18.000Z</time>
      </trkpt>
      <trkpt lat="45.34331" lon="6.17739">
        <ele>2118.1999511719</ele>
        <time>2012-02-12T11:27:22.000Z</time>
      </trkpt>
      <trkpt lat="45.3433" lon="6.17741">
        <ele>2118.8000488281</ele>
        <time>2012-02-12T11:27:25.000Z</time>
      </trkpt>
      <trkpt lat="45.34327" lon="6.17742">
        <ele>2120.1999511719</ele>
        <time>2012-02-12T11:27:30.000Z</time>
      </trkpt>
      <trkpt lat="45.34324" lon="6.17746">
        <ele>2119.8000488281</ele>
        <time>2012-02-12T11:27:37.000Z</time>
      </trkpt>
      <trkpt lat="45.34319" lon="6.1775">
        <ele>2120.1999511719</ele>
        <time>2012-02-12T11:27:44.000Z</time>
      </trkpt>
      <trkpt lat="45.34318" lon="6.17753">
        <ele>2120.8000488281</ele>
        <time>2012-02-12T11:27:48.000Z</time>
      </trkpt>
      <trkpt lat="45.34318" lon="6.17755">
        <ele>2121.8000488281</ele>
        <time>2012-02-12T11:27:50.000Z</time>
      </trkpt>
      <trkpt lat="45.34318" lon="6.17757">
        <ele>2123</ele>
        <time>2012-02-12T11:27:52.000Z</time>
      </trkpt>
      <trkpt lat="45.34317" lon="6.17758">
        <ele>2123.1999511719</ele>
        <time>2012-02-12T11:27:54.000Z</time>
      </trkpt>
      <trkpt lat="45.34317" lon="6.17765">
        <ele>2123.3999023438</ele>
        <time>2012-02-12T11:28:01.000Z</time>
      </trkpt>
      <trkpt lat="45.3432" lon="6.17768">
        <ele>2125.6000976562</ele>
        <time>2012-02-12T11:28:06.000Z</time>
      </trkpt>
      <trkpt lat="45.34324" lon="6.17773">
        <ele>2126.8000488281</ele>
        <time>2012-02-12T11:28:12.000Z</time>
      </trkpt>
      <trkpt lat="45.34326" lon="6.17779">
        <ele>2126.6000976562</ele>
        <time>2012-02-12T11:28:17.000Z</time>
      </trkpt>
      <trkpt lat="45.34329" lon="6.17785">
        <ele>2125.8000488281</ele>
        <time>2012-02-12T11:28:21.000Z</time>
      </trkpt>
      <trkpt lat="45.34331" lon="6.17787">
        <ele>2127.8000488281</ele>
        <time>2012-02-12T11:28:26.000Z</time>
      </trkpt>
      <trkpt lat="45.34334" lon="6.17789">
        <ele>2129.8000488281</ele>
        <time>2012-02-12T11:28:30.000Z</time>
      </trkpt>
      <trkpt lat="45.34335" lon="6.17791">
        <ele>2129.1999511719</ele>
        <time>2012-02-12T11:28:32.000Z</time>
      </trkpt>
      <trkpt lat="45.34337" lon="6.17795">
        <ele>2129.3999023438</ele>
        <time>2012-02-12T11:28:34.000Z</time>
      </trkpt>
      <trkpt lat="45.3434" lon="6.17799">
        <ele>2129.8000488281</ele>
        <time>2012-02-12T11:28:39.000Z</time>
      </trkpt>
      <trkpt lat="45.34342" lon="6.17804">
        <ele>2131.8000488281</ele>
        <time>2012-02-12T11:28:44.000Z</time>
      </trkpt>
      <trkpt lat="45.34342" lon="6.17805">
        <ele>2132</ele>
        <time>2012-02-12T11:28:45.000Z</time>
      </trkpt>
      <trkpt lat="45.34338" lon="6.17808">
        <ele>2133.1999511719</ele>
        <time>2012-02-12T11:28:52.000Z</time>
      </trkpt>
      <trkpt lat="45.34337" lon="6.17809">
        <ele>2133.3999023438</ele>
        <time>2012-02-12T11:28:53.000Z</time>
      </trkpt>
      <trkpt lat="45.34335" lon="6.17814">
        <ele>2133.6000976562</ele>
        <time>2012-02-12T11:29:00.000Z</time>
      </trkpt>
      <trkpt lat="45.34333" lon="6.17816">
        <ele>2133</ele>
        <time>2012-02-12T11:29:05.000Z</time>
      </trkpt>
      <trkpt lat="45.34332" lon="6.17818">
        <ele>2136</ele>
        <time>2012-02-12T11:29:09.000Z</time>
      </trkpt>
      <trkpt lat="45.3433" lon="6.1782">
        <ele>2136.1999511719</ele>
        <time>2012-02-12T11:29:14.000Z</time>
      </trkpt>
      <trkpt lat="45.3433" lon="6.17821">
        <ele>2136.6000976562</ele>
        <time>2012-02-12T11:29:15.000Z</time>
      </trkpt>
      <trkpt lat="45.34327" lon="6.17826">
        <ele>2135.6000976562</ele>
        <time>2012-02-12T11:29:21.000Z</time>
      </trkpt>
      <trkpt lat="45.34325" lon="6.1783">
        <ele>2138</ele>
        <time>2012-02-12T11:29:26.000Z</time>
      </trkpt>
      <trkpt lat="45.34321" lon="6.17831">
        <ele>2139.6000976562</ele>
        <time>2012-02-12T11:29:31.000Z</time>
      </trkpt>
      <trkpt lat="45.34318" lon="6.17832">
        <ele>2140.1999511719</ele>
        <time>2012-02-12T11:29:36.000Z</time>
      </trkpt>
      <trkpt lat="45.34319" lon="6.17835">
        <ele>2139.8000488281</ele>
        <time>2012-02-12T11:29:42.000Z</time>
      </trkpt>
      <trkpt lat="45.3432" lon="6.17837">
        <ele>2140.1999511719</ele>
        <time>2012-02-12T11:29:45.000Z</time>
      </trkpt>
      <trkpt lat="45.34323" lon="6.17841">
        <ele>2141.6000976562</ele>
        <time>2012-02-12T11:29:52.000Z</time>
      </trkpt>
      <trkpt lat="45.34325" lon="6.17844">
        <ele>2142.3999023438</ele>
        <time>2012-02-12T11:29:56.000Z</time>
      </trkpt>
      <trkpt lat="45.34328" lon="6.17846">
        <ele>2142.8000488281</ele>
        <time>2012-02-12T11:29:59.000Z</time>
      </trkpt>
      <trkpt lat="45.34333" lon="6.17849">
        <ele>2143.3999023438</ele>
        <time>2012-02-12T11:30:06.000Z</time>
      </trkpt>
      <trkpt lat="45.34335" lon="6.17849">
        <ele>2144.3999023438</ele>
        <time>2012-02-12T11:30:12.000Z</time>
      </trkpt>
      <trkpt lat="45.34338" lon="6.17849">
        <ele>2146</ele>
        <time>2012-02-12T11:30:16.000Z</time>
      </trkpt>
      <trkpt lat="45.34341" lon="6.17849">
        <ele>2146</ele>
        <time>2012-02-12T11:30:21.000Z</time>
      </trkpt>
      <trkpt lat="45.34345" lon="6.17849">
        <ele>2146.1999511719</ele>
        <time>2012-02-12T11:30:27.000Z</time>
      </trkpt>
      <trkpt lat="45.34347" lon="6.17849">
        <ele>2147.1999511719</ele>
        <time>2012-02-12T11:30:33.000Z</time>
      </trkpt>
      <trkpt lat="45.34349" lon="6.17848">
        <ele>2149.1999511719</ele>
        <time>2012-02-12T11:30:39.000Z</time>
      </trkpt>
      <trkpt lat="45.34349" lon="6.1785">
        <ele>2148.8000488281</ele>
        <time>2012-02-12T11:30:41.000Z</time>
      </trkpt>
      <trkpt lat="45.34348" lon="6.17858">
        <ele>2151</ele>
        <time>2012-02-12T11:30:47.000Z</time>
      </trkpt>
      <trkpt lat="45.34348" lon="6.17859">
        <ele>2151.6000976562</ele>
        <time>2012-02-12T11:30:49.000Z</time>
      </trkpt>
      <trkpt lat="45.34347" lon="6.17861">
        <ele>2151</ele>
        <time>2012-02-12T11:30:53.000Z</time>
      </trkpt>
      <trkpt lat="45.34347" lon="6.17863">
        <ele>2151.6000976562</ele>
        <time>2012-02-12T11:30:56.000Z</time>
      </trkpt>
      <trkpt lat="45.34345" lon="6.17868">
        <ele>2152.6000976562</ele>
        <time>2012-02-12T11:31:02.000Z</time>
      </trkpt>
      <trkpt lat="45.34344" lon="6.17871">
        <ele>2153.6000976562</ele>
        <time>2012-02-12T11:31:08.000Z</time>
      </trkpt>
      <trkpt lat="45.34343" lon="6.17873">
        <ele>2155</ele>
        <time>2012-02-12T11:31:12.000Z</time>
      </trkpt>
      <trkpt lat="45.34341" lon="6.17877">
        <ele>2155.1999511719</ele>
        <time>2012-02-12T11:31:17.000Z</time>
      </trkpt>
      <trkpt lat="45.34341" lon="6.17881">
        <ele>2156.8000488281</ele>
        <time>2012-02-12T11:31:23.000Z</time>
      </trkpt>
      <trkpt lat="45.34339" lon="6.17884">
        <ele>2157.3999023438</ele>
        <time>2012-02-12T11:31:29.000Z</time>
      </trkpt>
      <trkpt lat="45.34336" lon="6.17887">
        <ele>2159.6000976562</ele>
        <time>2012-02-12T11:31:34.000Z</time>
      </trkpt>
      <trkpt lat="45.34333" lon="6.1789">
        <ele>2158.8000488281</ele>
        <time>2012-02-12T11:31:40.000Z</time>
      </trkpt>
      <trkpt lat="45.3433" lon="6.17893">
        <ele>2159.8000488281</ele>
        <time>2012-02-12T11:31:47.000Z</time>
      </trkpt>
      <trkpt lat="45.34327" lon="6.17897">
        <ele>2161.1999511719</ele>
        <time>2012-02-12T11:31:53.000Z</time>
      </trkpt>
      <trkpt lat="45.34326" lon="6.17901">
        <ele>2161.8000488281</ele>
        <time>2012-02-12T11:31:59.000Z</time>
      </trkpt>
      <trkpt lat="45.34323" lon="6.17906">
        <ele>2162.6000976562</ele>
        <time>2012-02-12T11:32:28.000Z</time>
      </trkpt>
      <trkpt lat="45.34322" lon="6.17906">
        <ele>2162.8000488281</ele>
        <time>2012-02-12T11:32:30.000Z</time>
      </trkpt>
      <trkpt lat="45.34317" lon="6.17909">
        <ele>2164.3999023438</ele>
        <time>2012-02-12T11:32:36.000Z</time>
      </trkpt>
      <trkpt lat="45.34317" lon="6.17909">
        <ele>2164.6000976562</ele>
        <time>2012-02-12T11:32:37.000Z</time>
      </trkpt>
      <trkpt lat="45.34314" lon="6.17912">
        <ele>2165</ele>
        <time>2012-02-12T11:32:43.000Z</time>
      </trkpt>
      <trkpt lat="45.34318" lon="6.17914">
        <ele>2165.3999023438</ele>
        <time>2012-02-12T11:32:51.000Z</time>
      </trkpt>
      <trkpt lat="45.34319" lon="6.17915">
        <ele>2166</ele>
        <time>2012-02-12T11:32:52.000Z</time>
      </trkpt>
      <trkpt lat="45.34322" lon="6.17917">
        <ele>2166.8000488281</ele>
        <time>2012-02-12T11:32:57.000Z</time>
      </trkpt>
      <trkpt lat="45.34325" lon="6.17918">
        <ele>2168.3999023438</ele>
        <time>2012-02-12T11:33:03.000Z</time>
      </trkpt>
      <trkpt lat="45.34326" lon="6.17918">
        <ele>2168.1999511719</ele>
        <time>2012-02-12T11:33:04.000Z</time>
      </trkpt>
      <trkpt lat="45.3433" lon="6.17919">
        <ele>2169.3999023438</ele>
        <time>2012-02-12T11:33:10.000Z</time>
      </trkpt>
      <trkpt lat="45.34331" lon="6.1792">
        <ele>2169.6000976562</ele>
        <time>2012-02-12T11:33:11.000Z</time>
      </trkpt>
      <trkpt lat="45.34335" lon="6.17921">
        <ele>2170.3999023438</ele>
        <time>2012-02-12T11:33:16.000Z</time>
      </trkpt>
      <trkpt lat="45.34334" lon="6.17923">
        <ele>2170.8000488281</ele>
        <time>2012-02-12T11:33:22.000Z</time>
      </trkpt>
      <trkpt lat="45.34331" lon="6.17927">
        <ele>2170.8000488281</ele>
        <time>2012-02-12T11:33:29.000Z</time>
      </trkpt>
      <trkpt lat="45.34327" lon="6.17932">
        <ele>2172.8000488281</ele>
        <time>2012-02-12T11:33:35.000Z</time>
      </trkpt>
      <trkpt lat="45.34327" lon="6.17932">
        <ele>2173</ele>
        <time>2012-02-12T11:33:36.000Z</time>
      </trkpt>
      <trkpt lat="45.34324" lon="6.17934">
        <ele>2173.8000488281</ele>
        <time>2012-02-12T11:33:41.000Z</time>
      </trkpt>
      <trkpt lat="45.34323" lon="6.17935">
        <ele>2173.8000488281</ele>
        <time>2012-02-12T11:33:45.000Z</time>
      </trkpt>
      <trkpt lat="45.34321" lon="6.17937">
        <ele>2174.1999511719</ele>
        <time>2012-02-12T11:33:50.000Z</time>
      </trkpt>
      <trkpt lat="45.34319" lon="6.17938">
        <ele>2176</ele>
        <time>2012-02-12T11:33:55.000Z</time>
      </trkpt>
      <trkpt lat="45.34316" lon="6.17941">
        <ele>2178.1999511719</ele>
        <time>2012-02-12T11:34:00.000Z</time>
      </trkpt>
      <trkpt lat="45.34315" lon="6.17941">
        <ele>2178.3999023438</ele>
        <time>2012-02-12T11:34:01.000Z</time>
      </trkpt>
      <trkpt lat="45.34311" lon="6.17942">
        <ele>2177.8000488281</ele>
        <time>2012-02-12T11:34:07.000Z</time>
      </trkpt>
      <trkpt lat="45.3431" lon="6.17942">
        <ele>2180</ele>
        <time>2012-02-12T11:34:11.000Z</time>
      </trkpt>
      <trkpt lat="45.34308" lon="6.17942">
        <ele>2180</ele>
        <time>2012-02-12T11:34:14.000Z</time>
      </trkpt>
      <trkpt lat="45.34305" lon="6.17944">
        <ele>2181.1999511719</ele>
        <time>2012-02-12T11:34:19.000Z</time>
      </trkpt>
      <trkpt lat="45.34301" lon="6.17944">
        <ele>2183</ele>
        <time>2012-02-12T11:34:24.000Z</time>
      </trkpt>
      <trkpt lat="45.34297" lon="6.17949">
        <ele>2184</ele>
        <time>2012-02-12T11:34:29.000Z</time>
      </trkpt>
      <trkpt lat="45.34295" lon="6.17953">
        <ele>2183.8000488281</ele>
        <time>2012-02-12T11:34:34.000Z</time>
      </trkpt>
      <trkpt lat="45.34294" lon="6.17955">
        <ele>2183.6000976562</ele>
        <time>2012-02-12T11:34:38.000Z</time>
      </trkpt>
      <trkpt lat="45.34292" lon="6.1796">
        <ele>2185</ele>
        <time>2012-02-12T11:34:43.000Z</time>
      </trkpt>
      <trkpt lat="45.34293" lon="6.17963">
        <ele>2185</ele>
        <time>2012-02-12T11:34:48.000Z</time>
      </trkpt>
      <trkpt lat="45.34297" lon="6.17963">
        <ele>2186.6000976562</ele>
        <time>2012-02-12T11:34:52.000Z</time>
      </trkpt>
      <trkpt lat="45.34297" lon="6.17963">
        <ele>2187.3999023438</ele>
        <time>2012-02-12T11:34:53.000Z</time>
      </trkpt>
      <trkpt lat="45.343" lon="6.17964">
        <ele>2187.8000488281</ele>
        <time>2012-02-12T11:34:56.000Z</time>
      </trkpt>
      <trkpt lat="45.34303" lon="6.17968">
        <ele>2189</ele>
        <time>2012-02-12T11:35:01.000Z</time>
      </trkpt>
      <trkpt lat="45.34305" lon="6.17971">
        <ele>2188.3999023438</ele>
        <time>2012-02-12T11:35:06.000Z</time>
      </trkpt>
      <trkpt lat="45.34305" lon="6.17972">
        <ele>2188.6000976562</ele>
        <time>2012-02-12T11:35:08.000Z</time>
      </trkpt>
      <trkpt lat="45.34305" lon="6.17972">
        <ele>2189.8000488281</ele>
        <time>2012-02-12T11:35:13.000Z</time>
      </trkpt>
      <trkpt lat="45.34303" lon="6.17971">
        <ele>2190</ele>
        <time>2012-02-12T11:35:17.000Z</time>
      </trkpt>
      <trkpt lat="45.343" lon="6.17971">
        <ele>2191.8000488281</ele>
        <time>2012-02-12T11:35:22.000Z</time>
      </trkpt>
      <trkpt lat="45.34297" lon="6.17976">
        <ele>2193.1999511719</ele>
        <time>2012-02-12T11:35:29.000Z</time>
      </trkpt>
      <trkpt lat="45.34295" lon="6.17976">
        <ele>2193.1999511719</ele>
        <time>2012-02-12T11:35:33.000Z</time>
      </trkpt>
      <trkpt lat="45.34293" lon="6.1798">
        <ele>2193.1999511719</ele>
        <time>2012-02-12T11:35:38.000Z</time>
      </trkpt>
      <trkpt lat="45.3429" lon="6.17985">
        <ele>2193.8000488281</ele>
        <time>2012-02-12T11:35:42.000Z</time>
      </trkpt>
      <trkpt lat="45.34289" lon="6.17988">
        <ele>2195.1999511719</ele>
        <time>2012-02-12T11:35:45.000Z</time>
      </trkpt>
      <trkpt lat="45.34289" lon="6.1799">
        <ele>2196.6000976562</ele>
        <time>2012-02-12T11:35:48.000Z</time>
      </trkpt>
      <trkpt lat="45.34285" lon="6.17992">
        <ele>2196</ele>
        <time>2012-02-12T11:35:54.000Z</time>
      </trkpt>
      <trkpt lat="45.34283" lon="6.17995">
        <ele>2197.6000976562</ele>
        <time>2012-02-12T11:35:59.000Z</time>
      </trkpt>
      <trkpt lat="45.34282" lon="6.17997">
        <ele>2198.3999023438</ele>
        <time>2012-02-12T11:36:02.000Z</time>
      </trkpt>
      <trkpt lat="45.34279" lon="6.17999">
        <ele>2198.3999023438</ele>
        <time>2012-02-12T11:36:07.000Z</time>
      </trkpt>
      <trkpt lat="45.34277" lon="6.17999">
        <ele>2199.3999023438</ele>
        <time>2012-02-12T11:36:11.000Z</time>
      </trkpt>
      <trkpt lat="45.34276" lon="6.17999">
        <ele>2199.3999023438</ele>
        <time>2012-02-12T11:36:16.000Z</time>
      </trkpt>
      <trkpt lat="45.34276" lon="6.18">
        <ele>2199.6000976562</ele>
        <time>2012-02-12T11:36:17.000Z</time>
      </trkpt>
      <trkpt lat="45.34273" lon="6.18002">
        <ele>2200</ele>
        <time>2012-02-12T11:36:22.000Z</time>
      </trkpt>
      <trkpt lat="45.34272" lon="6.18001">
        <ele>2200.8000488281</ele>
        <time>2012-02-12T11:36:26.000Z</time>
      </trkpt>
      <trkpt lat="45.34269" lon="6.18003">
        <ele>2201.6000976562</ele>
        <time>2012-02-12T11:36:34.000Z</time>
      </trkpt>
      <trkpt lat="45.34271" lon="6.18006">
        <ele>2202.8000488281</ele>
        <time>2012-02-12T11:36:45.000Z</time>
      </trkpt>
      <trkpt lat="45.34272" lon="6.18007">
        <ele>2203.8000488281</ele>
        <time>2012-02-12T11:36:47.000Z</time>
      </trkpt>
      <trkpt lat="45.34275" lon="6.18008">
        <ele>2203.1999511719</ele>
        <time>2012-02-12T11:36:51.000Z</time>
      </trkpt>
      <trkpt lat="45.34278" lon="6.18009">
        <ele>2205.8000488281</ele>
        <time>2012-02-12T11:36:57.000Z</time>
      </trkpt>
      <trkpt lat="45.34282" lon="6.18012">
        <ele>2205.8000488281</ele>
        <time>2012-02-12T11:37:03.000Z</time>
      </trkpt>
      <trkpt lat="45.34286" lon="6.18013">
        <ele>2206</ele>
        <time>2012-02-12T11:37:10.000Z</time>
      </trkpt>
      <trkpt lat="45.34288" lon="6.18015">
        <ele>2207.6000976562</ele>
        <time>2012-02-12T11:37:15.000Z</time>
      </trkpt>
      <trkpt lat="45.34292" lon="6.18016">
        <ele>2208.6000976562</ele>
        <time>2012-02-12T11:37:20.000Z</time>
      </trkpt>
      <trkpt lat="45.34294" lon="6.1802">
        <ele>2210.1999511719</ele>
        <time>2012-02-12T11:37:26.000Z</time>
      </trkpt>
      <trkpt lat="45.34297" lon="6.18022">
        <ele>2211.1999511719</ele>
        <time>2012-02-12T11:37:31.000Z</time>
      </trkpt>
      <trkpt lat="45.343" lon="6.18026">
        <ele>2211.3999023438</ele>
        <time>2012-02-12T11:37:37.000Z</time>
      </trkpt>
      <trkpt lat="45.34303" lon="6.18027">
        <ele>2211.6000976562</ele>
        <time>2012-02-12T11:37:42.000Z</time>
      </trkpt>
      <trkpt lat="45.34308" lon="6.18027">
        <ele>2213</ele>
        <time>2012-02-12T11:37:49.000Z</time>
      </trkpt>
      <trkpt lat="45.34311" lon="6.1803">
        <ele>2214.3999023438</ele>
        <time>2012-02-12T11:37:54.000Z</time>
      </trkpt>
      <trkpt lat="45.34314" lon="6.18032">
        <ele>2215</ele>
        <time>2012-02-12T11:38:00.000Z</time>
      </trkpt>
      <trkpt lat="45.34315" lon="6.18033">
        <ele>2215.1999511719</ele>
        <time>2012-02-12T11:38:01.000Z</time>
      </trkpt>
      <trkpt lat="45.34316" lon="6.18036">
        <ele>2216</ele>
        <time>2012-02-12T11:38:15.000Z</time>
      </trkpt>
      <trkpt lat="45.34321" lon="6.18036">
        <ele>2217.3999023438</ele>
        <time>2012-02-12T11:38:21.000Z</time>
      </trkpt>
      <trkpt lat="45.34323" lon="6.18036">
        <ele>2218.6000976562</ele>
        <time>2012-02-12T11:38:25.000Z</time>
      </trkpt>
      <trkpt lat="45.34327" lon="6.18037">
        <ele>2217.6000976562</ele>
        <time>2012-02-12T11:38:30.000Z</time>
      </trkpt>
      <trkpt lat="45.34332" lon="6.18036">
        <ele>2219.1999511719</ele>
        <time>2012-02-12T11:38:38.000Z</time>
      </trkpt>
      <trkpt lat="45.34334" lon="6.18036">
        <ele>2220.1999511719</ele>
        <time>2012-02-12T11:38:42.000Z</time>
      </trkpt>
      <trkpt lat="45.34337" lon="6.18035">
        <ele>2221.3999023438</ele>
        <time>2012-02-12T11:38:48.000Z</time>
      </trkpt>
      <trkpt lat="45.34339" lon="6.18035">
        <ele>2222.1999511719</ele>
        <time>2012-02-12T11:38:55.000Z</time>
      </trkpt>
      <trkpt lat="45.34342" lon="6.18034">
        <ele>2223.6000976562</ele>
        <time>2012-02-12T11:39:04.000Z</time>
      </trkpt>
      <trkpt lat="45.34344" lon="6.18034">
        <ele>2224.8000488281</ele>
        <time>2012-02-12T11:39:10.000Z</time>
      </trkpt>
      <trkpt lat="45.34343" lon="6.18037">
        <ele>2224.8000488281</ele>
        <time>2012-02-12T11:39:15.000Z</time>
      </trkpt>
      <trkpt lat="45.34342" lon="6.18042">
        <ele>2227</ele>
        <time>2012-02-12T11:39:21.000Z</time>
      </trkpt>
      <trkpt lat="45.34341" lon="6.18045">
        <ele>2227.1999511719</ele>
        <time>2012-02-12T11:39:27.000Z</time>
      </trkpt>
      <trkpt lat="45.34336" lon="6.18055">
        <ele>2228.1999511719</ele>
        <time>2012-02-12T11:39:50.000Z</time>
      </trkpt>
      <trkpt lat="45.34335" lon="6.18055">
        <ele>2228.8000488281</ele>
        <time>2012-02-12T11:39:56.000Z</time>
      </trkpt>
      <trkpt lat="45.34334" lon="6.18059">
        <ele>2229.8000488281</ele>
        <time>2012-02-12T11:40:04.000Z</time>
      </trkpt>
      <trkpt lat="45.34332" lon="6.18063">
        <ele>2231.3999023438</ele>
        <time>2012-02-12T11:40:10.000Z</time>
      </trkpt>
      <trkpt lat="45.34332" lon="6.18068">
        <ele>2231.8000488281</ele>
        <time>2012-02-12T11:40:21.000Z</time>
      </trkpt>
      <trkpt lat="45.34329" lon="6.18072">
        <ele>2232.8000488281</ele>
        <time>2012-02-12T11:40:27.000Z</time>
      </trkpt>
      <trkpt lat="45.34327" lon="6.18075">
        <ele>2234</ele>
        <time>2012-02-12T11:40:33.000Z</time>
      </trkpt>
      <trkpt lat="45.34325" lon="6.18076">
        <ele>2234.8000488281</ele>
        <time>2012-02-12T11:40:41.000Z</time>
      </trkpt>
      <trkpt lat="45.34324" lon="6.18078">
        <ele>2237</ele>
        <time>2012-02-12T11:40:45.000Z</time>
      </trkpt>
      <trkpt lat="45.34322" lon="6.18078">
        <ele>2236.1999511719</ele>
        <time>2012-02-12T11:40:50.000Z</time>
      </trkpt>
      <trkpt lat="45.34318" lon="6.18078">
        <ele>2237.6000976562</ele>
        <time>2012-02-12T11:41:12.000Z</time>
      </trkpt>
      <trkpt lat="45.34316" lon="6.18079">
        <ele>2239.1999511719</ele>
        <time>2012-02-12T11:41:17.000Z</time>
      </trkpt>
      <trkpt lat="45.34315" lon="6.18079">
        <ele>2238.8000488281</ele>
        <time>2012-02-12T11:41:22.000Z</time>
      </trkpt>
      <trkpt lat="45.34312" lon="6.1808">
        <ele>2242</ele>
        <time>2012-02-12T11:41:27.000Z</time>
      </trkpt>
      <trkpt lat="45.3431" lon="6.1808">
        <ele>2240.6000976562</ele>
        <time>2012-02-12T11:41:35.000Z</time>
      </trkpt>
      <trkpt lat="45.34307" lon="6.1808">
        <ele>2242.3999023438</ele>
        <time>2012-02-12T11:41:57.000Z</time>
      </trkpt>
      <trkpt lat="45.34306" lon="6.1808">
        <ele>2244.3999023438</ele>
        <time>2012-02-12T11:42:01.000Z</time>
      </trkpt>
      <trkpt lat="45.34305" lon="6.1808">
        <ele>2245.3999023438</ele>
        <time>2012-02-12T11:42:08.000Z</time>
      </trkpt>
      <trkpt lat="45.34305" lon="6.18083">
        <ele>2242.8000488281</ele>
        <time>2012-02-12T11:42:16.000Z</time>
      </trkpt>
      <trkpt lat="45.34307" lon="6.18086">
        <ele>2244.6000976562</ele>
        <time>2012-02-12T11:42:22.000Z</time>
      </trkpt>
      <trkpt lat="45.34311" lon="6.18088">
        <ele>2247.1999511719</ele>
        <time>2012-02-12T11:42:29.000Z</time>
      </trkpt>
      <trkpt lat="45.34312" lon="6.1809">
        <ele>2247.3999023438</ele>
        <time>2012-02-12T11:42:33.000Z</time>
      </trkpt>
      <trkpt lat="45.34313" lon="6.18094">
        <ele>2249</ele>
        <time>2012-02-12T11:42:38.000Z</time>
      </trkpt>
      <trkpt lat="45.34312" lon="6.18098">
        <ele>2249.1999511719</ele>
        <time>2012-02-12T11:42:44.000Z</time>
      </trkpt>
      <trkpt lat="45.34312" lon="6.18099">
        <ele>2249.1999511719</ele>
        <time>2012-02-12T11:42:45.000Z</time>
      </trkpt>
      <trkpt lat="45.34313" lon="6.181">
        <ele>2250.3999023438</ele>
        <time>2012-02-12T11:42:47.000Z</time>
      </trkpt>
      <trkpt lat="45.34315" lon="6.18101">
        <ele>2249.6000976562</ele>
        <time>2012-02-12T11:42:51.000Z</time>
      </trkpt>
      <trkpt lat="45.34316" lon="6.18103">
        <ele>2250.6000976562</ele>
        <time>2012-02-12T11:42:55.000Z</time>
      </trkpt>
      <trkpt lat="45.34319" lon="6.18104">
        <ele>2250.8000488281</ele>
        <time>2012-02-12T11:43:00.000Z</time>
      </trkpt>
      <trkpt lat="45.34322" lon="6.18107">
        <ele>2252.8000488281</ele>
        <time>2012-02-12T11:43:07.000Z</time>
      </trkpt>
      <trkpt lat="45.34326" lon="6.18109">
        <ele>2253.6000976562</ele>
        <time>2012-02-12T11:43:13.000Z</time>
      </trkpt>
      <trkpt lat="45.3433" lon="6.1811">
        <ele>2254.6000976562</ele>
        <time>2012-02-12T11:43:20.000Z</time>
      </trkpt>
      <trkpt lat="45.34334" lon="6.18111">
        <ele>2256.1999511719</ele>
        <time>2012-02-12T11:43:26.000Z</time>
      </trkpt>
      <trkpt lat="45.34338" lon="6.18111">
        <ele>2257.6000976562</ele>
        <time>2012-02-12T11:43:33.000Z</time>
      </trkpt>
      <trkpt lat="45.34339" lon="6.18111">
        <ele>2257.3999023438</ele>
        <time>2012-02-12T11:43:34.000Z</time>
      </trkpt>
      <trkpt lat="45.34342" lon="6.1811">
        <ele>2258.6000976562</ele>
        <time>2012-02-12T11:43:39.000Z</time>
      </trkpt>
      <trkpt lat="45.34344" lon="6.18109">
        <ele>2261.6000976562</ele>
        <time>2012-02-12T11:43:43.000Z</time>
      </trkpt>
      <trkpt lat="45.34349" lon="6.18108">
        <ele>2262.6000976562</ele>
        <time>2012-02-12T11:43:50.000Z</time>
      </trkpt>
      <trkpt lat="45.34353" lon="6.18109">
        <ele>2263.3999023438</ele>
        <time>2012-02-12T11:43:56.000Z</time>
      </trkpt>
      <trkpt lat="45.34355" lon="6.18111">
        <ele>2263.6000976562</ele>
        <time>2012-02-12T11:44:00.000Z</time>
      </trkpt>
      <trkpt lat="45.34358" lon="6.18114">
        <ele>2265.8000488281</ele>
        <time>2012-02-12T11:44:07.000Z</time>
      </trkpt>
      <trkpt lat="45.3436" lon="6.18117">
        <ele>2266.6000976562</ele>
        <time>2012-02-12T11:44:12.000Z</time>
      </trkpt>
      <trkpt lat="45.34361" lon="6.1812">
        <ele>2268.6000976562</ele>
        <time>2012-02-12T11:44:17.000Z</time>
      </trkpt>
      <trkpt lat="45.34361" lon="6.18121">
        <ele>2269</ele>
        <time>2012-02-12T11:44:18.000Z</time>
      </trkpt>
      <trkpt lat="45.34363" lon="6.18126">
        <ele>2268.8000488281</ele>
        <time>2012-02-12T11:44:24.000Z</time>
      </trkpt>
      <trkpt lat="45.34363" lon="6.18129">
        <ele>2268.8000488281</ele>
        <time>2012-02-12T11:44:28.000Z</time>
      </trkpt>
      <trkpt lat="45.34366" lon="6.18133">
        <ele>2269.3999023438</ele>
        <time>2012-02-12T11:44:35.000Z</time>
      </trkpt>
      <trkpt lat="45.34367" lon="6.18137">
        <ele>2270.8000488281</ele>
        <time>2012-02-12T11:44:40.000Z</time>
      </trkpt>
      <trkpt lat="45.34366" lon="6.1814">
        <ele>2272.1999511719</ele>
        <time>2012-02-12T11:44:44.000Z</time>
      </trkpt>
      <trkpt lat="45.34365" lon="6.1814">
        <ele>2272.3999023438</ele>
        <time>2012-02-12T11:44:45.000Z</time>
      </trkpt>
      <trkpt lat="45.34361" lon="6.18141">
        <ele>2271.8000488281</ele>
        <time>2012-02-12T11:44:52.000Z</time>
      </trkpt>
      <trkpt lat="45.3436" lon="6.18132">
        <ele>2273.3999023438</ele>
        <time>2012-02-12T11:45:23.000Z</time>
      </trkpt>
      <trkpt lat="45.34358" lon="6.18138">
        <ele>2272.6000976562</ele>
        <time>2012-02-12T11:45:48.000Z</time>
      </trkpt>
      <trkpt lat="45.34352" lon="6.18139">
        <ele>2272.1999511719</ele>
        <time>2012-02-12T11:47:44.000Z</time>
      </trkpt>
      <trkpt lat="45.34349" lon="6.18141">
        <ele>2273.3999023438</ele>
        <time>2012-02-12T11:47:50.000Z</time>
      </trkpt>
      <trkpt lat="45.34348" lon="6.18142">
        <ele>2274</ele>
        <time>2012-02-12T11:47:52.000Z</time>
      </trkpt>
      <trkpt lat="45.34343" lon="6.18149">
        <ele>2275.3999023438</ele>
        <time>2012-02-12T11:48:01.000Z</time>
      </trkpt>
      <trkpt lat="45.3434" lon="6.18155">
        <ele>2276.8000488281</ele>
        <time>2012-02-12T11:48:07.000Z</time>
      </trkpt>
      <trkpt lat="45.3434" lon="6.18156">
        <ele>2276.8000488281</ele>
        <time>2012-02-12T11:48:12.000Z</time>
      </trkpt>
      <trkpt lat="45.34347" lon="6.18158">
        <ele>2278.6000976562</ele>
        <time>2012-02-12T11:48:20.000Z</time>
      </trkpt>
      <trkpt lat="45.34351" lon="6.18161">
        <ele>2280.3999023438</ele>
        <time>2012-02-12T11:48:26.000Z</time>
      </trkpt>
      <trkpt lat="45.34354" lon="6.18163">
        <ele>2281.8000488281</ele>
        <time>2012-02-12T11:48:32.000Z</time>
      </trkpt>
      <trkpt lat="45.34355" lon="6.18164">
        <ele>2281.6000976562</ele>
        <time>2012-02-12T11:48:37.000Z</time>
      </trkpt>
      <trkpt lat="45.34353" lon="6.18164">
        <ele>2282.1999511719</ele>
        <time>2012-02-12T11:48:43.000Z</time>
      </trkpt>
      <trkpt lat="45.34351" lon="6.18164">
        <ele>2281.8000488281</ele>
        <time>2012-02-12T11:48:48.000Z</time>
      </trkpt>
      <trkpt lat="45.34347" lon="6.18167">
        <ele>2282.1999511719</ele>
        <time>2012-02-12T11:48:55.000Z</time>
      </trkpt>
      <trkpt lat="45.34345" lon="6.18169">
        <ele>2283.8000488281</ele>
        <time>2012-02-12T11:48:59.000Z</time>
      </trkpt>
      <trkpt lat="45.34343" lon="6.1817">
        <ele>2284.6000976562</ele>
        <time>2012-02-12T11:49:01.000Z</time>
      </trkpt>
      <trkpt lat="45.3434" lon="6.18174">
        <ele>2285.1999511719</ele>
        <time>2012-02-12T11:49:06.000Z</time>
      </trkpt>
      <trkpt lat="45.34339" lon="6.18176">
        <ele>2285</ele>
        <time>2012-02-12T11:49:08.000Z</time>
      </trkpt>
      <trkpt lat="45.34338" lon="6.18179">
        <ele>2286.8000488281</ele>
        <time>2012-02-12T11:49:14.000Z</time>
      </trkpt>
      <trkpt lat="45.34338" lon="6.1818">
        <ele>2288</ele>
        <time>2012-02-12T11:49:16.000Z</time>
      </trkpt>
      <trkpt lat="45.34335" lon="6.18181">
        <ele>2288.3999023438</ele>
        <time>2012-02-12T11:49:22.000Z</time>
      </trkpt>
      <trkpt lat="45.34338" lon="6.18184">
        <ele>2290.6000976562</ele>
        <time>2012-02-12T11:49:31.000Z</time>
      </trkpt>
      <trkpt lat="45.34341" lon="6.18184">
        <ele>2290.3999023438</ele>
        <time>2012-02-12T11:49:36.000Z</time>
      </trkpt>
      <trkpt lat="45.34344" lon="6.18185">
        <ele>2291.6000976562</ele>
        <time>2012-02-12T11:49:42.000Z</time>
      </trkpt>
      <trkpt lat="45.34347" lon="6.18187">
        <ele>2292</ele>
        <time>2012-02-12T11:49:57.000Z</time>
      </trkpt>
      <trkpt lat="45.3435" lon="6.18187">
        <ele>2293.1999511719</ele>
        <time>2012-02-12T11:50:02.000Z</time>
      </trkpt>
      <trkpt lat="45.34348" lon="6.18189">
        <ele>2293.3999023438</ele>
        <time>2012-02-12T11:50:12.000Z</time>
      </trkpt>
      <trkpt lat="45.34346" lon="6.18191">
        <ele>2293.3999023438</ele>
        <time>2012-02-12T11:50:16.000Z</time>
      </trkpt>
      <trkpt lat="45.34344" lon="6.18193">
        <ele>2294.3999023438</ele>
        <time>2012-02-12T11:50:21.000Z</time>
      </trkpt>
      <trkpt lat="45.34343" lon="6.18196">
        <ele>2295.6000976562</ele>
        <time>2012-02-12T11:50:26.000Z</time>
      </trkpt>
      <trkpt lat="45.34343" lon="6.18198">
        <ele>2295.3999023438</ele>
        <time>2012-02-12T11:50:28.000Z</time>
      </trkpt>
      <trkpt lat="45.34341" lon="6.18201">
        <ele>2295.8000488281</ele>
        <time>2012-02-12T11:50:34.000Z</time>
      </trkpt>
      <trkpt lat="45.34341" lon="6.18202">
        <ele>2296.1999511719</ele>
        <time>2012-02-12T11:50:36.000Z</time>
      </trkpt>
      <trkpt lat="45.3434" lon="6.18204">
        <ele>2297.3999023438</ele>
        <time>2012-02-12T11:50:39.000Z</time>
      </trkpt>
      <trkpt lat="45.34338" lon="6.18206">
        <ele>2299.1999511719</ele>
        <time>2012-02-12T11:50:45.000Z</time>
      </trkpt>
      <trkpt lat="45.34336" lon="6.18207">
        <ele>2299.8000488281</ele>
        <time>2012-02-12T11:50:47.000Z</time>
      </trkpt>
      <trkpt lat="45.34331" lon="6.18209">
        <ele>2301</ele>
        <time>2012-02-12T11:50:53.000Z</time>
      </trkpt>
      <trkpt lat="45.34328" lon="6.18211">
        <ele>2300.8000488281</ele>
        <time>2012-02-12T11:50:58.000Z</time>
      </trkpt>
      <trkpt lat="45.34326" lon="6.18213">
        <ele>2301</ele>
        <time>2012-02-12T11:51:03.000Z</time>
      </trkpt>
      <trkpt lat="45.34323" lon="6.18217">
        <ele>2302.1999511719</ele>
        <time>2012-02-12T11:51:10.000Z</time>
      </trkpt>
      <trkpt lat="45.34324" lon="6.18218">
        <ele>2302.3999023438</ele>
        <time>2012-02-12T11:51:18.000Z</time>
      </trkpt>
      <trkpt lat="45.34323" lon="6.18219">
        <ele>2302</ele>
        <time>2012-02-12T11:51:24.000Z</time>
      </trkpt>
      <trkpt lat="45.34323" lon="6.18218">
        <ele>2302.1999511719</ele>
        <time>2012-02-12T11:51:29.000Z</time>
      </trkpt>
      <trkpt lat="45.34321" lon="6.18221">
        <ele>2302</ele>
        <time>2012-02-12T11:51:32.000Z</time>
      </trkpt>
      <trkpt lat="45.34319" lon="6.18227">
        <ele>2304.3999023438</ele>
        <time>2012-02-12T11:51:39.000Z</time>
      </trkpt>
      <trkpt lat="45.34318" lon="6.1823">
        <ele>2305.3999023438</ele>
        <time>2012-02-12T11:51:44.000Z</time>
      </trkpt>
      <trkpt lat="45.34317" lon="6.18234">
        <ele>2303.8000488281</ele>
        <time>2012-02-12T11:51:48.000Z</time>
      </trkpt>
      <trkpt lat="45.34315" lon="6.18235">
        <ele>2301.1999511719</ele>
        <time>2012-02-12T11:51:55.000Z</time>
      </trkpt>
      <trkpt lat="45.34316" lon="6.1824">
        <ele>2304.3999023438</ele>
        <time>2012-02-12T11:52:32.000Z</time>
      </trkpt>
      <trkpt lat="45.34315" lon="6.1824">
        <ele>2302.3999023438</ele>
        <time>2012-02-12T11:52:37.000Z</time>
      </trkpt>
      <trkpt lat="45.34314" lon="6.18233">
        <ele>2303.1999511719</ele>
        <time>2012-02-12T11:52:46.000Z</time>
      </trkpt>
      <trkpt lat="45.34316" lon="6.18235">
        <ele>2304.6000976562</ele>
        <time>2012-02-12T11:52:58.000Z</time>
      </trkpt>
      <trkpt lat="45.34315" lon="6.18238">
        <ele>2303</ele>
        <time>2012-02-12T11:53:19.000Z</time>
      </trkpt>
      <trkpt lat="45.34317" lon="6.18235">
        <ele>2303.6000976562</ele>
        <time>2012-02-12T11:53:24.000Z</time>
      </trkpt>
      <trkpt lat="45.34322" lon="6.18241">
        <ele>2301.3999023438</ele>
        <time>2012-02-12T11:55:44.000Z</time>
      </trkpt>
      <trkpt lat="45.34321" lon="6.18239">
        <ele>2300.1999511719</ele>
        <time>2012-02-12T11:56:54.000Z</time>
      </trkpt>
      <trkpt lat="45.34318" lon="6.18238">
        <ele>2300.1999511719</ele>
        <time>2012-02-12T11:59:25.000Z</time>
      </trkpt>
      <trkpt lat="45.34317" lon="6.18237">
        <ele>2298.8000488281</ele>
        <time>2012-02-12T11:59:54.000Z</time>
      </trkpt>
      <trkpt lat="45.34316" lon="6.18239">
        <ele>2299</ele>
        <time>2012-02-12T11:59:57.000Z</time>
      </trkpt>
      <trkpt lat="45.3431" lon="6.18246">
        <ele>2298.3999023438</ele>
        <time>2012-02-12T12:00:06.000Z</time>
      </trkpt>
      <trkpt lat="45.34306" lon="6.18251">
        <ele>2297.8000488281</ele>
        <time>2012-02-12T12:00:12.000Z</time>
      </trkpt>
      <trkpt lat="45.34301" lon="6.18259">
        <ele>2298</ele>
        <time>2012-02-12T12:00:19.000Z</time>
      </trkpt>
      <trkpt lat="45.34297" lon="6.18268">
        <ele>2297.3999023438</ele>
        <time>2012-02-12T12:00:27.000Z</time>
      </trkpt>
      <trkpt lat="45.34295" lon="6.18274">
        <ele>2298.1999511719</ele>
        <time>2012-02-12T12:00:33.000Z</time>
      </trkpt>
      <trkpt lat="45.34295" lon="6.18276">
        <ele>2298.1999511719</ele>
        <time>2012-02-12T12:00:34.000Z</time>
      </trkpt>
      <trkpt lat="45.34293" lon="6.18278">
        <ele>2298</ele>
        <time>2012-02-12T12:00:37.000Z</time>
      </trkpt>
      <trkpt lat="45.34292" lon="6.18282">
        <ele>2298.1999511719</ele>
        <time>2012-02-12T12:00:40.000Z</time>
      </trkpt>
      <trkpt lat="45.34291" lon="6.18287">
        <ele>2298</ele>
        <time>2012-02-12T12:00:44.000Z</time>
      </trkpt>
      <trkpt lat="45.3429" lon="6.18294">
        <ele>2298.1999511719</ele>
        <time>2012-02-12T12:00:50.000Z</time>
      </trkpt>
      <trkpt lat="45.34289" lon="6.18297">
        <ele>2298.6000976562</ele>
        <time>2012-02-12T12:00:52.000Z</time>
      </trkpt>
      <trkpt lat="45.34288" lon="6.18305">
        <ele>2298.1999511719</ele>
        <time>2012-02-12T12:00:58.000Z</time>
      </trkpt>
      <trkpt lat="45.34286" lon="6.18315">
        <ele>2300</ele>
        <time>2012-02-12T12:01:05.000Z</time>
      </trkpt>
      <trkpt lat="45.34283" lon="6.18323">
        <ele>2300</ele>
        <time>2012-02-12T12:01:11.000Z</time>
      </trkpt>
      <trkpt lat="45.34282" lon="6.18328">
        <ele>2299.8000488281</ele>
        <time>2012-02-12T12:01:15.000Z</time>
      </trkpt>
      <trkpt lat="45.34283" lon="6.18334">
        <ele>2300.8000488281</ele>
        <time>2012-02-12T12:01:21.000Z</time>
      </trkpt>
      <trkpt lat="45.34282" lon="6.18345">
        <ele>2302.1999511719</ele>
        <time>2012-02-12T12:01:29.000Z</time>
      </trkpt>
      <trkpt lat="45.34282" lon="6.18347">
        <ele>2302.1999511719</ele>
        <time>2012-02-12T12:01:31.000Z</time>
      </trkpt>
      <trkpt lat="45.34282" lon="6.18356">
        <ele>2303</ele>
        <time>2012-02-12T12:01:39.000Z</time>
      </trkpt>
      <trkpt lat="45.34282" lon="6.18362">
        <ele>2305.8000488281</ele>
        <time>2012-02-12T12:01:45.000Z</time>
      </trkpt>
      <trkpt lat="45.34282" lon="6.18365">
        <ele>2306.1999511719</ele>
        <time>2012-02-12T12:01:48.000Z</time>
      </trkpt>
      <trkpt lat="45.34283" lon="6.18372">
        <ele>2307</ele>
        <time>2012-02-12T12:01:53.000Z</time>
      </trkpt>
      <trkpt lat="45.34287" lon="6.18376">
        <ele>2307.6000976562</ele>
        <time>2012-02-12T12:01:59.000Z</time>
      </trkpt>
      <trkpt lat="45.34287" lon="6.18376">
        <ele>2308.1999511719</ele>
        <time>2012-02-12T12:02:00.000Z</time>
      </trkpt>
      <trkpt lat="45.34288" lon="6.18378">
        <ele>2309.1999511719</ele>
        <time>2012-02-12T12:02:06.000Z</time>
      </trkpt>
      <trkpt lat="45.34287" lon="6.18383">
        <ele>2310.6000976562</ele>
        <time>2012-02-12T12:02:14.000Z</time>
      </trkpt>
      <trkpt lat="45.34286" lon="6.18385">
        <ele>2310.3999023438</ele>
        <time>2012-02-12T12:02:16.000Z</time>
      </trkpt>
      <trkpt lat="45.34284" lon="6.1839">
        <ele>2312.1999511719</ele>
        <time>2012-02-12T12:02:22.000Z</time>
      </trkpt>
      <trkpt lat="45.34283" lon="6.18394">
        <ele>2312.1999511719</ele>
        <time>2012-02-12T12:02:26.000Z</time>
      </trkpt>
      <trkpt lat="45.34283" lon="6.18398">
        <ele>2314</ele>
        <time>2012-02-12T12:02:31.000Z</time>
      </trkpt>
      <trkpt lat="45.34282" lon="6.18401">
        <ele>2314.1999511719</ele>
        <time>2012-02-12T12:02:34.000Z</time>
      </trkpt>
      <trkpt lat="45.34282" lon="6.18404">
        <ele>2315.1999511719</ele>
        <time>2012-02-12T12:02:37.000Z</time>
      </trkpt>
      <trkpt lat="45.34284" lon="6.18407">
        <ele>2317.1999511719</ele>
        <time>2012-02-12T12:02:42.000Z</time>
      </trkpt>
      <trkpt lat="45.34283" lon="6.18413">
        <ele>2316.8000488281</ele>
        <time>2012-02-12T12:02:49.000Z</time>
      </trkpt>
      <trkpt lat="45.34282" lon="6.18417">
        <ele>2318.3999023438</ele>
        <time>2012-02-12T12:02:55.000Z</time>
      </trkpt>
      <trkpt lat="45.3428" lon="6.18421">
        <ele>2319.8000488281</ele>
        <time>2012-02-12T12:03:00.000Z</time>
      </trkpt>
      <trkpt lat="45.3428" lon="6.18427">
        <ele>2321</ele>
        <time>2012-02-12T12:03:07.000Z</time>
      </trkpt>
      <trkpt lat="45.34279" lon="6.18432">
        <ele>2320.6000976562</ele>
        <time>2012-02-12T12:03:12.000Z</time>
      </trkpt>
      <trkpt lat="45.34279" lon="6.18437">
        <ele>2321.1999511719</ele>
        <time>2012-02-12T12:03:17.000Z</time>
      </trkpt>
      <trkpt lat="45.34277" lon="6.18442">
        <ele>2323.8000488281</ele>
        <time>2012-02-12T12:03:22.000Z</time>
      </trkpt>
      <trkpt lat="45.34277" lon="6.18443">
        <ele>2323.6000976562</ele>
        <time>2012-02-12T12:03:23.000Z</time>
      </trkpt>
      <trkpt lat="45.34277" lon="6.18448">
        <ele>2323.8000488281</ele>
        <time>2012-02-12T12:03:29.000Z</time>
      </trkpt>
      <trkpt lat="45.34277" lon="6.18451">
        <ele>2324.6000976562</ele>
        <time>2012-02-12T12:03:34.000Z</time>
      </trkpt>
      <trkpt lat="45.34277" lon="6.18452">
        <ele>2324.6000976562</ele>
        <time>2012-02-12T12:03:35.000Z</time>
      </trkpt>
      <trkpt lat="45.34276" lon="6.18456">
        <ele>2326.3999023438</ele>
        <time>2012-02-12T12:03:39.000Z</time>
      </trkpt>
      <trkpt lat="45.34276" lon="6.18462">
        <ele>2326.3999023438</ele>
        <time>2012-02-12T12:03:45.000Z</time>
      </trkpt>
      <trkpt lat="45.34274" lon="6.1847">
        <ele>2328.3999023438</ele>
        <time>2012-02-12T12:03:51.000Z</time>
      </trkpt>
      <trkpt lat="45.34273" lon="6.18476">
        <ele>2329.1999511719</ele>
        <time>2012-02-12T12:03:57.000Z</time>
      </trkpt>
      <trkpt lat="45.34272" lon="6.18481">
        <ele>2329.8000488281</ele>
        <time>2012-02-12T12:04:02.000Z</time>
      </trkpt>
      <trkpt lat="45.34273" lon="6.18485">
        <ele>2330.1999511719</ele>
        <time>2012-02-12T12:04:07.000Z</time>
      </trkpt>
      <trkpt lat="45.34272" lon="6.18494">
        <ele>2329.3999023438</ele>
        <time>2012-02-12T12:04:14.000Z</time>
      </trkpt>
      <trkpt lat="45.34274" lon="6.18498">
        <ele>2331.1999511719</ele>
        <time>2012-02-12T12:04:19.000Z</time>
      </trkpt>
      <trkpt lat="45.34277" lon="6.18503">
        <ele>2333.6000976562</ele>
        <time>2012-02-12T12:04:27.000Z</time>
      </trkpt>
      <trkpt lat="45.34276" lon="6.18506">
        <ele>2332.3999023438</ele>
        <time>2012-02-12T12:04:32.000Z</time>
      </trkpt>
      <trkpt lat="45.34277" lon="6.1851">
        <ele>2333.6000976562</ele>
        <time>2012-02-12T12:04:37.000Z</time>
      </trkpt>
      <trkpt lat="45.34278" lon="6.18515">
        <ele>2333.8000488281</ele>
        <time>2012-02-12T12:04:42.000Z</time>
      </trkpt>
      <trkpt lat="45.34279" lon="6.18518">
        <ele>2334.8000488281</ele>
        <time>2012-02-12T12:04:47.000Z</time>
      </trkpt>
      <trkpt lat="45.34282" lon="6.18523">
        <ele>2335.3999023438</ele>
        <time>2012-02-12T12:04:53.000Z</time>
      </trkpt>
      <trkpt lat="45.34286" lon="6.18527">
        <ele>2335.6000976562</ele>
        <time>2012-02-12T12:04:58.000Z</time>
      </trkpt>
      <trkpt lat="45.34287" lon="6.18531">
        <ele>2336.1999511719</ele>
        <time>2012-02-12T12:05:03.000Z</time>
      </trkpt>
      <trkpt lat="45.3429" lon="6.18536">
        <ele>2337.1999511719</ele>
        <time>2012-02-12T12:05:10.000Z</time>
      </trkpt>
      <trkpt lat="45.34292" lon="6.1854">
        <ele>2337.8000488281</ele>
        <time>2012-02-12T12:05:15.000Z</time>
      </trkpt>
      <trkpt lat="45.34294" lon="6.18545">
        <ele>2339</ele>
        <time>2012-02-12T12:05:22.000Z</time>
      </trkpt>
      <trkpt lat="45.34297" lon="6.18547">
        <ele>2341</ele>
        <time>2012-02-12T12:05:27.000Z</time>
      </trkpt>
      <trkpt lat="45.34299" lon="6.1855">
        <ele>2341.1999511719</ele>
        <time>2012-02-12T12:05:34.000Z</time>
      </trkpt>
      <trkpt lat="45.34303" lon="6.18553">
        <ele>2341.1999511719</ele>
        <time>2012-02-12T12:05:41.000Z</time>
      </trkpt>
      <trkpt lat="45.34307" lon="6.18553">
        <ele>2342</ele>
        <time>2012-02-12T12:05:46.000Z</time>
      </trkpt>
      <trkpt lat="45.3431" lon="6.18553">
        <ele>2344</ele>
        <time>2012-02-12T12:05:51.000Z</time>
      </trkpt>
      <trkpt lat="45.34308" lon="6.18559">
        <ele>2344</ele>
        <time>2012-02-12T12:06:03.000Z</time>
      </trkpt>
      <trkpt lat="45.34307" lon="6.1856">
        <ele>2344.8000488281</ele>
        <time>2012-02-12T12:06:06.000Z</time>
      </trkpt>
      <trkpt lat="45.34304" lon="6.18563">
        <ele>2346.8000488281</ele>
        <time>2012-02-12T12:06:10.000Z</time>
      </trkpt>
      <trkpt lat="45.34302" lon="6.18566">
        <ele>2346.8000488281</ele>
        <time>2012-02-12T12:06:15.000Z</time>
      </trkpt>
      <trkpt lat="45.34299" lon="6.18569">
        <ele>2348.1999511719</ele>
        <time>2012-02-12T12:06:20.000Z</time>
      </trkpt>
      <trkpt lat="45.34299" lon="6.1857">
        <ele>2349.1999511719</ele>
        <time>2012-02-12T12:06:22.000Z</time>
      </trkpt>
      <trkpt lat="45.34301" lon="6.1857">
        <ele>2350</ele>
        <time>2012-02-12T12:06:31.000Z</time>
      </trkpt>
      <trkpt lat="45.34304" lon="6.18575">
        <ele>2350.8000488281</ele>
        <time>2012-02-12T12:06:40.000Z</time>
      </trkpt>
      <trkpt lat="45.34307" lon="6.18577">
        <ele>2352.6000976562</ele>
        <time>2012-02-12T12:06:47.000Z</time>
      </trkpt>
      <trkpt lat="45.34311" lon="6.18578">
        <ele>2352.8000488281</ele>
        <time>2012-02-12T12:06:54.000Z</time>
      </trkpt>
      <trkpt lat="45.3431" lon="6.18581">
        <ele>2353</ele>
        <time>2012-02-12T12:07:00.000Z</time>
      </trkpt>
      <trkpt lat="45.34308" lon="6.18584">
        <ele>2355.3999023438</ele>
        <time>2012-02-12T12:07:05.000Z</time>
      </trkpt>
      <trkpt lat="45.34305" lon="6.18585">
        <ele>2355</ele>
        <time>2012-02-12T12:07:12.000Z</time>
      </trkpt>
      <trkpt lat="45.34303" lon="6.18587">
        <ele>2355.1999511719</ele>
        <time>2012-02-12T12:07:17.000Z</time>
      </trkpt>
      <trkpt lat="45.34299" lon="6.18591">
        <ele>2357.1999511719</ele>
        <time>2012-02-12T12:07:22.000Z</time>
      </trkpt>
      <trkpt lat="45.34298" lon="6.18591">
        <ele>2357.8000488281</ele>
        <time>2012-02-12T12:07:24.000Z</time>
      </trkpt>
      <trkpt lat="45.34296" lon="6.18592">
        <ele>2358</ele>
        <time>2012-02-12T12:07:28.000Z</time>
      </trkpt>
      <trkpt lat="45.34296" lon="6.18592">
        <ele>2358.1999511719</ele>
        <time>2012-02-12T12:07:33.000Z</time>
      </trkpt>
      <trkpt lat="45.34295" lon="6.18593">
        <ele>2359.1999511719</ele>
        <time>2012-02-12T12:07:38.000Z</time>
      </trkpt>
      <trkpt lat="45.34295" lon="6.18597">
        <ele>2360.6000976562</ele>
        <time>2012-02-12T12:07:42.000Z</time>
      </trkpt>
      <trkpt lat="45.34295" lon="6.18598">
        <ele>2360.8000488281</ele>
        <time>2012-02-12T12:07:43.000Z</time>
      </trkpt>
      <trkpt lat="45.34296" lon="6.18601">
        <ele>2362</ele>
        <time>2012-02-12T12:07:48.000Z</time>
      </trkpt>
      <trkpt lat="45.34298" lon="6.18605">
        <ele>2362.6000976562</ele>
        <time>2012-02-12T12:07:55.000Z</time>
      </trkpt>
      <trkpt lat="45.343" lon="6.18607">
        <ele>2362.8000488281</ele>
        <time>2012-02-12T12:08:00.000Z</time>
      </trkpt>
      <trkpt lat="45.34301" lon="6.18609">
        <ele>2363.8000488281</ele>
        <time>2012-02-12T12:08:07.000Z</time>
      </trkpt>
      <trkpt lat="45.34298" lon="6.18612">
        <ele>2364.8000488281</ele>
        <time>2012-02-12T12:08:13.000Z</time>
      </trkpt>
      <trkpt lat="45.34294" lon="6.18613">
        <ele>2365.6000976562</ele>
        <time>2012-02-12T12:08:19.000Z</time>
      </trkpt>
      <trkpt lat="45.34295" lon="6.18617">
        <ele>2367.8000488281</ele>
        <time>2012-02-12T12:08:29.000Z</time>
      </trkpt>
      <trkpt lat="45.34302" lon="6.18621">
        <ele>2369</ele>
        <time>2012-02-12T12:08:56.000Z</time>
      </trkpt>
      <trkpt lat="45.34302" lon="6.18622">
        <ele>2369.1999511719</ele>
        <time>2012-02-12T12:08:57.000Z</time>
      </trkpt>
      <trkpt lat="45.34303" lon="6.18623">
        <ele>2370.1999511719</ele>
        <time>2012-02-12T12:09:02.000Z</time>
      </trkpt>
      <trkpt lat="45.34303" lon="6.18625">
        <ele>2369.6000976562</ele>
        <time>2012-02-12T12:09:08.000Z</time>
      </trkpt>
      <trkpt lat="45.34301" lon="6.18627">
        <ele>2369.6000976562</ele>
        <time>2012-02-12T12:09:11.000Z</time>
      </trkpt>
      <trkpt lat="45.34299" lon="6.18629">
        <ele>2370.8000488281</ele>
        <time>2012-02-12T12:09:13.000Z</time>
      </trkpt>
      <trkpt lat="45.34298" lon="6.18632">
        <ele>2372.1999511719</ele>
        <time>2012-02-12T12:09:16.000Z</time>
      </trkpt>
      <trkpt lat="45.34295" lon="6.18636">
        <ele>2372.3999023438</ele>
        <time>2012-02-12T12:09:22.000Z</time>
      </trkpt>
      <trkpt lat="45.34294" lon="6.18637">
        <ele>2372.8000488281</ele>
        <time>2012-02-12T12:09:26.000Z</time>
      </trkpt>
      <trkpt lat="45.34293" lon="6.18639">
        <ele>2373.8000488281</ele>
        <time>2012-02-12T12:09:28.000Z</time>
      </trkpt>
      <trkpt lat="45.34291" lon="6.18639">
        <ele>2374.1999511719</ele>
        <time>2012-02-12T12:09:32.000Z</time>
      </trkpt>
      <trkpt lat="45.34289" lon="6.1864">
        <ele>2374.6000976562</ele>
        <time>2012-02-12T12:09:37.000Z</time>
      </trkpt>
      <trkpt lat="45.34287" lon="6.18644">
        <ele>2375.1999511719</ele>
        <time>2012-02-12T12:09:42.000Z</time>
      </trkpt>
      <trkpt lat="45.34292" lon="6.18646">
        <ele>2377.3999023438</ele>
        <time>2012-02-12T12:09:47.000Z</time>
      </trkpt>
      <trkpt lat="45.34295" lon="6.18649">
        <ele>2376.6000976562</ele>
        <time>2012-02-12T12:09:51.000Z</time>
      </trkpt>
      <trkpt lat="45.34299" lon="6.18655">
        <ele>2378.8000488281</ele>
        <time>2012-02-12T12:09:57.000Z</time>
      </trkpt>
      <trkpt lat="45.34297" lon="6.18659">
        <ele>2379</ele>
        <time>2012-02-12T12:10:03.000Z</time>
      </trkpt>
      <trkpt lat="45.34294" lon="6.1866">
        <ele>2380.8000488281</ele>
        <time>2012-02-12T12:10:09.000Z</time>
      </trkpt>
      <trkpt lat="45.34293" lon="6.18662">
        <ele>2381.6000976562</ele>
        <time>2012-02-12T12:10:13.000Z</time>
      </trkpt>
      <trkpt lat="45.34291" lon="6.18663">
        <ele>2382.6000976562</ele>
        <time>2012-02-12T12:10:18.000Z</time>
      </trkpt>
      <trkpt lat="45.34289" lon="6.18665">
        <ele>2383.1999511719</ele>
        <time>2012-02-12T12:10:23.000Z</time>
      </trkpt>
      <trkpt lat="45.34286" lon="6.18668">
        <ele>2383.8000488281</ele>
        <time>2012-02-12T12:10:30.000Z</time>
      </trkpt>
      <trkpt lat="45.34286" lon="6.1867">
        <ele>2384.8000488281</ele>
        <time>2012-02-12T12:10:32.000Z</time>
      </trkpt>
      <trkpt lat="45.34284" lon="6.18673">
        <ele>2384.8000488281</ele>
        <time>2012-02-12T12:10:37.000Z</time>
      </trkpt>
      <trkpt lat="45.34278" lon="6.18678">
        <ele>2386.1999511719</ele>
        <time>2012-02-12T12:10:45.000Z</time>
      </trkpt>
      <trkpt lat="45.34278" lon="6.18682">
        <ele>2387</ele>
        <time>2012-02-12T12:10:50.000Z</time>
      </trkpt>
      <trkpt lat="45.34279" lon="6.18686">
        <ele>2387.6000976562</ele>
        <time>2012-02-12T12:10:55.000Z</time>
      </trkpt>
      <trkpt lat="45.34281" lon="6.18689">
        <ele>2387.1999511719</ele>
        <time>2012-02-12T12:11:00.000Z</time>
      </trkpt>
      <trkpt lat="45.34284" lon="6.18691">
        <ele>2388.3999023438</ele>
        <time>2012-02-12T12:11:04.000Z</time>
      </trkpt>
      <trkpt lat="45.34285" lon="6.18693">
        <ele>2390.1999511719</ele>
        <time>2012-02-12T12:11:07.000Z</time>
      </trkpt>
      <trkpt lat="45.3428" lon="6.18696">
        <ele>2390</ele>
        <time>2012-02-12T12:11:18.000Z</time>
      </trkpt>
      <trkpt lat="45.34269" lon="6.18706">
        <ele>2391.1999511719</ele>
        <time>2012-02-12T12:13:17.000Z</time>
      </trkpt>
      <trkpt lat="45.34268" lon="6.18709">
        <ele>2392.1999511719</ele>
        <time>2012-02-12T12:13:23.000Z</time>
      </trkpt>
      <trkpt lat="45.3427" lon="6.18712">
        <ele>2393.6000976562</ele>
        <time>2012-02-12T12:13:28.000Z</time>
      </trkpt>
      <trkpt lat="45.34269" lon="6.18715">
        <ele>2394.3999023438</ele>
        <time>2012-02-12T12:13:33.000Z</time>
      </trkpt>
      <trkpt lat="45.34273" lon="6.18718">
        <ele>2395.1999511719</ele>
        <time>2012-02-12T12:13:38.000Z</time>
      </trkpt>
      <trkpt lat="45.3428" lon="6.1872">
        <ele>2396.1999511719</ele>
        <time>2012-02-12T12:13:44.000Z</time>
      </trkpt>
      <trkpt lat="45.34282" lon="6.1872">
        <ele>2397.1999511719</ele>
        <time>2012-02-12T12:13:46.000Z</time>
      </trkpt>
      <trkpt lat="45.34289" lon="6.18719">
        <ele>2397.6000976562</ele>
        <time>2012-02-12T12:13:52.000Z</time>
      </trkpt>
      <trkpt lat="45.34294" lon="6.1872">
        <ele>2398.6000976562</ele>
        <time>2012-02-12T12:13:58.000Z</time>
      </trkpt>
      <trkpt lat="45.34293" lon="6.18727">
        <ele>2399</ele>
        <time>2012-02-12T12:14:08.000Z</time>
      </trkpt>
      <trkpt lat="45.34292" lon="6.1873">
        <ele>2400.6000976562</ele>
        <time>2012-02-12T12:14:13.000Z</time>
      </trkpt>
      <trkpt lat="45.3429" lon="6.18735">
        <ele>2401.6000976562</ele>
        <time>2012-02-12T12:14:18.000Z</time>
      </trkpt>
      <trkpt lat="45.34289" lon="6.18738">
        <ele>2401.6000976562</ele>
        <time>2012-02-12T12:14:25.000Z</time>
      </trkpt>
      <trkpt lat="45.34288" lon="6.1874">
        <ele>2401.6000976562</ele>
        <time>2012-02-12T12:14:29.000Z</time>
      </trkpt>
      <trkpt lat="45.34285" lon="6.18742">
        <ele>2403.3999023438</ele>
        <time>2012-02-12T12:14:33.000Z</time>
      </trkpt>
      <trkpt lat="45.34281" lon="6.18744">
        <ele>2404.3999023438</ele>
        <time>2012-02-12T12:14:42.000Z</time>
      </trkpt>
      <trkpt lat="45.34274" lon="6.18753">
        <ele>2406.8000488281</ele>
        <time>2012-02-12T12:14:57.000Z</time>
      </trkpt>
      <trkpt lat="45.34271" lon="6.18759">
        <ele>2407.3999023438</ele>
        <time>2012-02-12T12:15:03.000Z</time>
      </trkpt>
      <trkpt lat="45.34268" lon="6.18768">
        <ele>2409</ele>
        <time>2012-02-12T12:15:10.000Z</time>
      </trkpt>
      <trkpt lat="45.34271" lon="6.18768">
        <ele>2409</ele>
        <time>2012-02-12T12:15:12.000Z</time>
      </trkpt>
      <trkpt lat="45.34274" lon="6.1877">
        <ele>2409</ele>
        <time>2012-02-12T12:15:17.000Z</time>
      </trkpt>
      <trkpt lat="45.34279" lon="6.1877">
        <ele>2410</ele>
        <time>2012-02-12T12:15:24.000Z</time>
      </trkpt>
      <trkpt lat="45.34286" lon="6.18765">
        <ele>2411.6000976562</ele>
        <time>2012-02-12T12:15:31.000Z</time>
      </trkpt>
      <trkpt lat="45.34291" lon="6.18767">
        <ele>2413.3999023438</ele>
        <time>2012-02-12T12:15:41.000Z</time>
      </trkpt>
      <trkpt lat="45.34296" lon="6.18765">
        <ele>2414.6000976562</ele>
        <time>2012-02-12T12:15:50.000Z</time>
      </trkpt>
      <trkpt lat="45.3429" lon="6.18765">
        <ele>2415.1999511719</ele>
        <time>2012-02-12T12:16:09.000Z</time>
      </trkpt>
      <trkpt lat="45.34286" lon="6.1877">
        <ele>2416</ele>
        <time>2012-02-12T12:16:16.000Z</time>
      </trkpt>
      <trkpt lat="45.34285" lon="6.18771">
        <ele>2417</ele>
        <time>2012-02-12T12:16:20.000Z</time>
      </trkpt>
      <trkpt lat="45.34284" lon="6.18773">
        <ele>2417.1999511719</ele>
        <time>2012-02-12T12:16:24.000Z</time>
      </trkpt>
      <trkpt lat="45.34282" lon="6.18776">
        <ele>2418.8000488281</ele>
        <time>2012-02-12T12:16:30.000Z</time>
      </trkpt>
      <trkpt lat="45.34286" lon="6.18776">
        <ele>2419.6000976562</ele>
        <time>2012-02-12T12:16:41.000Z</time>
      </trkpt>
      <trkpt lat="45.34289" lon="6.18775">
        <ele>2420.3999023438</ele>
        <time>2012-02-12T12:16:49.000Z</time>
      </trkpt>
      <trkpt lat="45.34294" lon="6.18776">
        <ele>2421.1999511719</ele>
        <time>2012-02-12T12:16:57.000Z</time>
      </trkpt>
      <trkpt lat="45.34296" lon="6.18775">
        <ele>2422.8000488281</ele>
        <time>2012-02-12T12:17:02.000Z</time>
      </trkpt>
      <trkpt lat="45.34297" lon="6.18776">
        <ele>2424.1999511719</ele>
        <time>2012-02-12T12:17:11.000Z</time>
      </trkpt>
      <trkpt lat="45.34297" lon="6.18783">
        <ele>2425</ele>
        <time>2012-02-12T12:17:21.000Z</time>
      </trkpt>
      <trkpt lat="45.34294" lon="6.18786">
        <ele>2427.3999023438</ele>
        <time>2012-02-12T12:17:30.000Z</time>
      </trkpt>
      <trkpt lat="45.3429" lon="6.18788">
        <ele>2428</ele>
        <time>2012-02-12T12:17:37.000Z</time>
      </trkpt>
      <trkpt lat="45.34287" lon="6.18787">
        <ele>2427.6000976562</ele>
        <time>2012-02-12T12:17:43.000Z</time>
      </trkpt>
      <trkpt lat="45.34294" lon="6.18785">
        <ele>2429.1999511719</ele>
        <time>2012-02-12T12:17:54.000Z</time>
      </trkpt>
      <trkpt lat="45.34297" lon="6.18787">
        <ele>2430</ele>
        <time>2012-02-12T12:18:01.000Z</time>
      </trkpt>
      <trkpt lat="45.34303" lon="6.1879">
        <ele>2431.6000976562</ele>
        <time>2012-02-12T12:18:13.000Z</time>
      </trkpt>
      <trkpt lat="45.34301" lon="6.18796">
        <ele>2432.8000488281</ele>
        <time>2012-02-12T12:18:21.000Z</time>
      </trkpt>
      <trkpt lat="45.34299" lon="6.18798">
        <ele>2434</ele>
        <time>2012-02-12T12:18:26.000Z</time>
      </trkpt>
      <trkpt lat="45.34299" lon="6.188">
        <ele>2435.3999023438</ele>
        <time>2012-02-12T12:18:36.000Z</time>
      </trkpt>
      <trkpt lat="45.34305" lon="6.18799">
        <ele>2437.6000976562</ele>
        <time>2012-02-12T12:18:49.000Z</time>
      </trkpt>
      <trkpt lat="45.34306" lon="6.18798">
        <ele>2439</ele>
        <time>2012-02-12T12:18:52.000Z</time>
      </trkpt>
      <trkpt lat="45.34308" lon="6.18797">
        <ele>2438.8000488281</ele>
        <time>2012-02-12T12:18:57.000Z</time>
      </trkpt>
      <trkpt lat="45.34309" lon="6.18807">
        <ele>2440.6000976562</ele>
        <time>2012-02-12T12:19:25.000Z</time>
      </trkpt>
      <trkpt lat="45.34307" lon="6.1881">
        <ele>2441.1999511719</ele>
        <time>2012-02-12T12:19:31.000Z</time>
      </trkpt>
      <trkpt lat="45.34304" lon="6.18814">
        <ele>2443.3999023438</ele>
        <time>2012-02-12T12:19:49.000Z</time>
      </trkpt>
      <trkpt lat="45.34303" lon="6.18819">
        <ele>2444</ele>
        <time>2012-02-12T12:19:56.000Z</time>
      </trkpt>
      <trkpt lat="45.343" lon="6.1882">
        <ele>2446</ele>
        <time>2012-02-12T12:20:03.000Z</time>
      </trkpt>
      <trkpt lat="45.34305" lon="6.18819">
        <ele>2447.6000976562</ele>
        <time>2012-02-12T12:20:19.000Z</time>
      </trkpt>
      <trkpt lat="45.34308" lon="6.18818">
        <ele>2448.8000488281</ele>
        <time>2012-02-12T12:20:26.000Z</time>
      </trkpt>
      <trkpt lat="45.34313" lon="6.18819">
        <ele>2450.3999023438</ele>
        <time>2012-02-12T12:20:37.000Z</time>
      </trkpt>
      <trkpt lat="45.34311" lon="6.18823">
        <ele>2451.8000488281</ele>
        <time>2012-02-12T12:20:43.000Z</time>
      </trkpt>
      <trkpt lat="45.34311" lon="6.18828">
        <ele>2452.3999023438</ele>
        <time>2012-02-12T12:20:49.000Z</time>
      </trkpt>
      <trkpt lat="45.3431" lon="6.18832">
        <ele>2453</ele>
        <time>2012-02-12T12:20:55.000Z</time>
      </trkpt>
      <trkpt lat="45.34309" lon="6.18836">
        <ele>2454.3999023438</ele>
        <time>2012-02-12T12:21:02.000Z</time>
      </trkpt>
      <trkpt lat="45.34305" lon="6.18839">
        <ele>2455.6000976562</ele>
        <time>2012-02-12T12:21:09.000Z</time>
      </trkpt>
      <trkpt lat="45.34311" lon="6.18845">
        <ele>2460.6000976562</ele>
        <time>2012-02-12T12:21:46.000Z</time>
      </trkpt>
      <trkpt lat="45.34312" lon="6.18849">
        <ele>2459.6000976562</ele>
        <time>2012-02-12T12:21:54.000Z</time>
      </trkpt>
      <trkpt lat="45.34308" lon="6.18855">
        <ele>2461.1999511719</ele>
        <time>2012-02-12T12:22:01.000Z</time>
      </trkpt>
      <trkpt lat="45.34305" lon="6.18859">
        <ele>2463.1999511719</ele>
        <time>2012-02-12T12:22:07.000Z</time>
      </trkpt>
      <trkpt lat="45.34304" lon="6.1886">
        <ele>2463.3999023438</ele>
        <time>2012-02-12T12:22:08.000Z</time>
      </trkpt>
      <trkpt lat="45.34302" lon="6.18862">
        <ele>2463.1999511719</ele>
        <time>2012-02-12T12:22:14.000Z</time>
      </trkpt>
      <trkpt lat="45.34301" lon="6.18869">
        <ele>2465.8000488281</ele>
        <time>2012-02-12T12:22:29.000Z</time>
      </trkpt>
      <trkpt lat="45.34305" lon="6.18871">
        <ele>2467</ele>
        <time>2012-02-12T12:22:36.000Z</time>
      </trkpt>
      <trkpt lat="45.34309" lon="6.18872">
        <ele>2467.6000976562</ele>
        <time>2012-02-12T12:22:41.000Z</time>
      </trkpt>
      <trkpt lat="45.34311" lon="6.1888">
        <ele>2469.8000488281</ele>
        <time>2012-02-12T12:23:00.000Z</time>
      </trkpt>
      <trkpt lat="45.34308" lon="6.18885">
        <ele>2471.6000976562</ele>
        <time>2012-02-12T12:23:06.000Z</time>
      </trkpt>
      <trkpt lat="45.34303" lon="6.1889">
        <ele>2472.3999023438</ele>
        <time>2012-02-12T12:23:13.000Z</time>
      </trkpt>
      <trkpt lat="45.34307" lon="6.18897">
        <ele>2475</ele>
        <time>2012-02-12T12:23:29.000Z</time>
      </trkpt>
      <trkpt lat="45.3431" lon="6.18898">
        <ele>2474.6000976562</ele>
        <time>2012-02-12T12:23:35.000Z</time>
      </trkpt>
      <trkpt lat="45.34316" lon="6.18905">
        <ele>2476</ele>
        <time>2012-02-12T12:25:46.000Z</time>
      </trkpt>
      <trkpt lat="45.34313" lon="6.18908">
        <ele>2476.8000488281</ele>
        <time>2012-02-12T12:25:56.000Z</time>
      </trkpt>
      <trkpt lat="45.34311" lon="6.18914">
        <ele>2478.1999511719</ele>
        <time>2012-02-12T12:26:03.000Z</time>
      </trkpt>
      <trkpt lat="45.34314" lon="6.18917">
        <ele>2478.6000976562</ele>
        <time>2012-02-12T12:26:08.000Z</time>
      </trkpt>
      <trkpt lat="45.34319" lon="6.18923">
        <ele>2480.1999511719</ele>
        <time>2012-02-12T12:26:16.000Z</time>
      </trkpt>
      <trkpt lat="45.3432" lon="6.18926">
        <ele>2482</ele>
        <time>2012-02-12T12:26:19.000Z</time>
      </trkpt>
      <trkpt lat="45.3432" lon="6.1893">
        <ele>2482.6000976562</ele>
        <time>2012-02-12T12:26:24.000Z</time>
      </trkpt>
      <trkpt lat="45.3432" lon="6.18937">
        <ele>2484</ele>
        <time>2012-02-12T12:26:31.000Z</time>
      </trkpt>
      <trkpt lat="45.3432" lon="6.18944">
        <ele>2486.1999511719</ele>
        <time>2012-02-12T12:26:41.000Z</time>
      </trkpt>
      <trkpt lat="45.34324" lon="6.18949">
        <ele>2488.3999023438</ele>
        <time>2012-02-12T12:26:51.000Z</time>
      </trkpt>
      <trkpt lat="45.34325" lon="6.18955">
        <ele>2491.8000488281</ele>
        <time>2012-02-12T12:27:05.000Z</time>
      </trkpt>
      <trkpt lat="45.34328" lon="6.18964">
        <ele>2494.8000488281</ele>
        <time>2012-02-12T12:27:51.000Z</time>
      </trkpt>
      <trkpt lat="45.34325" lon="6.18969">
        <ele>2495</ele>
        <time>2012-02-12T12:27:57.000Z</time>
      </trkpt>
      <trkpt lat="45.34319" lon="6.18975">
        <ele>2496</ele>
        <time>2012-02-12T12:28:06.000Z</time>
      </trkpt>
      <trkpt lat="45.34329" lon="6.18973">
        <ele>2499.1999511719</ele>
        <time>2012-02-12T12:28:27.000Z</time>
      </trkpt>
      <trkpt lat="45.34331" lon="6.18972">
        <ele>2499.3999023438</ele>
        <time>2012-02-12T12:28:29.000Z</time>
      </trkpt>
      <trkpt lat="45.34334" lon="6.18972">
        <ele>2500.1999511719</ele>
        <time>2012-02-12T12:28:36.000Z</time>
      </trkpt>
      <trkpt lat="45.34331" lon="6.18976">
        <ele>2500.3999023438</ele>
        <time>2012-02-12T12:28:42.000Z</time>
      </trkpt>
      <trkpt lat="45.34327" lon="6.18985">
        <ele>2501</ele>
        <time>2012-02-12T12:28:53.000Z</time>
      </trkpt>
      <trkpt lat="45.34325" lon="6.18989">
        <ele>2502</ele>
        <time>2012-02-12T12:29:00.000Z</time>
      </trkpt>
      <trkpt lat="45.34321" lon="6.18993">
        <ele>2502.8000488281</ele>
        <time>2012-02-12T12:29:07.000Z</time>
      </trkpt>
      <trkpt lat="45.34327" lon="6.18998">
        <ele>2504</ele>
        <time>2012-02-12T12:29:21.000Z</time>
      </trkpt>
      <trkpt lat="45.3433" lon="6.18999">
        <ele>2506.3999023438</ele>
        <time>2012-02-12T12:29:32.000Z</time>
      </trkpt>
      <trkpt lat="45.34332" lon="6.18999">
        <ele>2505.8000488281</ele>
        <time>2012-02-12T12:29:37.000Z</time>
      </trkpt>
      <trkpt lat="45.34333" lon="6.18997">
        <ele>2507.3999023438</ele>
        <time>2012-02-12T12:29:44.000Z</time>
      </trkpt>
      <trkpt lat="45.34336" lon="6.19001">
        <ele>2506.6000976562</ele>
        <time>2012-02-12T12:29:55.000Z</time>
      </trkpt>
      <trkpt lat="45.34337" lon="6.19003">
        <ele>2507.8000488281</ele>
        <time>2012-02-12T12:29:59.000Z</time>
      </trkpt>
      <trkpt lat="45.3433" lon="6.19008">
        <ele>2510.3999023438</ele>
        <time>2012-02-12T12:30:08.000Z</time>
      </trkpt>
      <trkpt lat="45.34323" lon="6.19027">
        <ele>2516.6000976562</ele>
        <time>2012-02-12T12:31:03.000Z</time>
      </trkpt>
      <trkpt lat="45.34325" lon="6.1903">
        <ele>2518.3999023438</ele>
        <time>2012-02-12T12:31:10.000Z</time>
      </trkpt>
      <trkpt lat="45.34331" lon="6.19036">
        <ele>2520.8000488281</ele>
        <time>2012-02-12T12:31:34.000Z</time>
      </trkpt>
      <trkpt lat="45.34328" lon="6.19039">
        <ele>2522</ele>
        <time>2012-02-12T12:31:41.000Z</time>
      </trkpt>
      <trkpt lat="45.34325" lon="6.19041">
        <ele>2523</ele>
        <time>2012-02-12T12:31:48.000Z</time>
      </trkpt>
      <trkpt lat="45.34326" lon="6.19046">
        <ele>2523.1999511719</ele>
        <time>2012-02-12T12:31:54.000Z</time>
      </trkpt>
      <trkpt lat="45.34325" lon="6.19049">
        <ele>2524.1999511719</ele>
        <time>2012-02-12T12:32:03.000Z</time>
      </trkpt>
      <trkpt lat="45.34331" lon="6.19046">
        <ele>2524</ele>
        <time>2012-02-12T12:33:34.000Z</time>
      </trkpt>
      <trkpt lat="45.34328" lon="6.19043">
        <ele>2524.1999511719</ele>
        <time>2012-02-12T12:33:44.000Z</time>
      </trkpt>
      <trkpt lat="45.34326" lon="6.19043">
        <ele>2525.6000976562</ele>
        <time>2012-02-12T12:35:05.000Z</time>
      </trkpt>
      <trkpt lat="45.34328" lon="6.19044">
        <ele>2523.8000488281</ele>
        <time>2012-02-12T12:35:32.000Z</time>
      </trkpt>
      <trkpt lat="45.34326" lon="6.19045">
        <ele>2523.8000488281</ele>
        <time>2012-02-12T12:35:39.000Z</time>
      </trkpt>
      <trkpt lat="45.3433" lon="6.19053">
        <ele>2524.1999511719</ele>
        <time>2012-02-12T12:36:17.000Z</time>
      </trkpt>
      <trkpt lat="45.3433" lon="6.19052">
        <ele>2524.3999023438</ele>
        <time>2012-02-12T12:36:28.000Z</time>
      </trkpt>
      <trkpt lat="45.34324" lon="6.19045">
        <ele>2524.1999511719</ele>
        <time>2012-02-12T12:37:32.000Z</time>
      </trkpt>
      <trkpt lat="45.34324" lon="6.19043">
        <ele>2524.1999511719</ele>
        <time>2012-02-12T12:37:38.000Z</time>
      </trkpt>
      <trkpt lat="45.34327" lon="6.19051">
        <ele>2521.6000976562</ele>
        <time>2012-02-12T12:41:15.000Z</time>
      </trkpt>
      <trkpt lat="45.34315" lon="6.19048">
        <ele>2525.1999511719</ele>
        <time>2012-02-12T12:41:52.000Z</time>
      </trkpt>
      <trkpt lat="45.34315" lon="6.19048">
        <ele>2524.1999511719</ele>
        <time>2012-02-12T12:41:54.000Z</time>
      </trkpt>
      <trkpt lat="45.34317" lon="6.19048">
        <ele>2525.8000488281</ele>
        <time>2012-02-12T12:41:59.000Z</time>
      </trkpt>
      <trkpt lat="45.34318" lon="6.19049">
        <ele>2525</ele>
        <time>2012-02-12T12:42:36.000Z</time>
      </trkpt>
      <trkpt lat="45.34321" lon="6.19048">
        <ele>2523.8000488281</ele>
        <time>2012-02-12T12:44:20.000Z</time>
      </trkpt>
      <trkpt lat="45.34322" lon="6.19048">
        <ele>2524.6000976562</ele>
        <time>2012-02-12T12:45:55.000Z</time>
      </trkpt>
      <trkpt lat="45.34324" lon="6.19048">
        <ele>2525.1999511719</ele>
        <time>2012-02-12T12:46:03.000Z</time>
      </trkpt>
      <trkpt lat="45.34324" lon="6.1905">
        <ele>2523.8000488281</ele>
        <time>2012-02-12T12:46:06.000Z</time>
      </trkpt>
      <trkpt lat="45.34324" lon="6.19049">
        <ele>2526.3999023438</ele>
        <time>2012-02-12T12:46:11.000Z</time>
      </trkpt>
      <trkpt lat="45.34325" lon="6.19046">
        <ele>2525.8000488281</ele>
        <time>2012-02-12T12:46:19.000Z</time>
      </trkpt>
      <trkpt lat="45.34324" lon="6.19045">
        <ele>2525.6000976562</ele>
        <time>2012-02-12T12:46:26.000Z</time>
      </trkpt>
      <trkpt lat="45.34323" lon="6.19045">
        <ele>2524</ele>
        <time>2012-02-12T12:46:38.000Z</time>
      </trkpt>
      <trkpt lat="45.34324" lon="6.19045">
        <ele>2526.8000488281</ele>
        <time>2012-02-12T12:46:42.000Z</time>
      </trkpt>
      <trkpt lat="45.34324" lon="6.19045">
        <ele>2525.1999511719</ele>
        <time>2012-02-12T12:46:44.000Z</time>
      </trkpt>
      <trkpt lat="45.34325" lon="6.19045">
        <ele>2527</ele>
        <time>2012-02-12T12:48:37.000Z</time>
      </trkpt>
      <trkpt lat="45.34325" lon="6.19045">
        <ele>2525</ele>
        <time>2012-02-12T12:48:41.000Z</time>
      </trkpt>
      <trkpt lat="45.34326" lon="6.19044">
        <ele>2526</ele>
        <time>2012-02-12T12:49:10.000Z</time>
      </trkpt>
      <trkpt lat="45.34326" lon="6.19044">
        <ele>2523.6000976562</ele>
        <time>2012-02-12T12:49:15.000Z</time>
      </trkpt>
      <trkpt lat="45.34327" lon="6.19044">
        <ele>2525.3999023438</ele>
        <time>2012-02-12T12:49:22.000Z</time>
      </trkpt>
      <trkpt lat="45.34327" lon="6.19043">
        <ele>2523.8000488281</ele>
        <time>2012-02-12T12:49:47.000Z</time>
      </trkpt>
      <trkpt lat="45.34327" lon="6.19043">
        <ele>2522.3999023438</ele>
        <time>2012-02-12T12:49:49.000Z</time>
      </trkpt>
      <trkpt lat="45.34327" lon="6.19043">
        <ele>2524</ele>
        <time>2012-02-12T12:49:51.000Z</time>
      </trkpt>
      <trkpt lat="45.34325" lon="6.1904">
        <ele>2525</ele>
        <time>2012-02-12T12:50:35.000Z</time>
      </trkpt>
      <trkpt lat="45.34323" lon="6.19036">
        <ele>2523.8000488281</ele>
        <time>2012-02-12T12:50:40.000Z</time>
      </trkpt>
      <trkpt lat="45.34323" lon="6.19037">
        <ele>2523.3999023438</ele>
        <time>2012-02-12T12:50:51.000Z</time>
      </trkpt>
      <trkpt lat="45.34323" lon="6.19035">
        <ele>2523</ele>
        <time>2012-02-12T12:51:20.000Z</time>
      </trkpt>
      <trkpt lat="45.34322" lon="6.19035">
        <ele>2523.3999023438</ele>
        <time>2012-02-12T12:52:06.000Z</time>
      </trkpt>
      <trkpt lat="45.34324" lon="6.19027">
        <ele>2521.6000976562</ele>
        <time>2012-02-12T12:52:10.000Z</time>
      </trkpt>
      <trkpt lat="45.34322" lon="6.1901">
        <ele>2514.8000488281</ele>
        <time>2012-02-12T12:52:14.000Z</time>
      </trkpt>
      <trkpt lat="45.34321" lon="6.18997">
        <ele>2509.1999511719</ele>
        <time>2012-02-12T12:52:17.000Z</time>
      </trkpt>
      <trkpt lat="45.34322" lon="6.18995">
        <ele>2508</ele>
        <time>2012-02-12T12:52:20.000Z</time>
      </trkpt>
      <trkpt lat="45.34322" lon="6.18993">
        <ele>2503.3999023438</ele>
        <time>2012-02-12T12:52:25.000Z</time>
      </trkpt>
      <trkpt lat="45.34322" lon="6.18987">
        <ele>2494.1999511719</ele>
        <time>2012-02-12T12:52:29.000Z</time>
      </trkpt>
      <trkpt lat="45.34319" lon="6.18988">
        <ele>2503</ele>
        <time>2012-02-12T12:52:33.000Z</time>
      </trkpt>
      <trkpt lat="45.34319" lon="6.18987">
        <ele>2503.3999023438</ele>
        <time>2012-02-12T12:52:34.000Z</time>
      </trkpt>
      <trkpt lat="45.34323" lon="6.18979">
        <ele>2501.8000488281</ele>
        <time>2012-02-12T12:52:38.000Z</time>
      </trkpt>
      <trkpt lat="45.34323" lon="6.18968">
        <ele>2498.8000488281</ele>
        <time>2012-02-12T12:52:41.000Z</time>
      </trkpt>
      <trkpt lat="45.34318" lon="6.18957">
        <ele>2494.6000976562</ele>
        <time>2012-02-12T12:52:45.000Z</time>
      </trkpt>
      <trkpt lat="45.34318" lon="6.1894">
        <ele>2491.3999023438</ele>
        <time>2012-02-12T12:52:49.000Z</time>
      </trkpt>
      <trkpt lat="45.34316" lon="6.18931">
        <ele>2489.3999023438</ele>
        <time>2012-02-12T12:52:51.000Z</time>
      </trkpt>
      <trkpt lat="45.34315" lon="6.18923">
        <ele>2485.8000488281</ele>
        <time>2012-02-12T12:52:53.000Z</time>
      </trkpt>
      <trkpt lat="45.34313" lon="6.18902">
        <ele>2479.3999023438</ele>
        <time>2012-02-12T12:52:58.000Z</time>
      </trkpt>
      <trkpt lat="45.34314" lon="6.18896">
        <ele>2477.8000488281</ele>
        <time>2012-02-12T12:53:00.000Z</time>
      </trkpt>
      <trkpt lat="45.34315" lon="6.18894">
        <ele>2475.1999511719</ele>
        <time>2012-02-12T12:53:03.000Z</time>
      </trkpt>
      <trkpt lat="45.34314" lon="6.18893">
        <ele>2475.1999511719</ele>
        <time>2012-02-12T12:53:04.000Z</time>
      </trkpt>
      <trkpt lat="45.34309" lon="6.18878">
        <ele>2473.1999511719</ele>
        <time>2012-02-12T12:53:08.000Z</time>
      </trkpt>
      <trkpt lat="45.34316" lon="6.18864">
        <ele>2469.1999511719</ele>
        <time>2012-02-12T12:53:11.000Z</time>
      </trkpt>
      <trkpt lat="45.34319" lon="6.18863">
        <ele>2467.3999023438</ele>
        <time>2012-02-12T12:53:14.000Z</time>
      </trkpt>
      <trkpt lat="45.34321" lon="6.18866">
        <ele>2467.6000976562</ele>
        <time>2012-02-12T12:53:20.000Z</time>
      </trkpt>
      <trkpt lat="45.34322" lon="6.18867">
        <ele>2467.8000488281</ele>
        <time>2012-02-12T12:53:23.000Z</time>
      </trkpt>
      <trkpt lat="45.34319" lon="6.18863">
        <ele>2466.6000976562</ele>
        <time>2012-02-12T12:53:26.000Z</time>
      </trkpt>
      <trkpt lat="45.34311" lon="6.18863">
        <ele>2463.8000488281</ele>
        <time>2012-02-12T12:53:31.000Z</time>
      </trkpt>
      <trkpt lat="45.34309" lon="6.18864">
        <ele>2463.6000976562</ele>
        <time>2012-02-12T12:53:35.000Z</time>
      </trkpt>
      <trkpt lat="45.3431" lon="6.18852">
        <ele>2461.8000488281</ele>
        <time>2012-02-12T12:53:39.000Z</time>
      </trkpt>
      <trkpt lat="45.34309" lon="6.18841">
        <ele>2458</ele>
        <time>2012-02-12T12:53:42.000Z</time>
      </trkpt>
      <trkpt lat="45.34306" lon="6.18832">
        <ele>2454.6000976562</ele>
        <time>2012-02-12T12:53:45.000Z</time>
      </trkpt>
      <trkpt lat="45.34302" lon="6.18827">
        <ele>2451</ele>
        <time>2012-02-12T12:53:48.000Z</time>
      </trkpt>
      <trkpt lat="45.34303" lon="6.18824">
        <ele>2449.1999511719</ele>
        <time>2012-02-12T12:53:49.000Z</time>
      </trkpt>
      <trkpt lat="45.34301" lon="6.18816">
        <ele>2444.8000488281</ele>
        <time>2012-02-12T12:53:54.000Z</time>
      </trkpt>
      <trkpt lat="45.34299" lon="6.18818">
        <ele>2442.8000488281</ele>
        <time>2012-02-12T12:54:01.000Z</time>
      </trkpt>
      <trkpt lat="45.34298" lon="6.18808">
        <ele>2441</ele>
        <time>2012-02-12T12:54:06.000Z</time>
      </trkpt>
      <trkpt lat="45.34294" lon="6.18803">
        <ele>2434.8000488281</ele>
        <time>2012-02-12T12:54:11.000Z</time>
      </trkpt>
      <trkpt lat="45.34295" lon="6.18801">
        <ele>2432.6000976562</ele>
        <time>2012-02-12T12:54:14.000Z</time>
      </trkpt>
      <trkpt lat="45.34294" lon="6.18801">
        <ele>2434.6000976562</ele>
        <time>2012-02-12T12:54:18.000Z</time>
      </trkpt>
      <trkpt lat="45.34294" lon="6.18801">
        <ele>2433.6000976562</ele>
        <time>2012-02-12T12:54:22.000Z</time>
      </trkpt>
      <trkpt lat="45.34294" lon="6.188">
        <ele>2431.1999511719</ele>
        <time>2012-02-12T12:54:29.000Z</time>
      </trkpt>
      <trkpt lat="45.34293" lon="6.18801">
        <ele>2433</ele>
        <time>2012-02-12T12:54:34.000Z</time>
      </trkpt>
      <trkpt lat="45.34293" lon="6.188">
        <ele>2432.1999511719</ele>
        <time>2012-02-12T12:54:45.000Z</time>
      </trkpt>
      <trkpt lat="45.34297" lon="6.18791">
        <ele>2430.1999511719</ele>
        <time>2012-02-12T12:54:49.000Z</time>
      </trkpt>
      <trkpt lat="45.34297" lon="6.18791">
        <ele>2430</ele>
        <time>2012-02-12T12:54:50.000Z</time>
      </trkpt>
      <trkpt lat="45.34298" lon="6.18793">
        <ele>2430</ele>
        <time>2012-02-12T12:55:00.000Z</time>
      </trkpt>
      <trkpt lat="45.34298" lon="6.18793">
        <ele>2430</ele>
        <time>2012-02-12T12:55:01.000Z</time>
      </trkpt>
      <trkpt lat="45.34293" lon="6.18784">
        <ele>2427</ele>
        <time>2012-02-12T12:55:05.000Z</time>
      </trkpt>
      <trkpt lat="45.34294" lon="6.18778">
        <ele>2425.3999023438</ele>
        <time>2012-02-12T12:55:08.000Z</time>
      </trkpt>
      <trkpt lat="45.3429" lon="6.18771">
        <ele>2422.1999511719</ele>
        <time>2012-02-12T12:55:11.000Z</time>
      </trkpt>
      <trkpt lat="45.34289" lon="6.18764">
        <ele>2417.6000976562</ele>
        <time>2012-02-12T12:55:14.000Z</time>
      </trkpt>
      <trkpt lat="45.34287" lon="6.18757">
        <ele>2413.6000976562</ele>
        <time>2012-02-12T12:55:17.000Z</time>
      </trkpt>
      <trkpt lat="45.34284" lon="6.1875">
        <ele>2409.6000976562</ele>
        <time>2012-02-12T12:55:20.000Z</time>
      </trkpt>
      <trkpt lat="45.34286" lon="6.18736">
        <ele>2404.6000976562</ele>
        <time>2012-02-12T12:55:23.000Z</time>
      </trkpt>
      <trkpt lat="45.34283" lon="6.18728">
        <ele>2401</ele>
        <time>2012-02-12T12:55:25.000Z</time>
      </trkpt>
      <trkpt lat="45.34283" lon="6.18718">
        <ele>2397</ele>
        <time>2012-02-12T12:55:27.000Z</time>
      </trkpt>
      <trkpt lat="45.34284" lon="6.18704">
        <ele>2393.3999023438</ele>
        <time>2012-02-12T12:55:29.000Z</time>
      </trkpt>
      <trkpt lat="45.34291" lon="6.18683">
        <ele>2385.3999023438</ele>
        <time>2012-02-12T12:55:34.000Z</time>
      </trkpt>
      <trkpt lat="45.34291" lon="6.18684">
        <ele>2385.1999511719</ele>
        <time>2012-02-12T12:55:35.000Z</time>
      </trkpt>
      <trkpt lat="45.3429" lon="6.18683">
        <ele>2385.8000488281</ele>
        <time>2012-02-12T12:55:38.000Z</time>
      </trkpt>
      <trkpt lat="45.34282" lon="6.18676">
        <ele>2383.3999023438</ele>
        <time>2012-02-12T12:55:42.000Z</time>
      </trkpt>
      <trkpt lat="45.34282" lon="6.18665">
        <ele>2380</ele>
        <time>2012-02-12T12:55:45.000Z</time>
      </trkpt>
      <trkpt lat="45.34285" lon="6.18655">
        <ele>2377.3999023438</ele>
        <time>2012-02-12T12:55:47.000Z</time>
      </trkpt>
      <trkpt lat="45.34289" lon="6.18645">
        <ele>2374.8000488281</ele>
        <time>2012-02-12T12:55:49.000Z</time>
      </trkpt>
      <trkpt lat="45.34292" lon="6.18629">
        <ele>2370.1999511719</ele>
        <time>2012-02-12T12:55:52.000Z</time>
      </trkpt>
      <trkpt lat="45.34288" lon="6.18618">
        <ele>2366</ele>
        <time>2012-02-12T12:55:55.000Z</time>
      </trkpt>
      <trkpt lat="45.34293" lon="6.18615">
        <ele>2362</ele>
        <time>2012-02-12T12:55:58.000Z</time>
      </trkpt>
      <trkpt lat="45.34293" lon="6.18619">
        <ele>2360</ele>
        <time>2012-02-12T12:56:03.000Z</time>
      </trkpt>
      <trkpt lat="45.34301" lon="6.18621">
        <ele>2360</ele>
        <time>2012-02-12T12:58:26.000Z</time>
      </trkpt>
      <trkpt lat="45.34299" lon="6.1861">
        <ele>2358</ele>
        <time>2012-02-12T12:58:30.000Z</time>
      </trkpt>
      <trkpt lat="45.343" lon="6.18602">
        <ele>2356.3999023438</ele>
        <time>2012-02-12T12:58:32.000Z</time>
      </trkpt>
      <trkpt lat="45.34301" lon="6.18591">
        <ele>2352.3999023438</ele>
        <time>2012-02-12T12:58:35.000Z</time>
      </trkpt>
      <trkpt lat="45.34305" lon="6.18581">
        <ele>2347.3999023438</ele>
        <time>2012-02-12T12:58:38.000Z</time>
      </trkpt>
      <trkpt lat="45.34307" lon="6.18573">
        <ele>2344.3999023438</ele>
        <time>2012-02-12T12:58:40.000Z</time>
      </trkpt>
      <trkpt lat="45.34296" lon="6.1855">
        <ele>2338.3999023438</ele>
        <time>2012-02-12T12:58:44.000Z</time>
      </trkpt>
      <trkpt lat="45.3429" lon="6.18536">
        <ele>2337</ele>
        <time>2012-02-12T12:58:46.000Z</time>
      </trkpt>
      <trkpt lat="45.34285" lon="6.18487">
        <ele>2329.1999511719</ele>
        <time>2012-02-12T12:58:50.000Z</time>
      </trkpt>
      <trkpt lat="45.34285" lon="6.18445">
        <ele>2317.8000488281</ele>
        <time>2012-02-12T12:58:55.000Z</time>
      </trkpt>
      <trkpt lat="45.34283" lon="6.18419">
        <ele>2313.3999023438</ele>
        <time>2012-02-12T12:59:00.000Z</time>
      </trkpt>
      <trkpt lat="45.34279" lon="6.18399">
        <ele>2310.8000488281</ele>
        <time>2012-02-12T12:59:04.000Z</time>
      </trkpt>
      <trkpt lat="45.34277" lon="6.18386">
        <ele>2309</ele>
        <time>2012-02-12T12:59:06.000Z</time>
      </trkpt>
      <trkpt lat="45.34275" lon="6.18343">
        <ele>2302.6000976562</ele>
        <time>2012-02-12T12:59:12.000Z</time>
      </trkpt>
      <trkpt lat="45.34275" lon="6.18337">
        <ele>2302.3999023438</ele>
        <time>2012-02-12T12:59:13.000Z</time>
      </trkpt>
      <trkpt lat="45.34278" lon="6.18308">
        <ele>2299</ele>
        <time>2012-02-12T12:59:18.000Z</time>
      </trkpt>
      <trkpt lat="45.34286" lon="6.18276">
        <ele>2295.8000488281</ele>
        <time>2012-02-12T12:59:24.000Z</time>
      </trkpt>
      <trkpt lat="45.34298" lon="6.18256">
        <ele>2293.8000488281</ele>
        <time>2012-02-12T12:59:30.000Z</time>
      </trkpt>
      <trkpt lat="45.34319" lon="6.18237">
        <ele>2291.6000976562</ele>
        <time>2012-02-12T12:59:37.000Z</time>
      </trkpt>
      <trkpt lat="45.34317" lon="6.18234">
        <ele>2291.1999511719</ele>
        <time>2012-02-12T12:59:41.000Z</time>
      </trkpt>
      <trkpt lat="45.34319" lon="6.18229">
        <ele>2290.6000976562</ele>
        <time>2012-02-12T12:59:48.000Z</time>
      </trkpt>
      <trkpt lat="45.34322" lon="6.18228">
        <ele>2290</ele>
        <time>2012-02-12T12:59:51.000Z</time>
      </trkpt>
      <trkpt lat="45.34336" lon="6.18249">
        <ele>2290</ele>
        <time>2012-02-12T13:00:24.000Z</time>
      </trkpt>
      <trkpt lat="45.34322" lon="6.18239">
        <ele>2290.3999023438</ele>
        <time>2012-02-12T13:01:04.000Z</time>
      </trkpt>
      <trkpt lat="45.34324" lon="6.1823">
        <ele>2289.6000976562</ele>
        <time>2012-02-12T13:01:11.000Z</time>
      </trkpt>
      <trkpt lat="45.34328" lon="6.18227">
        <ele>2288.6000976562</ele>
        <time>2012-02-12T13:01:16.000Z</time>
      </trkpt>
      <trkpt lat="45.34325" lon="6.18216">
        <ele>2288.6000976562</ele>
        <time>2012-02-12T13:02:06.000Z</time>
      </trkpt>
      <trkpt lat="45.34329" lon="6.18207">
        <ele>2287.3999023438</ele>
        <time>2012-02-12T13:02:10.000Z</time>
      </trkpt>
      <trkpt lat="45.34337" lon="6.18199">
        <ele>2284</ele>
        <time>2012-02-12T13:02:13.000Z</time>
      </trkpt>
      <trkpt lat="45.34342" lon="6.18197">
        <ele>2282.1999511719</ele>
        <time>2012-02-12T13:02:16.000Z</time>
      </trkpt>
      <trkpt lat="45.34342" lon="6.18199">
        <ele>2281.8000488281</ele>
        <time>2012-02-12T13:02:22.000Z</time>
      </trkpt>
      <trkpt lat="45.34348" lon="6.18195">
        <ele>2280.8000488281</ele>
        <time>2012-02-12T13:02:29.000Z</time>
      </trkpt>
      <trkpt lat="45.34349" lon="6.18194">
        <ele>2280</ele>
        <time>2012-02-12T13:02:32.000Z</time>
      </trkpt>
      <trkpt lat="45.34346" lon="6.18185">
        <ele>2279.6000976562</ele>
        <time>2012-02-12T13:02:35.000Z</time>
      </trkpt>
      <trkpt lat="45.34341" lon="6.18178">
        <ele>2274.1999511719</ele>
        <time>2012-02-12T13:02:38.000Z</time>
      </trkpt>
      <trkpt lat="45.34341" lon="6.18167">
        <ele>2273</ele>
        <time>2012-02-12T13:02:41.000Z</time>
      </trkpt>
      <trkpt lat="45.3434" lon="6.18158">
        <ele>2270.1999511719</ele>
        <time>2012-02-12T13:02:43.000Z</time>
      </trkpt>
      <trkpt lat="45.34341" lon="6.18148">
        <ele>2267</ele>
        <time>2012-02-12T13:02:45.000Z</time>
      </trkpt>
      <trkpt lat="45.34342" lon="6.18133">
        <ele>2260.3999023438</ele>
        <time>2012-02-12T13:02:48.000Z</time>
      </trkpt>
      <trkpt lat="45.34339" lon="6.18122">
        <ele>2256</ele>
        <time>2012-02-12T13:02:51.000Z</time>
      </trkpt>
      <trkpt lat="45.34331" lon="6.18114">
        <ele>2250.1999511719</ele>
        <time>2012-02-12T13:02:54.000Z</time>
      </trkpt>
      <trkpt lat="45.34306" lon="6.18094">
        <ele>2243.1999511719</ele>
        <time>2012-02-12T13:02:59.000Z</time>
      </trkpt>
      <trkpt lat="45.34291" lon="6.18085">
        <ele>2240</ele>
        <time>2012-02-12T13:03:04.000Z</time>
      </trkpt>
      <trkpt lat="45.34266" lon="6.18071">
        <ele>2233.8000488281</ele>
        <time>2012-02-12T13:03:09.000Z</time>
      </trkpt>
      <trkpt lat="45.3426" lon="6.18067">
        <ele>2232</ele>
        <time>2012-02-12T13:03:10.000Z</time>
      </trkpt>
      <trkpt lat="45.34238" lon="6.1804">
        <ele>2224</ele>
        <time>2012-02-12T13:03:15.000Z</time>
      </trkpt>
      <trkpt lat="45.34234" lon="6.18036">
        <ele>2222.6000976562</ele>
        <time>2012-02-12T13:03:16.000Z</time>
      </trkpt>
      <trkpt lat="45.34219" lon="6.18019">
        <ele>2218.3999023438</ele>
        <time>2012-02-12T13:03:19.000Z</time>
      </trkpt>
      <trkpt lat="45.342" lon="6.18003">
        <ele>2214.1999511719</ele>
        <time>2012-02-12T13:03:24.000Z</time>
      </trkpt>
      <trkpt lat="45.34198" lon="6.18004">
        <ele>2213.6000976562</ele>
        <time>2012-02-12T13:03:27.000Z</time>
      </trkpt>
      <trkpt lat="45.34198" lon="6.17999">
        <ele>2212.3999023438</ele>
        <time>2012-02-12T13:03:43.000Z</time>
      </trkpt>
      <trkpt lat="45.34198" lon="6.17999">
        <ele>2213.6000976562</ele>
        <time>2012-02-12T13:04:05.000Z</time>
      </trkpt>
      <trkpt lat="45.34202" lon="6.17999">
        <ele>2215.3999023438</ele>
        <time>2012-02-12T13:04:17.000Z</time>
      </trkpt>
      <trkpt lat="45.34198" lon="6.17999">
        <ele>2212.6000976562</ele>
        <time>2012-02-12T13:04:21.000Z</time>
      </trkpt>
      <trkpt lat="45.3419" lon="6.1801">
        <ele>2212.1999511719</ele>
        <time>2012-02-12T13:04:38.000Z</time>
      </trkpt>
      <trkpt lat="45.3421" lon="6.18024">
        <ele>2212</ele>
        <time>2012-02-12T13:04:59.000Z</time>
      </trkpt>
      <trkpt lat="45.3421" lon="6.18024">
        <ele>2212.3999023438</ele>
        <time>2012-02-12T13:05:11.000Z</time>
      </trkpt>
      <trkpt lat="45.34199" lon="6.18009">
        <ele>2212.3999023438</ele>
        <time>2012-02-12T13:05:47.000Z</time>
      </trkpt>
      <trkpt lat="45.34203" lon="6.18012">
        <ele>2213.3999023438</ele>
        <time>2012-02-12T13:07:01.000Z</time>
      </trkpt>
      <trkpt lat="45.34211" lon="6.18017">
        <ele>2213.6000976562</ele>
        <time>2012-02-12T13:07:26.000Z</time>
      </trkpt>
      <trkpt lat="45.34212" lon="6.18019">
        <ele>2215.3999023438</ele>
        <time>2012-02-12T13:09:01.000Z</time>
      </trkpt>
      <trkpt lat="45.34213" lon="6.18019">
        <ele>2217</ele>
        <time>2012-02-12T13:09:23.000Z</time>
      </trkpt>
      <trkpt lat="45.34207" lon="6.18013">
        <ele>2215.3999023438</ele>
        <time>2012-02-12T13:10:04.000Z</time>
      </trkpt>
      <trkpt lat="45.34202" lon="6.1801">
        <ele>2215</ele>
        <time>2012-02-12T13:10:26.000Z</time>
      </trkpt>
      <trkpt lat="45.34201" lon="6.18009">
        <ele>2217.8000488281</ele>
        <time>2012-02-12T13:10:34.000Z</time>
      </trkpt>
      <trkpt lat="45.342" lon="6.18009">
        <ele>2216.3999023438</ele>
        <time>2012-02-12T13:10:39.000Z</time>
      </trkpt>
      <trkpt lat="45.34202" lon="6.18018">
        <ele>2219.1999511719</ele>
        <time>2012-02-12T13:11:36.000Z</time>
      </trkpt>
      <trkpt lat="45.34202" lon="6.18023">
        <ele>2219</ele>
        <time>2012-02-12T13:11:41.000Z</time>
      </trkpt>
      <trkpt lat="45.34207" lon="6.18026">
        <ele>2220.1999511719</ele>
        <time>2012-02-12T13:11:47.000Z</time>
      </trkpt>
      <trkpt lat="45.3421" lon="6.18029">
        <ele>2220.6000976562</ele>
        <time>2012-02-12T13:11:52.000Z</time>
      </trkpt>
      <trkpt lat="45.34209" lon="6.18032">
        <ele>2223</ele>
        <time>2012-02-12T13:12:12.000Z</time>
      </trkpt>
      <trkpt lat="45.34205" lon="6.1803">
        <ele>2223.1999511719</ele>
        <time>2012-02-12T13:12:16.000Z</time>
      </trkpt>
      <trkpt lat="45.342" lon="6.18029">
        <ele>2224.1999511719</ele>
        <time>2012-02-12T13:12:22.000Z</time>
      </trkpt>
      <trkpt lat="45.34198" lon="6.18032">
        <ele>2224.1999511719</ele>
        <time>2012-02-12T13:12:27.000Z</time>
      </trkpt>
      <trkpt lat="45.34194" lon="6.1803">
        <ele>2225.6000976562</ele>
        <time>2012-02-12T13:12:37.000Z</time>
      </trkpt>
      <trkpt lat="45.34193" lon="6.18031">
        <ele>2226</ele>
        <time>2012-02-12T13:12:42.000Z</time>
      </trkpt>
      <trkpt lat="45.34192" lon="6.1803">
        <ele>2226.1999511719</ele>
        <time>2012-02-12T13:12:43.000Z</time>
      </trkpt>
      <trkpt lat="45.34187" lon="6.18026">
        <ele>2227.1999511719</ele>
        <time>2012-02-12T13:12:49.000Z</time>
      </trkpt>
      <trkpt lat="45.34184" lon="6.18024">
        <ele>2227.6000976562</ele>
        <time>2012-02-12T13:12:53.000Z</time>
      </trkpt>
      <trkpt lat="45.3418" lon="6.18021">
        <ele>2229.3999023438</ele>
        <time>2012-02-12T13:12:59.000Z</time>
      </trkpt>
      <trkpt lat="45.3418" lon="6.18026">
        <ele>2230.1999511719</ele>
        <time>2012-02-12T13:13:06.000Z</time>
      </trkpt>
      <trkpt lat="45.3418" lon="6.18027">
        <ele>2230</ele>
        <time>2012-02-12T13:13:13.000Z</time>
      </trkpt>
      <trkpt lat="45.3418" lon="6.18033">
        <ele>2231.8000488281</ele>
        <time>2012-02-12T13:13:25.000Z</time>
      </trkpt>
      <trkpt lat="45.34186" lon="6.18043">
        <ele>2234.1999511719</ele>
        <time>2012-02-12T13:13:34.000Z</time>
      </trkpt>
      <trkpt lat="45.34187" lon="6.18047">
        <ele>2236.1999511719</ele>
        <time>2012-02-12T13:13:39.000Z</time>
      </trkpt>
      <trkpt lat="45.34192" lon="6.18053">
        <ele>2236.8000488281</ele>
        <time>2012-02-12T13:13:46.000Z</time>
      </trkpt>
      <trkpt lat="45.34198" lon="6.18057">
        <ele>2237.6000976562</ele>
        <time>2012-02-12T13:13:57.000Z</time>
      </trkpt>
      <trkpt lat="45.34192" lon="6.18055">
        <ele>2238.1999511719</ele>
        <time>2012-02-12T13:14:09.000Z</time>
      </trkpt>
      <trkpt lat="45.34185" lon="6.18054">
        <ele>2239.8000488281</ele>
        <time>2012-02-12T13:14:18.000Z</time>
      </trkpt>
      <trkpt lat="45.34183" lon="6.18053">
        <ele>2240</ele>
        <time>2012-02-12T13:14:20.000Z</time>
      </trkpt>
      <trkpt lat="45.34174" lon="6.1805">
        <ele>2240.8000488281</ele>
        <time>2012-02-12T13:14:25.000Z</time>
      </trkpt>
      <trkpt lat="45.34169" lon="6.18047">
        <ele>2241.6000976562</ele>
        <time>2012-02-12T13:14:30.000Z</time>
      </trkpt>
      <trkpt lat="45.34161" lon="6.18044">
        <ele>2242.8000488281</ele>
        <time>2012-02-12T13:14:37.000Z</time>
      </trkpt>
      <trkpt lat="45.34155" lon="6.18038">
        <ele>2244.1999511719</ele>
        <time>2012-02-12T13:14:43.000Z</time>
      </trkpt>
      <trkpt lat="45.34152" lon="6.18034">
        <ele>2245.3999023438</ele>
        <time>2012-02-12T13:14:50.000Z</time>
      </trkpt>
      <trkpt lat="45.34149" lon="6.18029">
        <ele>2246.6000976562</ele>
        <time>2012-02-12T13:14:55.000Z</time>
      </trkpt>
      <trkpt lat="45.34142" lon="6.18025">
        <ele>2249.1999511719</ele>
        <time>2012-02-12T13:15:05.000Z</time>
      </trkpt>
      <trkpt lat="45.34141" lon="6.18025">
        <ele>2250.1999511719</ele>
        <time>2012-02-12T13:15:07.000Z</time>
      </trkpt>
      <trkpt lat="45.34138" lon="6.18022">
        <ele>2250.8000488281</ele>
        <time>2012-02-12T13:15:12.000Z</time>
      </trkpt>
      <trkpt lat="45.34135" lon="6.1802">
        <ele>2252.3999023438</ele>
        <time>2012-02-12T13:15:17.000Z</time>
      </trkpt>
      <trkpt lat="45.34133" lon="6.18019">
        <ele>2253.3999023438</ele>
        <time>2012-02-12T13:15:19.000Z</time>
      </trkpt>
      <trkpt lat="45.34131" lon="6.18017">
        <ele>2253.6000976562</ele>
        <time>2012-02-12T13:15:21.000Z</time>
      </trkpt>
      <trkpt lat="45.34125" lon="6.18014">
        <ele>2253.6000976562</ele>
        <time>2012-02-12T13:15:29.000Z</time>
      </trkpt>
      <trkpt lat="45.34122" lon="6.18012">
        <ele>2254.6000976562</ele>
        <time>2012-02-12T13:15:32.000Z</time>
      </trkpt>
      <trkpt lat="45.34118" lon="6.18012">
        <ele>2254.3999023438</ele>
        <time>2012-02-12T13:15:38.000Z</time>
      </trkpt>
      <trkpt lat="45.34115" lon="6.18012">
        <ele>2256.3999023438</ele>
        <time>2012-02-12T13:15:42.000Z</time>
      </trkpt>
      <trkpt lat="45.34116" lon="6.18012">
        <ele>2258</ele>
        <time>2012-02-12T13:15:50.000Z</time>
      </trkpt>
      <trkpt lat="45.34111" lon="6.18009">
        <ele>2257.8000488281</ele>
        <time>2012-02-12T13:15:55.000Z</time>
      </trkpt>
      <trkpt lat="45.34107" lon="6.1801">
        <ele>2259</ele>
        <time>2012-02-12T13:15:59.000Z</time>
      </trkpt>
      <trkpt lat="45.34098" lon="6.18012">
        <ele>2261.3999023438</ele>
        <time>2012-02-12T13:16:10.000Z</time>
      </trkpt>
      <trkpt lat="45.34104" lon="6.18018">
        <ele>2261.3999023438</ele>
        <time>2012-02-12T13:16:16.000Z</time>
      </trkpt>
      <trkpt lat="45.34105" lon="6.18019">
        <ele>2262.3999023438</ele>
        <time>2012-02-12T13:16:17.000Z</time>
      </trkpt>
      <trkpt lat="45.34109" lon="6.18026">
        <ele>2262.8000488281</ele>
        <time>2012-02-12T13:16:22.000Z</time>
      </trkpt>
      <trkpt lat="45.34118" lon="6.18044">
        <ele>2266</ele>
        <time>2012-02-12T13:16:36.000Z</time>
      </trkpt>
      <trkpt lat="45.34117" lon="6.1805">
        <ele>2266.3999023438</ele>
        <time>2012-02-12T13:16:41.000Z</time>
      </trkpt>
      <trkpt lat="45.34118" lon="6.18054">
        <ele>2267.1999511719</ele>
        <time>2012-02-12T13:16:45.000Z</time>
      </trkpt>
      <trkpt lat="45.3412" lon="6.18061">
        <ele>2269.1999511719</ele>
        <time>2012-02-12T13:16:51.000Z</time>
      </trkpt>
      <trkpt lat="45.34119" lon="6.18066">
        <ele>2269</ele>
        <time>2012-02-12T13:16:57.000Z</time>
      </trkpt>
      <trkpt lat="45.34119" lon="6.18077">
        <ele>2271.1999511719</ele>
        <time>2012-02-12T13:17:07.000Z</time>
      </trkpt>
      <trkpt lat="45.34118" lon="6.18078">
        <ele>2272.3999023438</ele>
        <time>2012-02-12T13:17:12.000Z</time>
      </trkpt>
      <trkpt lat="45.34106" lon="6.1807">
        <ele>2273.1999511719</ele>
        <time>2012-02-12T13:17:19.000Z</time>
      </trkpt>
      <trkpt lat="45.34102" lon="6.18068">
        <ele>2274</ele>
        <time>2012-02-12T13:17:21.000Z</time>
      </trkpt>
      <trkpt lat="45.34094" lon="6.18063">
        <ele>2275.8000488281</ele>
        <time>2012-02-12T13:17:26.000Z</time>
      </trkpt>
      <trkpt lat="45.34085" lon="6.18056">
        <ele>2275.1999511719</ele>
        <time>2012-02-12T13:17:32.000Z</time>
      </trkpt>
      <trkpt lat="45.34077" lon="6.18049">
        <ele>2278</ele>
        <time>2012-02-12T13:17:39.000Z</time>
      </trkpt>
      <trkpt lat="45.34074" lon="6.18047">
        <ele>2278</ele>
        <time>2012-02-12T13:17:48.000Z</time>
      </trkpt>
      <trkpt lat="45.34071" lon="6.18046">
        <ele>2279</ele>
        <time>2012-02-12T13:17:53.000Z</time>
      </trkpt>
      <trkpt lat="45.34068" lon="6.18044">
        <ele>2281.8000488281</ele>
        <time>2012-02-12T13:18:00.000Z</time>
      </trkpt>
      <trkpt lat="45.34067" lon="6.18043">
        <ele>2281.8000488281</ele>
        <time>2012-02-12T13:18:01.000Z</time>
      </trkpt>
      <trkpt lat="45.34061" lon="6.1804">
        <ele>2282.1999511719</ele>
        <time>2012-02-12T13:18:05.000Z</time>
      </trkpt>
      <trkpt lat="45.34056" lon="6.18038">
        <ele>2282.3999023438</ele>
        <time>2012-02-12T13:18:12.000Z</time>
      </trkpt>
      <trkpt lat="45.34056" lon="6.1804">
        <ele>2284.1999511719</ele>
        <time>2012-02-12T13:18:17.000Z</time>
      </trkpt>
      <trkpt lat="45.34057" lon="6.18043">
        <ele>2284.3999023438</ele>
        <time>2012-02-12T13:18:24.000Z</time>
      </trkpt>
      <trkpt lat="45.34063" lon="6.18057">
        <ele>2285.3999023438</ele>
        <time>2012-02-12T13:18:48.000Z</time>
      </trkpt>
      <trkpt lat="45.34041" lon="6.18049">
        <ele>2284.3999023438</ele>
        <time>2012-02-12T13:19:12.000Z</time>
      </trkpt>
      <trkpt lat="45.34046" lon="6.1805">
        <ele>2283.3999023438</ele>
        <time>2012-02-12T13:19:15.000Z</time>
      </trkpt>
      <trkpt lat="45.34058" lon="6.18053">
        <ele>2285</ele>
        <time>2012-02-12T13:19:21.000Z</time>
      </trkpt>
      <trkpt lat="45.34057" lon="6.18049">
        <ele>2284.6000976562</ele>
        <time>2012-02-12T13:19:33.000Z</time>
      </trkpt>
      <trkpt lat="45.34055" lon="6.18046">
        <ele>2284.3999023438</ele>
        <time>2012-02-12T13:19:40.000Z</time>
      </trkpt>
      <trkpt lat="45.34054" lon="6.18044">
        <ele>2284.3999023438</ele>
        <time>2012-02-12T13:19:42.000Z</time>
      </trkpt>
      <trkpt lat="45.3405" lon="6.18045">
        <ele>2285.6000976562</ele>
        <time>2012-02-12T13:19:48.000Z</time>
      </trkpt>
      <trkpt lat="45.34051" lon="6.18048">
        <ele>2287.6000976562</ele>
        <time>2012-02-12T13:19:54.000Z</time>
      </trkpt>
      <trkpt lat="45.34049" lon="6.18047">
        <ele>2288.3999023438</ele>
        <time>2012-02-12T13:19:59.000Z</time>
      </trkpt>
      <trkpt lat="45.34046" lon="6.18047">
        <ele>2289.6000976562</ele>
        <time>2012-02-12T13:20:04.000Z</time>
      </trkpt>
      <trkpt lat="45.3404" lon="6.18045">
        <ele>2289.1999511719</ele>
        <time>2012-02-12T13:20:09.000Z</time>
      </trkpt>
      <trkpt lat="45.34036" lon="6.18043">
        <ele>2291</ele>
        <time>2012-02-12T13:20:14.000Z</time>
      </trkpt>
      <trkpt lat="45.34038" lon="6.18017">
        <ele>2296.1999511719</ele>
        <time>2012-02-12T13:20:52.000Z</time>
      </trkpt>
      <trkpt lat="45.34031" lon="6.18017">
        <ele>2296.3999023438</ele>
        <time>2012-02-12T13:21:22.000Z</time>
      </trkpt>
      <trkpt lat="45.34028" lon="6.18019">
        <ele>2294.3999023438</ele>
        <time>2012-02-12T13:21:29.000Z</time>
      </trkpt>
      <trkpt lat="45.34031" lon="6.18025">
        <ele>2297.8000488281</ele>
        <time>2012-02-12T13:21:34.000Z</time>
      </trkpt>
      <trkpt lat="45.34022" lon="6.18029">
        <ele>2296.8000488281</ele>
        <time>2012-02-12T13:21:48.000Z</time>
      </trkpt>
      <trkpt lat="45.34005" lon="6.18024">
        <ele>2297</ele>
        <time>2012-02-12T13:21:56.000Z</time>
      </trkpt>
      <trkpt lat="45.34" lon="6.18021">
        <ele>2297.1999511719</ele>
        <time>2012-02-12T13:22:04.000Z</time>
      </trkpt>
      <trkpt lat="45.34009" lon="6.18034">
        <ele>2296.6000976562</ele>
        <time>2012-02-12T13:22:25.000Z</time>
      </trkpt>
      <trkpt lat="45.34004" lon="6.18031">
        <ele>2296.6000976562</ele>
        <time>2012-02-12T13:22:33.000Z</time>
      </trkpt>
      <trkpt lat="45.33994" lon="6.18014">
        <ele>2295.8000488281</ele>
        <time>2012-02-12T13:23:31.000Z</time>
      </trkpt>
      <trkpt lat="45.33996" lon="6.18016">
        <ele>2295.8000488281</ele>
        <time>2012-02-12T13:23:38.000Z</time>
      </trkpt>
      <trkpt lat="45.33995" lon="6.1802">
        <ele>2299.3999023438</ele>
        <time>2012-02-12T13:23:59.000Z</time>
      </trkpt>
      <trkpt lat="45.33991" lon="6.18018">
        <ele>2300.1999511719</ele>
        <time>2012-02-12T13:24:04.000Z</time>
      </trkpt>
      <trkpt lat="45.33988" lon="6.18017">
        <ele>2301.3999023438</ele>
        <time>2012-02-12T13:24:08.000Z</time>
      </trkpt>
      <trkpt lat="45.33982" lon="6.18014">
        <ele>2302.6000976562</ele>
        <time>2012-02-12T13:24:16.000Z</time>
      </trkpt>
      <trkpt lat="45.33979" lon="6.18013">
        <ele>2303.8000488281</ele>
        <time>2012-02-12T13:24:21.000Z</time>
      </trkpt>
      <trkpt lat="45.33978" lon="6.18012">
        <ele>2303.8000488281</ele>
        <time>2012-02-12T13:24:27.000Z</time>
      </trkpt>
      <trkpt lat="45.33977" lon="6.1801">
        <ele>2304</ele>
        <time>2012-02-12T13:24:28.000Z</time>
      </trkpt>
      <trkpt lat="45.33974" lon="6.18001">
        <ele>2304.6000976562</ele>
        <time>2012-02-12T13:24:36.000Z</time>
      </trkpt>
      <trkpt lat="45.33978" lon="6.18005">
        <ele>2304.3999023438</ele>
        <time>2012-02-12T13:24:45.000Z</time>
      </trkpt>
      <trkpt lat="45.33983" lon="6.18008">
        <ele>2306.1999511719</ele>
        <time>2012-02-12T13:24:47.000Z</time>
      </trkpt>
      <trkpt lat="45.33996" lon="6.18021">
        <ele>2307.3999023438</ele>
        <time>2012-02-12T13:24:56.000Z</time>
      </trkpt>
      <trkpt lat="45.3399" lon="6.18035">
        <ele>2310</ele>
        <time>2012-02-12T13:25:18.000Z</time>
      </trkpt>
      <trkpt lat="45.33984" lon="6.1803">
        <ele>2311.3999023438</ele>
        <time>2012-02-12T13:25:24.000Z</time>
      </trkpt>
      <trkpt lat="45.33972" lon="6.18023">
        <ele>2313.3999023438</ele>
        <time>2012-02-12T13:25:34.000Z</time>
      </trkpt>
      <trkpt lat="45.33971" lon="6.18023">
        <ele>2313.1999511719</ele>
        <time>2012-02-12T13:25:40.000Z</time>
      </trkpt>
      <trkpt lat="45.33976" lon="6.18026">
        <ele>2313.3999023438</ele>
        <time>2012-02-12T13:25:48.000Z</time>
      </trkpt>
      <trkpt lat="45.33975" lon="6.18021">
        <ele>2313.3999023438</ele>
        <time>2012-02-12T13:26:03.000Z</time>
      </trkpt>
      <trkpt lat="45.33975" lon="6.18028">
        <ele>2312.8000488281</ele>
        <time>2012-02-12T13:27:47.000Z</time>
      </trkpt>
      <trkpt lat="45.33971" lon="6.18019">
        <ele>2313.3999023438</ele>
        <time>2012-02-12T13:27:54.000Z</time>
      </trkpt>
      <trkpt lat="45.33971" lon="6.18011">
        <ele>2314.6000976562</ele>
        <time>2012-02-12T13:28:04.000Z</time>
      </trkpt>
      <trkpt lat="45.33966" lon="6.18004">
        <ele>2316.3999023438</ele>
        <time>2012-02-12T13:28:12.000Z</time>
      </trkpt>
      <trkpt lat="45.33965" lon="6.18001">
        <ele>2317</ele>
        <time>2012-02-12T13:28:19.000Z</time>
      </trkpt>
      <trkpt lat="45.33966" lon="6.17997">
        <ele>2320.6000976562</ele>
        <time>2012-02-12T13:28:36.000Z</time>
      </trkpt>
      <trkpt lat="45.33962" lon="6.17991">
        <ele>2321.8000488281</ele>
        <time>2012-02-12T13:28:44.000Z</time>
      </trkpt>
      <trkpt lat="45.33963" lon="6.17991">
        <ele>2323.3999023438</ele>
        <time>2012-02-12T13:28:49.000Z</time>
      </trkpt>
      <trkpt lat="45.33957" lon="6.17984">
        <ele>2324.3999023438</ele>
        <time>2012-02-12T13:28:57.000Z</time>
      </trkpt>
      <trkpt lat="45.33956" lon="6.17982">
        <ele>2324.6000976562</ele>
        <time>2012-02-12T13:28:58.000Z</time>
      </trkpt>
      <trkpt lat="45.33954" lon="6.17978">
        <ele>2326.3999023438</ele>
        <time>2012-02-12T13:29:04.000Z</time>
      </trkpt>
      <trkpt lat="45.33952" lon="6.17975">
        <ele>2327</ele>
        <time>2012-02-12T13:29:09.000Z</time>
      </trkpt>
      <trkpt lat="45.3395" lon="6.17976">
        <ele>2326.1999511719</ele>
        <time>2012-02-12T13:29:15.000Z</time>
      </trkpt>
      <trkpt lat="45.33952" lon="6.17984">
        <ele>2327.6000976562</ele>
        <time>2012-02-12T13:29:25.000Z</time>
      </trkpt>
      <trkpt lat="45.33943" lon="6.17986">
        <ele>2328.8000488281</ele>
        <time>2012-02-12T13:29:30.000Z</time>
      </trkpt>
      <trkpt lat="45.33941" lon="6.17991">
        <ele>2330.6000976562</ele>
        <time>2012-02-12T13:29:36.000Z</time>
      </trkpt>
      <trkpt lat="45.33945" lon="6.17993">
        <ele>2330.3999023438</ele>
        <time>2012-02-12T13:29:43.000Z</time>
      </trkpt>
      <trkpt lat="45.3395" lon="6.17997">
        <ele>2330.8000488281</ele>
        <time>2012-02-12T13:29:52.000Z</time>
      </trkpt>
      <trkpt lat="45.33951" lon="6.17999">
        <ele>2330.3999023438</ele>
        <time>2012-02-12T13:30:00.000Z</time>
      </trkpt>
      <trkpt lat="45.33956" lon="6.17999">
        <ele>2332</ele>
        <time>2012-02-12T13:30:14.000Z</time>
      </trkpt>
      <trkpt lat="45.33951" lon="6.18">
        <ele>2329.8000488281</ele>
        <time>2012-02-12T13:30:23.000Z</time>
      </trkpt>
      <trkpt lat="45.33942" lon="6.18002">
        <ele>2328.6000976562</ele>
        <time>2012-02-12T13:30:29.000Z</time>
      </trkpt>
      <trkpt lat="45.33938" lon="6.18006">
        <ele>2331.3999023438</ele>
        <time>2012-02-12T13:30:34.000Z</time>
      </trkpt>
      <trkpt lat="45.33941" lon="6.18012">
        <ele>2330.8000488281</ele>
        <time>2012-02-12T13:30:53.000Z</time>
      </trkpt>
      <trkpt lat="45.33941" lon="6.18011">
        <ele>2329.8000488281</ele>
        <time>2012-02-12T13:31:36.000Z</time>
      </trkpt>
      <trkpt lat="45.33937" lon="6.18006">
        <ele>2331.1999511719</ele>
        <time>2012-02-12T13:31:44.000Z</time>
      </trkpt>
      <trkpt lat="45.33932" lon="6.17998">
        <ele>2330.8000488281</ele>
        <time>2012-02-12T13:31:51.000Z</time>
      </trkpt>
      <trkpt lat="45.33936" lon="6.18007">
        <ele>2330</ele>
        <time>2012-02-12T13:32:07.000Z</time>
      </trkpt>
      <trkpt lat="45.33938" lon="6.18008">
        <ele>2328.8000488281</ele>
        <time>2012-02-12T13:32:10.000Z</time>
      </trkpt>
      <trkpt lat="45.33938" lon="6.18013">
        <ele>2328.8000488281</ele>
        <time>2012-02-12T13:32:35.000Z</time>
      </trkpt>
      <trkpt lat="45.33934" lon="6.18011">
        <ele>2329.1999511719</ele>
        <time>2012-02-12T13:32:42.000Z</time>
      </trkpt>
      <trkpt lat="45.33971" lon="6.18008">
        <ele>2328.1999511719</ele>
        <time>2012-02-12T13:33:07.000Z</time>
      </trkpt>
      <trkpt lat="45.33975" lon="6.18008">
        <ele>2328.3999023438</ele>
        <time>2012-02-12T13:33:10.000Z</time>
      </trkpt>
      <trkpt lat="45.33982" lon="6.18006">
        <ele>2328.1999511719</ele>
        <time>2012-02-12T13:33:20.000Z</time>
      </trkpt>
      <trkpt lat="45.33983" lon="6.18005">
        <ele>2328.1999511719</ele>
        <time>2012-02-12T13:33:29.000Z</time>
      </trkpt>
      <trkpt lat="45.33967" lon="6.18003">
        <ele>2329.8000488281</ele>
        <time>2012-02-12T13:34:52.000Z</time>
      </trkpt>
      <trkpt lat="45.33968" lon="6.18003">
        <ele>2330.6000976562</ele>
        <time>2012-02-12T13:34:57.000Z</time>
      </trkpt>
      <trkpt lat="45.33963" lon="6.17999">
        <ele>2330.8000488281</ele>
        <time>2012-02-12T13:35:32.000Z</time>
      </trkpt>
      <trkpt lat="45.33956" lon="6.17997">
        <ele>2330.1999511719</ele>
        <time>2012-02-12T13:35:43.000Z</time>
      </trkpt>
      <trkpt lat="45.33942" lon="6.18007">
        <ele>2330.3999023438</ele>
        <time>2012-02-12T13:36:03.000Z</time>
      </trkpt>
      <trkpt lat="45.33938" lon="6.18005">
        <ele>2331</ele>
        <time>2012-02-12T13:36:28.000Z</time>
      </trkpt>
      <trkpt lat="45.3395" lon="6.18003">
        <ele>2332.8000488281</ele>
        <time>2012-02-12T13:38:48.000Z</time>
      </trkpt>
      <trkpt lat="45.33949" lon="6.18002">
        <ele>2332.6000976562</ele>
        <time>2012-02-12T13:39:02.000Z</time>
      </trkpt>
      <trkpt lat="45.33946" lon="6.17986">
        <ele>2333.1999511719</ele>
        <time>2012-02-12T13:40:32.000Z</time>
      </trkpt>
      <trkpt lat="45.3395" lon="6.17986">
        <ele>2336</ele>
        <time>2012-02-12T13:43:04.000Z</time>
      </trkpt>
      <trkpt lat="45.33959" lon="6.17995">
        <ele>2333.3999023438</ele>
        <time>2012-02-12T13:43:09.000Z</time>
      </trkpt>
      <trkpt lat="45.33959" lon="6.17999">
        <ele>2334.6000976562</ele>
        <time>2012-02-12T13:43:16.000Z</time>
      </trkpt>
      <trkpt lat="45.33957" lon="6.18003">
        <ele>2333.6000976562</ele>
        <time>2012-02-12T13:43:24.000Z</time>
      </trkpt>
      <trkpt lat="45.33957" lon="6.18004">
        <ele>2333.6000976562</ele>
        <time>2012-02-12T13:43:25.000Z</time>
      </trkpt>
      <trkpt lat="45.33963" lon="6.18003">
        <ele>2334.6000976562</ele>
        <time>2012-02-12T13:43:57.000Z</time>
      </trkpt>
      <trkpt lat="45.33956" lon="6.18005">
        <ele>2333.8000488281</ele>
        <time>2012-02-12T13:44:04.000Z</time>
      </trkpt>
      <trkpt lat="45.33955" lon="6.18002">
        <ele>2335</ele>
        <time>2012-02-12T13:44:07.000Z</time>
      </trkpt>
      <trkpt lat="45.33959" lon="6.18001">
        <ele>2332.3999023438</ele>
        <time>2012-02-12T13:44:56.000Z</time>
      </trkpt>
      <trkpt lat="45.33956" lon="6.17995">
        <ele>2332.8000488281</ele>
        <time>2012-02-12T13:45:10.000Z</time>
      </trkpt>
      <trkpt lat="45.33952" lon="6.17998">
        <ele>2335.1999511719</ele>
        <time>2012-02-12T13:45:17.000Z</time>
      </trkpt>
      <trkpt lat="45.33948" lon="6.18002">
        <ele>2333.6000976562</ele>
        <time>2012-02-12T13:45:49.000Z</time>
      </trkpt>
      <trkpt lat="45.33947" lon="6.18004">
        <ele>2333.8000488281</ele>
        <time>2012-02-12T13:45:53.000Z</time>
      </trkpt>
      <trkpt lat="45.33953" lon="6.18009">
        <ele>2334.1999511719</ele>
        <time>2012-02-12T13:45:59.000Z</time>
      </trkpt>
      <trkpt lat="45.33961" lon="6.18004">
        <ele>2334</ele>
        <time>2012-02-12T13:47:13.000Z</time>
      </trkpt>
      <trkpt lat="45.33957" lon="6.18002">
        <ele>2333.3999023438</ele>
        <time>2012-02-12T13:47:20.000Z</time>
      </trkpt>
      <trkpt lat="45.33945" lon="6.17993">
        <ele>2332.8000488281</ele>
        <time>2012-02-12T13:47:50.000Z</time>
      </trkpt>
      <trkpt lat="45.33944" lon="6.17994">
        <ele>2332.6000976562</ele>
        <time>2012-02-12T13:48:05.000Z</time>
      </trkpt>
      <trkpt lat="45.33942" lon="6.17992">
        <ele>2332.3999023438</ele>
        <time>2012-02-12T13:48:11.000Z</time>
      </trkpt>
      <trkpt lat="45.33941" lon="6.17992">
        <ele>2330.6000976562</ele>
        <time>2012-02-12T13:48:14.000Z</time>
      </trkpt>
      <trkpt lat="45.33939" lon="6.17995">
        <ele>2324</ele>
        <time>2012-02-12T13:48:41.000Z</time>
      </trkpt>
      <trkpt lat="45.3394" lon="6.17997">
        <ele>2323.3999023438</ele>
        <time>2012-02-12T13:48:43.000Z</time>
      </trkpt>
      <trkpt lat="45.33941" lon="6.17997">
        <ele>2322.6000976562</ele>
        <time>2012-02-12T13:48:51.000Z</time>
      </trkpt>
      <trkpt lat="45.33941" lon="6.17987">
        <ele>2318</ele>
        <time>2012-02-12T13:49:20.000Z</time>
      </trkpt>
      <trkpt lat="45.33938" lon="6.17985">
        <ele>2310</ele>
        <time>2012-02-12T13:50:29.000Z</time>
      </trkpt>
      <trkpt lat="45.3394" lon="6.17988">
        <ele>2309</ele>
        <time>2012-02-12T13:50:38.000Z</time>
      </trkpt>
      <trkpt lat="45.33934" lon="6.17982">
        <ele>2307.1999511719</ele>
        <time>2012-02-12T13:50:52.000Z</time>
      </trkpt>
      <trkpt lat="45.33926" lon="6.17981">
        <ele>2306.3999023438</ele>
        <time>2012-02-12T13:50:58.000Z</time>
      </trkpt>
      <trkpt lat="45.33924" lon="6.17981">
        <ele>2296.3999023438</ele>
        <time>2012-02-12T13:51:58.000Z</time>
      </trkpt>
      <trkpt lat="45.33915" lon="6.17972">
        <ele>2293</ele>
        <time>2012-02-12T13:52:18.000Z</time>
      </trkpt>
      <trkpt lat="45.33911" lon="6.17971">
        <ele>2292.3999023438</ele>
        <time>2012-02-12T13:52:23.000Z</time>
      </trkpt>
      <trkpt lat="45.3391" lon="6.17966">
        <ele>2291.6000976562</ele>
        <time>2012-02-12T13:52:27.000Z</time>
      </trkpt>
      <trkpt lat="45.339" lon="6.1797">
        <ele>2286.3999023438</ele>
        <time>2012-02-12T13:53:07.000Z</time>
      </trkpt>
      <trkpt lat="45.33902" lon="6.17971">
        <ele>2281.8000488281</ele>
        <time>2012-02-12T13:53:32.000Z</time>
      </trkpt>
      <trkpt lat="45.33892" lon="6.17965">
        <ele>2276.1999511719</ele>
        <time>2012-02-12T13:54:18.000Z</time>
      </trkpt>
      <trkpt lat="45.33897" lon="6.17969">
        <ele>2271.1999511719</ele>
        <time>2012-02-12T13:54:31.000Z</time>
      </trkpt>
      <trkpt lat="45.33893" lon="6.17968">
        <ele>2269.8000488281</ele>
        <time>2012-02-12T13:54:49.000Z</time>
      </trkpt>
      <trkpt lat="45.33891" lon="6.17969">
        <ele>2267</ele>
        <time>2012-02-12T13:54:56.000Z</time>
      </trkpt>
      <trkpt lat="45.33889" lon="6.1797">
        <ele>2259.6000976562</ele>
        <time>2012-02-12T13:55:23.000Z</time>
      </trkpt>
      <trkpt lat="45.33881" lon="6.1798">
        <ele>2260.1999511719</ele>
        <time>2012-02-12T13:56:49.000Z</time>
      </trkpt>
      <trkpt lat="45.33889" lon="6.17977">
        <ele>2260</ele>
        <time>2012-02-12T13:57:08.000Z</time>
      </trkpt>
      <trkpt lat="45.33893" lon="6.17976">
        <ele>2261.8000488281</ele>
        <time>2012-02-12T13:58:51.000Z</time>
      </trkpt>
      <trkpt lat="45.3389" lon="6.17977">
        <ele>2260.6000976562</ele>
        <time>2012-02-12T13:58:55.000Z</time>
      </trkpt>
      <trkpt lat="45.33882" lon="6.17976">
        <ele>2260.1999511719</ele>
        <time>2012-02-12T13:59:33.000Z</time>
      </trkpt>
      <trkpt lat="45.33877" lon="6.17982">
        <ele>2257.3999023438</ele>
        <time>2012-02-12T13:59:37.000Z</time>
      </trkpt>
      <trkpt lat="45.33872" lon="6.17978">
        <ele>2257.1999511719</ele>
        <time>2012-02-12T13:59:40.000Z</time>
      </trkpt>
      <trkpt lat="45.33871" lon="6.17976">
        <ele>2253.8000488281</ele>
        <time>2012-02-12T13:59:42.000Z</time>
      </trkpt>
      <trkpt lat="45.33871" lon="6.17974">
        <ele>2251</ele>
        <time>2012-02-12T13:59:49.000Z</time>
      </trkpt>
      <trkpt lat="45.33871" lon="6.17973">
        <ele>2250.3999023438</ele>
        <time>2012-02-12T13:59:50.000Z</time>
      </trkpt>
      <trkpt lat="45.33868" lon="6.17979">
        <ele>2249</ele>
        <time>2012-02-12T13:59:54.000Z</time>
      </trkpt>
      <trkpt lat="45.33866" lon="6.17976">
        <ele>2246.1999511719</ele>
        <time>2012-02-12T13:59:57.000Z</time>
      </trkpt>
      <trkpt lat="45.33863" lon="6.17979">
        <ele>2242</ele>
        <time>2012-02-12T14:00:00.000Z</time>
      </trkpt>
      <trkpt lat="45.33858" lon="6.17982">
        <ele>2237.8000488281</ele>
        <time>2012-02-12T14:00:03.000Z</time>
      </trkpt>
      <trkpt lat="45.33859" lon="6.17978">
        <ele>2235</ele>
        <time>2012-02-12T14:00:07.000Z</time>
      </trkpt>
      <trkpt lat="45.33854" lon="6.17985">
        <ele>2231.3999023438</ele>
        <time>2012-02-12T14:00:11.000Z</time>
      </trkpt>
      <trkpt lat="45.3385" lon="6.17981">
        <ele>2228.3999023438</ele>
        <time>2012-02-12T14:00:14.000Z</time>
      </trkpt>
      <trkpt lat="45.33846" lon="6.17987">
        <ele>2226</ele>
        <time>2012-02-12T14:00:16.000Z</time>
      </trkpt>
      <trkpt lat="45.33845" lon="6.1799">
        <ele>2224.1999511719</ele>
        <time>2012-02-12T14:00:19.000Z</time>
      </trkpt>
      <trkpt lat="45.33845" lon="6.17991">
        <ele>2223.8000488281</ele>
        <time>2012-02-12T14:00:20.000Z</time>
      </trkpt>
      <trkpt lat="45.33843" lon="6.17982">
        <ele>2220.8000488281</ele>
        <time>2012-02-12T14:00:25.000Z</time>
      </trkpt>
      <trkpt lat="45.33843" lon="6.17981">
        <ele>2220.3999023438</ele>
        <time>2012-02-12T14:00:26.000Z</time>
      </trkpt>
      <trkpt lat="45.33843" lon="6.17981">
        <ele>2219</ele>
        <time>2012-02-12T14:00:28.000Z</time>
      </trkpt>
      <trkpt lat="45.33844" lon="6.17981">
        <ele>2219</ele>
        <time>2012-02-12T14:00:29.000Z</time>
      </trkpt>
      <trkpt lat="45.3384" lon="6.17987">
        <ele>2217.1999511719</ele>
        <time>2012-02-12T14:00:33.000Z</time>
      </trkpt>
      <trkpt lat="45.33835" lon="6.17988">
        <ele>2213.1999511719</ele>
        <time>2012-02-12T14:00:37.000Z</time>
      </trkpt>
      <trkpt lat="45.33835" lon="6.17988">
        <ele>2212.6000976562</ele>
        <time>2012-02-12T14:00:38.000Z</time>
      </trkpt>
      <trkpt lat="45.33834" lon="6.1798">
        <ele>2210.6000976562</ele>
        <time>2012-02-12T14:00:42.000Z</time>
      </trkpt>
      <trkpt lat="45.33826" lon="6.17984">
        <ele>2207.3999023438</ele>
        <time>2012-02-12T14:00:46.000Z</time>
      </trkpt>
      <trkpt lat="45.33824" lon="6.17986">
        <ele>2204.6000976562</ele>
        <time>2012-02-12T14:00:47.000Z</time>
      </trkpt>
      <trkpt lat="45.33822" lon="6.17976">
        <ele>2203.3999023438</ele>
        <time>2012-02-12T14:00:51.000Z</time>
      </trkpt>
      <trkpt lat="45.33821" lon="6.17968">
        <ele>2200.6000976562</ele>
        <time>2012-02-12T14:00:54.000Z</time>
      </trkpt>
      <trkpt lat="45.33822" lon="6.17964">
        <ele>2199.1999511719</ele>
        <time>2012-02-12T14:01:03.000Z</time>
      </trkpt>
      <trkpt lat="45.3382" lon="6.17949">
        <ele>2198</ele>
        <time>2012-02-12T14:01:07.000Z</time>
      </trkpt>
      <trkpt lat="45.3382" lon="6.17942">
        <ele>2197</ele>
        <time>2012-02-12T14:01:09.000Z</time>
      </trkpt>
      <trkpt lat="45.3382" lon="6.17939">
        <ele>2196.6000976562</ele>
        <time>2012-02-12T14:01:10.000Z</time>
      </trkpt>
      <trkpt lat="45.33821" lon="6.17935">
        <ele>2195.3999023438</ele>
        <time>2012-02-12T14:01:16.000Z</time>
      </trkpt>
      <trkpt lat="45.33815" lon="6.17933">
        <ele>2192.3999023438</ele>
        <time>2012-02-12T14:01:20.000Z</time>
      </trkpt>
      <trkpt lat="45.33807" lon="6.17935">
        <ele>2189</ele>
        <time>2012-02-12T14:01:23.000Z</time>
      </trkpt>
      <trkpt lat="45.33804" lon="6.17932">
        <ele>2188</ele>
        <time>2012-02-12T14:01:25.000Z</time>
      </trkpt>
      <trkpt lat="45.33798" lon="6.17933">
        <ele>2181.8000488281</ele>
        <time>2012-02-12T14:01:28.000Z</time>
      </trkpt>
      <trkpt lat="45.33798" lon="6.17933">
        <ele>2179.3999023438</ele>
        <time>2012-02-12T14:01:34.000Z</time>
      </trkpt>
      <trkpt lat="45.33797" lon="6.17938">
        <ele>2179.3999023438</ele>
        <time>2012-02-12T14:01:40.000Z</time>
      </trkpt>
      <trkpt lat="45.33794" lon="6.17934">
        <ele>2177</ele>
        <time>2012-02-12T14:01:44.000Z</time>
      </trkpt>
      <trkpt lat="45.33789" lon="6.17931">
        <ele>2175.6000976562</ele>
        <time>2012-02-12T14:01:47.000Z</time>
      </trkpt>
      <trkpt lat="45.33787" lon="6.17938">
        <ele>2173.3999023438</ele>
        <time>2012-02-12T14:01:49.000Z</time>
      </trkpt>
      <trkpt lat="45.3378" lon="6.17941">
        <ele>2170.1999511719</ele>
        <time>2012-02-12T14:01:54.000Z</time>
      </trkpt>
      <trkpt lat="45.33781" lon="6.17933">
        <ele>2167.6000976562</ele>
        <time>2012-02-12T14:01:57.000Z</time>
      </trkpt>
      <trkpt lat="45.3378" lon="6.17925">
        <ele>2166.1999511719</ele>
        <time>2012-02-12T14:01:59.000Z</time>
      </trkpt>
      <trkpt lat="45.33777" lon="6.17917">
        <ele>2164.6000976562</ele>
        <time>2012-02-12T14:02:04.000Z</time>
      </trkpt>
      <trkpt lat="45.33777" lon="6.17917">
        <ele>2162.6000976562</ele>
        <time>2012-02-12T14:02:05.000Z</time>
      </trkpt>
      <trkpt lat="45.33775" lon="6.17919">
        <ele>2161.1999511719</ele>
        <time>2012-02-12T14:02:08.000Z</time>
      </trkpt>
      <trkpt lat="45.33775" lon="6.1792">
        <ele>2161.1999511719</ele>
        <time>2012-02-12T14:02:09.000Z</time>
      </trkpt>
      <trkpt lat="45.33771" lon="6.17923">
        <ele>2157.8000488281</ele>
        <time>2012-02-12T14:02:14.000Z</time>
      </trkpt>
      <trkpt lat="45.33764" lon="6.1793">
        <ele>2154.8000488281</ele>
        <time>2012-02-12T14:02:18.000Z</time>
      </trkpt>
      <trkpt lat="45.33764" lon="6.17932">
        <ele>2153</ele>
        <time>2012-02-12T14:02:21.000Z</time>
      </trkpt>
      <trkpt lat="45.33763" lon="6.17933">
        <ele>2153.1999511719</ele>
        <time>2012-02-12T14:02:23.000Z</time>
      </trkpt>
      <trkpt lat="45.33761" lon="6.17922">
        <ele>2152.3999023438</ele>
        <time>2012-02-12T14:02:27.000Z</time>
      </trkpt>
      <trkpt lat="45.33758" lon="6.17906">
        <ele>2149</ele>
        <time>2012-02-12T14:02:31.000Z</time>
      </trkpt>
      <trkpt lat="45.33758" lon="6.17903">
        <ele>2148.1999511719</ele>
        <time>2012-02-12T14:02:33.000Z</time>
      </trkpt>
      <trkpt lat="45.33757" lon="6.17902">
        <ele>2148</ele>
        <time>2012-02-12T14:02:42.000Z</time>
      </trkpt>
      <trkpt lat="45.33753" lon="6.17894">
        <ele>2146.6000976562</ele>
        <time>2012-02-12T14:02:46.000Z</time>
      </trkpt>
      <trkpt lat="45.33753" lon="6.17893">
        <ele>2145.8000488281</ele>
        <time>2012-02-12T14:02:57.000Z</time>
      </trkpt>
      <trkpt lat="45.33749" lon="6.17894">
        <ele>2144.6000976562</ele>
        <time>2012-02-12T14:03:01.000Z</time>
      </trkpt>
      <trkpt lat="45.33753" lon="6.17897">
        <ele>2141.8000488281</ele>
        <time>2012-02-12T14:03:07.000Z</time>
      </trkpt>
      <trkpt lat="45.33748" lon="6.17905">
        <ele>2141.1999511719</ele>
        <time>2012-02-12T14:05:14.000Z</time>
      </trkpt>
      <trkpt lat="45.33747" lon="6.17908">
        <ele>2140.3999023438</ele>
        <time>2012-02-12T14:05:15.000Z</time>
      </trkpt>
      <trkpt lat="45.33737" lon="6.17909">
        <ele>2135.3999023438</ele>
        <time>2012-02-12T14:05:20.000Z</time>
      </trkpt>
      <trkpt lat="45.33734" lon="6.17906">
        <ele>2132.6000976562</ele>
        <time>2012-02-12T14:05:25.000Z</time>
      </trkpt>
      <trkpt lat="45.33733" lon="6.17905">
        <ele>2132.3999023438</ele>
        <time>2012-02-12T14:05:41.000Z</time>
      </trkpt>
      <trkpt lat="45.33733" lon="6.17905">
        <ele>2132.8000488281</ele>
        <time>2012-02-12T14:05:42.000Z</time>
      </trkpt>
      <trkpt lat="45.33725" lon="6.179">
        <ele>2130.6000976562</ele>
        <time>2012-02-12T14:05:46.000Z</time>
      </trkpt>
      <trkpt lat="45.33718" lon="6.17901">
        <ele>2128</ele>
        <time>2012-02-12T14:05:48.000Z</time>
      </trkpt>
      <trkpt lat="45.33706" lon="6.17898">
        <ele>2122.6000976562</ele>
        <time>2012-02-12T14:05:51.000Z</time>
      </trkpt>
      <trkpt lat="45.33696" lon="6.1788">
        <ele>2119.3999023438</ele>
        <time>2012-02-12T14:05:54.000Z</time>
      </trkpt>
      <trkpt lat="45.33683" lon="6.17866">
        <ele>2117.6000976562</ele>
        <time>2012-02-12T14:05:57.000Z</time>
      </trkpt>
      <trkpt lat="45.33673" lon="6.17855">
        <ele>2116.3999023438</ele>
        <time>2012-02-12T14:06:02.000Z</time>
      </trkpt>
      <trkpt lat="45.33662" lon="6.17875">
        <ele>2112.6000976562</ele>
        <time>2012-02-12T14:06:06.000Z</time>
      </trkpt>
      <trkpt lat="45.33654" lon="6.17885">
        <ele>2112</ele>
        <time>2012-02-12T14:06:08.000Z</time>
      </trkpt>
      <trkpt lat="45.3365" lon="6.1789">
        <ele>2111.3999023438</ele>
        <time>2012-02-12T14:06:10.000Z</time>
      </trkpt>
      <trkpt lat="45.33648" lon="6.17889">
        <ele>2110.8000488281</ele>
        <time>2012-02-12T14:06:16.000Z</time>
      </trkpt>
      <trkpt lat="45.33643" lon="6.17888">
        <ele>2110.8000488281</ele>
        <time>2012-02-12T14:06:23.000Z</time>
      </trkpt>
      <trkpt lat="45.33643" lon="6.17887">
        <ele>2110.3999023438</ele>
        <time>2012-02-12T14:06:34.000Z</time>
      </trkpt>
      <trkpt lat="45.33642" lon="6.17887">
        <ele>2110.3999023438</ele>
        <time>2012-02-12T14:06:35.000Z</time>
      </trkpt>
      <trkpt lat="45.33639" lon="6.17898">
        <ele>2109.6000976562</ele>
        <time>2012-02-12T14:06:40.000Z</time>
      </trkpt>
      <trkpt lat="45.3364" lon="6.17902">
        <ele>2109.1999511719</ele>
        <time>2012-02-12T14:06:44.000Z</time>
      </trkpt>
      <trkpt lat="45.33638" lon="6.17903">
        <ele>2110.1999511719</ele>
        <time>2012-02-12T14:11:50.000Z</time>
      </trkpt>
      <trkpt lat="45.3363" lon="6.17899">
        <ele>2109.1999511719</ele>
        <time>2012-02-12T14:11:54.000Z</time>
      </trkpt>
      <trkpt lat="45.33621" lon="6.17883">
        <ele>2107.6000976562</ele>
        <time>2012-02-12T14:11:57.000Z</time>
      </trkpt>
      <trkpt lat="45.33617" lon="6.1787">
        <ele>2106.1999511719</ele>
        <time>2012-02-12T14:11:59.000Z</time>
      </trkpt>
      <trkpt lat="45.33606" lon="6.17827">
        <ele>2101.8000488281</ele>
        <time>2012-02-12T14:12:06.000Z</time>
      </trkpt>
      <trkpt lat="45.33601" lon="6.17804">
        <ele>2099.1999511719</ele>
        <time>2012-02-12T14:12:10.000Z</time>
      </trkpt>
      <trkpt lat="45.33593" lon="6.17753">
        <ele>2093.1999511719</ele>
        <time>2012-02-12T14:12:16.000Z</time>
      </trkpt>
      <trkpt lat="45.33594" lon="6.17737">
        <ele>2091</ele>
        <time>2012-02-12T14:12:20.000Z</time>
      </trkpt>
      <trkpt lat="45.33594" lon="6.17737">
        <ele>2090.8000488281</ele>
        <time>2012-02-12T14:12:21.000Z</time>
      </trkpt>
      <trkpt lat="45.33595" lon="6.17738">
        <ele>2090.3999023438</ele>
        <time>2012-02-12T14:12:41.000Z</time>
      </trkpt>
      <trkpt lat="45.33595" lon="6.17735">
        <ele>2089.6000976562</ele>
        <time>2012-02-12T14:12:46.000Z</time>
      </trkpt>
      <trkpt lat="45.33598" lon="6.1774">
        <ele>2089.3999023438</ele>
        <time>2012-02-12T14:13:27.000Z</time>
      </trkpt>
      <trkpt lat="45.33589" lon="6.17747">
        <ele>2086.8000488281</ele>
        <time>2012-02-12T14:13:31.000Z</time>
      </trkpt>
      <trkpt lat="45.33586" lon="6.17751">
        <ele>2086.1999511719</ele>
        <time>2012-02-12T14:13:32.000Z</time>
      </trkpt>
      <trkpt lat="45.33579" lon="6.17764">
        <ele>2082.8000488281</ele>
        <time>2012-02-12T14:13:37.000Z</time>
      </trkpt>
      <trkpt lat="45.33577" lon="6.17769">
        <ele>2081.6000976562</ele>
        <time>2012-02-12T14:13:46.000Z</time>
      </trkpt>
      <trkpt lat="45.33574" lon="6.17772">
        <ele>2081.3999023438</ele>
        <time>2012-02-12T14:13:54.000Z</time>
      </trkpt>
      <trkpt lat="45.33571" lon="6.17778">
        <ele>2080.3999023438</ele>
        <time>2012-02-12T14:14:00.000Z</time>
      </trkpt>
      <trkpt lat="45.33571" lon="6.17779">
        <ele>2080.8000488281</ele>
        <time>2012-02-12T14:14:05.000Z</time>
      </trkpt>
      <trkpt lat="45.3356" lon="6.17785">
        <ele>2077.8000488281</ele>
        <time>2012-02-12T14:14:09.000Z</time>
      </trkpt>
      <trkpt lat="45.33546" lon="6.17794">
        <ele>2074</ele>
        <time>2012-02-12T14:14:14.000Z</time>
      </trkpt>
      <trkpt lat="45.33544" lon="6.17779">
        <ele>2071.6000976562</ele>
        <time>2012-02-12T14:14:16.000Z</time>
      </trkpt>
      <trkpt lat="45.33543" lon="6.17751">
        <ele>2067.1999511719</ele>
        <time>2012-02-12T14:14:20.000Z</time>
      </trkpt>
      <trkpt lat="45.33532" lon="6.17753">
        <ele>2063.1999511719</ele>
        <time>2012-02-12T14:14:23.000Z</time>
      </trkpt>
      <trkpt lat="45.33528" lon="6.17738">
        <ele>2060.8000488281</ele>
        <time>2012-02-12T14:14:25.000Z</time>
      </trkpt>
      <trkpt lat="45.33529" lon="6.17725">
        <ele>2059.6000976562</ele>
        <time>2012-02-12T14:14:27.000Z</time>
      </trkpt>
      <trkpt lat="45.33527" lon="6.17719">
        <ele>2056</ele>
        <time>2012-02-12T14:14:30.000Z</time>
      </trkpt>
      <trkpt lat="45.33519" lon="6.17723">
        <ele>2054</ele>
        <time>2012-02-12T14:14:32.000Z</time>
      </trkpt>
      <trkpt lat="45.33523" lon="6.17696">
        <ele>2049.8000488281</ele>
        <time>2012-02-12T14:14:36.000Z</time>
      </trkpt>
      <trkpt lat="45.33526" lon="6.17682">
        <ele>2046.1999511719</ele>
        <time>2012-02-12T14:14:39.000Z</time>
      </trkpt>
      <trkpt lat="45.33534" lon="6.17637">
        <ele>2041</ele>
        <time>2012-02-12T14:14:45.000Z</time>
      </trkpt>
      <trkpt lat="45.33542" lon="6.17611">
        <ele>2036.4000244141</ele>
        <time>2012-02-12T14:14:49.000Z</time>
      </trkpt>
      <trkpt lat="45.33533" lon="6.17596">
        <ele>2034</ele>
        <time>2012-02-12T14:14:52.000Z</time>
      </trkpt>
      <trkpt lat="45.3353" lon="6.17572">
        <ele>2034.4000244141</ele>
        <time>2012-02-12T14:14:55.000Z</time>
      </trkpt>
      <trkpt lat="45.33529" lon="6.17534">
        <ele>2023.4000244141</ele>
        <time>2012-02-12T14:14:59.000Z</time>
      </trkpt>
      <trkpt lat="45.33522" lon="6.17486">
        <ele>2017</ele>
        <time>2012-02-12T14:15:04.000Z</time>
      </trkpt>
      <trkpt lat="45.33521" lon="6.17475">
        <ele>2016.1999511719</ele>
        <time>2012-02-12T14:15:06.000Z</time>
      </trkpt>
      <trkpt lat="45.3352" lon="6.17462">
        <ele>2015.4000244141</ele>
        <time>2012-02-12T14:15:10.000Z</time>
      </trkpt>
      <trkpt lat="45.33522" lon="6.17462">
        <ele>2014.5999755859</ele>
        <time>2012-02-12T14:15:17.000Z</time>
      </trkpt>
      <trkpt lat="45.33523" lon="6.17462">
        <ele>2014.8000488281</ele>
        <time>2012-02-12T14:16:01.000Z</time>
      </trkpt>
      <trkpt lat="45.33522" lon="6.17454">
        <ele>2014.1999511719</ele>
        <time>2012-02-12T14:16:04.000Z</time>
      </trkpt>
      <trkpt lat="45.33524" lon="6.17418">
        <ele>2008.4000244141</ele>
        <time>2012-02-12T14:16:10.000Z</time>
      </trkpt>
      <trkpt lat="45.33524" lon="6.17405">
        <ele>2006.8000488281</ele>
        <time>2012-02-12T14:16:13.000Z</time>
      </trkpt>
      <trkpt lat="45.33514" lon="6.174">
        <ele>2003.1999511719</ele>
        <time>2012-02-12T14:16:16.000Z</time>
      </trkpt>
      <trkpt lat="45.33507" lon="6.17407">
        <ele>2000.8000488281</ele>
        <time>2012-02-12T14:16:18.000Z</time>
      </trkpt>
      <trkpt lat="45.33502" lon="6.17397">
        <ele>1998.1999511719</ele>
        <time>2012-02-12T14:16:20.000Z</time>
      </trkpt>
      <trkpt lat="45.33501" lon="6.17378">
        <ele>1993.8000488281</ele>
        <time>2012-02-12T14:16:24.000Z</time>
      </trkpt>
      <trkpt lat="45.33489" lon="6.17371">
        <ele>1990.1999511719</ele>
        <time>2012-02-12T14:16:27.000Z</time>
      </trkpt>
      <trkpt lat="45.33491" lon="6.17357">
        <ele>1987</ele>
        <time>2012-02-12T14:16:30.000Z</time>
      </trkpt>
      <trkpt lat="45.33488" lon="6.17346">
        <ele>1984.5999755859</ele>
        <time>2012-02-12T14:16:33.000Z</time>
      </trkpt>
      <trkpt lat="45.33484" lon="6.17329">
        <ele>1981.8000488281</ele>
        <time>2012-02-12T14:16:36.000Z</time>
      </trkpt>
      <trkpt lat="45.33485" lon="6.17321">
        <ele>1976.8000488281</ele>
        <time>2012-02-12T14:16:39.000Z</time>
      </trkpt>
      <trkpt lat="45.33484" lon="6.17321">
        <ele>1975.4000244141</ele>
        <time>2012-02-12T14:16:41.000Z</time>
      </trkpt>
      <trkpt lat="45.33484" lon="6.17322">
        <ele>1975.1999511719</ele>
        <time>2012-02-12T14:16:56.000Z</time>
      </trkpt>
      <trkpt lat="45.33477" lon="6.17319">
        <ele>1973.4000244141</ele>
        <time>2012-02-12T14:16:59.000Z</time>
      </trkpt>
      <trkpt lat="45.33469" lon="6.1731">
        <ele>1970.5999755859</ele>
        <time>2012-02-12T14:17:02.000Z</time>
      </trkpt>
      <trkpt lat="45.33473" lon="6.17303">
        <ele>1967.5999755859</ele>
        <time>2012-02-12T14:17:04.000Z</time>
      </trkpt>
      <trkpt lat="45.33483" lon="6.17293">
        <ele>1965.1999511719</ele>
        <time>2012-02-12T14:17:07.000Z</time>
      </trkpt>
      <trkpt lat="45.3348" lon="6.17266">
        <ele>1961.5999755859</ele>
        <time>2012-02-12T14:17:12.000Z</time>
      </trkpt>
      <trkpt lat="45.3348" lon="6.17262">
        <ele>1961.4000244141</ele>
        <time>2012-02-12T14:17:13.000Z</time>
      </trkpt>
      <trkpt lat="45.33478" lon="6.17253">
        <ele>1961.4000244141</ele>
        <time>2012-02-12T14:17:17.000Z</time>
      </trkpt>
      <trkpt lat="45.33479" lon="6.1724">
        <ele>1959.4000244141</ele>
        <time>2012-02-12T14:17:21.000Z</time>
      </trkpt>
      <trkpt lat="45.33479" lon="6.17228">
        <ele>1957.5999755859</ele>
        <time>2012-02-12T14:17:24.000Z</time>
      </trkpt>
      <trkpt lat="45.33463" lon="6.17207">
        <ele>1952.4000244141</ele>
        <time>2012-02-12T14:17:28.000Z</time>
      </trkpt>
      <trkpt lat="45.33459" lon="6.17202">
        <ele>1951.4000244141</ele>
        <time>2012-02-12T14:17:29.000Z</time>
      </trkpt>
      <trkpt lat="45.33453" lon="6.17193">
        <ele>1950.8000488281</ele>
        <time>2012-02-12T14:17:31.000Z</time>
      </trkpt>
      <trkpt lat="45.33443" lon="6.17171">
        <ele>1948.5999755859</ele>
        <time>2012-02-12T14:17:36.000Z</time>
      </trkpt>
      <trkpt lat="45.33436" lon="6.17162">
        <ele>1946.4000244141</ele>
        <time>2012-02-12T14:17:40.000Z</time>
      </trkpt>
      <trkpt lat="45.33435" lon="6.17163">
        <ele>1946.4000244141</ele>
        <time>2012-02-12T14:17:45.000Z</time>
      </trkpt>
      <trkpt lat="45.33435" lon="6.17165">
        <ele>1946.8000488281</ele>
        <time>2012-02-12T14:18:07.000Z</time>
      </trkpt>
      <trkpt lat="45.33439" lon="6.17155">
        <ele>1945.8000488281</ele>
        <time>2012-02-12T14:18:11.000Z</time>
      </trkpt>
      <trkpt lat="45.33448" lon="6.17147">
        <ele>1942.1999511719</ele>
        <time>2012-02-12T14:18:15.000Z</time>
      </trkpt>
      <trkpt lat="45.33449" lon="6.17147">
        <ele>1942.1999511719</ele>
        <time>2012-02-12T14:18:16.000Z</time>
      </trkpt>
      <trkpt lat="45.33449" lon="6.17147">
        <ele>1942.4000244141</ele>
        <time>2012-02-12T14:18:21.000Z</time>
      </trkpt>
      <trkpt lat="45.33444" lon="6.17137">
        <ele>1941.1999511719</ele>
        <time>2012-02-12T14:18:26.000Z</time>
      </trkpt>
      <trkpt lat="45.33436" lon="6.17123">
        <ele>1938.5999755859</ele>
        <time>2012-02-12T14:18:29.000Z</time>
      </trkpt>
      <trkpt lat="45.33434" lon="6.17116">
        <ele>1938.5999755859</ele>
        <time>2012-02-12T14:18:33.000Z</time>
      </trkpt>
      <trkpt lat="45.33433" lon="6.17112">
        <ele>1938.8000488281</ele>
        <time>2012-02-12T14:18:38.000Z</time>
      </trkpt>
      <trkpt lat="45.33429" lon="6.1711">
        <ele>1939.1999511719</ele>
        <time>2012-02-12T14:18:45.000Z</time>
      </trkpt>
      <trkpt lat="45.33429" lon="6.1711">
        <ele>1939.1999511719</ele>
        <time>2012-02-12T14:18:46.000Z</time>
      </trkpt>
      <trkpt lat="45.33424" lon="6.17111">
        <ele>1939.1999511719</ele>
        <time>2012-02-12T14:18:56.000Z</time>
      </trkpt>
      <trkpt lat="45.33421" lon="6.17113">
        <ele>1939.1999511719</ele>
        <time>2012-02-12T14:19:03.000Z</time>
      </trkpt>
      <trkpt lat="45.3342" lon="6.17114">
        <ele>1938.8000488281</ele>
        <time>2012-02-12T14:19:05.000Z</time>
      </trkpt>
      <trkpt lat="45.33417" lon="6.17114">
        <ele>1939.5999755859</ele>
        <time>2012-02-12T14:19:10.000Z</time>
      </trkpt>
      <trkpt lat="45.33414" lon="6.17118">
        <ele>1940.4000244141</ele>
        <time>2012-02-12T14:19:17.000Z</time>
      </trkpt>
      <trkpt lat="45.33412" lon="6.17122">
        <ele>1941</ele>
        <time>2012-02-12T14:19:24.000Z</time>
      </trkpt>
      <trkpt lat="45.3341" lon="6.17125">
        <ele>1941.8000488281</ele>
        <time>2012-02-12T14:19:30.000Z</time>
      </trkpt>
      <trkpt lat="45.33408" lon="6.17128">
        <ele>1941.8000488281</ele>
        <time>2012-02-12T14:19:37.000Z</time>
      </trkpt>
      <trkpt lat="45.33406" lon="6.17131">
        <ele>1942.5999755859</ele>
        <time>2012-02-12T14:19:42.000Z</time>
      </trkpt>
      <trkpt lat="45.33406" lon="6.17131">
        <ele>1942.5999755859</ele>
        <time>2012-02-12T14:19:49.000Z</time>
      </trkpt>
      <trkpt lat="45.33404" lon="6.17135">
        <ele>1942.8000488281</ele>
        <time>2012-02-12T14:20:00.000Z</time>
      </trkpt>
      <trkpt lat="45.33404" lon="6.17134">
        <ele>1943</ele>
        <time>2012-02-12T14:20:07.000Z</time>
      </trkpt>
      <trkpt lat="45.33405" lon="6.17131">
        <ele>1942.5999755859</ele>
        <time>2012-02-12T14:20:19.000Z</time>
      </trkpt>
      <trkpt lat="45.3341" lon="6.1712">
        <ele>1942</ele>
        <time>2012-02-12T14:20:24.000Z</time>
      </trkpt>
      <trkpt lat="45.33428" lon="6.17097">
        <ele>1938</ele>
        <time>2012-02-12T14:20:29.000Z</time>
      </trkpt>
      <trkpt lat="45.33429" lon="6.1709">
        <ele>1936.8000488281</ele>
        <time>2012-02-12T14:20:30.000Z</time>
      </trkpt>
      <trkpt lat="45.33445" lon="6.17039">
        <ele>1931.4000244141</ele>
        <time>2012-02-12T14:20:36.000Z</time>
      </trkpt>
      <trkpt lat="45.33446" lon="6.17025">
        <ele>1930</ele>
        <time>2012-02-12T14:20:39.000Z</time>
      </trkpt>
      <trkpt lat="45.33446" lon="6.17019">
        <ele>1930.1999511719</ele>
        <time>2012-02-12T14:20:43.000Z</time>
      </trkpt>
      <trkpt lat="45.33444" lon="6.17018">
        <ele>1930.1999511719</ele>
        <time>2012-02-12T14:21:05.000Z</time>
      </trkpt>
      <trkpt lat="45.33444" lon="6.17018">
        <ele>1928.1999511719</ele>
        <time>2012-02-12T14:21:17.000Z</time>
      </trkpt>
      <trkpt lat="45.33442" lon="6.17014">
        <ele>1929.8000488281</ele>
        <time>2012-02-12T14:21:27.000Z</time>
      </trkpt>
      <trkpt lat="45.33445" lon="6.17016">
        <ele>1930.8000488281</ele>
        <time>2012-02-12T14:23:30.000Z</time>
      </trkpt>
      <trkpt lat="45.33446" lon="6.17026">
        <ele>1931.8000488281</ele>
        <time>2012-02-12T14:25:26.000Z</time>
      </trkpt>
      <trkpt lat="45.33449" lon="6.17026">
        <ele>1932</ele>
        <time>2012-02-12T14:25:58.000Z</time>
      </trkpt>
      <trkpt lat="45.33443" lon="6.1702">
        <ele>1932.1999511719</ele>
        <time>2012-02-12T14:26:24.000Z</time>
      </trkpt>
      <trkpt lat="45.33447" lon="6.17022">
        <ele>1932.1999511719</ele>
        <time>2012-02-12T14:26:29.000Z</time>
      </trkpt>
      <trkpt lat="45.33448" lon="6.17017">
        <ele>1932.4000244141</ele>
        <time>2012-02-12T14:26:34.000Z</time>
      </trkpt>
      <trkpt lat="45.33453" lon="6.17007">
        <ele>1931</ele>
        <time>2012-02-12T14:26:59.000Z</time>
      </trkpt>
      <trkpt lat="45.33452" lon="6.17008">
        <ele>1929.8000488281</ele>
        <time>2012-02-12T14:27:02.000Z</time>
      </trkpt>
      <trkpt lat="45.3345" lon="6.17021">
        <ele>1929.5999755859</ele>
        <time>2012-02-12T14:27:07.000Z</time>
      </trkpt>
      <trkpt lat="45.33448" lon="6.17016">
        <ele>1931.1999511719</ele>
        <time>2012-02-12T14:35:57.000Z</time>
      </trkpt>
      <trkpt lat="45.33446" lon="6.1702">
        <ele>1931</ele>
        <time>2012-02-12T14:36:03.000Z</time>
      </trkpt>
      <trkpt lat="45.33447" lon="6.17018">
        <ele>1932</ele>
        <time>2012-02-12T14:36:06.000Z</time>
      </trkpt>
      <trkpt lat="45.33446" lon="6.17017">
        <ele>1932.5999755859</ele>
        <time>2012-02-12T14:36:11.000Z</time>
      </trkpt>
      <trkpt lat="45.33447" lon="6.17018">
        <ele>1931.1999511719</ele>
        <time>2012-02-12T14:40:46.000Z</time>
      </trkpt>
      <trkpt lat="45.33448" lon="6.17019">
        <ele>1931.5999755859</ele>
        <time>2012-02-12T14:41:20.000Z</time>
      </trkpt>
      <trkpt lat="45.33449" lon="6.17027">
        <ele>1931.5999755859</ele>
        <time>2012-02-12T14:41:28.000Z</time>
      </trkpt>
      <trkpt lat="45.33449" lon="6.17025">
        <ele>1931.5999755859</ele>
        <time>2012-02-12T14:41:36.000Z</time>
      </trkpt>
      <trkpt lat="45.33448" lon="6.17024">
        <ele>1932</ele>
        <time>2012-02-12T14:41:45.000Z</time>
      </trkpt>
      <trkpt lat="45.33448" lon="6.17025">
        <ele>1931.4000244141</ele>
        <time>2012-02-12T14:42:10.000Z</time>
      </trkpt>
      <trkpt lat="45.3345" lon="6.17021">
        <ele>1932.4000244141</ele>
        <time>2012-02-12T14:45:26.000Z</time>
      </trkpt>
      <trkpt lat="45.3345" lon="6.17015">
        <ele>1932.4000244141</ele>
        <time>2012-02-12T14:46:12.000Z</time>
      </trkpt>
      <trkpt lat="45.3345" lon="6.17016">
        <ele>1932.1999511719</ele>
        <time>2012-02-12T14:46:37.000Z</time>
      </trkpt>
      <trkpt lat="45.3345" lon="6.17012">
        <ele>1933.4000244141</ele>
        <time>2012-02-12T14:49:09.000Z</time>
      </trkpt>
      <trkpt lat="45.33449" lon="6.1701">
        <ele>1931.4000244141</ele>
        <time>2012-02-12T14:49:21.000Z</time>
      </trkpt>
      <trkpt lat="45.33454" lon="6.17005">
        <ele>1931.1999511719</ele>
        <time>2012-02-12T14:49:25.000Z</time>
      </trkpt>
      <trkpt lat="45.33456" lon="6.17006">
        <ele>1932</ele>
        <time>2012-02-12T14:49:29.000Z</time>
      </trkpt>
      <trkpt lat="45.33458" lon="6.17004">
        <ele>1931</ele>
        <time>2012-02-12T14:49:32.000Z</time>
      </trkpt>
      <trkpt lat="45.33451" lon="6.17011">
        <ele>1932.1999511719</ele>
        <time>2012-02-12T15:01:23.000Z</time>
      </trkpt>
      <trkpt lat="45.33449" lon="6.17015">
        <ele>1933.8000488281</ele>
        <time>2012-02-12T15:01:30.000Z</time>
      </trkpt>
      <trkpt lat="45.33449" lon="6.17015">
        <ele>1933.8000488281</ele>
        <time>2012-02-12T15:01:35.000Z</time>
      </trkpt>
      <trkpt lat="45.33442" lon="6.17007">
        <ele>1936.4000244141</ele>
        <time>2012-02-12T15:18:23.000Z</time>
      </trkpt>
      <trkpt lat="45.33442" lon="6.17007">
        <ele>1936.1999511719</ele>
        <time>2012-02-12T15:18:24.000Z</time>
      </trkpt>
      <trkpt lat="45.33444" lon="6.17018">
        <ele>1936.8000488281</ele>
        <time>2012-02-12T15:18:55.000Z</time>
      </trkpt>
      <trkpt lat="45.33446" lon="6.17027">
        <ele>1936.5999755859</ele>
        <time>2012-02-12T15:19:33.000Z</time>
      </trkpt>
      <trkpt lat="45.33446" lon="6.17032">
        <ele>1937</ele>
        <time>2012-02-12T15:20:15.000Z</time>
      </trkpt>
      <trkpt lat="45.33448" lon="6.17037">
        <ele>1937.4000244141</ele>
        <time>2012-02-12T15:20:22.000Z</time>
      </trkpt>
      <trkpt lat="45.33448" lon="6.1705">
        <ele>1937.4000244141</ele>
        <time>2012-02-12T15:21:02.000Z</time>
      </trkpt>
      <trkpt lat="45.33447" lon="6.17055">
        <ele>1938.1999511719</ele>
        <time>2012-02-12T15:21:09.000Z</time>
      </trkpt>
      <trkpt lat="45.33442" lon="6.17064">
        <ele>1939.8000488281</ele>
        <time>2012-02-12T15:21:20.000Z</time>
      </trkpt>
      <trkpt lat="45.33441" lon="6.17068">
        <ele>1939</ele>
        <time>2012-02-12T15:21:26.000Z</time>
      </trkpt>
      <trkpt lat="45.33441" lon="6.17072">
        <ele>1940</ele>
        <time>2012-02-12T15:21:32.000Z</time>
      </trkpt>
      <trkpt lat="45.33438" lon="6.17078">
        <ele>1940.4000244141</ele>
        <time>2012-02-12T15:21:37.000Z</time>
      </trkpt>
      <trkpt lat="45.33437" lon="6.17083">
        <ele>1941.1999511719</ele>
        <time>2012-02-12T15:21:44.000Z</time>
      </trkpt>
      <trkpt lat="45.33436" lon="6.17087">
        <ele>1941.8000488281</ele>
        <time>2012-02-12T15:21:49.000Z</time>
      </trkpt>
      <trkpt lat="45.33435" lon="6.17095">
        <ele>1943.5999755859</ele>
        <time>2012-02-12T15:21:58.000Z</time>
      </trkpt>
      <trkpt lat="45.33435" lon="6.17099">
        <ele>1944</ele>
        <time>2012-02-12T15:22:03.000Z</time>
      </trkpt>
      <trkpt lat="45.33436" lon="6.17107">
        <ele>1946.4000244141</ele>
        <time>2012-02-12T15:22:11.000Z</time>
      </trkpt>
      <trkpt lat="45.33436" lon="6.17114">
        <ele>1946.1999511719</ele>
        <time>2012-02-12T15:22:17.000Z</time>
      </trkpt>
      <trkpt lat="45.33438" lon="6.17124">
        <ele>1945.5999755859</ele>
        <time>2012-02-12T15:22:25.000Z</time>
      </trkpt>
      <trkpt lat="45.33442" lon="6.17131">
        <ele>1945.1999511719</ele>
        <time>2012-02-12T15:22:33.000Z</time>
      </trkpt>
      <trkpt lat="45.33444" lon="6.17134">
        <ele>1946.4000244141</ele>
        <time>2012-02-12T15:22:38.000Z</time>
      </trkpt>
      <trkpt lat="45.33448" lon="6.1714">
        <ele>1946.1999511719</ele>
        <time>2012-02-12T15:22:46.000Z</time>
      </trkpt>
      <trkpt lat="45.33449" lon="6.17147">
        <ele>1946.1999511719</ele>
        <time>2012-02-12T15:22:54.000Z</time>
      </trkpt>
      <trkpt lat="45.33451" lon="6.17151">
        <ele>1948.1999511719</ele>
        <time>2012-02-12T15:23:00.000Z</time>
      </trkpt>
      <trkpt lat="45.3345" lon="6.17154">
        <ele>1952.4000244141</ele>
        <time>2012-02-12T15:23:04.000Z</time>
      </trkpt>
      <trkpt lat="45.33451" lon="6.17155">
        <ele>1953.4000244141</ele>
        <time>2012-02-12T15:23:06.000Z</time>
      </trkpt>
      <trkpt lat="45.33451" lon="6.17165">
        <ele>1952.8000488281</ele>
        <time>2012-02-12T15:23:16.000Z</time>
      </trkpt>
      <trkpt lat="45.33451" lon="6.17173">
        <ele>1955.1999511719</ele>
        <time>2012-02-12T15:23:24.000Z</time>
      </trkpt>
      <trkpt lat="45.33448" lon="6.17178">
        <ele>1951.8000488281</ele>
        <time>2012-02-12T15:23:30.000Z</time>
      </trkpt>
      <trkpt lat="45.33446" lon="6.17177">
        <ele>1956</ele>
        <time>2012-02-12T15:23:35.000Z</time>
      </trkpt>
      <trkpt lat="45.33442" lon="6.17178">
        <ele>1956.4000244141</ele>
        <time>2012-02-12T15:23:41.000Z</time>
      </trkpt>
      <trkpt lat="45.33439" lon="6.17177">
        <ele>1957.4000244141</ele>
        <time>2012-02-12T15:23:48.000Z</time>
      </trkpt>
      <trkpt lat="45.33434" lon="6.17175">
        <ele>1958.1999511719</ele>
        <time>2012-02-12T15:23:55.000Z</time>
      </trkpt>
      <trkpt lat="45.33431" lon="6.17177">
        <ele>1959</ele>
        <time>2012-02-12T15:24:01.000Z</time>
      </trkpt>
      <trkpt lat="45.33427" lon="6.1718">
        <ele>1961.5999755859</ele>
        <time>2012-02-12T15:24:08.000Z</time>
      </trkpt>
      <trkpt lat="45.33426" lon="6.17182">
        <ele>1961.4000244141</ele>
        <time>2012-02-12T15:24:12.000Z</time>
      </trkpt>
      <trkpt lat="45.33426" lon="6.17189">
        <ele>1962.5999755859</ele>
        <time>2012-02-12T15:24:17.000Z</time>
      </trkpt>
      <trkpt lat="45.33426" lon="6.17189">
        <ele>1962.8000488281</ele>
        <time>2012-02-12T15:24:18.000Z</time>
      </trkpt>
      <trkpt lat="45.33425" lon="6.17192">
        <ele>1964.4000244141</ele>
        <time>2012-02-12T15:24:26.000Z</time>
      </trkpt>
      <trkpt lat="45.33424" lon="6.17193">
        <ele>1964</ele>
        <time>2012-02-12T15:24:41.000Z</time>
      </trkpt>
      <trkpt lat="45.33421" lon="6.17196">
        <ele>1964.4000244141</ele>
        <time>2012-02-12T15:24:46.000Z</time>
      </trkpt>
      <trkpt lat="45.33416" lon="6.17198">
        <ele>1964.5999755859</ele>
        <time>2012-02-12T15:24:53.000Z</time>
      </trkpt>
      <trkpt lat="45.33413" lon="6.17199">
        <ele>1966.5999755859</ele>
        <time>2012-02-12T15:24:58.000Z</time>
      </trkpt>
      <trkpt lat="45.33412" lon="6.172">
        <ele>1966.8000488281</ele>
        <time>2012-02-12T15:24:59.000Z</time>
      </trkpt>
      <trkpt lat="45.33408" lon="6.17201">
        <ele>1967.1999511719</ele>
        <time>2012-02-12T15:25:05.000Z</time>
      </trkpt>
      <trkpt lat="45.33403" lon="6.17205">
        <ele>1968.5999755859</ele>
        <time>2012-02-12T15:25:13.000Z</time>
      </trkpt>
      <trkpt lat="45.33401" lon="6.17211">
        <ele>1968.8000488281</ele>
        <time>2012-02-12T15:25:18.000Z</time>
      </trkpt>
      <trkpt lat="45.33403" lon="6.17216">
        <ele>1971</ele>
        <time>2012-02-12T15:25:26.000Z</time>
      </trkpt>
      <trkpt lat="45.33404" lon="6.17222">
        <ele>1971.8000488281</ele>
        <time>2012-02-12T15:25:32.000Z</time>
      </trkpt>
      <trkpt lat="45.33405" lon="6.17229">
        <ele>1973</ele>
        <time>2012-02-12T15:25:40.000Z</time>
      </trkpt>
      <trkpt lat="45.33403" lon="6.17239">
        <ele>1973.8000488281</ele>
        <time>2012-02-12T15:25:49.000Z</time>
      </trkpt>
      <trkpt lat="45.33406" lon="6.17245">
        <ele>1976.8000488281</ele>
        <time>2012-02-12T15:25:56.000Z</time>
      </trkpt>
      <trkpt lat="45.33407" lon="6.17252">
        <ele>1977</ele>
        <time>2012-02-12T15:26:05.000Z</time>
      </trkpt>
      <trkpt lat="45.33408" lon="6.17257">
        <ele>1977.5999755859</ele>
        <time>2012-02-12T15:26:12.000Z</time>
      </trkpt>
      <trkpt lat="45.33409" lon="6.17263">
        <ele>1978.4000244141</ele>
        <time>2012-02-12T15:26:20.000Z</time>
      </trkpt>
      <trkpt lat="45.33411" lon="6.1727">
        <ele>1979.8000488281</ele>
        <time>2012-02-12T15:26:27.000Z</time>
      </trkpt>
      <trkpt lat="45.33411" lon="6.17274">
        <ele>1980.5999755859</ele>
        <time>2012-02-12T15:26:30.000Z</time>
      </trkpt>
      <trkpt lat="45.33411" lon="6.17283">
        <ele>1979.1999511719</ele>
        <time>2012-02-12T15:26:38.000Z</time>
      </trkpt>
      <trkpt lat="45.33409" lon="6.17292">
        <ele>1980.5999755859</ele>
        <time>2012-02-12T15:26:45.000Z</time>
      </trkpt>
      <trkpt lat="45.3341" lon="6.17294">
        <ele>1982.5999755859</ele>
        <time>2012-02-12T15:26:48.000Z</time>
      </trkpt>
      <trkpt lat="45.33412" lon="6.17302">
        <ele>1982.5999755859</ele>
        <time>2012-02-12T15:26:57.000Z</time>
      </trkpt>
      <trkpt lat="45.33415" lon="6.17306">
        <ele>1982.5999755859</ele>
        <time>2012-02-12T15:27:03.000Z</time>
      </trkpt>
      <trkpt lat="45.33421" lon="6.17308">
        <ele>1982.5999755859</ele>
        <time>2012-02-12T15:27:09.000Z</time>
      </trkpt>
      <trkpt lat="45.33424" lon="6.17314">
        <ele>1986.4000244141</ele>
        <time>2012-02-12T15:27:16.000Z</time>
      </trkpt>
      <trkpt lat="45.33425" lon="6.17323">
        <ele>1987.8000488281</ele>
        <time>2012-02-12T15:27:25.000Z</time>
      </trkpt>
      <trkpt lat="45.33427" lon="6.17325">
        <ele>1989.4000244141</ele>
        <time>2012-02-12T15:27:28.000Z</time>
      </trkpt>
      <trkpt lat="45.33427" lon="6.17333">
        <ele>1989.1999511719</ele>
        <time>2012-02-12T15:27:36.000Z</time>
      </trkpt>
      <trkpt lat="45.33427" lon="6.17342">
        <ele>1990.4000244141</ele>
        <time>2012-02-12T15:27:45.000Z</time>
      </trkpt>
      <trkpt lat="45.33427" lon="6.1735">
        <ele>1993.1999511719</ele>
        <time>2012-02-12T15:27:53.000Z</time>
      </trkpt>
      <trkpt lat="45.33427" lon="6.17359">
        <ele>1992.5999755859</ele>
        <time>2012-02-12T15:28:01.000Z</time>
      </trkpt>
      <trkpt lat="45.33427" lon="6.17364">
        <ele>1992.8000488281</ele>
        <time>2012-02-12T15:28:07.000Z</time>
      </trkpt>
      <trkpt lat="45.33426" lon="6.1737">
        <ele>1994.4000244141</ele>
        <time>2012-02-12T15:28:12.000Z</time>
      </trkpt>
      <trkpt lat="45.33425" lon="6.17378">
        <ele>1993.4000244141</ele>
        <time>2012-02-12T15:28:19.000Z</time>
      </trkpt>
      <trkpt lat="45.33425" lon="6.17385">
        <ele>1995.4000244141</ele>
        <time>2012-02-12T15:28:26.000Z</time>
      </trkpt>
      <trkpt lat="45.33429" lon="6.17388">
        <ele>1997.5999755859</ele>
        <time>2012-02-12T15:28:33.000Z</time>
      </trkpt>
      <trkpt lat="45.33428" lon="6.17397">
        <ele>1998.5999755859</ele>
        <time>2012-02-12T15:28:43.000Z</time>
      </trkpt>
      <trkpt lat="45.33429" lon="6.17404">
        <ele>1998.1999511719</ele>
        <time>2012-02-12T15:28:51.000Z</time>
      </trkpt>
      <trkpt lat="45.3343" lon="6.17408">
        <ele>2000.4000244141</ele>
        <time>2012-02-12T15:28:56.000Z</time>
      </trkpt>
      <trkpt lat="45.33429" lon="6.17418">
        <ele>2001</ele>
        <time>2012-02-12T15:29:04.000Z</time>
      </trkpt>
      <trkpt lat="45.3343" lon="6.17426">
        <ele>2002.4000244141</ele>
        <time>2012-02-12T15:29:11.000Z</time>
      </trkpt>
      <trkpt lat="45.3343" lon="6.17434">
        <ele>2004.8000488281</ele>
        <time>2012-02-12T15:29:19.000Z</time>
      </trkpt>
      <trkpt lat="45.33431" lon="6.1744">
        <ele>2003</ele>
        <time>2012-02-12T15:29:24.000Z</time>
      </trkpt>
      <trkpt lat="45.3343" lon="6.17447">
        <ele>2004.5999755859</ele>
        <time>2012-02-12T15:29:30.000Z</time>
      </trkpt>
      <trkpt lat="45.3343" lon="6.17448">
        <ele>2005.8000488281</ele>
        <time>2012-02-12T15:29:32.000Z</time>
      </trkpt>
      <trkpt lat="45.33431" lon="6.17454">
        <ele>2006.1999511719</ele>
        <time>2012-02-12T15:29:38.000Z</time>
      </trkpt>
      <trkpt lat="45.33433" lon="6.17457">
        <ele>2006.5999755859</ele>
        <time>2012-02-12T15:29:44.000Z</time>
      </trkpt>
      <trkpt lat="45.33433" lon="6.1746">
        <ele>2008</ele>
        <time>2012-02-12T15:29:47.000Z</time>
      </trkpt>
      <trkpt lat="45.33434" lon="6.17466">
        <ele>2007.5999755859</ele>
        <time>2012-02-12T15:29:53.000Z</time>
      </trkpt>
      <trkpt lat="45.33435" lon="6.17475">
        <ele>2010.4000244141</ele>
        <time>2012-02-12T15:30:02.000Z</time>
      </trkpt>
      <trkpt lat="45.33439" lon="6.17481">
        <ele>2009.8000488281</ele>
        <time>2012-02-12T15:30:10.000Z</time>
      </trkpt>
      <trkpt lat="45.3344" lon="6.17487">
        <ele>2010.5999755859</ele>
        <time>2012-02-12T15:30:17.000Z</time>
      </trkpt>
      <trkpt lat="45.3344" lon="6.17492">
        <ele>2011.1999511719</ele>
        <time>2012-02-12T15:30:24.000Z</time>
      </trkpt>
      <trkpt lat="45.33442" lon="6.17492">
        <ele>2011.4000244141</ele>
        <time>2012-02-12T15:30:29.000Z</time>
      </trkpt>
      <trkpt lat="45.33444" lon="6.17503">
        <ele>2011.1999511719</ele>
        <time>2012-02-12T15:30:37.000Z</time>
      </trkpt>
      <trkpt lat="45.33444" lon="6.17515">
        <ele>2013.4000244141</ele>
        <time>2012-02-12T15:30:45.000Z</time>
      </trkpt>
      <trkpt lat="45.33446" lon="6.17522">
        <ele>2012.8000488281</ele>
        <time>2012-02-12T15:30:52.000Z</time>
      </trkpt>
      <trkpt lat="45.33446" lon="6.17527">
        <ele>2013</ele>
        <time>2012-02-12T15:30:57.000Z</time>
      </trkpt>
      <trkpt lat="45.33447" lon="6.17537">
        <ele>2014.4000244141</ele>
        <time>2012-02-12T15:31:05.000Z</time>
      </trkpt>
      <trkpt lat="45.33445" lon="6.17546">
        <ele>2015</ele>
        <time>2012-02-12T15:31:12.000Z</time>
      </trkpt>
      <trkpt lat="45.33445" lon="6.17555">
        <ele>2015.8000488281</ele>
        <time>2012-02-12T15:31:20.000Z</time>
      </trkpt>
      <trkpt lat="45.33447" lon="6.1756">
        <ele>2015</ele>
        <time>2012-02-12T15:31:26.000Z</time>
      </trkpt>
      <trkpt lat="45.33449" lon="6.17566">
        <ele>2015.1999511719</ele>
        <time>2012-02-12T15:31:32.000Z</time>
      </trkpt>
      <trkpt lat="45.33451" lon="6.1757">
        <ele>2016.1999511719</ele>
        <time>2012-02-12T15:31:37.000Z</time>
      </trkpt>
      <trkpt lat="45.33451" lon="6.17576">
        <ele>2018.1999511719</ele>
        <time>2012-02-12T15:31:42.000Z</time>
      </trkpt>
      <trkpt lat="45.33453" lon="6.17582">
        <ele>2019</ele>
        <time>2012-02-12T15:31:49.000Z</time>
      </trkpt>
      <trkpt lat="45.33454" lon="6.17587">
        <ele>2018.5999755859</ele>
        <time>2012-02-12T15:31:55.000Z</time>
      </trkpt>
      <trkpt lat="45.33455" lon="6.17595">
        <ele>2019.4000244141</ele>
        <time>2012-02-12T15:32:05.000Z</time>
      </trkpt>
      <trkpt lat="45.33456" lon="6.17602">
        <ele>2021.1999511719</ele>
        <time>2012-02-12T15:32:11.000Z</time>
      </trkpt>
      <trkpt lat="45.33457" lon="6.17605">
        <ele>2021.8000488281</ele>
        <time>2012-02-12T15:32:14.000Z</time>
      </trkpt>
      <trkpt lat="45.33461" lon="6.17609">
        <ele>2021.4000244141</ele>
        <time>2012-02-12T15:32:21.000Z</time>
      </trkpt>
      <trkpt lat="45.33463" lon="6.17614">
        <ele>2022.8000488281</ele>
        <time>2012-02-12T15:32:27.000Z</time>
      </trkpt>
      <trkpt lat="45.33464" lon="6.17622">
        <ele>2022.8000488281</ele>
        <time>2012-02-12T15:32:33.000Z</time>
      </trkpt>
      <trkpt lat="45.33467" lon="6.17629">
        <ele>2022</ele>
        <time>2012-02-12T15:32:39.000Z</time>
      </trkpt>
      <trkpt lat="45.3347" lon="6.17636">
        <ele>2024.4000244141</ele>
        <time>2012-02-12T15:32:47.000Z</time>
      </trkpt>
      <trkpt lat="45.33471" lon="6.17644">
        <ele>2025.1999511719</ele>
        <time>2012-02-12T15:32:54.000Z</time>
      </trkpt>
      <trkpt lat="45.33473" lon="6.1765">
        <ele>2025.8000488281</ele>
        <time>2012-02-12T15:33:00.000Z</time>
      </trkpt>
      <trkpt lat="45.33475" lon="6.17652">
        <ele>2025.4000244141</ele>
        <time>2012-02-12T15:33:08.000Z</time>
      </trkpt>
      <trkpt lat="45.33475" lon="6.17655">
        <ele>2026.5999755859</ele>
        <time>2012-02-12T15:33:11.000Z</time>
      </trkpt>
      <trkpt lat="45.33476" lon="6.17659">
        <ele>2026.1999511719</ele>
        <time>2012-02-12T15:33:16.000Z</time>
      </trkpt>
      <trkpt lat="45.33474" lon="6.17669">
        <ele>2028.5999755859</ele>
        <time>2012-02-12T15:33:24.000Z</time>
      </trkpt>
      <trkpt lat="45.33474" lon="6.17675">
        <ele>2029.4000244141</ele>
        <time>2012-02-12T15:33:30.000Z</time>
      </trkpt>
      <trkpt lat="45.33471" lon="6.17686">
        <ele>2029.4000244141</ele>
        <time>2012-02-12T15:33:38.000Z</time>
      </trkpt>
      <trkpt lat="45.3347" lon="6.17693">
        <ele>2031.4000244141</ele>
        <time>2012-02-12T15:33:45.000Z</time>
      </trkpt>
      <trkpt lat="45.33469" lon="6.17699">
        <ele>2032.1999511719</ele>
        <time>2012-02-12T15:33:50.000Z</time>
      </trkpt>
      <trkpt lat="45.3347" lon="6.17703">
        <ele>2031.8000488281</ele>
        <time>2012-02-12T15:33:56.000Z</time>
      </trkpt>
      <trkpt lat="45.3347" lon="6.17704">
        <ele>2031.8000488281</ele>
        <time>2012-02-12T15:33:57.000Z</time>
      </trkpt>
      <trkpt lat="45.33469" lon="6.17707">
        <ele>2033.1999511719</ele>
        <time>2012-02-12T15:34:00.000Z</time>
      </trkpt>
      <trkpt lat="45.33469" lon="6.17712">
        <ele>2034</ele>
        <time>2012-02-12T15:34:07.000Z</time>
      </trkpt>
      <trkpt lat="45.33468" lon="6.17719">
        <ele>2035</ele>
        <time>2012-02-12T15:34:13.000Z</time>
      </trkpt>
      <trkpt lat="45.33469" lon="6.17723">
        <ele>2035</ele>
        <time>2012-02-12T15:34:19.000Z</time>
      </trkpt>
      <trkpt lat="45.33471" lon="6.17723">
        <ele>2035.5999755859</ele>
        <time>2012-02-12T15:34:21.000Z</time>
      </trkpt>
      <trkpt lat="45.33473" lon="6.17725">
        <ele>2036</ele>
        <time>2012-02-12T15:34:27.000Z</time>
      </trkpt>
      <trkpt lat="45.33476" lon="6.17728">
        <ele>2037</ele>
        <time>2012-02-12T15:34:33.000Z</time>
      </trkpt>
      <trkpt lat="45.33475" lon="6.17734">
        <ele>2038</ele>
        <time>2012-02-12T15:34:41.000Z</time>
      </trkpt>
      <trkpt lat="45.33475" lon="6.17739">
        <ele>2038</ele>
        <time>2012-02-12T15:34:47.000Z</time>
      </trkpt>
      <trkpt lat="45.33474" lon="6.17743">
        <ele>2039</ele>
        <time>2012-02-12T15:34:53.000Z</time>
      </trkpt>
      <trkpt lat="45.33471" lon="6.1775">
        <ele>2040.8000488281</ele>
        <time>2012-02-12T15:34:58.000Z</time>
      </trkpt>
      <trkpt lat="45.33467" lon="6.17757">
        <ele>2040.8000488281</ele>
        <time>2012-02-12T15:35:05.000Z</time>
      </trkpt>
      <trkpt lat="45.33468" lon="6.17761">
        <ele>2042</ele>
        <time>2012-02-12T15:35:12.000Z</time>
      </trkpt>
      <trkpt lat="45.33466" lon="6.17765">
        <ele>2043.1999511719</ele>
        <time>2012-02-12T15:35:17.000Z</time>
      </trkpt>
      <trkpt lat="45.33463" lon="6.17772">
        <ele>2044.1999511719</ele>
        <time>2012-02-12T15:35:23.000Z</time>
      </trkpt>
      <trkpt lat="45.33462" lon="6.17774">
        <ele>2045.8000488281</ele>
        <time>2012-02-12T15:35:32.000Z</time>
      </trkpt>
      <trkpt lat="45.3346" lon="6.17776">
        <ele>2046.8000488281</ele>
        <time>2012-02-12T15:35:42.000Z</time>
      </trkpt>
      <trkpt lat="45.33457" lon="6.17778">
        <ele>2048.3999023438</ele>
        <time>2012-02-12T15:35:53.000Z</time>
      </trkpt>
      <trkpt lat="45.33453" lon="6.17779">
        <ele>2049.6000976562</ele>
        <time>2012-02-12T15:35:59.000Z</time>
      </trkpt>
      <trkpt lat="45.33451" lon="6.17779">
        <ele>2050.3999023438</ele>
        <time>2012-02-12T15:36:03.000Z</time>
      </trkpt>
      <trkpt lat="45.33446" lon="6.17778">
        <ele>2051.3999023438</ele>
        <time>2012-02-12T15:36:11.000Z</time>
      </trkpt>
      <trkpt lat="45.33442" lon="6.17788">
        <ele>2052.3999023438</ele>
        <time>2012-02-12T15:36:21.000Z</time>
      </trkpt>
      <trkpt lat="45.33441" lon="6.17796">
        <ele>2052.8000488281</ele>
        <time>2012-02-12T15:36:27.000Z</time>
      </trkpt>
      <trkpt lat="45.33442" lon="6.17802">
        <ele>2052.6000976562</ele>
        <time>2012-02-12T15:36:34.000Z</time>
      </trkpt>
      <trkpt lat="45.33444" lon="6.17806">
        <ele>2052.6000976562</ele>
        <time>2012-02-12T15:36:39.000Z</time>
      </trkpt>
      <trkpt lat="45.33447" lon="6.17808">
        <ele>2053.6000976562</ele>
        <time>2012-02-12T15:36:46.000Z</time>
      </trkpt>
      <trkpt lat="45.3345" lon="6.17809">
        <ele>2056.6000976562</ele>
        <time>2012-02-12T15:36:51.000Z</time>
      </trkpt>
      <trkpt lat="45.33456" lon="6.17813">
        <ele>2058</ele>
        <time>2012-02-12T15:37:04.000Z</time>
      </trkpt>
      <trkpt lat="45.33456" lon="6.17815">
        <ele>2059.1999511719</ele>
        <time>2012-02-12T15:37:07.000Z</time>
      </trkpt>
      <trkpt lat="45.33461" lon="6.17817">
        <ele>2059.6000976562</ele>
        <time>2012-02-12T15:37:13.000Z</time>
      </trkpt>
      <trkpt lat="45.33464" lon="6.17819">
        <ele>2059.6000976562</ele>
        <time>2012-02-12T15:37:18.000Z</time>
      </trkpt>
      <trkpt lat="45.33467" lon="6.17821">
        <ele>2060.8000488281</ele>
        <time>2012-02-12T15:37:23.000Z</time>
      </trkpt>
      <trkpt lat="45.3347" lon="6.17823">
        <ele>2061.3999023438</ele>
        <time>2012-02-12T15:37:28.000Z</time>
      </trkpt>
      <trkpt lat="45.33472" lon="6.17826">
        <ele>2062.6000976562</ele>
        <time>2012-02-12T15:37:33.000Z</time>
      </trkpt>
      <trkpt lat="45.33475" lon="6.1783">
        <ele>2062.8000488281</ele>
        <time>2012-02-12T15:37:41.000Z</time>
      </trkpt>
      <trkpt lat="45.3348" lon="6.1783">
        <ele>2064.8000488281</ele>
        <time>2012-02-12T15:37:49.000Z</time>
      </trkpt>
      <trkpt lat="45.33484" lon="6.17832">
        <ele>2066</ele>
        <time>2012-02-12T15:37:56.000Z</time>
      </trkpt>
      <trkpt lat="45.33487" lon="6.17834">
        <ele>2067</ele>
        <time>2012-02-12T15:38:02.000Z</time>
      </trkpt>
      <trkpt lat="45.33491" lon="6.17836">
        <ele>2067.6000976562</ele>
        <time>2012-02-12T15:38:09.000Z</time>
      </trkpt>
      <trkpt lat="45.33494" lon="6.1784">
        <ele>2069.3999023438</ele>
        <time>2012-02-12T15:38:18.000Z</time>
      </trkpt>
      <trkpt lat="45.33495" lon="6.17844">
        <ele>2070.6000976562</ele>
        <time>2012-02-12T15:38:26.000Z</time>
      </trkpt>
      <trkpt lat="45.33499" lon="6.17843">
        <ele>2070.8000488281</ele>
        <time>2012-02-12T15:38:36.000Z</time>
      </trkpt>
      <trkpt lat="45.33498" lon="6.17849">
        <ele>2073.3999023438</ele>
        <time>2012-02-12T15:38:46.000Z</time>
      </trkpt>
      <trkpt lat="45.33499" lon="6.17855">
        <ele>2073.3999023438</ele>
        <time>2012-02-12T15:38:54.000Z</time>
      </trkpt>
      <trkpt lat="45.33504" lon="6.17859">
        <ele>2075.1999511719</ele>
        <time>2012-02-12T15:39:02.000Z</time>
      </trkpt>
      <trkpt lat="45.33503" lon="6.17861">
        <ele>2075.1999511719</ele>
        <time>2012-02-12T15:39:08.000Z</time>
      </trkpt>
      <trkpt lat="45.33515" lon="6.17854">
        <ele>2061.6000976562</ele>
        <time>2012-02-12T15:40:32.000Z</time>
      </trkpt>
      <trkpt lat="45.33511" lon="6.1786">
        <ele>2072.1999511719</ele>
        <time>2012-02-12T15:40:37.000Z</time>
      </trkpt>
      <trkpt lat="45.33513" lon="6.17861">
        <ele>2075.6000976562</ele>
        <time>2012-02-12T15:41:33.000Z</time>
      </trkpt>
      <trkpt lat="45.33504" lon="6.17878">
        <ele>2077.1999511719</ele>
        <time>2012-02-12T15:43:02.000Z</time>
      </trkpt>
      <trkpt lat="45.33503" lon="6.17884">
        <ele>2076.8000488281</ele>
        <time>2012-02-12T15:43:11.000Z</time>
      </trkpt>
      <trkpt lat="45.33504" lon="6.17886">
        <ele>2076.6000976562</ele>
        <time>2012-02-12T15:43:14.000Z</time>
      </trkpt>
      <trkpt lat="45.33503" lon="6.17892">
        <ele>2077.8000488281</ele>
        <time>2012-02-12T15:43:19.000Z</time>
      </trkpt>
      <trkpt lat="45.33504" lon="6.17896">
        <ele>2078</ele>
        <time>2012-02-12T15:43:25.000Z</time>
      </trkpt>
      <trkpt lat="45.335" lon="6.17905">
        <ele>2078.3999023438</ele>
        <time>2012-02-12T15:43:31.000Z</time>
      </trkpt>
      <trkpt lat="45.33498" lon="6.1791">
        <ele>2080.8000488281</ele>
        <time>2012-02-12T15:43:36.000Z</time>
      </trkpt>
      <trkpt lat="45.33501" lon="6.17913">
        <ele>2081.1999511719</ele>
        <time>2012-02-12T15:43:44.000Z</time>
      </trkpt>
      <trkpt lat="45.33499" lon="6.17919">
        <ele>2082.3999023438</ele>
        <time>2012-02-12T15:43:49.000Z</time>
      </trkpt>
      <trkpt lat="45.335" lon="6.17922">
        <ele>2081.6000976562</ele>
        <time>2012-02-12T15:43:54.000Z</time>
      </trkpt>
      <trkpt lat="45.335" lon="6.17925">
        <ele>2082.1999511719</ele>
        <time>2012-02-12T15:43:59.000Z</time>
      </trkpt>
      <trkpt lat="45.33498" lon="6.17929">
        <ele>2082.6000976562</ele>
        <time>2012-02-12T15:44:04.000Z</time>
      </trkpt>
      <trkpt lat="45.33498" lon="6.17932">
        <ele>2083.8000488281</ele>
        <time>2012-02-12T15:44:13.000Z</time>
      </trkpt>
      <trkpt lat="45.33498" lon="6.17934">
        <ele>2084</ele>
        <time>2012-02-12T15:44:21.000Z</time>
      </trkpt>
      <trkpt lat="45.33492" lon="6.17945">
        <ele>2086</ele>
        <time>2012-02-12T15:44:33.000Z</time>
      </trkpt>
      <trkpt lat="45.33489" lon="6.17951">
        <ele>2087</ele>
        <time>2012-02-12T15:44:40.000Z</time>
      </trkpt>
      <trkpt lat="45.33484" lon="6.17961">
        <ele>2089</ele>
        <time>2012-02-12T15:44:45.000Z</time>
      </trkpt>
      <trkpt lat="45.33481" lon="6.17969">
        <ele>2089</ele>
        <time>2012-02-12T15:44:50.000Z</time>
      </trkpt>
      <trkpt lat="45.33482" lon="6.17973">
        <ele>2090</ele>
        <time>2012-02-12T15:44:56.000Z</time>
      </trkpt>
      <trkpt lat="45.3348" lon="6.1798">
        <ele>2091.1999511719</ele>
        <time>2012-02-12T15:45:03.000Z</time>
      </trkpt>
      <trkpt lat="45.33481" lon="6.17982">
        <ele>2092.1999511719</ele>
        <time>2012-02-12T15:45:09.000Z</time>
      </trkpt>
      <trkpt lat="45.33481" lon="6.17987">
        <ele>2091.6000976562</ele>
        <time>2012-02-12T15:45:14.000Z</time>
      </trkpt>
      <trkpt lat="45.3348" lon="6.17994">
        <ele>2094.3999023438</ele>
        <time>2012-02-12T15:45:19.000Z</time>
      </trkpt>
      <trkpt lat="45.3348" lon="6.18001">
        <ele>2094</ele>
        <time>2012-02-12T15:45:26.000Z</time>
      </trkpt>
      <trkpt lat="45.3348" lon="6.18006">
        <ele>2096.8000488281</ele>
        <time>2012-02-12T15:45:37.000Z</time>
      </trkpt>
      <trkpt lat="45.33479" lon="6.18012">
        <ele>2096.6000976562</ele>
        <time>2012-02-12T15:45:44.000Z</time>
      </trkpt>
      <trkpt lat="45.33477" lon="6.18024">
        <ele>2099.3999023438</ele>
        <time>2012-02-12T15:46:03.000Z</time>
      </trkpt>
      <trkpt lat="45.33473" lon="6.18034">
        <ele>2099.1999511719</ele>
        <time>2012-02-12T15:46:10.000Z</time>
      </trkpt>
      <trkpt lat="45.33474" lon="6.18038">
        <ele>2099.1999511719</ele>
        <time>2012-02-12T15:46:15.000Z</time>
      </trkpt>
      <trkpt lat="45.33472" lon="6.18043">
        <ele>2099.6000976562</ele>
        <time>2012-02-12T15:46:20.000Z</time>
      </trkpt>
      <trkpt lat="45.33473" lon="6.18046">
        <ele>2103.6000976562</ele>
        <time>2012-02-12T15:46:25.000Z</time>
      </trkpt>
      <trkpt lat="45.33469" lon="6.18056">
        <ele>2103.8000488281</ele>
        <time>2012-02-12T15:46:36.000Z</time>
      </trkpt>
      <trkpt lat="45.33468" lon="6.18064">
        <ele>2105</ele>
        <time>2012-02-12T15:46:44.000Z</time>
      </trkpt>
      <trkpt lat="45.33468" lon="6.18066">
        <ele>2105</ele>
        <time>2012-02-12T15:46:45.000Z</time>
      </trkpt>
      <trkpt lat="45.33471" lon="6.18069">
        <ele>2106</ele>
        <time>2012-02-12T15:46:51.000Z</time>
      </trkpt>
      <trkpt lat="45.33476" lon="6.18072">
        <ele>2108</ele>
        <time>2012-02-12T15:46:58.000Z</time>
      </trkpt>
      <trkpt lat="45.33478" lon="6.18074">
        <ele>2108.1999511719</ele>
        <time>2012-02-12T15:47:04.000Z</time>
      </trkpt>
      <trkpt lat="45.33478" lon="6.1808">
        <ele>2109.1999511719</ele>
        <time>2012-02-12T15:47:11.000Z</time>
      </trkpt>
      <trkpt lat="45.33479" lon="6.18084">
        <ele>2108</ele>
        <time>2012-02-12T15:47:17.000Z</time>
      </trkpt>
      <trkpt lat="45.33483" lon="6.18089">
        <ele>2111.3999023438</ele>
        <time>2012-02-12T15:47:23.000Z</time>
      </trkpt>
      <trkpt lat="45.33483" lon="6.18089">
        <ele>2111.6000976562</ele>
        <time>2012-02-12T15:47:24.000Z</time>
      </trkpt>
      <trkpt lat="45.33485" lon="6.18095">
        <ele>2111.8000488281</ele>
        <time>2012-02-12T15:47:30.000Z</time>
      </trkpt>
      <trkpt lat="45.33488" lon="6.18097">
        <ele>2111.8000488281</ele>
        <time>2012-02-12T15:47:35.000Z</time>
      </trkpt>
      <trkpt lat="45.33489" lon="6.18102">
        <ele>2113.6000976562</ele>
        <time>2012-02-12T15:47:40.000Z</time>
      </trkpt>
      <trkpt lat="45.33489" lon="6.18108">
        <ele>2115</ele>
        <time>2012-02-12T15:47:45.000Z</time>
      </trkpt>
      <trkpt lat="45.33489" lon="6.18113">
        <ele>2116</ele>
        <time>2012-02-12T15:47:50.000Z</time>
      </trkpt>
      <trkpt lat="45.33491" lon="6.18116">
        <ele>2115.6000976562</ele>
        <time>2012-02-12T15:47:55.000Z</time>
      </trkpt>
      <trkpt lat="45.33493" lon="6.18119">
        <ele>2117.1999511719</ele>
        <time>2012-02-12T15:47:59.000Z</time>
      </trkpt>
      <trkpt lat="45.33497" lon="6.18124">
        <ele>2118.1999511719</ele>
        <time>2012-02-12T15:48:07.000Z</time>
      </trkpt>
      <trkpt lat="45.33498" lon="6.18128">
        <ele>2118.6000976562</ele>
        <time>2012-02-12T15:48:12.000Z</time>
      </trkpt>
      <trkpt lat="45.335" lon="6.1813">
        <ele>2120</ele>
        <time>2012-02-12T15:48:15.000Z</time>
      </trkpt>
      <trkpt lat="45.33498" lon="6.18141">
        <ele>2120.1999511719</ele>
        <time>2012-02-12T15:48:23.000Z</time>
      </trkpt>
      <trkpt lat="45.33499" lon="6.18145">
        <ele>2122.3999023438</ele>
        <time>2012-02-12T15:48:28.000Z</time>
      </trkpt>
      <trkpt lat="45.33503" lon="6.18146">
        <ele>2122.8000488281</ele>
        <time>2012-02-12T15:48:33.000Z</time>
      </trkpt>
      <trkpt lat="45.33503" lon="6.18152">
        <ele>2122.6000976562</ele>
        <time>2012-02-12T15:48:38.000Z</time>
      </trkpt>
      <trkpt lat="45.33503" lon="6.18158">
        <ele>2125</ele>
        <time>2012-02-12T15:48:45.000Z</time>
      </trkpt>
      <trkpt lat="45.33502" lon="6.18164">
        <ele>2125.6000976562</ele>
        <time>2012-02-12T15:48:50.000Z</time>
      </trkpt>
      <trkpt lat="45.33501" lon="6.18167">
        <ele>2127.1999511719</ele>
        <time>2012-02-12T15:48:56.000Z</time>
      </trkpt>
      <trkpt lat="45.33502" lon="6.18167">
        <ele>2127.8000488281</ele>
        <time>2012-02-12T15:48:58.000Z</time>
      </trkpt>
      <trkpt lat="45.33502" lon="6.18167">
        <ele>2127.8000488281</ele>
        <time>2012-02-12T15:49:03.000Z</time>
      </trkpt>
      <trkpt lat="45.33502" lon="6.18167">
        <ele>2129.3999023438</ele>
        <time>2012-02-12T15:49:11.000Z</time>
      </trkpt>
      <trkpt lat="45.335" lon="6.1817">
        <ele>2131.8000488281</ele>
        <time>2012-02-12T15:49:18.000Z</time>
      </trkpt>
      <trkpt lat="45.33499" lon="6.1817">
        <ele>2131.3999023438</ele>
        <time>2012-02-12T15:49:24.000Z</time>
      </trkpt>
      <trkpt lat="45.33497" lon="6.18174">
        <ele>2133.3999023438</ele>
        <time>2012-02-12T15:49:34.000Z</time>
      </trkpt>
      <trkpt lat="45.33496" lon="6.18177">
        <ele>2134</ele>
        <time>2012-02-12T15:49:40.000Z</time>
      </trkpt>
      <trkpt lat="45.33495" lon="6.18181">
        <ele>2135.1999511719</ele>
        <time>2012-02-12T15:49:45.000Z</time>
      </trkpt>
      <trkpt lat="45.33493" lon="6.18189">
        <ele>2135.6000976562</ele>
        <time>2012-02-12T15:49:52.000Z</time>
      </trkpt>
      <trkpt lat="45.33495" lon="6.18192">
        <ele>2137</ele>
        <time>2012-02-12T15:49:58.000Z</time>
      </trkpt>
      <trkpt lat="45.33495" lon="6.18197">
        <ele>2138.6000976562</ele>
        <time>2012-02-12T15:50:04.000Z</time>
      </trkpt>
      <trkpt lat="45.33494" lon="6.18203">
        <ele>2139.8000488281</ele>
        <time>2012-02-12T15:50:10.000Z</time>
      </trkpt>
      <trkpt lat="45.33495" lon="6.18207">
        <ele>2140.1999511719</ele>
        <time>2012-02-12T15:50:16.000Z</time>
      </trkpt>
      <trkpt lat="45.33487" lon="6.18223">
        <ele>2141.8000488281</ele>
        <time>2012-02-12T15:50:27.000Z</time>
      </trkpt>
      <trkpt lat="45.33487" lon="6.18231">
        <ele>2142.3999023438</ele>
        <time>2012-02-12T15:50:38.000Z</time>
      </trkpt>
      <trkpt lat="45.33487" lon="6.18236">
        <ele>2142.6000976562</ele>
        <time>2012-02-12T15:50:43.000Z</time>
      </trkpt>
      <trkpt lat="45.33488" lon="6.18239">
        <ele>2143.3999023438</ele>
        <time>2012-02-12T15:50:51.000Z</time>
      </trkpt>
      <trkpt lat="45.33489" lon="6.18246">
        <ele>2145</ele>
        <time>2012-02-12T15:50:58.000Z</time>
      </trkpt>
      <trkpt lat="45.3349" lon="6.18251">
        <ele>2146.1999511719</ele>
        <time>2012-02-12T15:51:03.000Z</time>
      </trkpt>
      <trkpt lat="45.33493" lon="6.18255">
        <ele>2147.1999511719</ele>
        <time>2012-02-12T15:51:10.000Z</time>
      </trkpt>
      <trkpt lat="45.33493" lon="6.18261">
        <ele>2147.1999511719</ele>
        <time>2012-02-12T15:51:16.000Z</time>
      </trkpt>
      <trkpt lat="45.33495" lon="6.18267">
        <ele>2149.1999511719</ele>
        <time>2012-02-12T15:51:24.000Z</time>
      </trkpt>
      <trkpt lat="45.33496" lon="6.1827">
        <ele>2149.6000976562</ele>
        <time>2012-02-12T15:51:31.000Z</time>
      </trkpt>
      <trkpt lat="45.33493" lon="6.1827">
        <ele>2151.6000976562</ele>
        <time>2012-02-12T15:51:40.000Z</time>
      </trkpt>
      <trkpt lat="45.33488" lon="6.18269">
        <ele>2153</ele>
        <time>2012-02-12T15:51:48.000Z</time>
      </trkpt>
      <trkpt lat="45.33482" lon="6.18269">
        <ele>2152.6000976562</ele>
        <time>2012-02-12T15:51:54.000Z</time>
      </trkpt>
      <trkpt lat="45.33477" lon="6.18269">
        <ele>2154.3999023438</ele>
        <time>2012-02-12T15:52:01.000Z</time>
      </trkpt>
      <trkpt lat="45.33473" lon="6.18266">
        <ele>2155.1999511719</ele>
        <time>2012-02-12T15:52:11.000Z</time>
      </trkpt>
      <trkpt lat="45.33469" lon="6.18262">
        <ele>2156.3999023438</ele>
        <time>2012-02-12T15:52:20.000Z</time>
      </trkpt>
      <trkpt lat="45.33465" lon="6.18261">
        <ele>2157</ele>
        <time>2012-02-12T15:52:25.000Z</time>
      </trkpt>
      <trkpt lat="45.33462" lon="6.18259">
        <ele>2157.3999023438</ele>
        <time>2012-02-12T15:52:32.000Z</time>
      </trkpt>
      <trkpt lat="45.3346" lon="6.18262">
        <ele>2158.8000488281</ele>
        <time>2012-02-12T15:52:41.000Z</time>
      </trkpt>
      <trkpt lat="45.33462" lon="6.18264">
        <ele>2158.8000488281</ele>
        <time>2012-02-12T15:52:45.000Z</time>
      </trkpt>
      <trkpt lat="45.33461" lon="6.18271">
        <ele>2160.8000488281</ele>
        <time>2012-02-12T15:52:51.000Z</time>
      </trkpt>
      <trkpt lat="45.3346" lon="6.18278">
        <ele>2160.6000976562</ele>
        <time>2012-02-12T15:52:57.000Z</time>
      </trkpt>
      <trkpt lat="45.3346" lon="6.18282">
        <ele>2161.1999511719</ele>
        <time>2012-02-12T15:53:02.000Z</time>
      </trkpt>
      <trkpt lat="45.3346" lon="6.18289">
        <ele>2162.8000488281</ele>
        <time>2012-02-12T15:53:17.000Z</time>
      </trkpt>
      <trkpt lat="45.33458" lon="6.18287">
        <ele>2164.6000976562</ele>
        <time>2012-02-12T15:53:24.000Z</time>
      </trkpt>
      <trkpt lat="45.33458" lon="6.18286">
        <ele>2165.1999511719</ele>
        <time>2012-02-12T15:53:31.000Z</time>
      </trkpt>
      <trkpt lat="45.33454" lon="6.18291">
        <ele>2167.8000488281</ele>
        <time>2012-02-12T15:53:37.000Z</time>
      </trkpt>
      <trkpt lat="45.33452" lon="6.18291">
        <ele>2167.1999511719</ele>
        <time>2012-02-12T15:53:43.000Z</time>
      </trkpt>
      <trkpt lat="45.33449" lon="6.18294">
        <ele>2168</ele>
        <time>2012-02-12T15:53:49.000Z</time>
      </trkpt>
      <trkpt lat="45.33444" lon="6.18301">
        <ele>2169.8000488281</ele>
        <time>2012-02-12T15:53:57.000Z</time>
      </trkpt>
      <trkpt lat="45.33441" lon="6.18308">
        <ele>2170</ele>
        <time>2012-02-12T15:54:03.000Z</time>
      </trkpt>
      <trkpt lat="45.33444" lon="6.18307">
        <ele>2169.6000976562</ele>
        <time>2012-02-12T15:54:12.000Z</time>
      </trkpt>
      <trkpt lat="45.33444" lon="6.18309">
        <ele>2170.3999023438</ele>
        <time>2012-02-12T15:54:22.000Z</time>
      </trkpt>
      <trkpt lat="45.33446" lon="6.18314">
        <ele>2171</ele>
        <time>2012-02-12T15:54:27.000Z</time>
      </trkpt>
      <trkpt lat="45.33446" lon="6.18321">
        <ele>2170.3999023438</ele>
        <time>2012-02-12T15:54:32.000Z</time>
      </trkpt>
      <trkpt lat="45.33448" lon="6.18325">
        <ele>2170.3999023438</ele>
        <time>2012-02-12T15:54:38.000Z</time>
      </trkpt>
      <trkpt lat="45.33448" lon="6.18334">
        <ele>2171.3999023438</ele>
        <time>2012-02-12T15:54:46.000Z</time>
      </trkpt>
      <trkpt lat="45.33447" lon="6.18339">
        <ele>2171</ele>
        <time>2012-02-12T15:54:51.000Z</time>
      </trkpt>
      <trkpt lat="45.33445" lon="6.18347">
        <ele>2171.1999511719</ele>
        <time>2012-02-12T15:54:59.000Z</time>
      </trkpt>
      <trkpt lat="45.33443" lon="6.18355">
        <ele>2171.3999023438</ele>
        <time>2012-02-12T15:55:06.000Z</time>
      </trkpt>
      <trkpt lat="45.33441" lon="6.18364">
        <ele>2174.1999511719</ele>
        <time>2012-02-12T15:55:15.000Z</time>
      </trkpt>
      <trkpt lat="45.33439" lon="6.18371">
        <ele>2174.3999023438</ele>
        <time>2012-02-12T15:55:23.000Z</time>
      </trkpt>
      <trkpt lat="45.33437" lon="6.18378">
        <ele>2174.8000488281</ele>
        <time>2012-02-12T15:55:30.000Z</time>
      </trkpt>
      <trkpt lat="45.33437" lon="6.18382">
        <ele>2175.6000976562</ele>
        <time>2012-02-12T15:55:36.000Z</time>
      </trkpt>
      <trkpt lat="45.33436" lon="6.18387">
        <ele>2175.8000488281</ele>
        <time>2012-02-12T15:55:41.000Z</time>
      </trkpt>
      <trkpt lat="45.33429" lon="6.18393">
        <ele>2176.3999023438</ele>
        <time>2012-02-12T15:55:47.000Z</time>
      </trkpt>
      <trkpt lat="45.33426" lon="6.184">
        <ele>2176.8000488281</ele>
        <time>2012-02-12T15:55:55.000Z</time>
      </trkpt>
      <trkpt lat="45.33422" lon="6.18405">
        <ele>2178.3999023438</ele>
        <time>2012-02-12T15:56:01.000Z</time>
      </trkpt>
      <trkpt lat="45.33421" lon="6.1841">
        <ele>2177.6000976562</ele>
        <time>2012-02-12T15:56:08.000Z</time>
      </trkpt>
      <trkpt lat="45.3342" lon="6.18413">
        <ele>2179</ele>
        <time>2012-02-12T15:56:12.000Z</time>
      </trkpt>
      <trkpt lat="45.33417" lon="6.18418">
        <ele>2180</ele>
        <time>2012-02-12T15:56:17.000Z</time>
      </trkpt>
      <trkpt lat="45.33417" lon="6.18423">
        <ele>2181</ele>
        <time>2012-02-12T15:56:23.000Z</time>
      </trkpt>
      <trkpt lat="45.33415" lon="6.18431">
        <ele>2180.6000976562</ele>
        <time>2012-02-12T15:56:32.000Z</time>
      </trkpt>
      <trkpt lat="45.3341" lon="6.18444">
        <ele>2182.8000488281</ele>
        <time>2012-02-12T15:56:48.000Z</time>
      </trkpt>
      <trkpt lat="45.33408" lon="6.18449">
        <ele>2182.3999023438</ele>
        <time>2012-02-12T15:56:56.000Z</time>
      </trkpt>
      <trkpt lat="45.33404" lon="6.18454">
        <ele>2184.6000976562</ele>
        <time>2012-02-12T15:57:03.000Z</time>
      </trkpt>
      <trkpt lat="45.334" lon="6.18461">
        <ele>2184.6000976562</ele>
        <time>2012-02-12T15:57:10.000Z</time>
      </trkpt>
      <trkpt lat="45.33399" lon="6.18465">
        <ele>2185.6000976562</ele>
        <time>2012-02-12T15:57:16.000Z</time>
      </trkpt>
      <trkpt lat="45.33401" lon="6.1847">
        <ele>2185.1999511719</ele>
        <time>2012-02-12T15:57:50.000Z</time>
      </trkpt>
      <trkpt lat="45.33393" lon="6.18477">
        <ele>2185.3999023438</ele>
        <time>2012-02-12T15:58:00.000Z</time>
      </trkpt>
      <trkpt lat="45.3342" lon="6.18476">
        <ele>2190.8000488281</ele>
        <time>2012-02-12T15:58:50.000Z</time>
      </trkpt>
      <trkpt lat="45.33424" lon="6.18481">
        <ele>2191.8000488281</ele>
        <time>2012-02-12T15:58:55.000Z</time>
      </trkpt>
      <trkpt lat="45.33428" lon="6.18484">
        <ele>2192</ele>
        <time>2012-02-12T15:59:02.000Z</time>
      </trkpt>
      <trkpt lat="45.33433" lon="6.18491">
        <ele>2194</ele>
        <time>2012-02-12T15:59:11.000Z</time>
      </trkpt>
      <trkpt lat="45.33429" lon="6.185">
        <ele>2194.3999023438</ele>
        <time>2012-02-12T15:59:18.000Z</time>
      </trkpt>
      <trkpt lat="45.33427" lon="6.18509">
        <ele>2195.8000488281</ele>
        <time>2012-02-12T15:59:29.000Z</time>
      </trkpt>
      <trkpt lat="45.33427" lon="6.18516">
        <ele>2197.3999023438</ele>
        <time>2012-02-12T15:59:37.000Z</time>
      </trkpt>
      <trkpt lat="45.33429" lon="6.18525">
        <ele>2197.3999023438</ele>
        <time>2012-02-12T15:59:45.000Z</time>
      </trkpt>
      <trkpt lat="45.33427" lon="6.18537">
        <ele>2199.1999511719</ele>
        <time>2012-02-12T15:59:58.000Z</time>
      </trkpt>
      <trkpt lat="45.33424" lon="6.18549">
        <ele>2199.1999511719</ele>
        <time>2012-02-12T16:00:27.000Z</time>
      </trkpt>
      <trkpt lat="45.33422" lon="6.18554">
        <ele>2200.3999023438</ele>
        <time>2012-02-12T16:00:32.000Z</time>
      </trkpt>
      <trkpt lat="45.33414" lon="6.18551">
        <ele>2200.1999511719</ele>
        <time>2012-02-12T16:00:40.000Z</time>
      </trkpt>
      <trkpt lat="45.33413" lon="6.1855">
        <ele>2199.3999023438</ele>
        <time>2012-02-12T16:00:43.000Z</time>
      </trkpt>
      <trkpt lat="45.33407" lon="6.18546">
        <ele>2198.1999511719</ele>
        <time>2012-02-12T16:00:49.000Z</time>
      </trkpt>
      <trkpt lat="45.33402" lon="6.18543">
        <ele>2196.6000976562</ele>
        <time>2012-02-12T16:00:57.000Z</time>
      </trkpt>
      <trkpt lat="45.33398" lon="6.18543">
        <ele>2195.6000976562</ele>
        <time>2012-02-12T16:01:01.000Z</time>
      </trkpt>
      <trkpt lat="45.33393" lon="6.18544">
        <ele>2195</ele>
        <time>2012-02-12T16:01:08.000Z</time>
      </trkpt>
      <trkpt lat="45.33381" lon="6.18547">
        <ele>2195.8000488281</ele>
        <time>2012-02-12T16:01:21.000Z</time>
      </trkpt>
      <trkpt lat="45.33373" lon="6.18548">
        <ele>2195.8000488281</ele>
        <time>2012-02-12T16:01:30.000Z</time>
      </trkpt>
      <trkpt lat="45.33367" lon="6.1855">
        <ele>2198</ele>
        <time>2012-02-12T16:01:40.000Z</time>
      </trkpt>
      <trkpt lat="45.33365" lon="6.18548">
        <ele>2197.3999023438</ele>
        <time>2012-02-12T16:01:47.000Z</time>
      </trkpt>
      <trkpt lat="45.33361" lon="6.18549">
        <ele>2198.3999023438</ele>
        <time>2012-02-12T16:01:54.000Z</time>
      </trkpt>
      <trkpt lat="45.33356" lon="6.18551">
        <ele>2198.1999511719</ele>
        <time>2012-02-12T16:02:00.000Z</time>
      </trkpt>
      <trkpt lat="45.33351" lon="6.18555">
        <ele>2200</ele>
        <time>2012-02-12T16:02:14.000Z</time>
      </trkpt>
      <trkpt lat="45.33348" lon="6.18554">
        <ele>2201</ele>
        <time>2012-02-12T16:02:22.000Z</time>
      </trkpt>
      <trkpt lat="45.33345" lon="6.18554">
        <ele>2202.1999511719</ele>
        <time>2012-02-12T16:02:29.000Z</time>
      </trkpt>
      <trkpt lat="45.33332" lon="6.18558">
        <ele>2205</ele>
        <time>2012-02-12T16:02:57.000Z</time>
      </trkpt>
      <trkpt lat="45.3333" lon="6.18559">
        <ele>2206.1999511719</ele>
        <time>2012-02-12T16:03:04.000Z</time>
      </trkpt>
      <trkpt lat="45.3333" lon="6.18558">
        <ele>2207.3999023438</ele>
        <time>2012-02-12T16:03:06.000Z</time>
      </trkpt>
      <trkpt lat="45.33323" lon="6.18565">
        <ele>2208.1999511719</ele>
        <time>2012-02-12T16:03:12.000Z</time>
      </trkpt>
      <trkpt lat="45.3332" lon="6.18569">
        <ele>2209</ele>
        <time>2012-02-12T16:03:19.000Z</time>
      </trkpt>
      <trkpt lat="45.33317" lon="6.18572">
        <ele>2209.8000488281</ele>
        <time>2012-02-12T16:03:25.000Z</time>
      </trkpt>
      <trkpt lat="45.33313" lon="6.18577">
        <ele>2213.1999511719</ele>
        <time>2012-02-12T16:03:52.000Z</time>
      </trkpt>
      <trkpt lat="45.33312" lon="6.18579">
        <ele>2214.1999511719</ele>
        <time>2012-02-12T16:03:58.000Z</time>
      </trkpt>
      <trkpt lat="45.33308" lon="6.18587">
        <ele>2215.6000976562</ele>
        <time>2012-02-12T16:04:04.000Z</time>
      </trkpt>
      <trkpt lat="45.33323" lon="6.18601">
        <ele>2220.3999023438</ele>
        <time>2012-02-12T16:04:39.000Z</time>
      </trkpt>
      <trkpt lat="45.33329" lon="6.18609">
        <ele>2224</ele>
        <time>2012-02-12T16:05:06.000Z</time>
      </trkpt>
      <trkpt lat="45.33334" lon="6.18612">
        <ele>2225.1999511719</ele>
        <time>2012-02-12T16:05:15.000Z</time>
      </trkpt>
      <trkpt lat="45.33329" lon="6.18619">
        <ele>2226.6000976562</ele>
        <time>2012-02-12T16:05:20.000Z</time>
      </trkpt>
      <trkpt lat="45.33326" lon="6.18624">
        <ele>2227.1999511719</ele>
        <time>2012-02-12T16:05:26.000Z</time>
      </trkpt>
      <trkpt lat="45.33323" lon="6.18634">
        <ele>2229</ele>
        <time>2012-02-12T16:05:43.000Z</time>
      </trkpt>
      <trkpt lat="45.33314" lon="6.18637">
        <ele>2231.8000488281</ele>
        <time>2012-02-12T16:06:07.000Z</time>
      </trkpt>
      <trkpt lat="45.33309" lon="6.18644">
        <ele>2233.6000976562</ele>
        <time>2012-02-12T16:06:52.000Z</time>
      </trkpt>
      <trkpt lat="45.33313" lon="6.18644">
        <ele>2229.6000976562</ele>
        <time>2012-02-12T16:07:00.000Z</time>
      </trkpt>
      <trkpt lat="45.33317" lon="6.18645">
        <ele>2235.3999023438</ele>
        <time>2012-02-12T16:07:06.000Z</time>
      </trkpt>
      <trkpt lat="45.33325" lon="6.18648">
        <ele>2238</ele>
        <time>2012-02-12T16:07:25.000Z</time>
      </trkpt>
      <trkpt lat="45.33326" lon="6.18648">
        <ele>2237.8000488281</ele>
        <time>2012-02-12T16:07:29.000Z</time>
      </trkpt>
      <trkpt lat="45.3332" lon="6.18649">
        <ele>2238.6000976562</ele>
        <time>2012-02-12T16:07:36.000Z</time>
      </trkpt>
      <trkpt lat="45.33318" lon="6.1865">
        <ele>2239.8000488281</ele>
        <time>2012-02-12T16:07:39.000Z</time>
      </trkpt>
      <trkpt lat="45.33313" lon="6.18652">
        <ele>2240.8000488281</ele>
        <time>2012-02-12T16:07:45.000Z</time>
      </trkpt>
      <trkpt lat="45.33309" lon="6.18651">
        <ele>2241.1999511719</ele>
        <time>2012-02-12T16:07:53.000Z</time>
      </trkpt>
      <trkpt lat="45.33307" lon="6.1865">
        <ele>2243.1999511719</ele>
        <time>2012-02-12T16:08:08.000Z</time>
      </trkpt>
      <trkpt lat="45.33307" lon="6.18651">
        <ele>2240</ele>
        <time>2012-02-12T16:08:18.000Z</time>
      </trkpt>
      <trkpt lat="45.33309" lon="6.18652">
        <ele>2238.1999511719</ele>
        <time>2012-02-12T16:08:20.000Z</time>
      </trkpt>
      <trkpt lat="45.33316" lon="6.18657">
        <ele>2246.8000488281</ele>
        <time>2012-02-12T16:08:33.000Z</time>
      </trkpt>
      <trkpt lat="45.33335" lon="6.18676">
        <ele>2253.8000488281</ele>
        <time>2012-02-12T16:09:20.000Z</time>
      </trkpt>
      <trkpt lat="45.33348" lon="6.18677">
        <ele>2257</ele>
        <time>2012-02-12T16:09:44.000Z</time>
      </trkpt>
      <trkpt lat="45.33355" lon="6.18679">
        <ele>2258.1999511719</ele>
        <time>2012-02-12T16:09:54.000Z</time>
      </trkpt>
      <trkpt lat="45.33367" lon="6.18686">
        <ele>2262.1999511719</ele>
        <time>2012-02-12T16:10:27.000Z</time>
      </trkpt>
      <trkpt lat="45.33361" lon="6.18704">
        <ele>2266.3999023438</ele>
        <time>2012-02-12T16:11:19.000Z</time>
      </trkpt>
      <trkpt lat="45.33359" lon="6.1871">
        <ele>2267.8000488281</ele>
        <time>2012-02-12T16:11:26.000Z</time>
      </trkpt>
      <trkpt lat="45.33358" lon="6.18711">
        <ele>2267.8000488281</ele>
        <time>2012-02-12T16:11:27.000Z</time>
      </trkpt>
      <trkpt lat="45.33356" lon="6.18716">
        <ele>2268.8000488281</ele>
        <time>2012-02-12T16:11:34.000Z</time>
      </trkpt>
      <trkpt lat="45.33336" lon="6.18744">
        <ele>2277.6000976562</ele>
        <time>2012-02-12T16:12:51.000Z</time>
      </trkpt>
      <trkpt lat="45.33323" lon="6.18757">
        <ele>2285.1999511719</ele>
        <time>2012-02-12T16:14:18.000Z</time>
      </trkpt>
      <trkpt lat="45.33325" lon="6.18759">
        <ele>2286.8000488281</ele>
        <time>2012-02-12T16:14:24.000Z</time>
      </trkpt>
      <trkpt lat="45.33325" lon="6.18763">
        <ele>2288.6000976562</ele>
        <time>2012-02-12T16:14:34.000Z</time>
      </trkpt>
      <trkpt lat="45.33324" lon="6.18763">
        <ele>2289.1999511719</ele>
        <time>2012-02-12T16:14:36.000Z</time>
      </trkpt>
      <trkpt lat="45.33326" lon="6.18767">
        <ele>2291.3999023438</ele>
        <time>2012-02-12T16:14:43.000Z</time>
      </trkpt>
      <trkpt lat="45.33329" lon="6.1877">
        <ele>2292.8000488281</ele>
        <time>2012-02-12T16:14:48.000Z</time>
      </trkpt>
      <trkpt lat="45.3333" lon="6.18774">
        <ele>2293.1999511719</ele>
        <time>2012-02-12T16:14:53.000Z</time>
      </trkpt>
      <trkpt lat="45.3333" lon="6.18775">
        <ele>2294.6000976562</ele>
        <time>2012-02-12T16:14:56.000Z</time>
      </trkpt>
      <trkpt lat="45.33333" lon="6.18777">
        <ele>2295.1999511719</ele>
        <time>2012-02-12T16:15:04.000Z</time>
      </trkpt>
      <trkpt lat="45.33335" lon="6.18782">
        <ele>2294.8000488281</ele>
        <time>2012-02-12T16:15:11.000Z</time>
      </trkpt>
      <trkpt lat="45.33333" lon="6.18788">
        <ele>2296</ele>
        <time>2012-02-12T16:15:21.000Z</time>
      </trkpt>
      <trkpt lat="45.33333" lon="6.18786">
        <ele>2295.6000976562</ele>
        <time>2012-02-12T16:15:34.000Z</time>
      </trkpt>
      <trkpt lat="45.33333" lon="6.18784">
        <ele>2295.8000488281</ele>
        <time>2012-02-12T16:15:41.000Z</time>
      </trkpt>
      <trkpt lat="45.33334" lon="6.18784">
        <ele>2294.1999511719</ele>
        <time>2012-02-12T16:15:50.000Z</time>
      </trkpt>
      <trkpt lat="45.33335" lon="6.18786">
        <ele>2295.1999511719</ele>
        <time>2012-02-12T16:15:52.000Z</time>
      </trkpt>
      <trkpt lat="45.33334" lon="6.18786">
        <ele>2295.8000488281</ele>
        <time>2012-02-12T16:15:56.000Z</time>
      </trkpt>
      <trkpt lat="45.33334" lon="6.18786">
        <ele>2296.1999511719</ele>
        <time>2012-02-12T16:19:31.000Z</time>
      </trkpt>
      <trkpt lat="45.33335" lon="6.18782">
        <ele>2293.8000488281</ele>
        <time>2012-02-12T16:19:45.000Z</time>
      </trkpt>
      <trkpt lat="45.33333" lon="6.1878">
        <ele>2293.6000976562</ele>
        <time>2012-02-12T16:19:48.000Z</time>
      </trkpt>
      <trkpt lat="45.33329" lon="6.18775">
        <ele>2293.1999511719</ele>
        <time>2012-02-12T16:19:57.000Z</time>
      </trkpt>
      <trkpt lat="45.33326" lon="6.18777">
        <ele>2294.3999023438</ele>
        <time>2012-02-12T16:20:21.000Z</time>
      </trkpt>
      <trkpt lat="45.33326" lon="6.18777">
        <ele>2294</ele>
        <time>2012-02-12T16:20:27.000Z</time>
      </trkpt>
      <trkpt lat="45.33334" lon="6.18782">
        <ele>2293</ele>
        <time>2012-02-12T16:21:22.000Z</time>
      </trkpt>
      <trkpt lat="45.33336" lon="6.18783">
        <ele>2293.6000976562</ele>
        <time>2012-02-12T16:21:27.000Z</time>
      </trkpt>
      <trkpt lat="45.33339" lon="6.18783">
        <ele>2293.8000488281</ele>
        <time>2012-02-12T16:22:08.000Z</time>
      </trkpt>
      <trkpt lat="45.33337" lon="6.18785">
        <ele>2285.6000976562</ele>
        <time>2012-02-12T16:23:17.000Z</time>
      </trkpt>
      <trkpt lat="45.33335" lon="6.18785">
        <ele>2294.1999511719</ele>
        <time>2012-02-12T16:23:22.000Z</time>
      </trkpt>
      <trkpt lat="45.33336" lon="6.18784">
        <ele>2290.8000488281</ele>
        <time>2012-02-12T16:23:26.000Z</time>
      </trkpt>
      <trkpt lat="45.33339" lon="6.18784">
        <ele>2292.8000488281</ele>
        <time>2012-02-12T16:23:37.000Z</time>
      </trkpt>
      <trkpt lat="45.33339" lon="6.18785">
        <ele>2294</ele>
        <time>2012-02-12T16:23:40.000Z</time>
      </trkpt>
      <trkpt lat="45.33341" lon="6.18783">
        <ele>2291</ele>
        <time>2012-02-12T16:23:56.000Z</time>
      </trkpt>
      <trkpt lat="45.33341" lon="6.18783">
        <ele>2294.8000488281</ele>
        <time>2012-02-12T16:24:06.000Z</time>
      </trkpt>
      <trkpt lat="45.33341" lon="6.18783">
        <ele>2293.1999511719</ele>
        <time>2012-02-12T16:24:08.000Z</time>
      </trkpt>
      <trkpt lat="45.33337" lon="6.18787">
        <ele>2293.3999023438</ele>
        <time>2012-02-12T16:24:47.000Z</time>
      </trkpt>
      <trkpt lat="45.33334" lon="6.18787">
        <ele>2291.8000488281</ele>
        <time>2012-02-12T16:24:54.000Z</time>
      </trkpt>
      <trkpt lat="45.33337" lon="6.18786">
        <ele>2293.6000976562</ele>
        <time>2012-02-12T16:27:57.000Z</time>
      </trkpt>
      <trkpt lat="45.3334" lon="6.18795">
        <ele>2292.3999023438</ele>
        <time>2012-02-12T16:28:02.000Z</time>
      </trkpt>
      <trkpt lat="45.33337" lon="6.18796">
        <ele>2290.8000488281</ele>
        <time>2012-02-12T16:28:17.000Z</time>
      </trkpt>
      <trkpt lat="45.33331" lon="6.18797">
        <ele>2289</ele>
        <time>2012-02-12T16:28:21.000Z</time>
      </trkpt>
      <trkpt lat="45.33327" lon="6.18803">
        <ele>2286.8000488281</ele>
        <time>2012-02-12T16:28:24.000Z</time>
      </trkpt>
      <trkpt lat="45.33329" lon="6.18808">
        <ele>2283.1999511719</ele>
        <time>2012-02-12T16:28:27.000Z</time>
      </trkpt>
      <trkpt lat="45.33335" lon="6.18813">
        <ele>2281.6000976562</ele>
        <time>2012-02-12T16:28:33.000Z</time>
      </trkpt>
      <trkpt lat="45.33342" lon="6.18819">
        <ele>2279.6000976562</ele>
        <time>2012-02-12T16:28:37.000Z</time>
      </trkpt>
      <trkpt lat="45.33344" lon="6.18817">
        <ele>2279.1999511719</ele>
        <time>2012-02-12T16:28:47.000Z</time>
      </trkpt>
      <trkpt lat="45.33341" lon="6.1882">
        <ele>2278.3999023438</ele>
        <time>2012-02-12T16:28:51.000Z</time>
      </trkpt>
      <trkpt lat="45.33337" lon="6.18821">
        <ele>2275.6000976562</ele>
        <time>2012-02-12T16:28:58.000Z</time>
      </trkpt>
      <trkpt lat="45.33336" lon="6.18821">
        <ele>2275</ele>
        <time>2012-02-12T16:29:01.000Z</time>
      </trkpt>
      <trkpt lat="45.33335" lon="6.18828">
        <ele>2274.6000976562</ele>
        <time>2012-02-12T16:29:04.000Z</time>
      </trkpt>
      <trkpt lat="45.33336" lon="6.18832">
        <ele>2273.1999511719</ele>
        <time>2012-02-12T16:29:05.000Z</time>
      </trkpt>
      <trkpt lat="45.33345" lon="6.1885">
        <ele>2267.8000488281</ele>
        <time>2012-02-12T16:29:11.000Z</time>
      </trkpt>
      <trkpt lat="45.33346" lon="6.1885">
        <ele>2267.3999023438</ele>
        <time>2012-02-12T16:29:12.000Z</time>
      </trkpt>
      <trkpt lat="45.33347" lon="6.18853">
        <ele>2266.1999511719</ele>
        <time>2012-02-12T16:29:14.000Z</time>
      </trkpt>
      <trkpt lat="45.33341" lon="6.18855">
        <ele>2267.1999511719</ele>
        <time>2012-02-12T16:29:18.000Z</time>
      </trkpt>
      <trkpt lat="45.33326" lon="6.18847">
        <ele>2260</ele>
        <time>2012-02-12T16:29:23.000Z</time>
      </trkpt>
      <trkpt lat="45.33317" lon="6.18842">
        <ele>2255.6000976562</ele>
        <time>2012-02-12T16:29:27.000Z</time>
      </trkpt>
      <trkpt lat="45.33318" lon="6.1884">
        <ele>2256.3999023438</ele>
        <time>2012-02-12T16:29:30.000Z</time>
      </trkpt>
      <trkpt lat="45.33318" lon="6.18852">
        <ele>2253.3999023438</ele>
        <time>2012-02-12T16:29:34.000Z</time>
      </trkpt>
      <trkpt lat="45.3332" lon="6.18855">
        <ele>2252.1999511719</ele>
        <time>2012-02-12T16:29:37.000Z</time>
      </trkpt>
      <trkpt lat="45.33321" lon="6.18857">
        <ele>2252.1999511719</ele>
        <time>2012-02-12T16:29:38.000Z</time>
      </trkpt>
      <trkpt lat="45.33316" lon="6.18859">
        <ele>2250.6000976562</ele>
        <time>2012-02-12T16:29:42.000Z</time>
      </trkpt>
      <trkpt lat="45.33316" lon="6.18862">
        <ele>2250.1999511719</ele>
        <time>2012-02-12T16:29:43.000Z</time>
      </trkpt>
      <trkpt lat="45.33316" lon="6.18864">
        <ele>2249.1999511719</ele>
        <time>2012-02-12T16:29:45.000Z</time>
      </trkpt>
      <trkpt lat="45.33314" lon="6.18869">
        <ele>2245.1999511719</ele>
        <time>2012-02-12T16:29:49.000Z</time>
      </trkpt>
      <trkpt lat="45.33314" lon="6.18871">
        <ele>2245</ele>
        <time>2012-02-12T16:29:57.000Z</time>
      </trkpt>
      <trkpt lat="45.3331" lon="6.18875">
        <ele>2239</ele>
        <time>2012-02-12T16:30:02.000Z</time>
      </trkpt>
      <trkpt lat="45.3331" lon="6.18873">
        <ele>2239.3999023438</ele>
        <time>2012-02-12T16:30:03.000Z</time>
      </trkpt>
      <trkpt lat="45.3331" lon="6.18872">
        <ele>2241</ele>
        <time>2012-02-12T16:30:09.000Z</time>
      </trkpt>
      <trkpt lat="45.333" lon="6.18865">
        <ele>2239.6000976562</ele>
        <time>2012-02-12T16:30:13.000Z</time>
      </trkpt>
      <trkpt lat="45.33293" lon="6.18864">
        <ele>2238.3999023438</ele>
        <time>2012-02-12T16:30:17.000Z</time>
      </trkpt>
      <trkpt lat="45.33292" lon="6.18866">
        <ele>2237.8000488281</ele>
        <time>2012-02-12T16:30:22.000Z</time>
      </trkpt>
      <trkpt lat="45.33295" lon="6.18875">
        <ele>2234</ele>
        <time>2012-02-12T16:30:27.000Z</time>
      </trkpt>
      <trkpt lat="45.33296" lon="6.18876">
        <ele>2234</ele>
        <time>2012-02-12T16:30:28.000Z</time>
      </trkpt>
      <trkpt lat="45.33297" lon="6.18876">
        <ele>2233.8000488281</ele>
        <time>2012-02-12T16:30:29.000Z</time>
      </trkpt>
      <trkpt lat="45.3329" lon="6.1888">
        <ele>2230</ele>
        <time>2012-02-12T16:30:33.000Z</time>
      </trkpt>
      <trkpt lat="45.33286" lon="6.18881">
        <ele>2229.3999023438</ele>
        <time>2012-02-12T16:30:35.000Z</time>
      </trkpt>
      <trkpt lat="45.33281" lon="6.18884">
        <ele>2228.1999511719</ele>
        <time>2012-02-12T16:30:39.000Z</time>
      </trkpt>
      <trkpt lat="45.33277" lon="6.1888">
        <ele>2227</ele>
        <time>2012-02-12T16:30:48.000Z</time>
      </trkpt>
      <trkpt lat="45.33269" lon="6.18882">
        <ele>2225.1999511719</ele>
        <time>2012-02-12T16:31:33.000Z</time>
      </trkpt>
      <trkpt lat="45.33267" lon="6.18881">
        <ele>2224.1999511719</ele>
        <time>2012-02-12T16:31:37.000Z</time>
      </trkpt>
      <trkpt lat="45.33262" lon="6.18879">
        <ele>2223.8000488281</ele>
        <time>2012-02-12T16:31:40.000Z</time>
      </trkpt>
      <trkpt lat="45.33252" lon="6.18872">
        <ele>2221.1999511719</ele>
        <time>2012-02-12T16:31:44.000Z</time>
      </trkpt>
      <trkpt lat="45.33246" lon="6.18869">
        <ele>2217.6000976562</ele>
        <time>2012-02-12T16:31:49.000Z</time>
      </trkpt>
      <trkpt lat="45.33246" lon="6.18876">
        <ele>2216.1999511719</ele>
        <time>2012-02-12T16:32:01.000Z</time>
      </trkpt>
      <trkpt lat="45.33245" lon="6.18886">
        <ele>2214.6000976562</ele>
        <time>2012-02-12T16:32:05.000Z</time>
      </trkpt>
      <trkpt lat="45.33244" lon="6.18886">
        <ele>2214</ele>
        <time>2012-02-12T16:32:06.000Z</time>
      </trkpt>
      <trkpt lat="45.33243" lon="6.18899">
        <ele>2212.8000488281</ele>
        <time>2012-02-12T16:32:10.000Z</time>
      </trkpt>
      <trkpt lat="45.3324" lon="6.18902">
        <ele>2211.8000488281</ele>
        <time>2012-02-12T16:32:13.000Z</time>
      </trkpt>
      <trkpt lat="45.33241" lon="6.18891">
        <ele>2206.3999023438</ele>
        <time>2012-02-12T16:32:19.000Z</time>
      </trkpt>
      <trkpt lat="45.33241" lon="6.18896">
        <ele>2205.3999023438</ele>
        <time>2012-02-12T16:32:39.000Z</time>
      </trkpt>
      <trkpt lat="45.33237" lon="6.18912">
        <ele>2204.6000976562</ele>
        <time>2012-02-12T16:32:43.000Z</time>
      </trkpt>
      <trkpt lat="45.33235" lon="6.18918">
        <ele>2204.6000976562</ele>
        <time>2012-02-12T16:32:45.000Z</time>
      </trkpt>
      <trkpt lat="45.33221" lon="6.18928">
        <ele>2188.3999023438</ele>
        <time>2012-02-12T16:32:50.000Z</time>
      </trkpt>
      <trkpt lat="45.33218" lon="6.18933">
        <ele>2184.1999511719</ele>
        <time>2012-02-12T16:32:53.000Z</time>
      </trkpt>
      <trkpt lat="45.33222" lon="6.18937">
        <ele>2180.3999023438</ele>
        <time>2012-02-12T16:32:56.000Z</time>
      </trkpt>
      <trkpt lat="45.33221" lon="6.18942">
        <ele>2179.1999511719</ele>
        <time>2012-02-12T16:32:58.000Z</time>
      </trkpt>
      <trkpt lat="45.33217" lon="6.18942">
        <ele>2177.8000488281</ele>
        <time>2012-02-12T16:33:03.000Z</time>
      </trkpt>
      <trkpt lat="45.33212" lon="6.18935">
        <ele>2175.6000976562</ele>
        <time>2012-02-12T16:33:08.000Z</time>
      </trkpt>
      <trkpt lat="45.33211" lon="6.18926">
        <ele>2175</ele>
        <time>2012-02-12T16:33:19.000Z</time>
      </trkpt>
      <trkpt lat="45.3321" lon="6.18923">
        <ele>2175.1999511719</ele>
        <time>2012-02-12T16:33:42.000Z</time>
      </trkpt>
      <trkpt lat="45.33206" lon="6.18942">
        <ele>2172.8000488281</ele>
        <time>2012-02-12T16:33:46.000Z</time>
      </trkpt>
      <trkpt lat="45.33203" lon="6.18955">
        <ele>2171.3999023438</ele>
        <time>2012-02-12T16:33:48.000Z</time>
      </trkpt>
      <trkpt lat="45.33202" lon="6.18962">
        <ele>2171</ele>
        <time>2012-02-12T16:33:49.000Z</time>
      </trkpt>
      <trkpt lat="45.33196" lon="6.1898">
        <ele>2165.3999023438</ele>
        <time>2012-02-12T16:33:52.000Z</time>
      </trkpt>
      <trkpt lat="45.33204" lon="6.18985">
        <ele>2162.1999511719</ele>
        <time>2012-02-12T16:33:55.000Z</time>
      </trkpt>
      <trkpt lat="45.33207" lon="6.18981">
        <ele>2161.1999511719</ele>
        <time>2012-02-12T16:33:59.000Z</time>
      </trkpt>
      <trkpt lat="45.33221" lon="6.18961">
        <ele>2161</ele>
        <time>2012-02-12T16:35:19.000Z</time>
      </trkpt>
      <trkpt lat="45.33217" lon="6.18977">
        <ele>2160.1999511719</ele>
        <time>2012-02-12T16:35:23.000Z</time>
      </trkpt>
      <trkpt lat="45.33214" lon="6.18994">
        <ele>2158.3999023438</ele>
        <time>2012-02-12T16:35:25.000Z</time>
      </trkpt>
      <trkpt lat="45.33211" lon="6.19019">
        <ele>2154.6000976562</ele>
        <time>2012-02-12T16:35:28.000Z</time>
      </trkpt>
      <trkpt lat="45.33205" lon="6.19042">
        <ele>2150.1999511719</ele>
        <time>2012-02-12T16:35:31.000Z</time>
      </trkpt>
      <trkpt lat="45.332" lon="6.19058">
        <ele>2143.6000976562</ele>
        <time>2012-02-12T16:35:35.000Z</time>
      </trkpt>
      <trkpt lat="45.33214" lon="6.19027">
        <ele>2142.3999023438</ele>
        <time>2012-02-12T16:36:02.000Z</time>
      </trkpt>
      <trkpt lat="45.33217" lon="6.19023">
        <ele>2142.1999511719</ele>
        <time>2012-02-12T16:36:08.000Z</time>
      </trkpt>
      <trkpt lat="45.33216" lon="6.19032">
        <ele>2142.1999511719</ele>
        <time>2012-02-12T16:36:26.000Z</time>
      </trkpt>
      <trkpt lat="45.33213" lon="6.19046">
        <ele>2141.3999023438</ele>
        <time>2012-02-12T16:36:30.000Z</time>
      </trkpt>
      <trkpt lat="45.33205" lon="6.19084">
        <ele>2135.3999023438</ele>
        <time>2012-02-12T16:36:35.000Z</time>
      </trkpt>
      <trkpt lat="45.33203" lon="6.19095">
        <ele>2133.3999023438</ele>
        <time>2012-02-12T16:36:36.000Z</time>
      </trkpt>
      <trkpt lat="45.33199" lon="6.19116">
        <ele>2130.3999023438</ele>
        <time>2012-02-12T16:36:38.000Z</time>
      </trkpt>
      <trkpt lat="45.33194" lon="6.19169">
        <ele>2120.8000488281</ele>
        <time>2012-02-12T16:36:42.000Z</time>
      </trkpt>
      <trkpt lat="45.33193" lon="6.19193">
        <ele>2117.6000976562</ele>
        <time>2012-02-12T16:36:45.000Z</time>
      </trkpt>
      <trkpt lat="45.3318" lon="6.19203">
        <ele>2115.6000976562</ele>
        <time>2012-02-12T16:36:48.000Z</time>
      </trkpt>
      <trkpt lat="45.33177" lon="6.19206">
        <ele>2112.6000976562</ele>
        <time>2012-02-12T16:36:51.000Z</time>
      </trkpt>
      <trkpt lat="45.33178" lon="6.19199">
        <ele>2112</ele>
        <time>2012-02-12T16:36:53.000Z</time>
      </trkpt>
      <trkpt lat="45.33176" lon="6.1919">
        <ele>2112.3999023438</ele>
        <time>2012-02-12T16:37:00.000Z</time>
      </trkpt>
      <trkpt lat="45.33172" lon="6.1919">
        <ele>2112.6000976562</ele>
        <time>2012-02-12T16:37:07.000Z</time>
      </trkpt>
      <trkpt lat="45.33167" lon="6.19203">
        <ele>2113.1999511719</ele>
        <time>2012-02-12T16:37:20.000Z</time>
      </trkpt>
      <trkpt lat="45.33168" lon="6.19201">
        <ele>2113.1999511719</ele>
        <time>2012-02-12T16:37:26.000Z</time>
      </trkpt>
      <trkpt lat="45.33168" lon="6.19199">
        <ele>2113.6000976562</ele>
        <time>2012-02-12T16:37:33.000Z</time>
      </trkpt>
      <trkpt lat="45.33172" lon="6.19206">
        <ele>2113.8000488281</ele>
        <time>2012-02-12T16:38:23.000Z</time>
      </trkpt>
      <trkpt lat="45.33171" lon="6.19208">
        <ele>2113.6000976562</ele>
        <time>2012-02-12T16:38:27.000Z</time>
      </trkpt>
      <trkpt lat="45.33164" lon="6.19217">
        <ele>2112.3999023438</ele>
        <time>2012-02-12T16:38:35.000Z</time>
      </trkpt>
      <trkpt lat="45.33159" lon="6.19221">
        <ele>2111.6000976562</ele>
        <time>2012-02-12T16:38:42.000Z</time>
      </trkpt>
      <trkpt lat="45.33148" lon="6.19238">
        <ele>2109.3999023438</ele>
        <time>2012-02-12T16:38:45.000Z</time>
      </trkpt>
      <trkpt lat="45.33139" lon="6.19261">
        <ele>2105.3999023438</ele>
        <time>2012-02-12T16:38:48.000Z</time>
      </trkpt>
      <trkpt lat="45.33131" lon="6.19282">
        <ele>2102.3999023438</ele>
        <time>2012-02-12T16:38:52.000Z</time>
      </trkpt>
      <trkpt lat="45.33126" lon="6.19292">
        <ele>2100</ele>
        <time>2012-02-12T16:38:55.000Z</time>
      </trkpt>
      <trkpt lat="45.33127" lon="6.19303">
        <ele>2098.3999023438</ele>
        <time>2012-02-12T16:38:58.000Z</time>
      </trkpt>
      <trkpt lat="45.33125" lon="6.19321">
        <ele>2095.1999511719</ele>
        <time>2012-02-12T16:39:01.000Z</time>
      </trkpt>
      <trkpt lat="45.33124" lon="6.19328">
        <ele>2094.1999511719</ele>
        <time>2012-02-12T16:39:02.000Z</time>
      </trkpt>
      <trkpt lat="45.33108" lon="6.19358">
        <ele>2087.6000976562</ele>
        <time>2012-02-12T16:39:08.000Z</time>
      </trkpt>
      <trkpt lat="45.33102" lon="6.19363">
        <ele>2085.8000488281</ele>
        <time>2012-02-12T16:39:09.000Z</time>
      </trkpt>
      <trkpt lat="45.33082" lon="6.19379">
        <ele>2081</ele>
        <time>2012-02-12T16:39:15.000Z</time>
      </trkpt>
      <trkpt lat="45.33082" lon="6.19381">
        <ele>2081</ele>
        <time>2012-02-12T16:39:17.000Z</time>
      </trkpt>
      <trkpt lat="45.33088" lon="6.19384">
        <ele>2079.3999023438</ele>
        <time>2012-02-12T16:39:22.000Z</time>
      </trkpt>
      <trkpt lat="45.3309" lon="6.19383">
        <ele>2078.3999023438</ele>
        <time>2012-02-12T16:39:25.000Z</time>
      </trkpt>
      <trkpt lat="45.33092" lon="6.19383">
        <ele>2077.8000488281</ele>
        <time>2012-02-12T16:39:28.000Z</time>
      </trkpt>
      <trkpt lat="45.33099" lon="6.19388">
        <ele>2076.3999023438</ele>
        <time>2012-02-12T16:39:34.000Z</time>
      </trkpt>
      <trkpt lat="45.33103" lon="6.19386">
        <ele>2076</ele>
        <time>2012-02-12T16:39:42.000Z</time>
      </trkpt>
      <trkpt lat="45.33108" lon="6.19399">
        <ele>2074.6000976562</ele>
        <time>2012-02-12T16:39:46.000Z</time>
      </trkpt>
      <trkpt lat="45.33109" lon="6.19404">
        <ele>2074.1999511719</ele>
        <time>2012-02-12T16:39:47.000Z</time>
      </trkpt>
      <trkpt lat="45.33106" lon="6.19422">
        <ele>2069.1999511719</ele>
        <time>2012-02-12T16:39:51.000Z</time>
      </trkpt>
      <trkpt lat="45.33097" lon="6.19438">
        <ele>2065.1999511719</ele>
        <time>2012-02-12T16:39:54.000Z</time>
      </trkpt>
      <trkpt lat="45.33084" lon="6.19455">
        <ele>2061.6000976562</ele>
        <time>2012-02-12T16:39:58.000Z</time>
      </trkpt>
      <trkpt lat="45.33079" lon="6.19466">
        <ele>2059.1999511719</ele>
        <time>2012-02-12T16:40:00.000Z</time>
      </trkpt>
      <trkpt lat="45.33076" lon="6.19479">
        <ele>2057</ele>
        <time>2012-02-12T16:40:05.000Z</time>
      </trkpt>
      <trkpt lat="45.33075" lon="6.19457">
        <ele>2055</ele>
        <time>2012-02-12T16:41:21.000Z</time>
      </trkpt>
      <trkpt lat="45.33066" lon="6.19461">
        <ele>2054</ele>
        <time>2012-02-12T16:41:26.000Z</time>
      </trkpt>
      <trkpt lat="45.33051" lon="6.19458">
        <ele>2051.6000976562</ele>
        <time>2012-02-12T16:41:30.000Z</time>
      </trkpt>
      <trkpt lat="45.33035" lon="6.1946">
        <ele>2049</ele>
        <time>2012-02-12T16:41:34.000Z</time>
      </trkpt>
      <trkpt lat="45.33029" lon="6.19461">
        <ele>2048.1999511719</ele>
        <time>2012-02-12T16:41:36.000Z</time>
      </trkpt>
      <trkpt lat="45.3302" lon="6.19461">
        <ele>2046.8000488281</ele>
        <time>2012-02-12T16:41:39.000Z</time>
      </trkpt>
      <trkpt lat="45.33011" lon="6.19467">
        <ele>2044</ele>
        <time>2012-02-12T16:41:44.000Z</time>
      </trkpt>
      <trkpt lat="45.33001" lon="6.19469">
        <ele>2042.1999511719</ele>
        <time>2012-02-12T16:41:48.000Z</time>
      </trkpt>
      <trkpt lat="45.33002" lon="6.19478">
        <ele>2039.8000488281</ele>
        <time>2012-02-12T16:41:51.000Z</time>
      </trkpt>
      <trkpt lat="45.33005" lon="6.19489">
        <ele>2038</ele>
        <time>2012-02-12T16:41:54.000Z</time>
      </trkpt>
      <trkpt lat="45.33009" lon="6.19495">
        <ele>2037</ele>
        <time>2012-02-12T16:41:56.000Z</time>
      </trkpt>
      <trkpt lat="45.33003" lon="6.19494">
        <ele>2034.4000244141</ele>
        <time>2012-02-12T16:42:00.000Z</time>
      </trkpt>
      <trkpt lat="45.32997" lon="6.19499">
        <ele>2033.1999511719</ele>
        <time>2012-02-12T16:42:03.000Z</time>
      </trkpt>
      <trkpt lat="45.32997" lon="6.19515">
        <ele>2029.5999755859</ele>
        <time>2012-02-12T16:42:06.000Z</time>
      </trkpt>
      <trkpt lat="45.32988" lon="6.19521">
        <ele>2026.4000244141</ele>
        <time>2012-02-12T16:42:09.000Z</time>
      </trkpt>
      <trkpt lat="45.32988" lon="6.19533">
        <ele>2022.8000488281</ele>
        <time>2012-02-12T16:42:12.000Z</time>
      </trkpt>
      <trkpt lat="45.32987" lon="6.19538">
        <ele>2022.5999755859</ele>
        <time>2012-02-12T16:42:13.000Z</time>
      </trkpt>
      <trkpt lat="45.32978" lon="6.19539">
        <ele>2024.4000244141</ele>
        <time>2012-02-12T16:42:16.000Z</time>
      </trkpt>
      <trkpt lat="45.32979" lon="6.19541">
        <ele>2024.5999755859</ele>
        <time>2012-02-12T16:42:17.000Z</time>
      </trkpt>
      <trkpt lat="45.3298" lon="6.19538">
        <ele>2016.4000244141</ele>
        <time>2012-02-12T16:42:21.000Z</time>
      </trkpt>
      <trkpt lat="45.3298" lon="6.19536">
        <ele>2014.8000488281</ele>
        <time>2012-02-12T16:42:23.000Z</time>
      </trkpt>
      <trkpt lat="45.32977" lon="6.1953">
        <ele>2016.5999755859</ele>
        <time>2012-02-12T16:43:01.000Z</time>
      </trkpt>
      <trkpt lat="45.32981" lon="6.19521">
        <ele>2016.8000488281</ele>
        <time>2012-02-12T16:43:05.000Z</time>
      </trkpt>
      <trkpt lat="45.32984" lon="6.19512">
        <ele>2016.4000244141</ele>
        <time>2012-02-12T16:43:16.000Z</time>
      </trkpt>
      <trkpt lat="45.32986" lon="6.19525">
        <ele>2015</ele>
        <time>2012-02-12T16:43:20.000Z</time>
      </trkpt>
      <trkpt lat="45.32986" lon="6.19526">
        <ele>2014.8000488281</ele>
        <time>2012-02-12T16:43:21.000Z</time>
      </trkpt>
      <trkpt lat="45.32986" lon="6.19527">
        <ele>2012</ele>
        <time>2012-02-12T16:43:24.000Z</time>
      </trkpt>
      <trkpt lat="45.32984" lon="6.19536">
        <ele>2015.1999511719</ele>
        <time>2012-02-12T16:43:31.000Z</time>
      </trkpt>
      <trkpt lat="45.32985" lon="6.19542">
        <ele>2013.8000488281</ele>
        <time>2012-02-12T16:43:34.000Z</time>
      </trkpt>
      <trkpt lat="45.32985" lon="6.19558">
        <ele>2012.4000244141</ele>
        <time>2012-02-12T16:43:41.000Z</time>
      </trkpt>
      <trkpt lat="45.32981" lon="6.19574">
        <ele>2009.8000488281</ele>
        <time>2012-02-12T16:43:45.000Z</time>
      </trkpt>
      <trkpt lat="45.32977" lon="6.19585">
        <ele>2007.8000488281</ele>
        <time>2012-02-12T16:43:47.000Z</time>
      </trkpt>
      <trkpt lat="45.32966" lon="6.19593">
        <ele>2005.1999511719</ele>
        <time>2012-02-12T16:43:51.000Z</time>
      </trkpt>
      <trkpt lat="45.32958" lon="6.19607">
        <ele>2001.4000244141</ele>
        <time>2012-02-12T16:43:54.000Z</time>
      </trkpt>
      <trkpt lat="45.32954" lon="6.19619">
        <ele>1998</ele>
        <time>2012-02-12T16:43:57.000Z</time>
      </trkpt>
      <trkpt lat="45.3295" lon="6.19625">
        <ele>1995.8000488281</ele>
        <time>2012-02-12T16:43:59.000Z</time>
      </trkpt>
      <trkpt lat="45.32946" lon="6.19647">
        <ele>1991.5999755859</ele>
        <time>2012-02-12T16:44:03.000Z</time>
      </trkpt>
      <trkpt lat="45.32943" lon="6.19674">
        <ele>1987</ele>
        <time>2012-02-12T16:44:08.000Z</time>
      </trkpt>
      <trkpt lat="45.32942" lon="6.19693">
        <ele>1984.1999511719</ele>
        <time>2012-02-12T16:44:15.000Z</time>
      </trkpt>
      <trkpt lat="45.32941" lon="6.19698">
        <ele>1983.8000488281</ele>
        <time>2012-02-12T16:44:20.000Z</time>
      </trkpt>
      <trkpt lat="45.32939" lon="6.19708">
        <ele>1984.8000488281</ele>
        <time>2012-02-12T16:45:02.000Z</time>
      </trkpt>
      <trkpt lat="45.32931" lon="6.19714">
        <ele>1983.4000244141</ele>
        <time>2012-02-12T16:45:07.000Z</time>
      </trkpt>
      <trkpt lat="45.32921" lon="6.1973">
        <ele>1980.1999511719</ele>
        <time>2012-02-12T16:45:10.000Z</time>
      </trkpt>
      <trkpt lat="45.32919" lon="6.19735">
        <ele>1979.5999755859</ele>
        <time>2012-02-12T16:45:11.000Z</time>
      </trkpt>
      <trkpt lat="45.32915" lon="6.19756">
        <ele>1975.8000488281</ele>
        <time>2012-02-12T16:45:16.000Z</time>
      </trkpt>
      <trkpt lat="45.32912" lon="6.19772">
        <ele>1973.1999511719</ele>
        <time>2012-02-12T16:45:19.000Z</time>
      </trkpt>
      <trkpt lat="45.32912" lon="6.1978">
        <ele>1971.8000488281</ele>
        <time>2012-02-12T16:45:23.000Z</time>
      </trkpt>
      <trkpt lat="45.3291" lon="6.19786">
        <ele>1970.5999755859</ele>
        <time>2012-02-12T16:45:27.000Z</time>
      </trkpt>
      <trkpt lat="45.32908" lon="6.19814">
        <ele>1966.1999511719</ele>
        <time>2012-02-12T16:45:33.000Z</time>
      </trkpt>
      <trkpt lat="45.32907" lon="6.19821">
        <ele>1965.4000244141</ele>
        <time>2012-02-12T16:45:35.000Z</time>
      </trkpt>
      <trkpt lat="45.32905" lon="6.19841">
        <ele>1962.4000244141</ele>
        <time>2012-02-12T16:45:39.000Z</time>
      </trkpt>
      <trkpt lat="45.32906" lon="6.19844">
        <ele>1962.1999511719</ele>
        <time>2012-02-12T16:45:40.000Z</time>
      </trkpt>
      <trkpt lat="45.32906" lon="6.19842">
        <ele>1961.4000244141</ele>
        <time>2012-02-12T16:45:46.000Z</time>
      </trkpt>
      <trkpt lat="45.32906" lon="6.19842">
        <ele>1961.4000244141</ele>
        <time>2012-02-12T16:45:47.000Z</time>
      </trkpt>
      <trkpt lat="45.329" lon="6.19847">
        <ele>1960.1999511719</ele>
        <time>2012-02-12T16:45:51.000Z</time>
      </trkpt>
      <trkpt lat="45.32897" lon="6.19853">
        <ele>1959</ele>
        <time>2012-02-12T16:45:55.000Z</time>
      </trkpt>
      <trkpt lat="45.32893" lon="6.19866">
        <ele>1955.1999511719</ele>
        <time>2012-02-12T16:46:00.000Z</time>
      </trkpt>
      <trkpt lat="45.32888" lon="6.1988">
        <ele>1953</ele>
        <time>2012-02-12T16:46:02.000Z</time>
      </trkpt>
      <trkpt lat="45.32876" lon="6.19907">
        <ele>1948.4000244141</ele>
        <time>2012-02-12T16:46:06.000Z</time>
      </trkpt>
      <trkpt lat="45.32866" lon="6.19923">
        <ele>1945</ele>
        <time>2012-02-12T16:46:11.000Z</time>
      </trkpt>
      <trkpt lat="45.32864" lon="6.19926">
        <ele>1944.1999511719</ele>
        <time>2012-02-12T16:46:12.000Z</time>
      </trkpt>
      <trkpt lat="45.32856" lon="6.19949">
        <ele>1939.4000244141</ele>
        <time>2012-02-12T16:46:17.000Z</time>
      </trkpt>
      <trkpt lat="45.32853" lon="6.19959">
        <ele>1937.8000488281</ele>
        <time>2012-02-12T16:46:20.000Z</time>
      </trkpt>
      <trkpt lat="45.32852" lon="6.19967">
        <ele>1935.8000488281</ele>
        <time>2012-02-12T16:46:24.000Z</time>
      </trkpt>
      <trkpt lat="45.32853" lon="6.19965">
        <ele>1935.1999511719</ele>
        <time>2012-02-12T16:46:32.000Z</time>
      </trkpt>
      <trkpt lat="45.32857" lon="6.19957">
        <ele>1935.1999511719</ele>
        <time>2012-02-12T16:47:06.000Z</time>
      </trkpt>
      <trkpt lat="45.32853" lon="6.19965">
        <ele>1935.4000244141</ele>
        <time>2012-02-12T16:47:22.000Z</time>
      </trkpt>
      <trkpt lat="45.32847" lon="6.19983">
        <ele>1932.8000488281</ele>
        <time>2012-02-12T16:47:26.000Z</time>
      </trkpt>
      <trkpt lat="45.32836" lon="6.20024">
        <ele>1926.5999755859</ele>
        <time>2012-02-12T16:47:34.000Z</time>
      </trkpt>
      <trkpt lat="45.32828" lon="6.2006">
        <ele>1921.1999511719</ele>
        <time>2012-02-12T16:47:41.000Z</time>
      </trkpt>
      <trkpt lat="45.32825" lon="6.2007">
        <ele>1918.5999755859</ele>
        <time>2012-02-12T16:47:46.000Z</time>
      </trkpt>
      <trkpt lat="45.32822" lon="6.2008">
        <ele>1918</ele>
        <time>2012-02-12T16:47:58.000Z</time>
      </trkpt>
      <trkpt lat="45.32818" lon="6.20098">
        <ele>1915.4000244141</ele>
        <time>2012-02-12T16:48:03.000Z</time>
      </trkpt>
      <trkpt lat="45.32817" lon="6.20105">
        <ele>1914.4000244141</ele>
        <time>2012-02-12T16:48:04.000Z</time>
      </trkpt>
      <trkpt lat="45.32804" lon="6.2015">
        <ele>1908.8000488281</ele>
        <time>2012-02-12T16:48:11.000Z</time>
      </trkpt>
      <trkpt lat="45.32793" lon="6.20186">
        <ele>1903.8000488281</ele>
        <time>2012-02-12T16:48:16.000Z</time>
      </trkpt>
      <trkpt lat="45.32781" lon="6.20219">
        <ele>1900</ele>
        <time>2012-02-12T16:48:21.000Z</time>
      </trkpt>
      <trkpt lat="45.32767" lon="6.20259">
        <ele>1895.8000488281</ele>
        <time>2012-02-12T16:48:27.000Z</time>
      </trkpt>
      <trkpt lat="45.32757" lon="6.20284">
        <ele>1894</ele>
        <time>2012-02-12T16:48:32.000Z</time>
      </trkpt>
      <trkpt lat="45.32752" lon="6.20298">
        <ele>1891.4000244141</ele>
        <time>2012-02-12T16:48:38.000Z</time>
      </trkpt>
      <trkpt lat="45.32752" lon="6.20298">
        <ele>1891.1999511719</ele>
        <time>2012-02-12T16:48:39.000Z</time>
      </trkpt>
      <trkpt lat="45.32751" lon="6.20301">
        <ele>1892.5999755859</ele>
        <time>2012-02-12T16:48:43.000Z</time>
      </trkpt>
      <trkpt lat="45.32753" lon="6.20306">
        <ele>1893.1999511719</ele>
        <time>2012-02-12T16:49:55.000Z</time>
      </trkpt>
      <trkpt lat="45.32752" lon="6.20318">
        <ele>1892.5999755859</ele>
        <time>2012-02-12T16:50:02.000Z</time>
      </trkpt>
      <trkpt lat="45.32751" lon="6.20341">
        <ele>1891</ele>
        <time>2012-02-12T16:50:07.000Z</time>
      </trkpt>
      <trkpt lat="45.32749" lon="6.20348">
        <ele>1891</ele>
        <time>2012-02-12T16:50:08.000Z</time>
      </trkpt>
      <trkpt lat="45.32746" lon="6.20362">
        <ele>1889.8000488281</ele>
        <time>2012-02-12T16:50:10.000Z</time>
      </trkpt>
      <trkpt lat="45.32742" lon="6.20386">
        <ele>1886.1999511719</ele>
        <time>2012-02-12T16:50:14.000Z</time>
      </trkpt>
      <trkpt lat="45.32737" lon="6.20425">
        <ele>1882.4000244141</ele>
        <time>2012-02-12T16:50:19.000Z</time>
      </trkpt>
      <trkpt lat="45.3273" lon="6.20449">
        <ele>1880.4000244141</ele>
        <time>2012-02-12T16:50:23.000Z</time>
      </trkpt>
      <trkpt lat="45.32722" lon="6.20464">
        <ele>1878.5999755859</ele>
        <time>2012-02-12T16:50:27.000Z</time>
      </trkpt>
      <trkpt lat="45.32709" lon="6.20497">
        <ele>1874.1999511719</ele>
        <time>2012-02-12T16:50:32.000Z</time>
      </trkpt>
      <trkpt lat="45.32696" lon="6.20523">
        <ele>1870.4000244141</ele>
        <time>2012-02-12T16:50:37.000Z</time>
      </trkpt>
      <trkpt lat="45.32691" lon="6.20539">
        <ele>1869.1999511719</ele>
        <time>2012-02-12T16:50:40.000Z</time>
      </trkpt>
      <trkpt lat="45.32693" lon="6.20575">
        <ele>1865.8000488281</ele>
        <time>2012-02-12T16:50:45.000Z</time>
      </trkpt>
      <trkpt lat="45.32694" lon="6.20599">
        <ele>1863</ele>
        <time>2012-02-12T16:50:48.000Z</time>
      </trkpt>
      <trkpt lat="45.32695" lon="6.20627">
        <ele>1859.5999755859</ele>
        <time>2012-02-12T16:50:52.000Z</time>
      </trkpt>
      <trkpt lat="45.32694" lon="6.2065">
        <ele>1857</ele>
        <time>2012-02-12T16:50:55.000Z</time>
      </trkpt>
      <trkpt lat="45.32691" lon="6.20729">
        <ele>1847</ele>
        <time>2012-02-12T16:51:04.000Z</time>
      </trkpt>
      <trkpt lat="45.32683" lon="6.20783">
        <ele>1841.5999755859</ele>
        <time>2012-02-12T16:51:10.000Z</time>
      </trkpt>
      <trkpt lat="45.32674" lon="6.20842">
        <ele>1835.1999511719</ele>
        <time>2012-02-12T16:51:16.000Z</time>
      </trkpt>
      <trkpt lat="45.32665" lon="6.20922">
        <ele>1828.5999755859</ele>
        <time>2012-02-12T16:51:24.000Z</time>
      </trkpt>
      <trkpt lat="45.32663" lon="6.20955">
        <ele>1826.4000244141</ele>
        <time>2012-02-12T16:51:28.000Z</time>
      </trkpt>
      <trkpt lat="45.32662" lon="6.2099">
        <ele>1825</ele>
        <time>2012-02-12T16:51:34.000Z</time>
      </trkpt>
      <trkpt lat="45.32662" lon="6.21004">
        <ele>1826.4000244141</ele>
        <time>2012-02-12T16:51:37.000Z</time>
      </trkpt>
      <trkpt lat="45.32659" lon="6.21041">
        <ele>1825</ele>
        <time>2012-02-12T16:51:45.000Z</time>
      </trkpt>
      <trkpt lat="45.32658" lon="6.21065">
        <ele>1824.5999755859</ele>
        <time>2012-02-12T16:51:53.000Z</time>
      </trkpt>
      <trkpt lat="45.32657" lon="6.21068">
        <ele>1825</ele>
        <time>2012-02-12T16:51:58.000Z</time>
      </trkpt>
      <trkpt lat="45.32656" lon="6.21079">
        <ele>1825</ele>
        <time>2012-02-12T16:52:04.000Z</time>
      </trkpt>
      <trkpt lat="45.32656" lon="6.21097">
        <ele>1823.5999755859</ele>
        <time>2012-02-12T16:52:12.000Z</time>
      </trkpt>
      <trkpt lat="45.32656" lon="6.21115">
        <ele>1822.5999755859</ele>
        <time>2012-02-12T16:52:20.000Z</time>
      </trkpt>
      <trkpt lat="45.32656" lon="6.21124">
        <ele>1821.4000244141</ele>
        <time>2012-02-12T16:52:24.000Z</time>
      </trkpt>
      <trkpt lat="45.32655" lon="6.21124">
        <ele>1821.4000244141</ele>
        <time>2012-02-12T16:52:49.000Z</time>
      </trkpt>
      <trkpt lat="45.32657" lon="6.21125">
        <ele>1820.8000488281</ele>
        <time>2012-02-12T16:55:27.000Z</time>
      </trkpt>
      <trkpt lat="45.32657" lon="6.21135">
        <ele>1820.4000244141</ele>
        <time>2012-02-12T16:55:32.000Z</time>
      </trkpt>
      <trkpt lat="45.32653" lon="6.21163">
        <ele>1818.8000488281</ele>
        <time>2012-02-12T16:55:36.000Z</time>
      </trkpt>
      <trkpt lat="45.32649" lon="6.21189">
        <ele>1813.8000488281</ele>
        <time>2012-02-12T16:55:39.000Z</time>
      </trkpt>
      <trkpt lat="45.32645" lon="6.2121">
        <ele>1808.8000488281</ele>
        <time>2012-02-12T16:55:42.000Z</time>
      </trkpt>
      <trkpt lat="45.32643" lon="6.21227">
        <ele>1804.5999755859</ele>
        <time>2012-02-12T16:55:45.000Z</time>
      </trkpt>
      <trkpt lat="45.32636" lon="6.21232">
        <ele>1803.8000488281</ele>
        <time>2012-02-12T16:55:47.000Z</time>
      </trkpt>
      <trkpt lat="45.32625" lon="6.21244">
        <ele>1798.8000488281</ele>
        <time>2012-02-12T16:55:50.000Z</time>
      </trkpt>
      <trkpt lat="45.3262" lon="6.21253">
        <ele>1797.5999755859</ele>
        <time>2012-02-12T16:55:52.000Z</time>
      </trkpt>
      <trkpt lat="45.32612" lon="6.21266">
        <ele>1796</ele>
        <time>2012-02-12T16:55:55.000Z</time>
      </trkpt>
      <trkpt lat="45.32612" lon="6.21272">
        <ele>1794</ele>
        <time>2012-02-12T16:55:57.000Z</time>
      </trkpt>
      <trkpt lat="45.32606" lon="6.2128">
        <ele>1790.1999511719</ele>
        <time>2012-02-12T16:56:00.000Z</time>
      </trkpt>
      <trkpt lat="45.32599" lon="6.21296">
        <ele>1789</ele>
        <time>2012-02-12T16:56:03.000Z</time>
      </trkpt>
      <trkpt lat="45.32595" lon="6.21339">
        <ele>1779</ele>
        <time>2012-02-12T16:56:08.000Z</time>
      </trkpt>
      <trkpt lat="45.32572" lon="6.21395">
        <ele>1770.1999511719</ele>
        <time>2012-02-12T16:56:13.000Z</time>
      </trkpt>
      <trkpt lat="45.3257" lon="6.21416">
        <ele>1767.1999511719</ele>
        <time>2012-02-12T16:56:15.000Z</time>
      </trkpt>
      <trkpt lat="45.32566" lon="6.21447">
        <ele>1758.8000488281</ele>
        <time>2012-02-12T16:56:18.000Z</time>
      </trkpt>
      <trkpt lat="45.32548" lon="6.21518">
        <ele>1749.5999755859</ele>
        <time>2012-02-12T16:56:25.000Z</time>
      </trkpt>
      <trkpt lat="45.32549" lon="6.21559">
        <ele>1746</ele>
        <time>2012-02-12T16:56:30.000Z</time>
      </trkpt>
      <trkpt lat="45.32549" lon="6.21565">
        <ele>1746</ele>
        <time>2012-02-12T16:56:31.000Z</time>
      </trkpt>
      <trkpt lat="45.32556" lon="6.21604">
        <ele>1746</ele>
        <time>2012-02-12T16:56:38.000Z</time>
      </trkpt>
      <trkpt lat="45.32558" lon="6.21617">
        <ele>1745.8000488281</ele>
        <time>2012-02-12T16:56:44.000Z</time>
      </trkpt>
      <trkpt lat="45.32558" lon="6.21637">
        <ele>1746.4000244141</ele>
        <time>2012-02-12T16:56:52.000Z</time>
      </trkpt>
      <trkpt lat="45.3256" lon="6.21645">
        <ele>1746.1999511719</ele>
        <time>2012-02-12T16:56:58.000Z</time>
      </trkpt>
      <trkpt lat="45.3256" lon="6.21655">
        <ele>1746.1999511719</ele>
        <time>2012-02-12T16:57:03.000Z</time>
      </trkpt>
      <trkpt lat="45.3256" lon="6.2166">
        <ele>1746.1999511719</ele>
        <time>2012-02-12T16:57:05.000Z</time>
      </trkpt>
      <trkpt lat="45.32559" lon="6.21672">
        <ele>1746.4000244141</ele>
        <time>2012-02-12T16:57:12.000Z</time>
      </trkpt>
      <trkpt lat="45.32562" lon="6.21673">
        <ele>1746.8000488281</ele>
        <time>2012-02-12T16:57:19.000Z</time>
      </trkpt>
      <trkpt lat="45.32561" lon="6.21682">
        <ele>1747.1999511719</ele>
        <time>2012-02-12T16:57:24.000Z</time>
      </trkpt>
      <trkpt lat="45.32578" lon="6.21641">
        <ele>1748</ele>
        <time>2012-02-12T16:59:15.000Z</time>
      </trkpt>
      <trkpt lat="45.32576" lon="6.21663">
        <ele>1747.4000244141</ele>
        <time>2012-02-12T16:59:20.000Z</time>
      </trkpt>
      <trkpt lat="45.32572" lon="6.21685">
        <ele>1746.1999511719</ele>
        <time>2012-02-12T16:59:24.000Z</time>
      </trkpt>
      <trkpt lat="45.32565" lon="6.21717">
        <ele>1743.8000488281</ele>
        <time>2012-02-12T16:59:28.000Z</time>
      </trkpt>
      <trkpt lat="45.32559" lon="6.21733">
        <ele>1741</ele>
        <time>2012-02-12T16:59:31.000Z</time>
      </trkpt>
      <trkpt lat="45.32552" lon="6.21757">
        <ele>1736.4000244141</ele>
        <time>2012-02-12T16:59:34.000Z</time>
      </trkpt>
      <trkpt lat="45.32551" lon="6.21766">
        <ele>1735.5999755859</ele>
        <time>2012-02-12T16:59:35.000Z</time>
      </trkpt>
      <trkpt lat="45.32541" lon="6.21833">
        <ele>1725.5999755859</ele>
        <time>2012-02-12T16:59:42.000Z</time>
      </trkpt>
      <trkpt lat="45.32536" lon="6.21891">
        <ele>1720</ele>
        <time>2012-02-12T16:59:48.000Z</time>
      </trkpt>
      <trkpt lat="45.32532" lon="6.21927">
        <ele>1716.4000244141</ele>
        <time>2012-02-12T16:59:52.000Z</time>
      </trkpt>
      <trkpt lat="45.32521" lon="6.21967">
        <ele>1714.4000244141</ele>
        <time>2012-02-12T16:59:57.000Z</time>
      </trkpt>
      <trkpt lat="45.32516" lon="6.21992">
        <ele>1714.4000244141</ele>
        <time>2012-02-12T17:00:04.000Z</time>
      </trkpt>
      <trkpt lat="45.32508" lon="6.22032">
        <ele>1712.8000488281</ele>
        <time>2012-02-12T17:00:12.000Z</time>
      </trkpt>
      <trkpt lat="45.32502" lon="6.22061">
        <ele>1710.8000488281</ele>
        <time>2012-02-12T17:00:19.000Z</time>
      </trkpt>
      <trkpt lat="45.32497" lon="6.22082">
        <ele>1712</ele>
        <time>2012-02-12T17:00:27.000Z</time>
      </trkpt>
      <trkpt lat="45.32494" lon="6.22094">
        <ele>1711.4000244141</ele>
        <time>2012-02-12T17:00:33.000Z</time>
      </trkpt>
      <trkpt lat="45.32494" lon="6.22098">
        <ele>1711.1999511719</ele>
        <time>2012-02-12T17:00:37.000Z</time>
      </trkpt>
      <trkpt lat="45.3249" lon="6.22119">
        <ele>1709.5999755859</ele>
        <time>2012-02-12T17:00:42.000Z</time>
      </trkpt>
      <trkpt lat="45.3249" lon="6.22125">
        <ele>1708.8000488281</ele>
        <time>2012-02-12T17:00:43.000Z</time>
      </trkpt>
      <trkpt lat="45.32493" lon="6.22137">
        <ele>1706</ele>
        <time>2012-02-12T17:00:47.000Z</time>
      </trkpt>
      <trkpt lat="45.32493" lon="6.22142">
        <ele>1705.1999511719</ele>
        <time>2012-02-12T17:00:49.000Z</time>
      </trkpt>
      <trkpt lat="45.32491" lon="6.22174">
        <ele>1699.8000488281</ele>
        <time>2012-02-12T17:00:55.000Z</time>
      </trkpt>
      <trkpt lat="45.32492" lon="6.22185">
        <ele>1697.5999755859</ele>
        <time>2012-02-12T17:00:57.000Z</time>
      </trkpt>
      <trkpt lat="45.32492" lon="6.22197">
        <ele>1696</ele>
        <time>2012-02-12T17:00:59.000Z</time>
      </trkpt>
      <trkpt lat="45.32493" lon="6.22207">
        <ele>1694.8000488281</ele>
        <time>2012-02-12T17:01:01.000Z</time>
      </trkpt>
      <trkpt lat="45.32491" lon="6.22234">
        <ele>1690.1999511719</ele>
        <time>2012-02-12T17:01:05.000Z</time>
      </trkpt>
      <trkpt lat="45.32488" lon="6.22249">
        <ele>1688.5999755859</ele>
        <time>2012-02-12T17:01:08.000Z</time>
      </trkpt>
      <trkpt lat="45.32484" lon="6.22263">
        <ele>1688.4000244141</ele>
        <time>2012-02-12T17:01:11.000Z</time>
      </trkpt>
      <trkpt lat="45.3248" lon="6.22279">
        <ele>1683.4000244141</ele>
        <time>2012-02-12T17:01:14.000Z</time>
      </trkpt>
      <trkpt lat="45.32481" lon="6.2228">
        <ele>1681.1999511719</ele>
        <time>2012-02-12T17:01:17.000Z</time>
      </trkpt>
      <trkpt lat="45.32482" lon="6.22282">
        <ele>1681</ele>
        <time>2012-02-12T17:01:27.000Z</time>
      </trkpt>
      <trkpt lat="45.32483" lon="6.22286">
        <ele>1680.5999755859</ele>
        <time>2012-02-12T17:01:34.000Z</time>
      </trkpt>
      <trkpt lat="45.32482" lon="6.22285">
        <ele>1681.8000488281</ele>
        <time>2012-02-12T17:03:02.000Z</time>
      </trkpt>
      <trkpt lat="45.32479" lon="6.22302">
        <ele>1680.8000488281</ele>
        <time>2012-02-12T17:03:07.000Z</time>
      </trkpt>
      <trkpt lat="45.32481" lon="6.22317">
        <ele>1679.5999755859</ele>
        <time>2012-02-12T17:03:09.000Z</time>
      </trkpt>
      <trkpt lat="45.3248" lon="6.22336">
        <ele>1676.8000488281</ele>
        <time>2012-02-12T17:03:13.000Z</time>
      </trkpt>
      <trkpt lat="45.32474" lon="6.22336">
        <ele>1674.8000488281</ele>
        <time>2012-02-12T17:03:16.000Z</time>
      </trkpt>
      <trkpt lat="45.32472" lon="6.22336">
        <ele>1674.4000244141</ele>
        <time>2012-02-12T17:03:17.000Z</time>
      </trkpt>
      <trkpt lat="45.3246" lon="6.22335">
        <ele>1672.8000488281</ele>
        <time>2012-02-12T17:03:22.000Z</time>
      </trkpt>
      <trkpt lat="45.32454" lon="6.22341">
        <ele>1672</ele>
        <time>2012-02-12T17:03:27.000Z</time>
      </trkpt>
      <trkpt lat="45.32454" lon="6.22358">
        <ele>1669.4000244141</ele>
        <time>2012-02-12T17:03:31.000Z</time>
      </trkpt>
      <trkpt lat="45.32452" lon="6.22379">
        <ele>1667.5999755859</ele>
        <time>2012-02-12T17:03:34.000Z</time>
      </trkpt>
      <trkpt lat="45.32447" lon="6.22389">
        <ele>1663.4000244141</ele>
        <time>2012-02-12T17:03:36.000Z</time>
      </trkpt>
      <trkpt lat="45.32439" lon="6.22398">
        <ele>1659.1999511719</ele>
        <time>2012-02-12T17:03:39.000Z</time>
      </trkpt>
      <trkpt lat="45.32439" lon="6.22399">
        <ele>1659.1999511719</ele>
        <time>2012-02-12T17:03:40.000Z</time>
      </trkpt>
      <trkpt lat="45.32434" lon="6.22414">
        <ele>1656.8000488281</ele>
        <time>2012-02-12T17:03:44.000Z</time>
      </trkpt>
      <trkpt lat="45.3243" lon="6.22421">
        <ele>1654.4000244141</ele>
        <time>2012-02-12T17:03:46.000Z</time>
      </trkpt>
      <trkpt lat="45.3243" lon="6.22425">
        <ele>1653.4000244141</ele>
        <time>2012-02-12T17:03:48.000Z</time>
      </trkpt>
      <trkpt lat="45.32432" lon="6.22411">
        <ele>1653.1999511719</ele>
        <time>2012-02-12T17:03:57.000Z</time>
      </trkpt>
      <trkpt lat="45.3243" lon="6.22417">
        <ele>1653.1999511719</ele>
        <time>2012-02-12T17:04:06.000Z</time>
      </trkpt>
      <trkpt lat="45.32427" lon="6.22433">
        <ele>1653.5999755859</ele>
        <time>2012-02-12T17:04:11.000Z</time>
      </trkpt>
      <trkpt lat="45.32429" lon="6.22442">
        <ele>1653.8000488281</ele>
        <time>2012-02-12T17:04:14.000Z</time>
      </trkpt>
      <trkpt lat="45.32429" lon="6.22453">
        <ele>1649.4000244141</ele>
        <time>2012-02-12T17:04:17.000Z</time>
      </trkpt>
      <trkpt lat="45.32429" lon="6.2246">
        <ele>1644</ele>
        <time>2012-02-12T17:04:20.000Z</time>
      </trkpt>
      <trkpt lat="45.32419" lon="6.22469">
        <ele>1640.8000488281</ele>
        <time>2012-02-12T17:04:24.000Z</time>
      </trkpt>
      <trkpt lat="45.32409" lon="6.22482">
        <ele>1639</ele>
        <time>2012-02-12T17:04:28.000Z</time>
      </trkpt>
      <trkpt lat="45.3241" lon="6.22484">
        <ele>1638.1999511719</ele>
        <time>2012-02-12T17:04:33.000Z</time>
      </trkpt>
      <trkpt lat="45.3241" lon="6.22491">
        <ele>1638.4000244141</ele>
        <time>2012-02-12T17:04:40.000Z</time>
      </trkpt>
      <trkpt lat="45.32414" lon="6.22503">
        <ele>1636.4000244141</ele>
        <time>2012-02-12T17:04:44.000Z</time>
      </trkpt>
      <trkpt lat="45.32418" lon="6.22512">
        <ele>1633.1999511719</ele>
        <time>2012-02-12T17:04:47.000Z</time>
      </trkpt>
      <trkpt lat="45.32422" lon="6.22516">
        <ele>1633</ele>
        <time>2012-02-12T17:04:48.000Z</time>
      </trkpt>
      <trkpt lat="45.32423" lon="6.22525">
        <ele>1632.5999755859</ele>
        <time>2012-02-12T17:04:50.000Z</time>
      </trkpt>
      <trkpt lat="45.32424" lon="6.22523">
        <ele>1627.4000244141</ele>
        <time>2012-02-12T17:04:57.000Z</time>
      </trkpt>
      <trkpt lat="45.32426" lon="6.22526">
        <ele>1627.5999755859</ele>
        <time>2012-02-12T17:05:06.000Z</time>
      </trkpt>
      <trkpt lat="45.32417" lon="6.22536">
        <ele>1624.1999511719</ele>
        <time>2012-02-12T17:05:11.000Z</time>
      </trkpt>
      <trkpt lat="45.32414" lon="6.22543">
        <ele>1623.4000244141</ele>
        <time>2012-02-12T17:05:13.000Z</time>
      </trkpt>
      <trkpt lat="45.32414" lon="6.2256">
        <ele>1622.8000488281</ele>
        <time>2012-02-12T17:05:17.000Z</time>
      </trkpt>
      <trkpt lat="45.32411" lon="6.22572">
        <ele>1619.1999511719</ele>
        <time>2012-02-12T17:05:20.000Z</time>
      </trkpt>
      <trkpt lat="45.32412" lon="6.22578">
        <ele>1614</ele>
        <time>2012-02-12T17:05:24.000Z</time>
      </trkpt>
      <trkpt lat="45.32414" lon="6.2258">
        <ele>1613</ele>
        <time>2012-02-12T17:05:25.000Z</time>
      </trkpt>
      <trkpt lat="45.32419" lon="6.2259">
        <ele>1610.1999511719</ele>
        <time>2012-02-12T17:05:29.000Z</time>
      </trkpt>
      <trkpt lat="45.32418" lon="6.22588">
        <ele>1608.1999511719</ele>
        <time>2012-02-12T17:05:31.000Z</time>
      </trkpt>
      <trkpt lat="45.32416" lon="6.22591">
        <ele>1608.1999511719</ele>
        <time>2012-02-12T17:05:43.000Z</time>
      </trkpt>
      <trkpt lat="45.32408" lon="6.22598">
        <ele>1607.4000244141</ele>
        <time>2012-02-12T17:05:50.000Z</time>
      </trkpt>
      <trkpt lat="45.324" lon="6.22609">
        <ele>1606.1999511719</ele>
        <time>2012-02-12T17:05:53.000Z</time>
      </trkpt>
      <trkpt lat="45.32395" lon="6.22619">
        <ele>1605</ele>
        <time>2012-02-12T17:05:55.000Z</time>
      </trkpt>
      <trkpt lat="45.32382" lon="6.22629">
        <ele>1603.4000244141</ele>
        <time>2012-02-12T17:05:58.000Z</time>
      </trkpt>
      <trkpt lat="45.3237" lon="6.22637">
        <ele>1601.4000244141</ele>
        <time>2012-02-12T17:06:02.000Z</time>
      </trkpt>
      <trkpt lat="45.32361" lon="6.22643">
        <ele>1600</ele>
        <time>2012-02-12T17:06:05.000Z</time>
      </trkpt>
      <trkpt lat="45.32353" lon="6.22659">
        <ele>1596.5999755859</ele>
        <time>2012-02-12T17:06:09.000Z</time>
      </trkpt>
      <trkpt lat="45.32352" lon="6.22663">
        <ele>1595.8000488281</ele>
        <time>2012-02-12T17:06:10.000Z</time>
      </trkpt>
      <trkpt lat="45.3235" lon="6.22668">
        <ele>1594.8000488281</ele>
        <time>2012-02-12T17:06:12.000Z</time>
      </trkpt>
      <trkpt lat="45.3235" lon="6.2267">
        <ele>1594.5999755859</ele>
        <time>2012-02-12T17:06:17.000Z</time>
      </trkpt>
      <trkpt lat="45.32349" lon="6.22668">
        <ele>1594.5999755859</ele>
        <time>2012-02-12T17:06:34.000Z</time>
      </trkpt>
      <trkpt lat="45.32348" lon="6.22679">
        <ele>1593.4000244141</ele>
        <time>2012-02-12T17:06:40.000Z</time>
      </trkpt>
      <trkpt lat="45.32347" lon="6.22686">
        <ele>1593.8000488281</ele>
        <time>2012-02-12T17:06:45.000Z</time>
      </trkpt>
      <trkpt lat="45.32351" lon="6.22699">
        <ele>1592</ele>
        <time>2012-02-12T17:06:50.000Z</time>
      </trkpt>
      <trkpt lat="45.32357" lon="6.22712">
        <ele>1589.5999755859</ele>
        <time>2012-02-12T17:06:53.000Z</time>
      </trkpt>
      <trkpt lat="45.32358" lon="6.22716">
        <ele>1588.4000244141</ele>
        <time>2012-02-12T17:06:56.000Z</time>
      </trkpt>
      <trkpt lat="45.32359" lon="6.22716">
        <ele>1588.4000244141</ele>
        <time>2012-02-12T17:06:57.000Z</time>
      </trkpt>
      <trkpt lat="45.32365" lon="6.22716">
        <ele>1588.4000244141</ele>
        <time>2012-02-12T17:07:01.000Z</time>
      </trkpt>
      <trkpt lat="45.32369" lon="6.22726">
        <ele>1588.4000244141</ele>
        <time>2012-02-12T17:07:06.000Z</time>
      </trkpt>
      <trkpt lat="45.32373" lon="6.22728">
        <ele>1588.5999755859</ele>
        <time>2012-02-12T17:07:10.000Z</time>
      </trkpt>
      <trkpt lat="45.32377" lon="6.2272">
        <ele>1583.8000488281</ele>
        <time>2012-02-12T17:07:12.000Z</time>
      </trkpt>
      <trkpt lat="45.3238" lon="6.22711">
        <ele>1569</ele>
        <time>2012-02-12T17:07:15.000Z</time>
      </trkpt>
      <trkpt lat="45.32382" lon="6.22711">
        <ele>1565</ele>
        <time>2012-02-12T17:07:17.000Z</time>
      </trkpt>
      <trkpt lat="45.32384" lon="6.22722">
        <ele>1562.5999755859</ele>
        <time>2012-02-12T17:07:22.000Z</time>
      </trkpt>
      <trkpt lat="45.32383" lon="6.22727">
        <ele>1563.5999755859</ele>
        <time>2012-02-12T17:07:25.000Z</time>
      </trkpt>
      <trkpt lat="45.32385" lon="6.22752">
        <ele>1560.4000244141</ele>
        <time>2012-02-12T17:07:30.000Z</time>
      </trkpt>
      <trkpt lat="45.32384" lon="6.22761">
        <ele>1557.4000244141</ele>
        <time>2012-02-12T17:07:33.000Z</time>
      </trkpt>
      <trkpt lat="45.32385" lon="6.22763">
        <ele>1557.1999511719</ele>
        <time>2012-02-12T17:07:34.000Z</time>
      </trkpt>
      <trkpt lat="45.32386" lon="6.22776">
        <ele>1556.8000488281</ele>
        <time>2012-02-12T17:07:37.000Z</time>
      </trkpt>
      <trkpt lat="45.32391" lon="6.22778">
        <ele>1553.1999511719</ele>
        <time>2012-02-12T17:07:40.000Z</time>
      </trkpt>
      <trkpt lat="45.32394" lon="6.22783">
        <ele>1551.8000488281</ele>
        <time>2012-02-12T17:07:42.000Z</time>
      </trkpt>
      <trkpt lat="45.32395" lon="6.22783">
        <ele>1551.4000244141</ele>
        <time>2012-02-12T17:07:43.000Z</time>
      </trkpt>
      <trkpt lat="45.32404" lon="6.22787">
        <ele>1545.1999511719</ele>
        <time>2012-02-12T17:07:48.000Z</time>
      </trkpt>
      <trkpt lat="45.32404" lon="6.22789">
        <ele>1543.8000488281</ele>
        <time>2012-02-12T17:07:50.000Z</time>
      </trkpt>
      <trkpt lat="45.32406" lon="6.228">
        <ele>1543.8000488281</ele>
        <time>2012-02-12T17:07:58.000Z</time>
      </trkpt>
      <trkpt lat="45.32409" lon="6.22818">
        <ele>1541.8000488281</ele>
        <time>2012-02-12T17:08:04.000Z</time>
      </trkpt>
      <trkpt lat="45.32412" lon="6.22829">
        <ele>1540.1999511719</ele>
        <time>2012-02-12T17:08:07.000Z</time>
      </trkpt>
      <trkpt lat="45.32418" lon="6.22842">
        <ele>1540.1999511719</ele>
        <time>2012-02-12T17:08:10.000Z</time>
      </trkpt>
      <trkpt lat="45.3243" lon="6.22845">
        <ele>1540.1999511719</ele>
        <time>2012-02-12T17:08:14.000Z</time>
      </trkpt>
      <trkpt lat="45.32434" lon="6.22849">
        <ele>1540.4000244141</ele>
        <time>2012-02-12T17:08:15.000Z</time>
      </trkpt>
      <trkpt lat="45.32434" lon="6.22858">
        <ele>1535.8000488281</ele>
        <time>2012-02-12T17:08:19.000Z</time>
      </trkpt>
      <trkpt lat="45.32434" lon="6.22861">
        <ele>1529.4000244141</ele>
        <time>2012-02-12T17:08:21.000Z</time>
      </trkpt>
      <trkpt lat="45.32437" lon="6.22842">
        <ele>1525.4000244141</ele>
        <time>2012-02-12T17:08:28.000Z</time>
      </trkpt>
      <trkpt lat="45.32439" lon="6.22839">
        <ele>1525.4000244141</ele>
        <time>2012-02-12T17:08:32.000Z</time>
      </trkpt>
      <trkpt lat="45.32441" lon="6.22838">
        <ele>1525.4000244141</ele>
        <time>2012-02-12T17:08:39.000Z</time>
      </trkpt>
      <trkpt lat="45.32444" lon="6.22835">
        <ele>1526.5999755859</ele>
        <time>2012-02-12T17:09:20.000Z</time>
      </trkpt>
      <trkpt lat="45.32445" lon="6.22836">
        <ele>1526</ele>
        <time>2012-02-12T17:09:27.000Z</time>
      </trkpt>
      <trkpt lat="45.32444" lon="6.22846">
        <ele>1526.8000488281</ele>
        <time>2012-02-12T17:10:22.000Z</time>
      </trkpt>
      <trkpt lat="45.32444" lon="6.22854">
        <ele>1526</ele>
        <time>2012-02-12T17:10:28.000Z</time>
      </trkpt>
      <trkpt lat="45.32445" lon="6.22854">
        <ele>1525.8000488281</ele>
        <time>2012-02-12T17:10:44.000Z</time>
      </trkpt>
      <trkpt lat="45.32448" lon="6.22866">
        <ele>1525.4000244141</ele>
        <time>2012-02-12T17:10:48.000Z</time>
      </trkpt>
      <trkpt lat="45.32446" lon="6.22897">
        <ele>1523.4000244141</ele>
        <time>2012-02-12T17:10:53.000Z</time>
      </trkpt>
      <trkpt lat="45.3245" lon="6.22929">
        <ele>1519.1999511719</ele>
        <time>2012-02-12T17:10:59.000Z</time>
      </trkpt>
      <trkpt lat="45.32451" lon="6.22935">
        <ele>1518.4000244141</ele>
        <time>2012-02-12T17:11:00.000Z</time>
      </trkpt>
      <trkpt lat="45.32454" lon="6.22971">
        <ele>1516.8000488281</ele>
        <time>2012-02-12T17:11:04.000Z</time>
      </trkpt>
      <trkpt lat="45.32455" lon="6.22978">
        <ele>1515.1999511719</ele>
        <time>2012-02-12T17:11:05.000Z</time>
      </trkpt>
      <trkpt lat="45.32457" lon="6.23007">
        <ele>1512</ele>
        <time>2012-02-12T17:11:09.000Z</time>
      </trkpt>
      <trkpt lat="45.3246" lon="6.23036">
        <ele>1508.4000244141</ele>
        <time>2012-02-12T17:11:14.000Z</time>
      </trkpt>
      <trkpt lat="45.32471" lon="6.2301">
        <ele>1504</ele>
        <time>2012-02-12T17:11:18.000Z</time>
      </trkpt>
      <trkpt lat="45.32473" lon="6.23003">
        <ele>1503.8000488281</ele>
        <time>2012-02-12T17:11:19.000Z</time>
      </trkpt>
      <trkpt lat="45.32483" lon="6.22997">
        <ele>1502.1999511719</ele>
        <time>2012-02-12T17:11:22.000Z</time>
      </trkpt>
      <trkpt lat="45.32486" lon="6.23001">
        <ele>1501.8000488281</ele>
        <time>2012-02-12T17:11:25.000Z</time>
      </trkpt>
      <trkpt lat="45.32486" lon="6.23005">
        <ele>1502</ele>
        <time>2012-02-12T17:11:27.000Z</time>
      </trkpt>
      <trkpt lat="45.3249" lon="6.23016">
        <ele>1501.4000244141</ele>
        <time>2012-02-12T17:11:31.000Z</time>
      </trkpt>
      <trkpt lat="45.32503" lon="6.23035">
        <ele>1499.5999755859</ele>
        <time>2012-02-12T17:11:37.000Z</time>
      </trkpt>
      <trkpt lat="45.32513" lon="6.23061">
        <ele>1497</ele>
        <time>2012-02-12T17:11:41.000Z</time>
      </trkpt>
      <trkpt lat="45.32517" lon="6.23078">
        <ele>1495.5999755859</ele>
        <time>2012-02-12T17:11:43.000Z</time>
      </trkpt>
      <trkpt lat="45.3253" lon="6.23122">
        <ele>1490.5999755859</ele>
        <time>2012-02-12T17:11:48.000Z</time>
      </trkpt>
      <trkpt lat="45.32536" lon="6.23137">
        <ele>1488.8000488281</ele>
        <time>2012-02-12T17:11:50.000Z</time>
      </trkpt>
      <trkpt lat="45.32546" lon="6.2316">
        <ele>1486.1999511719</ele>
        <time>2012-02-12T17:11:54.000Z</time>
      </trkpt>
      <trkpt lat="45.3255" lon="6.23173">
        <ele>1485.1999511719</ele>
        <time>2012-02-12T17:11:56.000Z</time>
      </trkpt>
      <trkpt lat="45.32552" lon="6.23183">
        <ele>1483.4000244141</ele>
        <time>2012-02-12T17:11:59.000Z</time>
      </trkpt>
      <trkpt lat="45.32553" lon="6.23179">
        <ele>1482.1999511719</ele>
        <time>2012-02-12T17:12:01.000Z</time>
      </trkpt>
      <trkpt lat="45.32562" lon="6.2318">
        <ele>1482.4000244141</ele>
        <time>2012-02-12T17:12:48.000Z</time>
      </trkpt>
      <trkpt lat="45.32566" lon="6.23191">
        <ele>1480.8000488281</ele>
        <time>2012-02-12T17:12:53.000Z</time>
      </trkpt>
      <trkpt lat="45.32563" lon="6.23208">
        <ele>1478.5999755859</ele>
        <time>2012-02-12T17:13:03.000Z</time>
      </trkpt>
      <trkpt lat="45.32564" lon="6.23235">
        <ele>1473.8000488281</ele>
        <time>2012-02-12T17:13:08.000Z</time>
      </trkpt>
      <trkpt lat="45.32565" lon="6.23242">
        <ele>1472.5999755859</ele>
        <time>2012-02-12T17:13:09.000Z</time>
      </trkpt>
      <trkpt lat="45.3257" lon="6.23258">
        <ele>1469.8000488281</ele>
        <time>2012-02-12T17:13:12.000Z</time>
      </trkpt>
      <trkpt lat="45.32573" lon="6.2327">
        <ele>1468.5999755859</ele>
        <time>2012-02-12T17:13:14.000Z</time>
      </trkpt>
      <trkpt lat="45.32574" lon="6.23279">
        <ele>1468.8000488281</ele>
        <time>2012-02-12T17:13:17.000Z</time>
      </trkpt>
      <trkpt lat="45.32568" lon="6.23276">
        <ele>1467.8000488281</ele>
        <time>2012-02-12T17:13:56.000Z</time>
      </trkpt>
      <trkpt lat="45.32563" lon="6.23288">
        <ele>1465.5999755859</ele>
        <time>2012-02-12T17:14:00.000Z</time>
      </trkpt>
      <trkpt lat="45.32563" lon="6.23294">
        <ele>1465.1999511719</ele>
        <time>2012-02-12T17:14:01.000Z</time>
      </trkpt>
      <trkpt lat="45.32562" lon="6.23311">
        <ele>1461.8000488281</ele>
        <time>2012-02-12T17:14:05.000Z</time>
      </trkpt>
      <trkpt lat="45.32561" lon="6.23313">
        <ele>1461.5999755859</ele>
        <time>2012-02-12T17:14:06.000Z</time>
      </trkpt>
      <trkpt lat="45.32561" lon="6.23314">
        <ele>1461.1999511719</ele>
        <time>2012-02-12T17:14:08.000Z</time>
      </trkpt>
      <trkpt lat="45.32558" lon="6.23317">
        <ele>1458.5999755859</ele>
        <time>2012-02-12T17:14:12.000Z</time>
      </trkpt>
      <trkpt lat="45.32558" lon="6.2332">
        <ele>1457.4000244141</ele>
        <time>2012-02-12T17:14:14.000Z</time>
      </trkpt>
      <trkpt lat="45.32558" lon="6.23321">
        <ele>1457</ele>
        <time>2012-02-12T17:14:16.000Z</time>
      </trkpt>
      <trkpt lat="45.32556" lon="6.23333">
        <ele>1455.8000488281</ele>
        <time>2012-02-12T17:14:20.000Z</time>
      </trkpt>
      <trkpt lat="45.32553" lon="6.23336">
        <ele>1451</ele>
        <time>2012-02-12T17:14:23.000Z</time>
      </trkpt>
      <trkpt lat="45.32552" lon="6.2334">
        <ele>1449.5999755859</ele>
        <time>2012-02-12T17:14:25.000Z</time>
      </trkpt>
      <trkpt lat="45.32551" lon="6.2334">
        <ele>1449.5999755859</ele>
        <time>2012-02-12T17:14:30.000Z</time>
      </trkpt>
      <trkpt lat="45.32547" lon="6.2334">
        <ele>1451.8000488281</ele>
        <time>2012-02-12T17:14:35.000Z</time>
      </trkpt>
      <trkpt lat="45.32546" lon="6.23341">
        <ele>1451.5999755859</ele>
        <time>2012-02-12T17:14:37.000Z</time>
      </trkpt>
      <trkpt lat="45.32547" lon="6.23356">
        <ele>1447.1999511719</ele>
        <time>2012-02-12T17:14:42.000Z</time>
      </trkpt>
      <trkpt lat="45.32547" lon="6.23358">
        <ele>1447</ele>
        <time>2012-02-12T17:14:43.000Z</time>
      </trkpt>
      <trkpt lat="45.32545" lon="6.2337">
        <ele>1445</ele>
        <time>2012-02-12T17:14:48.000Z</time>
      </trkpt>
      <trkpt lat="45.32546" lon="6.23389">
        <ele>1441.1999511719</ele>
        <time>2012-02-12T17:14:53.000Z</time>
      </trkpt>
      <trkpt lat="45.3255" lon="6.23415">
        <ele>1436.1999511719</ele>
        <time>2012-02-12T17:14:58.000Z</time>
      </trkpt>
      <trkpt lat="45.32543" lon="6.2343">
        <ele>1433.5999755859</ele>
        <time>2012-02-12T17:15:03.000Z</time>
      </trkpt>
      <trkpt lat="45.32546" lon="6.23446">
        <ele>1430.5999755859</ele>
        <time>2012-02-12T17:15:06.000Z</time>
      </trkpt>
      <trkpt lat="45.32549" lon="6.23456">
        <ele>1429.4000244141</ele>
        <time>2012-02-12T17:15:08.000Z</time>
      </trkpt>
      <trkpt lat="45.32549" lon="6.23464">
        <ele>1428.5999755859</ele>
        <time>2012-02-12T17:15:10.000Z</time>
      </trkpt>
      <trkpt lat="45.32543" lon="6.23477">
        <ele>1425.8000488281</ele>
        <time>2012-02-12T17:15:14.000Z</time>
      </trkpt>
      <trkpt lat="45.32536" lon="6.23481">
        <ele>1424.1999511719</ele>
        <time>2012-02-12T17:15:16.000Z</time>
      </trkpt>
      <trkpt lat="45.32533" lon="6.2348">
        <ele>1423.4000244141</ele>
        <time>2012-02-12T17:15:17.000Z</time>
      </trkpt>
      <trkpt lat="45.32522" lon="6.23468">
        <ele>1419.4000244141</ele>
        <time>2012-02-12T17:15:21.000Z</time>
      </trkpt>
      <trkpt lat="45.32526" lon="6.23471">
        <ele>1416.1999511719</ele>
        <time>2012-02-12T17:15:24.000Z</time>
      </trkpt>
      <trkpt lat="45.32525" lon="6.23473">
        <ele>1416</ele>
        <time>2012-02-12T17:15:26.000Z</time>
      </trkpt>
      <trkpt lat="45.32528" lon="6.23475">
        <ele>1415</ele>
        <time>2012-02-12T17:15:32.000Z</time>
      </trkpt>
      <trkpt lat="45.32522" lon="6.23482">
        <ele>1415.5999755859</ele>
        <time>2012-02-12T17:16:40.000Z</time>
      </trkpt>
      <trkpt lat="45.32519" lon="6.23489">
        <ele>1413.5999755859</ele>
        <time>2012-02-12T17:16:45.000Z</time>
      </trkpt>
      <trkpt lat="45.32518" lon="6.235">
        <ele>1410</ele>
        <time>2012-02-12T17:16:49.000Z</time>
      </trkpt>
      <trkpt lat="45.32518" lon="6.23504">
        <ele>1409.8000488281</ele>
        <time>2012-02-12T17:16:50.000Z</time>
      </trkpt>
      <trkpt lat="45.32518" lon="6.23512">
        <ele>1407.5999755859</ele>
        <time>2012-02-12T17:16:52.000Z</time>
      </trkpt>
      <trkpt lat="45.32517" lon="6.23521">
        <ele>1406.1999511719</ele>
        <time>2012-02-12T17:16:54.000Z</time>
      </trkpt>
      <trkpt lat="45.32514" lon="6.23537">
        <ele>1405.1999511719</ele>
        <time>2012-02-12T17:16:58.000Z</time>
      </trkpt>
      <trkpt lat="45.32512" lon="6.23545">
        <ele>1404.1999511719</ele>
        <time>2012-02-12T17:17:00.000Z</time>
      </trkpt>
      <trkpt lat="45.32505" lon="6.23559">
        <ele>1406</ele>
        <time>2012-02-12T17:17:05.000Z</time>
      </trkpt>
      <trkpt lat="45.325" lon="6.23571">
        <ele>1399.5999755859</ele>
        <time>2012-02-12T17:17:09.000Z</time>
      </trkpt>
      <trkpt lat="45.32501" lon="6.23575">
        <ele>1391.4000244141</ele>
        <time>2012-02-12T17:17:13.000Z</time>
      </trkpt>
      <trkpt lat="45.32501" lon="6.23578">
        <ele>1391.4000244141</ele>
        <time>2012-02-12T17:17:15.000Z</time>
      </trkpt>
      <trkpt lat="45.32499" lon="6.23582">
        <ele>1390</ele>
        <time>2012-02-12T17:17:20.000Z</time>
      </trkpt>
      <trkpt lat="45.32494" lon="6.23589">
        <ele>1388.1999511719</ele>
        <time>2012-02-12T17:17:34.000Z</time>
      </trkpt>
      <trkpt lat="45.32493" lon="6.23591">
        <ele>1387.4000244141</ele>
        <time>2012-02-12T17:17:36.000Z</time>
      </trkpt>
      <trkpt lat="45.32491" lon="6.23592">
        <ele>1387</ele>
        <time>2012-02-12T17:17:37.000Z</time>
      </trkpt>
      <trkpt lat="45.32485" lon="6.23614">
        <ele>1382.5999755859</ele>
        <time>2012-02-12T17:17:42.000Z</time>
      </trkpt>
      <trkpt lat="45.32484" lon="6.23644">
        <ele>1380</ele>
        <time>2012-02-12T17:17:46.000Z</time>
      </trkpt>
      <trkpt lat="45.32481" lon="6.23655">
        <ele>1379</ele>
        <time>2012-02-12T17:17:48.000Z</time>
      </trkpt>
      <trkpt lat="45.32478" lon="6.23663">
        <ele>1377.5999755859</ele>
        <time>2012-02-12T17:17:50.000Z</time>
      </trkpt>
      <trkpt lat="45.32476" lon="6.23662">
        <ele>1376.1999511719</ele>
        <time>2012-02-12T17:17:55.000Z</time>
      </trkpt>
      <trkpt lat="45.32471" lon="6.2365">
        <ele>1377.5999755859</ele>
        <time>2012-02-12T17:18:45.000Z</time>
      </trkpt>
      <trkpt lat="45.32466" lon="6.23662">
        <ele>1375.4000244141</ele>
        <time>2012-02-12T17:18:51.000Z</time>
      </trkpt>
      <trkpt lat="45.32465" lon="6.23669">
        <ele>1374.4000244141</ele>
        <time>2012-02-12T17:18:55.000Z</time>
      </trkpt>
      <trkpt lat="45.32465" lon="6.2367">
        <ele>1373.4000244141</ele>
        <time>2012-02-12T17:18:56.000Z</time>
      </trkpt>
      <trkpt lat="45.32459" lon="6.23662">
        <ele>1368</ele>
        <time>2012-02-12T17:19:00.000Z</time>
      </trkpt>
      <trkpt lat="45.32454" lon="6.23667">
        <ele>1363.4000244141</ele>
        <time>2012-02-12T17:19:03.000Z</time>
      </trkpt>
      <trkpt lat="45.32453" lon="6.23673">
        <ele>1363.4000244141</ele>
        <time>2012-02-12T17:19:06.000Z</time>
      </trkpt>
      <trkpt lat="45.32446" lon="6.23666">
        <ele>1360.8000488281</ele>
        <time>2012-02-12T17:19:11.000Z</time>
      </trkpt>
      <trkpt lat="45.32434" lon="6.23666">
        <ele>1362.1999511719</ele>
        <time>2012-02-12T17:19:17.000Z</time>
      </trkpt>
      <trkpt lat="45.32435" lon="6.23672">
        <ele>1353.5999755859</ele>
        <time>2012-02-12T17:19:21.000Z</time>
      </trkpt>
      <trkpt lat="45.32408" lon="6.23667">
        <ele>1353</ele>
        <time>2012-02-12T17:20:11.000Z</time>
      </trkpt>
      <trkpt lat="45.32408" lon="6.23664">
        <ele>1352.1999511719</ele>
        <time>2012-02-12T17:20:16.000Z</time>
      </trkpt>
      <trkpt lat="45.32411" lon="6.23666">
        <ele>1352</ele>
        <time>2012-02-12T17:20:18.000Z</time>
      </trkpt>
      <trkpt lat="45.32407" lon="6.2368">
        <ele>1349.4000244141</ele>
        <time>2012-02-12T17:20:23.000Z</time>
      </trkpt>
      <trkpt lat="45.32408" lon="6.23686">
        <ele>1347.1999511719</ele>
        <time>2012-02-12T17:20:27.000Z</time>
      </trkpt>
      <trkpt lat="45.32407" lon="6.23688">
        <ele>1347.5999755859</ele>
        <time>2012-02-12T17:20:29.000Z</time>
      </trkpt>
      <trkpt lat="45.32404" lon="6.23695">
        <ele>1345.4000244141</ele>
        <time>2012-02-12T17:20:32.000Z</time>
      </trkpt>
      <trkpt lat="45.32398" lon="6.23707">
        <ele>1342.4000244141</ele>
        <time>2012-02-12T17:20:36.000Z</time>
      </trkpt>
      <trkpt lat="45.32396" lon="6.23717">
        <ele>1340.1999511719</ele>
        <time>2012-02-12T17:20:39.000Z</time>
      </trkpt>
      <trkpt lat="45.32386" lon="6.23726">
        <ele>1335.8000488281</ele>
        <time>2012-02-12T17:20:42.000Z</time>
      </trkpt>
      <trkpt lat="45.32379" lon="6.23742">
        <ele>1332.1999511719</ele>
        <time>2012-02-12T17:20:45.000Z</time>
      </trkpt>
      <trkpt lat="45.32367" lon="6.2376">
        <ele>1327.1999511719</ele>
        <time>2012-02-12T17:20:48.000Z</time>
      </trkpt>
      <trkpt lat="45.32354" lon="6.23766">
        <ele>1324.8000488281</ele>
        <time>2012-02-12T17:20:51.000Z</time>
      </trkpt>
      <trkpt lat="45.32354" lon="6.23767">
        <ele>1324.5999755859</ele>
        <time>2012-02-12T17:20:52.000Z</time>
      </trkpt>
      <trkpt lat="45.32357" lon="6.23764">
        <ele>1324.4000244141</ele>
        <time>2012-02-12T17:20:56.000Z</time>
      </trkpt>
      <trkpt lat="45.32355" lon="6.23764">
        <ele>1324</ele>
        <time>2012-02-12T17:21:00.000Z</time>
      </trkpt>
      <trkpt lat="45.32349" lon="6.23775">
        <ele>1321.5999755859</ele>
        <time>2012-02-12T17:21:05.000Z</time>
      </trkpt>
      <trkpt lat="45.32342" lon="6.23806">
        <ele>1313</ele>
        <time>2012-02-12T17:21:10.000Z</time>
      </trkpt>
      <trkpt lat="45.3234" lon="6.23811">
        <ele>1312.8000488281</ele>
        <time>2012-02-12T17:21:11.000Z</time>
      </trkpt>
      <trkpt lat="45.32337" lon="6.23817">
        <ele>1311.5999755859</ele>
        <time>2012-02-12T17:21:13.000Z</time>
      </trkpt>
      <trkpt lat="45.32328" lon="6.23821">
        <ele>1309</ele>
        <time>2012-02-12T17:21:15.000Z</time>
      </trkpt>
      <trkpt lat="45.32309" lon="6.2384">
        <ele>1304.5999755859</ele>
        <time>2012-02-12T17:21:19.000Z</time>
      </trkpt>
      <trkpt lat="45.32292" lon="6.23857">
        <ele>1299.5999755859</ele>
        <time>2012-02-12T17:21:23.000Z</time>
      </trkpt>
      <trkpt lat="45.32279" lon="6.23862">
        <ele>1297.4000244141</ele>
        <time>2012-02-12T17:21:26.000Z</time>
      </trkpt>
      <trkpt lat="45.32262" lon="6.23874">
        <ele>1293.4000244141</ele>
        <time>2012-02-12T17:21:30.000Z</time>
      </trkpt>
      <trkpt lat="45.32241" lon="6.23885">
        <ele>1289.4000244141</ele>
        <time>2012-02-12T17:21:34.000Z</time>
      </trkpt>
      <trkpt lat="45.32232" lon="6.23894">
        <ele>1286.1999511719</ele>
        <time>2012-02-12T17:21:37.000Z</time>
      </trkpt>
      <trkpt lat="45.32232" lon="6.23891">
        <ele>1285</ele>
        <time>2012-02-12T17:21:40.000Z</time>
      </trkpt>
      <trkpt lat="45.32222" lon="6.23882">
        <ele>1287.1999511719</ele>
        <time>2012-02-12T17:23:12.000Z</time>
      </trkpt>
      <trkpt lat="45.32221" lon="6.23891">
        <ele>1284.8000488281</ele>
        <time>2012-02-12T17:23:17.000Z</time>
      </trkpt>
      <trkpt lat="45.32216" lon="6.239">
        <ele>1282.5999755859</ele>
        <time>2012-02-12T17:23:20.000Z</time>
      </trkpt>
      <trkpt lat="45.3221" lon="6.23911">
        <ele>1281.4000244141</ele>
        <time>2012-02-12T17:23:23.000Z</time>
      </trkpt>
      <trkpt lat="45.32203" lon="6.23924">
        <ele>1282</ele>
        <time>2012-02-12T17:23:27.000Z</time>
      </trkpt>
      <trkpt lat="45.32203" lon="6.23924">
        <ele>1280.8000488281</ele>
        <time>2012-02-12T17:23:28.000Z</time>
      </trkpt>
      <trkpt lat="45.32198" lon="6.23929">
        <ele>1271.8000488281</ele>
        <time>2012-02-12T17:23:33.000Z</time>
      </trkpt>
      <trkpt lat="45.32199" lon="6.23934">
        <ele>1271.1999511719</ele>
        <time>2012-02-12T17:23:38.000Z</time>
      </trkpt>
      <trkpt lat="45.32192" lon="6.23941">
        <ele>1267.4000244141</ele>
        <time>2012-02-12T17:23:42.000Z</time>
      </trkpt>
      <trkpt lat="45.32183" lon="6.23953">
        <ele>1263.4000244141</ele>
        <time>2012-02-12T17:23:47.000Z</time>
      </trkpt>
      <trkpt lat="45.32177" lon="6.23959">
        <ele>1261</ele>
        <time>2012-02-12T17:23:49.000Z</time>
      </trkpt>
      <trkpt lat="45.3217" lon="6.23966">
        <ele>1257.4000244141</ele>
        <time>2012-02-12T17:23:51.000Z</time>
      </trkpt>
      <trkpt lat="45.32162" lon="6.23982">
        <ele>1250.4000244141</ele>
        <time>2012-02-12T17:23:55.000Z</time>
      </trkpt>
      <trkpt lat="45.32159" lon="6.23984">
        <ele>1249.5999755859</ele>
        <time>2012-02-12T17:23:57.000Z</time>
      </trkpt>
      <trkpt lat="45.32143" lon="6.23989">
        <ele>1245.5999755859</ele>
        <time>2012-02-12T17:24:01.000Z</time>
      </trkpt>
      <trkpt lat="45.32141" lon="6.2399">
        <ele>1245.1999511719</ele>
        <time>2012-02-12T17:24:02.000Z</time>
      </trkpt>
      <trkpt lat="45.32136" lon="6.23994">
        <ele>1244.8000488281</ele>
        <time>2012-02-12T17:24:04.000Z</time>
      </trkpt>
      <trkpt lat="45.32128" lon="6.24005">
        <ele>1237.5999755859</ele>
        <time>2012-02-12T17:24:08.000Z</time>
      </trkpt>
      <trkpt lat="45.32122" lon="6.24009">
        <ele>1238.5999755859</ele>
        <time>2012-02-12T17:24:27.000Z</time>
      </trkpt>
      <trkpt lat="45.32119" lon="6.24013">
        <ele>1237.8000488281</ele>
        <time>2012-02-12T17:24:30.000Z</time>
      </trkpt>
      <trkpt lat="45.32115" lon="6.24025">
        <ele>1236.1999511719</ele>
        <time>2012-02-12T17:24:34.000Z</time>
      </trkpt>
      <trkpt lat="45.3211" lon="6.24037">
        <ele>1232.5999755859</ele>
        <time>2012-02-12T17:24:38.000Z</time>
      </trkpt>
      <trkpt lat="45.3211" lon="6.2404">
        <ele>1231.1999511719</ele>
        <time>2012-02-12T17:24:40.000Z</time>
      </trkpt>
      <trkpt lat="45.32101" lon="6.24051">
        <ele>1229.8000488281</ele>
        <time>2012-02-12T17:24:45.000Z</time>
      </trkpt>
      <trkpt lat="45.32099" lon="6.24055">
        <ele>1229</ele>
        <time>2012-02-12T17:24:46.000Z</time>
      </trkpt>
      <trkpt lat="45.3209" lon="6.24074">
        <ele>1224.5999755859</ele>
        <time>2012-02-12T17:24:49.000Z</time>
      </trkpt>
      <trkpt lat="45.32074" lon="6.24101">
        <ele>1217.8000488281</ele>
        <time>2012-02-12T17:24:54.000Z</time>
      </trkpt>
      <trkpt lat="45.3207" lon="6.24106">
        <ele>1217.4000244141</ele>
        <time>2012-02-12T17:24:55.000Z</time>
      </trkpt>
      <trkpt lat="45.32053" lon="6.2413">
        <ele>1211.4000244141</ele>
        <time>2012-02-12T17:25:00.000Z</time>
      </trkpt>
      <trkpt lat="45.32051" lon="6.24133">
        <ele>1210.4000244141</ele>
        <time>2012-02-12T17:25:01.000Z</time>
      </trkpt>
      <trkpt lat="45.3205" lon="6.24134">
        <ele>1208.5999755859</ele>
        <time>2012-02-12T17:25:03.000Z</time>
      </trkpt>
      <trkpt lat="45.32046" lon="6.24141">
        <ele>1208</ele>
        <time>2012-02-12T17:25:06.000Z</time>
      </trkpt>
      <trkpt lat="45.32038" lon="6.24157">
        <ele>1204.8000488281</ele>
        <time>2012-02-12T17:25:10.000Z</time>
      </trkpt>
      <trkpt lat="45.32033" lon="6.24165">
        <ele>1203.1999511719</ele>
        <time>2012-02-12T17:25:12.000Z</time>
      </trkpt>
      <trkpt lat="45.32029" lon="6.24172">
        <ele>1204.8000488281</ele>
        <time>2012-02-12T17:25:15.000Z</time>
      </trkpt>
      <trkpt lat="45.32026" lon="6.24174">
        <ele>1198.8000488281</ele>
        <time>2012-02-12T17:25:21.000Z</time>
      </trkpt>
      <trkpt lat="45.32022" lon="6.24181">
        <ele>1194.5999755859</ele>
        <time>2012-02-12T17:25:26.000Z</time>
      </trkpt>
      <trkpt lat="45.32021" lon="6.24185">
        <ele>1194.4000244141</ele>
        <time>2012-02-12T17:25:27.000Z</time>
      </trkpt>
      <trkpt lat="45.32015" lon="6.242">
        <ele>1190.8000488281</ele>
        <time>2012-02-12T17:25:32.000Z</time>
      </trkpt>
      <trkpt lat="45.32013" lon="6.24203">
        <ele>1190</ele>
        <time>2012-02-12T17:25:33.000Z</time>
      </trkpt>
      <trkpt lat="45.3199" lon="6.24242">
        <ele>1183.4000244141</ele>
        <time>2012-02-12T17:25:39.000Z</time>
      </trkpt>
      <trkpt lat="45.31973" lon="6.24265">
        <ele>1179.5999755859</ele>
        <time>2012-02-12T17:25:43.000Z</time>
      </trkpt>
      <trkpt lat="45.3197" lon="6.2427">
        <ele>1181</ele>
        <time>2012-02-12T17:25:47.000Z</time>
      </trkpt>
      <trkpt lat="45.31971" lon="6.24268">
        <ele>1177.1999511719</ele>
        <time>2012-02-12T17:25:51.000Z</time>
      </trkpt>
      <trkpt lat="45.31965" lon="6.2426">
        <ele>1180.5999755859</ele>
        <time>2012-02-12T17:28:00.000Z</time>
      </trkpt>
      <trkpt lat="45.31957" lon="6.24263">
        <ele>1179.4000244141</ele>
        <time>2012-02-12T17:28:05.000Z</time>
      </trkpt>
      <trkpt lat="45.31954" lon="6.24267">
        <ele>1179</ele>
        <time>2012-02-12T17:28:06.000Z</time>
      </trkpt>
      <trkpt lat="45.31946" lon="6.24287">
        <ele>1174.5999755859</ele>
        <time>2012-02-12T17:28:11.000Z</time>
      </trkpt>
      <trkpt lat="45.31936" lon="6.2431">
        <ele>1170.8000488281</ele>
        <time>2012-02-12T17:28:17.000Z</time>
      </trkpt>
      <trkpt lat="45.31923" lon="6.24342">
        <ele>1166</ele>
        <time>2012-02-12T17:28:22.000Z</time>
      </trkpt>
      <trkpt lat="45.31915" lon="6.24375">
        <ele>1162.8000488281</ele>
        <time>2012-02-12T17:28:26.000Z</time>
      </trkpt>
      <trkpt lat="45.31909" lon="6.2439">
        <ele>1159.1999511719</ele>
        <time>2012-02-12T17:28:29.000Z</time>
      </trkpt>
      <trkpt lat="45.31896" lon="6.24408">
        <ele>1152.1999511719</ele>
        <time>2012-02-12T17:28:34.000Z</time>
      </trkpt>
      <trkpt lat="45.31889" lon="6.24413">
        <ele>1151</ele>
        <time>2012-02-12T17:28:36.000Z</time>
      </trkpt>
      <trkpt lat="45.31874" lon="6.24424">
        <ele>1145.1999511719</ele>
        <time>2012-02-12T17:28:40.000Z</time>
      </trkpt>
      <trkpt lat="45.31862" lon="6.24427">
        <ele>1142.4000244141</ele>
        <time>2012-02-12T17:28:43.000Z</time>
      </trkpt>
      <trkpt lat="45.31859" lon="6.24431">
        <ele>1142.4000244141</ele>
        <time>2012-02-12T17:28:45.000Z</time>
      </trkpt>
      <trkpt lat="45.3185" lon="6.24447">
        <ele>1140</ele>
        <time>2012-02-12T17:28:50.000Z</time>
      </trkpt>
      <trkpt lat="45.31841" lon="6.24457">
        <ele>1138</ele>
        <time>2012-02-12T17:28:53.000Z</time>
      </trkpt>
      <trkpt lat="45.31829" lon="6.24485">
        <ele>1127.5999755859</ele>
        <time>2012-02-12T17:28:58.000Z</time>
      </trkpt>
      <trkpt lat="45.31819" lon="6.24512">
        <ele>1124.1999511719</ele>
        <time>2012-02-12T17:29:03.000Z</time>
      </trkpt>
      <trkpt lat="45.31813" lon="6.24529">
        <ele>1118</ele>
        <time>2012-02-12T17:29:08.000Z</time>
      </trkpt>
      <trkpt lat="45.31812" lon="6.24529">
        <ele>1118</ele>
        <time>2012-02-12T17:29:10.000Z</time>
      </trkpt>
      <trkpt lat="45.31807" lon="6.24536">
        <ele>1116.5999755859</ele>
        <time>2012-02-12T17:29:14.000Z</time>
      </trkpt>
      <trkpt lat="45.31802" lon="6.24556">
        <ele>1114</ele>
        <time>2012-02-12T17:29:19.000Z</time>
      </trkpt>
      <trkpt lat="45.31799" lon="6.24563">
        <ele>1112.8000488281</ele>
        <time>2012-02-12T17:29:21.000Z</time>
      </trkpt>
      <trkpt lat="45.31794" lon="6.24584">
        <ele>1109.4000244141</ele>
        <time>2012-02-12T17:29:26.000Z</time>
      </trkpt>
      <trkpt lat="45.31792" lon="6.24599">
        <ele>1107</ele>
        <time>2012-02-12T17:29:29.000Z</time>
      </trkpt>
      <trkpt lat="45.31788" lon="6.24609">
        <ele>1103.4000244141</ele>
        <time>2012-02-12T17:29:35.000Z</time>
      </trkpt>
      <trkpt lat="45.31787" lon="6.2461">
        <ele>1102.8000488281</ele>
        <time>2012-02-12T17:29:42.000Z</time>
      </trkpt>
      <trkpt lat="45.31781" lon="6.24623">
        <ele>1100.1999511719</ele>
        <time>2012-02-12T17:29:47.000Z</time>
      </trkpt>
      <trkpt lat="45.31768" lon="6.24645">
        <ele>1095.8000488281</ele>
        <time>2012-02-12T17:29:52.000Z</time>
      </trkpt>
      <trkpt lat="45.31757" lon="6.24658">
        <ele>1092.8000488281</ele>
        <time>2012-02-12T17:29:56.000Z</time>
      </trkpt>
      <trkpt lat="45.31755" lon="6.24661">
        <ele>1091.4000244141</ele>
        <time>2012-02-12T17:29:57.000Z</time>
      </trkpt>
      <trkpt lat="45.31741" lon="6.24691">
        <ele>1086.5999755859</ele>
        <time>2012-02-12T17:30:02.000Z</time>
      </trkpt>
      <trkpt lat="45.31736" lon="6.24709">
        <ele>1083</ele>
        <time>2012-02-12T17:30:06.000Z</time>
      </trkpt>
      <trkpt lat="45.31732" lon="6.24722">
        <ele>1080</ele>
        <time>2012-02-12T17:30:09.000Z</time>
      </trkpt>
      <trkpt lat="45.31726" lon="6.24739">
        <ele>1076</ele>
        <time>2012-02-12T17:30:13.000Z</time>
      </trkpt>
      <trkpt lat="45.31725" lon="6.2474">
        <ele>1075.1999511719</ele>
        <time>2012-02-12T17:30:15.000Z</time>
      </trkpt>
      <trkpt lat="45.31724" lon="6.24742">
        <ele>1075.1999511719</ele>
        <time>2012-02-12T17:30:17.000Z</time>
      </trkpt>
      <trkpt lat="45.31721" lon="6.2475">
        <ele>1073</ele>
        <time>2012-02-12T17:30:21.000Z</time>
      </trkpt>
      <trkpt lat="45.31714" lon="6.2478">
        <ele>1069.8000488281</ele>
        <time>2012-02-12T17:30:26.000Z</time>
      </trkpt>
      <trkpt lat="45.31709" lon="6.24794">
        <ele>1067.4000244141</ele>
        <time>2012-02-12T17:30:28.000Z</time>
      </trkpt>
      <trkpt lat="45.31701" lon="6.2483">
        <ele>1061</ele>
        <time>2012-02-12T17:30:33.000Z</time>
      </trkpt>
      <trkpt lat="45.31696" lon="6.24856">
        <ele>1055.1999511719</ele>
        <time>2012-02-12T17:30:36.000Z</time>
      </trkpt>
      <trkpt lat="45.31691" lon="6.24881">
        <ele>1051.5999755859</ele>
        <time>2012-02-12T17:30:39.000Z</time>
      </trkpt>
      <trkpt lat="45.31688" lon="6.24891">
        <ele>1049.1999511719</ele>
        <time>2012-02-12T17:30:41.000Z</time>
      </trkpt>
      <trkpt lat="45.31683" lon="6.24921">
        <ele>1045</ele>
        <time>2012-02-12T17:30:45.000Z</time>
      </trkpt>
      <trkpt lat="45.3168" lon="6.24936">
        <ele>1042.8000488281</ele>
        <time>2012-02-12T17:30:48.000Z</time>
      </trkpt>
      <trkpt lat="45.31678" lon="6.24947">
        <ele>1041.4000244141</ele>
        <time>2012-02-12T17:30:50.000Z</time>
      </trkpt>
      <trkpt lat="45.31673" lon="6.24957">
        <ele>1039.8000488281</ele>
        <time>2012-02-12T17:30:52.000Z</time>
      </trkpt>
      <trkpt lat="45.31667" lon="6.24984">
        <ele>1037.5999755859</ele>
        <time>2012-02-12T17:30:56.000Z</time>
      </trkpt>
      <trkpt lat="45.31663" lon="6.25004">
        <ele>1035</ele>
        <time>2012-02-12T17:31:00.000Z</time>
      </trkpt>
      <trkpt lat="45.31658" lon="6.25019">
        <ele>1031.8000488281</ele>
        <time>2012-02-12T17:31:03.000Z</time>
      </trkpt>
      <trkpt lat="45.31653" lon="6.25018">
        <ele>1030</ele>
        <time>2012-02-12T17:31:06.000Z</time>
      </trkpt>
      <trkpt lat="45.31652" lon="6.25017">
        <ele>1029.8000488281</ele>
        <time>2012-02-12T17:31:07.000Z</time>
      </trkpt>
      <trkpt lat="45.31643" lon="6.2502">
        <ele>1028.4000244141</ele>
        <time>2012-02-12T17:31:11.000Z</time>
      </trkpt>
      <trkpt lat="45.31641" lon="6.25023">
        <ele>1027.4000244141</ele>
        <time>2012-02-12T17:31:12.000Z</time>
      </trkpt>
      <trkpt lat="45.31632" lon="6.25061">
        <ele>1022</ele>
        <time>2012-02-12T17:31:18.000Z</time>
      </trkpt>
      <trkpt lat="45.31625" lon="6.25111">
        <ele>1014.799987793</ele>
        <time>2012-02-12T17:31:26.000Z</time>
      </trkpt>
      <trkpt lat="45.31622" lon="6.25117">
        <ele>1013</ele>
        <time>2012-02-12T17:31:28.000Z</time>
      </trkpt>
      <trkpt lat="45.31622" lon="6.25124">
        <ele>1011.799987793</ele>
        <time>2012-02-12T17:31:32.000Z</time>
      </trkpt>
      <trkpt lat="45.31626" lon="6.25131">
        <ele>1014.200012207</ele>
        <time>2012-02-12T17:31:52.000Z</time>
      </trkpt>
      <trkpt lat="45.31624" lon="6.25126">
        <ele>1015</ele>
        <time>2012-02-12T17:31:59.000Z</time>
      </trkpt>
      <trkpt lat="45.31623" lon="6.25125">
        <ele>1013</ele>
        <time>2012-02-12T17:32:12.000Z</time>
      </trkpt>
      <trkpt lat="45.31624" lon="6.25124">
        <ele>1013.200012207</ele>
        <time>2012-02-12T17:32:15.000Z</time>
      </trkpt>
      <trkpt lat="45.31623" lon="6.25122">
        <ele>1013.5999755859</ele>
        <time>2012-02-12T17:32:21.000Z</time>
      </trkpt>
    </trkseg>
  </trk>
</gpx>